<?xml version="1.0" encoding="UTF-8" standalone="no" ?>
<gpx xmlns="http://www.topografix.com/GPX/1/1" xmlns:xsi="http://www.w3.org/2001/XMLSchema-instance" xsi:schemaLocation="http://www.topografix.com/GPX/1/1 http://www.topografix.com/GPX/1/1/gpx.xsd" version="1.1" creator="VisuGPX - https://www.visugpx.com">
  <metadata>
    <name>Bacouel-sur-Selle</name>
    <desc><![CDATA[bugg]]></desc>
  </metadata>
  <trk>
    <name><![CDATA[Bacouel-sur-Selle_1]]></name>
    <trkseg>
      <trkpt lat="49.83505" lon="2.21318">
        <ele>52.7</ele>
        <time>2022-08-17T12:02:32Z</time>
      </trkpt>
      <trkpt lat="49.83504" lon="2.21319">
        <ele>52.6</ele>
        <time>2022-08-17T12:02:33Z</time>
      </trkpt>
      <trkpt lat="49.83504" lon="2.21321">
        <ele>52.6</ele>
        <time>2022-08-17T12:02:34Z</time>
      </trkpt>
      <trkpt lat="49.83503" lon="2.21322">
        <ele>52.5</ele>
        <time>2022-08-17T12:02:35Z</time>
      </trkpt>
      <trkpt lat="49.83502" lon="2.21324">
        <ele>52.4</ele>
        <time>2022-08-17T12:02:36Z</time>
      </trkpt>
      <trkpt lat="49.83502" lon="2.21325">
        <ele>52.4</ele>
        <time>2022-08-17T12:02:37Z</time>
      </trkpt>
      <trkpt lat="49.83501" lon="2.21326">
        <ele>52.3</ele>
        <time>2022-08-17T12:02:38Z</time>
      </trkpt>
      <trkpt lat="49.83501" lon="2.21327">
        <ele>52.3</ele>
        <time>2022-08-17T12:02:39Z</time>
      </trkpt>
      <trkpt lat="49.835" lon="2.21331">
        <ele>52.2</ele>
        <time>2022-08-17T12:02:40Z</time>
      </trkpt>
      <trkpt lat="49.83499" lon="2.21332">
        <ele>52.1</ele>
        <time>2022-08-17T12:02:41Z</time>
      </trkpt>
      <trkpt lat="49.83499" lon="2.21334">
        <ele>52.1</ele>
        <time>2022-08-17T12:02:42Z</time>
      </trkpt>
      <trkpt lat="49.83499" lon="2.21335">
        <ele>52</ele>
        <time>2022-08-17T12:02:43Z</time>
      </trkpt>
      <trkpt lat="49.83498" lon="2.21337">
        <ele>52</ele>
        <time>2022-08-17T12:02:45Z</time>
      </trkpt>
      <trkpt lat="49.83498" lon="2.21339">
        <ele>51.9</ele>
        <time>2022-08-17T12:02:46Z</time>
      </trkpt>
      <trkpt lat="49.83497" lon="2.21343">
        <ele>51.8</ele>
        <time>2022-08-17T12:02:48Z</time>
      </trkpt>
      <trkpt lat="49.83496" lon="2.21345">
        <ele>51.7</ele>
        <time>2022-08-17T12:02:49Z</time>
      </trkpt>
      <trkpt lat="49.83495" lon="2.21347">
        <ele>51.7</ele>
        <time>2022-08-17T12:02:50Z</time>
      </trkpt>
      <trkpt lat="49.83495" lon="2.21349">
        <ele>51.6</ele>
        <time>2022-08-17T12:02:51Z</time>
      </trkpt>
      <trkpt lat="49.83494" lon="2.21351">
        <ele>51.6</ele>
        <time>2022-08-17T12:02:52Z</time>
      </trkpt>
      <trkpt lat="49.83494" lon="2.21353">
        <ele>51.5</ele>
        <time>2022-08-17T12:02:53Z</time>
      </trkpt>
      <trkpt lat="49.83493" lon="2.21356">
        <ele>51.4</ele>
        <time>2022-08-17T12:02:54Z</time>
      </trkpt>
      <trkpt lat="49.83492" lon="2.21358">
        <ele>51.4</ele>
        <time>2022-08-17T12:02:55Z</time>
      </trkpt>
      <trkpt lat="49.83491" lon="2.2136">
        <ele>51.3</ele>
        <time>2022-08-17T12:02:56Z</time>
      </trkpt>
      <trkpt lat="49.83491" lon="2.21363">
        <ele>51.2</ele>
        <time>2022-08-17T12:02:57Z</time>
      </trkpt>
      <trkpt lat="49.8349" lon="2.21364">
        <ele>51.2</ele>
        <time>2022-08-17T12:02:59Z</time>
      </trkpt>
      <trkpt lat="49.8349" lon="2.21365">
        <ele>51.2</ele>
        <time>2022-08-17T12:03:00Z</time>
      </trkpt>
      <trkpt lat="49.8349" lon="2.21366">
        <ele>51.1</ele>
        <time>2022-08-17T12:03:01Z</time>
      </trkpt>
      <trkpt lat="49.83489" lon="2.21368">
        <ele>51.1</ele>
        <time>2022-08-17T12:03:02Z</time>
      </trkpt>
      <trkpt lat="49.83489" lon="2.2137">
        <ele>51.1</ele>
        <time>2022-08-17T12:03:03Z</time>
      </trkpt>
      <trkpt lat="49.83488" lon="2.21371">
        <ele>51</ele>
        <time>2022-08-17T12:03:04Z</time>
      </trkpt>
      <trkpt lat="49.83488" lon="2.21373">
        <ele>51</ele>
        <time>2022-08-17T12:03:05Z</time>
      </trkpt>
      <trkpt lat="49.83487" lon="2.21376">
        <ele>50.9</ele>
        <time>2022-08-17T12:03:07Z</time>
      </trkpt>
      <trkpt lat="49.83487" lon="2.21377">
        <ele>50.9</ele>
        <time>2022-08-17T12:03:08Z</time>
      </trkpt>
      <trkpt lat="49.83486" lon="2.21379">
        <ele>50.9</ele>
        <time>2022-08-17T12:03:09Z</time>
      </trkpt>
      <trkpt lat="49.83486" lon="2.2138">
        <ele>50.8</ele>
        <time>2022-08-17T12:03:10Z</time>
      </trkpt>
      <trkpt lat="49.83485" lon="2.21383">
        <ele>50.8</ele>
        <time>2022-08-17T12:03:12Z</time>
      </trkpt>
      <trkpt lat="49.83484" lon="2.21384">
        <ele>50.7</ele>
        <time>2022-08-17T12:03:13Z</time>
      </trkpt>
      <trkpt lat="49.83484" lon="2.21385">
        <ele>50.7</ele>
        <time>2022-08-17T12:03:14Z</time>
      </trkpt>
      <trkpt lat="49.83483" lon="2.21386">
        <ele>50.7</ele>
        <time>2022-08-17T12:03:15Z</time>
      </trkpt>
      <trkpt lat="49.83482" lon="2.21388">
        <ele>50.6</ele>
        <time>2022-08-17T12:03:16Z</time>
      </trkpt>
      <trkpt lat="49.83481" lon="2.21391">
        <ele>50.6</ele>
        <time>2022-08-17T12:03:17Z</time>
      </trkpt>
      <trkpt lat="49.8348" lon="2.21391">
        <ele>50.6</ele>
        <time>2022-08-17T12:03:18Z</time>
      </trkpt>
      <trkpt lat="49.8348" lon="2.21392">
        <ele>50.5</ele>
        <time>2022-08-17T12:03:19Z</time>
      </trkpt>
      <trkpt lat="49.83479" lon="2.21395">
        <ele>50.5</ele>
        <time>2022-08-17T12:03:20Z</time>
      </trkpt>
      <trkpt lat="49.83479" lon="2.21396">
        <ele>50.5</ele>
        <time>2022-08-17T12:03:22Z</time>
      </trkpt>
      <trkpt lat="49.83479" lon="2.21398">
        <ele>50.4</ele>
        <time>2022-08-17T12:03:23Z</time>
      </trkpt>
      <trkpt lat="49.83479" lon="2.214">
        <ele>50.4</ele>
        <time>2022-08-17T12:03:24Z</time>
      </trkpt>
      <trkpt lat="49.83479" lon="2.21402">
        <ele>50.4</ele>
        <time>2022-08-17T12:03:25Z</time>
      </trkpt>
      <trkpt lat="49.83478" lon="2.21404">
        <ele>50.3</ele>
        <time>2022-08-17T12:03:27Z</time>
      </trkpt>
      <trkpt lat="49.83478" lon="2.21405">
        <ele>50.3</ele>
        <time>2022-08-17T12:03:28Z</time>
      </trkpt>
      <trkpt lat="49.83478" lon="2.21407">
        <ele>50.3</ele>
        <time>2022-08-17T12:03:29Z</time>
      </trkpt>
      <trkpt lat="49.83478" lon="2.21409">
        <ele>50.3</ele>
        <time>2022-08-17T12:03:30Z</time>
      </trkpt>
      <trkpt lat="49.83477" lon="2.21412">
        <ele>50.2</ele>
        <time>2022-08-17T12:03:31Z</time>
      </trkpt>
      <trkpt lat="49.83476" lon="2.21413">
        <ele>50.2</ele>
        <time>2022-08-17T12:03:33Z</time>
      </trkpt>
      <trkpt lat="49.83476" lon="2.21415">
        <ele>50.1</ele>
        <time>2022-08-17T12:03:34Z</time>
      </trkpt>
      <trkpt lat="49.83475" lon="2.21416">
        <ele>50.1</ele>
        <time>2022-08-17T12:03:35Z</time>
      </trkpt>
      <trkpt lat="49.83474" lon="2.21418">
        <ele>50.1</ele>
        <time>2022-08-17T12:03:36Z</time>
      </trkpt>
      <trkpt lat="49.83474" lon="2.2142">
        <ele>50</ele>
        <time>2022-08-17T12:03:37Z</time>
      </trkpt>
      <trkpt lat="49.83473" lon="2.21421">
        <ele>50</ele>
        <time>2022-08-17T12:03:38Z</time>
      </trkpt>
      <trkpt lat="49.83472" lon="2.21423">
        <ele>50</ele>
        <time>2022-08-17T12:03:39Z</time>
      </trkpt>
      <trkpt lat="49.83472" lon="2.21424">
        <ele>50</ele>
        <time>2022-08-17T12:03:40Z</time>
      </trkpt>
      <trkpt lat="49.83471" lon="2.21426">
        <ele>49.9</ele>
        <time>2022-08-17T12:03:41Z</time>
      </trkpt>
      <trkpt lat="49.8347" lon="2.21427">
        <ele>49.9</ele>
        <time>2022-08-17T12:03:42Z</time>
      </trkpt>
      <trkpt lat="49.8347" lon="2.21429">
        <ele>49.9</ele>
        <time>2022-08-17T12:03:43Z</time>
      </trkpt>
      <trkpt lat="49.83469" lon="2.2143">
        <ele>49.8</ele>
        <time>2022-08-17T12:03:44Z</time>
      </trkpt>
      <trkpt lat="49.83468" lon="2.21432">
        <ele>49.8</ele>
        <time>2022-08-17T12:03:45Z</time>
      </trkpt>
      <trkpt lat="49.83467" lon="2.21434">
        <ele>49.7</ele>
        <time>2022-08-17T12:03:47Z</time>
      </trkpt>
      <trkpt lat="49.83467" lon="2.21435">
        <ele>49.7</ele>
        <time>2022-08-17T12:03:48Z</time>
      </trkpt>
      <trkpt lat="49.83466" lon="2.21436">
        <ele>49.7</ele>
        <time>2022-08-17T12:03:49Z</time>
      </trkpt>
      <trkpt lat="49.83466" lon="2.21438">
        <ele>49.7</ele>
        <time>2022-08-17T12:03:50Z</time>
      </trkpt>
      <trkpt lat="49.83465" lon="2.21441">
        <ele>49.6</ele>
        <time>2022-08-17T12:03:52Z</time>
      </trkpt>
      <trkpt lat="49.83464" lon="2.21442">
        <ele>49.6</ele>
        <time>2022-08-17T12:03:53Z</time>
      </trkpt>
      <trkpt lat="49.83463" lon="2.21445">
        <ele>49.6</ele>
        <time>2022-08-17T12:03:54Z</time>
      </trkpt>
      <trkpt lat="49.83463" lon="2.21447">
        <ele>49.5</ele>
        <time>2022-08-17T12:03:55Z</time>
      </trkpt>
      <trkpt lat="49.83463" lon="2.21448">
        <ele>49.5</ele>
        <time>2022-08-17T12:03:56Z</time>
      </trkpt>
      <trkpt lat="49.83462" lon="2.21451">
        <ele>49.5</ele>
        <time>2022-08-17T12:03:57Z</time>
      </trkpt>
      <trkpt lat="49.83462" lon="2.21452">
        <ele>49.5</ele>
        <time>2022-08-17T12:03:58Z</time>
      </trkpt>
      <trkpt lat="49.83461" lon="2.21455">
        <ele>49.4</ele>
        <time>2022-08-17T12:03:59Z</time>
      </trkpt>
      <trkpt lat="49.83461" lon="2.21457">
        <ele>49.4</ele>
        <time>2022-08-17T12:04:00Z</time>
      </trkpt>
      <trkpt lat="49.8346" lon="2.21458">
        <ele>49.4</ele>
        <time>2022-08-17T12:04:01Z</time>
      </trkpt>
      <trkpt lat="49.8346" lon="2.2146">
        <ele>49.4</ele>
        <time>2022-08-17T12:04:03Z</time>
      </trkpt>
      <trkpt lat="49.83459" lon="2.21461">
        <ele>49.3</ele>
        <time>2022-08-17T12:04:04Z</time>
      </trkpt>
      <trkpt lat="49.83459" lon="2.21463">
        <ele>49.3</ele>
        <time>2022-08-17T12:04:05Z</time>
      </trkpt>
      <trkpt lat="49.83459" lon="2.21465">
        <ele>49.3</ele>
        <time>2022-08-17T12:04:06Z</time>
      </trkpt>
      <trkpt lat="49.83459" lon="2.21467">
        <ele>49.3</ele>
        <time>2022-08-17T12:04:07Z</time>
      </trkpt>
      <trkpt lat="49.83459" lon="2.21468">
        <ele>49.2</ele>
        <time>2022-08-17T12:04:08Z</time>
      </trkpt>
      <trkpt lat="49.83459" lon="2.21472">
        <ele>49.2</ele>
        <time>2022-08-17T12:04:10Z</time>
      </trkpt>
      <trkpt lat="49.83458" lon="2.21475">
        <ele>49.2</ele>
        <time>2022-08-17T12:04:12Z</time>
      </trkpt>
      <trkpt lat="49.83458" lon="2.21477">
        <ele>49.1</ele>
        <time>2022-08-17T12:04:13Z</time>
      </trkpt>
      <trkpt lat="49.83458" lon="2.21479">
        <ele>49.1</ele>
        <time>2022-08-17T12:04:14Z</time>
      </trkpt>
      <trkpt lat="49.83457" lon="2.21481">
        <ele>49.1</ele>
        <time>2022-08-17T12:04:16Z</time>
      </trkpt>
      <trkpt lat="49.83457" lon="2.21483">
        <ele>49.1</ele>
        <time>2022-08-17T12:04:17Z</time>
      </trkpt>
      <trkpt lat="49.83457" lon="2.21485">
        <ele>49</ele>
        <time>2022-08-17T12:04:18Z</time>
      </trkpt>
      <trkpt lat="49.83456" lon="2.21486">
        <ele>49</ele>
        <time>2022-08-17T12:04:19Z</time>
      </trkpt>
      <trkpt lat="49.83456" lon="2.21487">
        <ele>49</ele>
        <time>2022-08-17T12:04:20Z</time>
      </trkpt>
      <trkpt lat="49.83456" lon="2.21489">
        <ele>49</ele>
        <time>2022-08-17T12:04:21Z</time>
      </trkpt>
      <trkpt lat="49.83455" lon="2.2149">
        <ele>49</ele>
        <time>2022-08-17T12:04:22Z</time>
      </trkpt>
      <trkpt lat="49.83454" lon="2.21493">
        <ele>48.9</ele>
        <time>2022-08-17T12:04:23Z</time>
      </trkpt>
      <trkpt lat="49.83453" lon="2.21494">
        <ele>48.9</ele>
        <time>2022-08-17T12:04:24Z</time>
      </trkpt>
      <trkpt lat="49.83453" lon="2.21495">
        <ele>48.9</ele>
        <time>2022-08-17T12:04:25Z</time>
      </trkpt>
      <trkpt lat="49.83452" lon="2.21497">
        <ele>48.9</ele>
        <time>2022-08-17T12:04:26Z</time>
      </trkpt>
      <trkpt lat="49.83451" lon="2.21499">
        <ele>48.8</ele>
        <time>2022-08-17T12:04:27Z</time>
      </trkpt>
      <trkpt lat="49.8345" lon="2.21502">
        <ele>48.8</ele>
        <time>2022-08-17T12:04:29Z</time>
      </trkpt>
      <trkpt lat="49.8345" lon="2.21503">
        <ele>48.8</ele>
        <time>2022-08-17T12:04:30Z</time>
      </trkpt>
      <trkpt lat="49.83449" lon="2.21504">
        <ele>48.7</ele>
        <time>2022-08-17T12:04:31Z</time>
      </trkpt>
      <trkpt lat="49.83447" lon="2.21508">
        <ele>48.7</ele>
        <time>2022-08-17T12:04:33Z</time>
      </trkpt>
      <trkpt lat="49.83447" lon="2.21509">
        <ele>48.7</ele>
        <time>2022-08-17T12:04:34Z</time>
      </trkpt>
      <trkpt lat="49.83447" lon="2.2151">
        <ele>48.7</ele>
        <time>2022-08-17T12:04:35Z</time>
      </trkpt>
      <trkpt lat="49.83446" lon="2.21512">
        <ele>48.6</ele>
        <time>2022-08-17T12:04:36Z</time>
      </trkpt>
      <trkpt lat="49.83445" lon="2.21513">
        <ele>48.6</ele>
        <time>2022-08-17T12:04:37Z</time>
      </trkpt>
      <trkpt lat="49.83444" lon="2.21517">
        <ele>48.6</ele>
        <time>2022-08-17T12:04:38Z</time>
      </trkpt>
      <trkpt lat="49.83444" lon="2.21519">
        <ele>48.5</ele>
        <time>2022-08-17T12:04:40Z</time>
      </trkpt>
      <trkpt lat="49.83443" lon="2.2152">
        <ele>48.5</ele>
        <time>2022-08-17T12:04:41Z</time>
      </trkpt>
      <trkpt lat="49.83443" lon="2.21522">
        <ele>48.5</ele>
        <time>2022-08-17T12:04:42Z</time>
      </trkpt>
      <trkpt lat="49.83442" lon="2.21524">
        <ele>48.5</ele>
        <time>2022-08-17T12:04:43Z</time>
      </trkpt>
      <trkpt lat="49.83442" lon="2.21525">
        <ele>48.5</ele>
        <time>2022-08-17T12:04:44Z</time>
      </trkpt>
      <trkpt lat="49.83441" lon="2.21526">
        <ele>48.4</ele>
        <time>2022-08-17T12:04:45Z</time>
      </trkpt>
      <trkpt lat="49.83441" lon="2.21527">
        <ele>48.4</ele>
        <time>2022-08-17T12:04:46Z</time>
      </trkpt>
      <trkpt lat="49.8344" lon="2.21529">
        <ele>48.4</ele>
        <time>2022-08-17T12:04:47Z</time>
      </trkpt>
      <trkpt lat="49.8344" lon="2.2153">
        <ele>48.4</ele>
        <time>2022-08-17T12:04:49Z</time>
      </trkpt>
      <trkpt lat="49.83439" lon="2.21531">
        <ele>48.4</ele>
        <time>2022-08-17T12:04:50Z</time>
      </trkpt>
      <trkpt lat="49.83439" lon="2.21532">
        <ele>48.4</ele>
        <time>2022-08-17T12:04:51Z</time>
      </trkpt>
      <trkpt lat="49.83439" lon="2.2153">
        <ele>48.3</ele>
        <time>2022-08-17T12:04:52Z</time>
      </trkpt>
      <trkpt lat="49.8344" lon="2.21531">
        <ele>48.3</ele>
        <time>2022-08-17T12:04:53Z</time>
      </trkpt>
      <trkpt lat="49.8344" lon="2.21534">
        <ele>48.3</ele>
        <time>2022-08-17T12:04:54Z</time>
      </trkpt>
      <trkpt lat="49.8344" lon="2.21536">
        <ele>48.3</ele>
        <time>2022-08-17T12:04:56Z</time>
      </trkpt>
      <trkpt lat="49.8344" lon="2.21537">
        <ele>48.2</ele>
        <time>2022-08-17T12:04:57Z</time>
      </trkpt>
      <trkpt lat="49.8344" lon="2.21539">
        <ele>48.2</ele>
        <time>2022-08-17T12:04:58Z</time>
      </trkpt>
      <trkpt lat="49.83439" lon="2.21541">
        <ele>48.2</ele>
        <time>2022-08-17T12:04:59Z</time>
      </trkpt>
      <trkpt lat="49.83438" lon="2.21543">
        <ele>48.2</ele>
        <time>2022-08-17T12:05:00Z</time>
      </trkpt>
      <trkpt lat="49.83437" lon="2.21544">
        <ele>48.1</ele>
        <time>2022-08-17T12:05:01Z</time>
      </trkpt>
      <trkpt lat="49.83437" lon="2.21545">
        <ele>48.1</ele>
        <time>2022-08-17T12:05:02Z</time>
      </trkpt>
      <trkpt lat="49.83435" lon="2.21547">
        <ele>48.1</ele>
        <time>2022-08-17T12:05:03Z</time>
      </trkpt>
      <trkpt lat="49.83434" lon="2.21548">
        <ele>48.1</ele>
        <time>2022-08-17T12:05:04Z</time>
      </trkpt>
      <trkpt lat="49.83434" lon="2.21549">
        <ele>48.1</ele>
        <time>2022-08-17T12:05:05Z</time>
      </trkpt>
      <trkpt lat="49.83433" lon="2.2155">
        <ele>48</ele>
        <time>2022-08-17T12:05:06Z</time>
      </trkpt>
      <trkpt lat="49.83431" lon="2.21552">
        <ele>48</ele>
        <time>2022-08-17T12:05:08Z</time>
      </trkpt>
      <trkpt lat="49.8343" lon="2.21554">
        <ele>48</ele>
        <time>2022-08-17T12:05:09Z</time>
      </trkpt>
      <trkpt lat="49.83429" lon="2.21555">
        <ele>48</ele>
        <time>2022-08-17T12:05:10Z</time>
      </trkpt>
      <trkpt lat="49.83428" lon="2.21557">
        <ele>48</ele>
        <time>2022-08-17T12:05:11Z</time>
      </trkpt>
      <trkpt lat="49.83427" lon="2.21559">
        <ele>47.9</ele>
        <time>2022-08-17T12:05:12Z</time>
      </trkpt>
      <trkpt lat="49.83426" lon="2.2156">
        <ele>47.9</ele>
        <time>2022-08-17T12:05:13Z</time>
      </trkpt>
      <trkpt lat="49.83426" lon="2.21561">
        <ele>47.9</ele>
        <time>2022-08-17T12:05:14Z</time>
      </trkpt>
      <trkpt lat="49.83425" lon="2.21562">
        <ele>47.9</ele>
        <time>2022-08-17T12:05:15Z</time>
      </trkpt>
      <trkpt lat="49.83424" lon="2.21565">
        <ele>47.9</ele>
        <time>2022-08-17T12:05:17Z</time>
      </trkpt>
      <trkpt lat="49.83423" lon="2.21566">
        <ele>47.8</ele>
        <time>2022-08-17T12:05:18Z</time>
      </trkpt>
      <trkpt lat="49.83422" lon="2.21567">
        <ele>47.8</ele>
        <time>2022-08-17T12:05:19Z</time>
      </trkpt>
      <trkpt lat="49.83421" lon="2.21569">
        <ele>47.8</ele>
        <time>2022-08-17T12:05:20Z</time>
      </trkpt>
      <trkpt lat="49.83419" lon="2.21573">
        <ele>47.8</ele>
        <time>2022-08-17T12:05:21Z</time>
      </trkpt>
      <trkpt lat="49.83418" lon="2.21575">
        <ele>47.7</ele>
        <time>2022-08-17T12:05:22Z</time>
      </trkpt>
      <trkpt lat="49.83416" lon="2.21578">
        <ele>47.7</ele>
        <time>2022-08-17T12:05:24Z</time>
      </trkpt>
      <trkpt lat="49.83415" lon="2.21582">
        <ele>47.7</ele>
        <time>2022-08-17T12:05:25Z</time>
      </trkpt>
      <trkpt lat="49.83414" lon="2.21586">
        <ele>47.6</ele>
        <time>2022-08-17T12:05:26Z</time>
      </trkpt>
      <trkpt lat="49.83413" lon="2.21588">
        <ele>47.6</ele>
        <time>2022-08-17T12:05:27Z</time>
      </trkpt>
      <trkpt lat="49.83411" lon="2.2159">
        <ele>47.6</ele>
        <time>2022-08-17T12:05:28Z</time>
      </trkpt>
      <trkpt lat="49.8341" lon="2.21592">
        <ele>47.5</ele>
        <time>2022-08-17T12:05:29Z</time>
      </trkpt>
      <trkpt lat="49.83409" lon="2.21594">
        <ele>47.5</ele>
        <time>2022-08-17T12:05:30Z</time>
      </trkpt>
      <trkpt lat="49.83408" lon="2.21598">
        <ele>47.5</ele>
        <time>2022-08-17T12:05:32Z</time>
      </trkpt>
      <trkpt lat="49.83407" lon="2.21599">
        <ele>47.5</ele>
        <time>2022-08-17T12:05:33Z</time>
      </trkpt>
      <trkpt lat="49.83406" lon="2.21601">
        <ele>47.4</ele>
        <time>2022-08-17T12:05:34Z</time>
      </trkpt>
      <trkpt lat="49.83405" lon="2.21603">
        <ele>47.4</ele>
        <time>2022-08-17T12:05:35Z</time>
      </trkpt>
      <trkpt lat="49.83404" lon="2.21605">
        <ele>47.4</ele>
        <time>2022-08-17T12:05:36Z</time>
      </trkpt>
      <trkpt lat="49.83403" lon="2.21607">
        <ele>47.4</ele>
        <time>2022-08-17T12:05:37Z</time>
      </trkpt>
      <trkpt lat="49.83403" lon="2.21609">
        <ele>47.3</ele>
        <time>2022-08-17T12:05:38Z</time>
      </trkpt>
      <trkpt lat="49.83402" lon="2.21611">
        <ele>47.3</ele>
        <time>2022-08-17T12:05:39Z</time>
      </trkpt>
      <trkpt lat="49.834" lon="2.21614">
        <ele>47.3</ele>
        <time>2022-08-17T12:05:41Z</time>
      </trkpt>
      <trkpt lat="49.834" lon="2.21615">
        <ele>47.3</ele>
        <time>2022-08-17T12:05:42Z</time>
      </trkpt>
      <trkpt lat="49.834" lon="2.21616">
        <ele>47.3</ele>
        <time>2022-08-17T12:05:43Z</time>
      </trkpt>
      <trkpt lat="49.83398" lon="2.21618">
        <ele>47.2</ele>
        <time>2022-08-17T12:05:44Z</time>
      </trkpt>
      <trkpt lat="49.83398" lon="2.21619">
        <ele>47.2</ele>
        <time>2022-08-17T12:05:45Z</time>
      </trkpt>
      <trkpt lat="49.83397" lon="2.21621">
        <ele>47.2</ele>
        <time>2022-08-17T12:05:46Z</time>
      </trkpt>
      <trkpt lat="49.83396" lon="2.21623">
        <ele>47.2</ele>
        <time>2022-08-17T12:05:47Z</time>
      </trkpt>
      <trkpt lat="49.83395" lon="2.21624">
        <ele>47.2</ele>
        <time>2022-08-17T12:05:48Z</time>
      </trkpt>
      <trkpt lat="49.83395" lon="2.21625">
        <ele>47.2</ele>
        <time>2022-08-17T12:05:49Z</time>
      </trkpt>
      <trkpt lat="49.83394" lon="2.21628">
        <ele>47.1</ele>
        <time>2022-08-17T12:05:51Z</time>
      </trkpt>
      <trkpt lat="49.83393" lon="2.21629">
        <ele>47.1</ele>
        <time>2022-08-17T12:05:52Z</time>
      </trkpt>
      <trkpt lat="49.83392" lon="2.21631">
        <ele>47.1</ele>
        <time>2022-08-17T12:05:53Z</time>
      </trkpt>
      <trkpt lat="49.83391" lon="2.21633">
        <ele>47.1</ele>
        <time>2022-08-17T12:05:54Z</time>
      </trkpt>
      <trkpt lat="49.83391" lon="2.21634">
        <ele>47.1</ele>
        <time>2022-08-17T12:05:55Z</time>
      </trkpt>
      <trkpt lat="49.8339" lon="2.21636">
        <ele>47.1</ele>
        <time>2022-08-17T12:05:56Z</time>
      </trkpt>
      <trkpt lat="49.8339" lon="2.21637">
        <ele>47</ele>
        <time>2022-08-17T12:05:57Z</time>
      </trkpt>
      <trkpt lat="49.83388" lon="2.2164">
        <ele>47</ele>
        <time>2022-08-17T12:05:58Z</time>
      </trkpt>
      <trkpt lat="49.83388" lon="2.21642">
        <ele>47</ele>
        <time>2022-08-17T12:05:59Z</time>
      </trkpt>
      <trkpt lat="49.83387" lon="2.21643">
        <ele>47</ele>
        <time>2022-08-17T12:06:00Z</time>
      </trkpt>
      <trkpt lat="49.83386" lon="2.21646">
        <ele>46.9</ele>
        <time>2022-08-17T12:06:02Z</time>
      </trkpt>
      <trkpt lat="49.83386" lon="2.21647">
        <ele>46.9</ele>
        <time>2022-08-17T12:06:03Z</time>
      </trkpt>
      <trkpt lat="49.83386" lon="2.21648">
        <ele>46.9</ele>
        <time>2022-08-17T12:06:04Z</time>
      </trkpt>
      <trkpt lat="49.83385" lon="2.2165">
        <ele>46.9</ele>
        <time>2022-08-17T12:06:05Z</time>
      </trkpt>
      <trkpt lat="49.83384" lon="2.21652">
        <ele>46.8</ele>
        <time>2022-08-17T12:06:06Z</time>
      </trkpt>
      <trkpt lat="49.83383" lon="2.21653">
        <ele>46.8</ele>
        <time>2022-08-17T12:06:07Z</time>
      </trkpt>
      <trkpt lat="49.83382" lon="2.21655">
        <ele>46.8</ele>
        <time>2022-08-17T12:06:08Z</time>
      </trkpt>
      <trkpt lat="49.83382" lon="2.21656">
        <ele>46.8</ele>
        <time>2022-08-17T12:06:09Z</time>
      </trkpt>
      <trkpt lat="49.83381" lon="2.21658">
        <ele>46.7</ele>
        <time>2022-08-17T12:06:10Z</time>
      </trkpt>
      <trkpt lat="49.8338" lon="2.2166">
        <ele>46.7</ele>
        <time>2022-08-17T12:06:11Z</time>
      </trkpt>
      <trkpt lat="49.8338" lon="2.21661">
        <ele>46.7</ele>
        <time>2022-08-17T12:06:12Z</time>
      </trkpt>
      <trkpt lat="49.83379" lon="2.21663">
        <ele>46.7</ele>
        <time>2022-08-17T12:06:14Z</time>
      </trkpt>
      <trkpt lat="49.83378" lon="2.21664">
        <ele>46.7</ele>
        <time>2022-08-17T12:06:15Z</time>
      </trkpt>
      <trkpt lat="49.83377" lon="2.21666">
        <ele>46.6</ele>
        <time>2022-08-17T12:06:16Z</time>
      </trkpt>
      <trkpt lat="49.83377" lon="2.21667">
        <ele>46.6</ele>
        <time>2022-08-17T12:06:17Z</time>
      </trkpt>
      <trkpt lat="49.83376" lon="2.21668">
        <ele>46.6</ele>
        <time>2022-08-17T12:06:18Z</time>
      </trkpt>
      <trkpt lat="49.83376" lon="2.21669">
        <ele>46.6</ele>
        <time>2022-08-17T12:06:19Z</time>
      </trkpt>
      <trkpt lat="49.83375" lon="2.21672">
        <ele>46.5</ele>
        <time>2022-08-17T12:06:20Z</time>
      </trkpt>
      <trkpt lat="49.83374" lon="2.21673">
        <ele>46.5</ele>
        <time>2022-08-17T12:06:22Z</time>
      </trkpt>
      <trkpt lat="49.83373" lon="2.21675">
        <ele>46.5</ele>
        <time>2022-08-17T12:06:23Z</time>
      </trkpt>
      <trkpt lat="49.83373" lon="2.21677">
        <ele>46.5</ele>
        <time>2022-08-17T12:06:24Z</time>
      </trkpt>
      <trkpt lat="49.83372" lon="2.21679">
        <ele>46.4</ele>
        <time>2022-08-17T12:06:25Z</time>
      </trkpt>
      <trkpt lat="49.83371" lon="2.21681">
        <ele>46.4</ele>
        <time>2022-08-17T12:06:26Z</time>
      </trkpt>
      <trkpt lat="49.83371" lon="2.21684">
        <ele>46.4</ele>
        <time>2022-08-17T12:06:27Z</time>
      </trkpt>
      <trkpt lat="49.8337" lon="2.21687">
        <ele>46.3</ele>
        <time>2022-08-17T12:06:29Z</time>
      </trkpt>
      <trkpt lat="49.83368" lon="2.2169">
        <ele>46.3</ele>
        <time>2022-08-17T12:06:30Z</time>
      </trkpt>
      <trkpt lat="49.83368" lon="2.21691">
        <ele>46.3</ele>
        <time>2022-08-17T12:06:31Z</time>
      </trkpt>
      <trkpt lat="49.83367" lon="2.21692">
        <ele>46.3</ele>
        <time>2022-08-17T12:06:32Z</time>
      </trkpt>
      <trkpt lat="49.83366" lon="2.21693">
        <ele>46.3</ele>
        <time>2022-08-17T12:06:33Z</time>
      </trkpt>
      <trkpt lat="49.83365" lon="2.21696">
        <ele>46.2</ele>
        <time>2022-08-17T12:06:34Z</time>
      </trkpt>
      <trkpt lat="49.83364" lon="2.21698">
        <ele>46.2</ele>
        <time>2022-08-17T12:06:35Z</time>
      </trkpt>
      <trkpt lat="49.83363" lon="2.21701">
        <ele>46.2</ele>
        <time>2022-08-17T12:06:37Z</time>
      </trkpt>
      <trkpt lat="49.83362" lon="2.21702">
        <ele>46.1</ele>
        <time>2022-08-17T12:06:38Z</time>
      </trkpt>
      <trkpt lat="49.83361" lon="2.21704">
        <ele>46.1</ele>
        <time>2022-08-17T12:06:39Z</time>
      </trkpt>
      <trkpt lat="49.8336" lon="2.21706">
        <ele>46.1</ele>
        <time>2022-08-17T12:06:40Z</time>
      </trkpt>
      <trkpt lat="49.83359" lon="2.21708">
        <ele>46.1</ele>
        <time>2022-08-17T12:06:42Z</time>
      </trkpt>
      <trkpt lat="49.83358" lon="2.2171">
        <ele>46</ele>
        <time>2022-08-17T12:06:43Z</time>
      </trkpt>
      <trkpt lat="49.83357" lon="2.21712">
        <ele>46</ele>
        <time>2022-08-17T12:06:44Z</time>
      </trkpt>
      <trkpt lat="49.83356" lon="2.21713">
        <ele>46</ele>
        <time>2022-08-17T12:06:45Z</time>
      </trkpt>
      <trkpt lat="49.83356" lon="2.21715">
        <ele>46</ele>
        <time>2022-08-17T12:06:46Z</time>
      </trkpt>
      <trkpt lat="49.83355" lon="2.21715">
        <ele>46</ele>
        <time>2022-08-17T12:06:47Z</time>
      </trkpt>
      <trkpt lat="49.83355" lon="2.21717">
        <ele>46</ele>
        <time>2022-08-17T12:06:48Z</time>
      </trkpt>
      <trkpt lat="49.83354" lon="2.21719">
        <ele>45.9</ele>
        <time>2022-08-17T12:06:49Z</time>
      </trkpt>
      <trkpt lat="49.83353" lon="2.21721">
        <ele>45.9</ele>
        <time>2022-08-17T12:06:50Z</time>
      </trkpt>
      <trkpt lat="49.83352" lon="2.21723">
        <ele>45.9</ele>
        <time>2022-08-17T12:06:51Z</time>
      </trkpt>
      <trkpt lat="49.83351" lon="2.21726">
        <ele>45.8</ele>
        <time>2022-08-17T12:06:53Z</time>
      </trkpt>
      <trkpt lat="49.8335" lon="2.21728">
        <ele>45.8</ele>
        <time>2022-08-17T12:06:54Z</time>
      </trkpt>
      <trkpt lat="49.83349" lon="2.21731">
        <ele>45.8</ele>
        <time>2022-08-17T12:06:55Z</time>
      </trkpt>
      <trkpt lat="49.83349" lon="2.21732">
        <ele>45.8</ele>
        <time>2022-08-17T12:06:56Z</time>
      </trkpt>
      <trkpt lat="49.83348" lon="2.21733">
        <ele>45.8</ele>
        <time>2022-08-17T12:06:57Z</time>
      </trkpt>
      <trkpt lat="49.83347" lon="2.21736">
        <ele>45.7</ele>
        <time>2022-08-17T12:06:58Z</time>
      </trkpt>
      <trkpt lat="49.83346" lon="2.21738">
        <ele>45.7</ele>
        <time>2022-08-17T12:06:59Z</time>
      </trkpt>
      <trkpt lat="49.83345" lon="2.2174">
        <ele>45.7</ele>
        <time>2022-08-17T12:07:00Z</time>
      </trkpt>
      <trkpt lat="49.83345" lon="2.21741">
        <ele>45.7</ele>
        <time>2022-08-17T12:07:01Z</time>
      </trkpt>
      <trkpt lat="49.83344" lon="2.21742">
        <ele>45.6</ele>
        <time>2022-08-17T12:07:02Z</time>
      </trkpt>
      <trkpt lat="49.83344" lon="2.21745">
        <ele>45.6</ele>
        <time>2022-08-17T12:07:04Z</time>
      </trkpt>
      <trkpt lat="49.83343" lon="2.21747">
        <ele>45.6</ele>
        <time>2022-08-17T12:07:05Z</time>
      </trkpt>
      <trkpt lat="49.83342" lon="2.21749">
        <ele>45.5</ele>
        <time>2022-08-17T12:07:06Z</time>
      </trkpt>
      <trkpt lat="49.83341" lon="2.21751">
        <ele>45.5</ele>
        <time>2022-08-17T12:07:07Z</time>
      </trkpt>
      <trkpt lat="49.8334" lon="2.21753">
        <ele>45.5</ele>
        <time>2022-08-17T12:07:08Z</time>
      </trkpt>
      <trkpt lat="49.8334" lon="2.21754">
        <ele>45.5</ele>
        <time>2022-08-17T12:07:09Z</time>
      </trkpt>
      <trkpt lat="49.83339" lon="2.21755">
        <ele>45.4</ele>
        <time>2022-08-17T12:07:10Z</time>
      </trkpt>
      <trkpt lat="49.83339" lon="2.21757">
        <ele>45.4</ele>
        <time>2022-08-17T12:07:11Z</time>
      </trkpt>
      <trkpt lat="49.83338" lon="2.21758">
        <ele>45.4</ele>
        <time>2022-08-17T12:07:12Z</time>
      </trkpt>
      <trkpt lat="49.83338" lon="2.2176">
        <ele>45.4</ele>
        <time>2022-08-17T12:07:13Z</time>
      </trkpt>
      <trkpt lat="49.83337" lon="2.21762">
        <ele>45.3</ele>
        <time>2022-08-17T12:07:14Z</time>
      </trkpt>
      <trkpt lat="49.83336" lon="2.21763">
        <ele>45.3</ele>
        <time>2022-08-17T12:07:16Z</time>
      </trkpt>
      <trkpt lat="49.83336" lon="2.21764">
        <ele>45.3</ele>
        <time>2022-08-17T12:07:17Z</time>
      </trkpt>
      <trkpt lat="49.83335" lon="2.21765">
        <ele>45.3</ele>
        <time>2022-08-17T12:07:18Z</time>
      </trkpt>
      <trkpt lat="49.83334" lon="2.21767">
        <ele>45.3</ele>
        <time>2022-08-17T12:07:19Z</time>
      </trkpt>
      <trkpt lat="49.83333" lon="2.21768">
        <ele>45.2</ele>
        <time>2022-08-17T12:07:20Z</time>
      </trkpt>
      <trkpt lat="49.83333" lon="2.2177">
        <ele>45.2</ele>
        <time>2022-08-17T12:07:22Z</time>
      </trkpt>
      <trkpt lat="49.83332" lon="2.21771">
        <ele>45.2</ele>
        <time>2022-08-17T12:07:23Z</time>
      </trkpt>
      <trkpt lat="49.83331" lon="2.21772">
        <ele>45.1</ele>
        <time>2022-08-17T12:07:24Z</time>
      </trkpt>
      <trkpt lat="49.8333" lon="2.21773">
        <ele>45.1</ele>
        <time>2022-08-17T12:07:25Z</time>
      </trkpt>
      <trkpt lat="49.8333" lon="2.21775">
        <ele>45.1</ele>
        <time>2022-08-17T12:07:26Z</time>
      </trkpt>
      <trkpt lat="49.83329" lon="2.21776">
        <ele>45.1</ele>
        <time>2022-08-17T12:07:27Z</time>
      </trkpt>
      <trkpt lat="49.83328" lon="2.21778">
        <ele>45</ele>
        <time>2022-08-17T12:07:28Z</time>
      </trkpt>
      <trkpt lat="49.83327" lon="2.2178">
        <ele>45</ele>
        <time>2022-08-17T12:07:29Z</time>
      </trkpt>
      <trkpt lat="49.83326" lon="2.21782">
        <ele>45</ele>
        <time>2022-08-17T12:07:31Z</time>
      </trkpt>
      <trkpt lat="49.83326" lon="2.21785">
        <ele>44.9</ele>
        <time>2022-08-17T12:07:32Z</time>
      </trkpt>
      <trkpt lat="49.83325" lon="2.21787">
        <ele>44.9</ele>
        <time>2022-08-17T12:07:33Z</time>
      </trkpt>
      <trkpt lat="49.83324" lon="2.21789">
        <ele>44.9</ele>
        <time>2022-08-17T12:07:34Z</time>
      </trkpt>
      <trkpt lat="49.83324" lon="2.2179">
        <ele>44.8</ele>
        <time>2022-08-17T12:07:35Z</time>
      </trkpt>
      <trkpt lat="49.83324" lon="2.21792">
        <ele>44.8</ele>
        <time>2022-08-17T12:07:36Z</time>
      </trkpt>
      <trkpt lat="49.83324" lon="2.21794">
        <ele>44.8</ele>
        <time>2022-08-17T12:07:37Z</time>
      </trkpt>
      <trkpt lat="49.83324" lon="2.21795">
        <ele>44.8</ele>
        <time>2022-08-17T12:07:38Z</time>
      </trkpt>
      <trkpt lat="49.83324" lon="2.21797">
        <ele>44.7</ele>
        <time>2022-08-17T12:07:39Z</time>
      </trkpt>
      <trkpt lat="49.83324" lon="2.21798">
        <ele>44.7</ele>
        <time>2022-08-17T12:07:41Z</time>
      </trkpt>
      <trkpt lat="49.83324" lon="2.21799">
        <ele>44.7</ele>
        <time>2022-08-17T12:07:42Z</time>
      </trkpt>
      <trkpt lat="49.83324" lon="2.21798">
        <ele>44.7</ele>
        <time>2022-08-17T12:07:43Z</time>
      </trkpt>
      <trkpt lat="49.83323" lon="2.21798">
        <ele>44.7</ele>
        <time>2022-08-17T12:07:44Z</time>
      </trkpt>
      <trkpt lat="49.83323" lon="2.21799">
        <ele>44.6</ele>
        <time>2022-08-17T12:07:45Z</time>
      </trkpt>
      <trkpt lat="49.83322" lon="2.21801">
        <ele>44.6</ele>
        <time>2022-08-17T12:07:46Z</time>
      </trkpt>
      <trkpt lat="49.83321" lon="2.21802">
        <ele>44.6</ele>
        <time>2022-08-17T12:07:47Z</time>
      </trkpt>
      <trkpt lat="49.8332" lon="2.21805">
        <ele>44.5</ele>
        <time>2022-08-17T12:07:48Z</time>
      </trkpt>
      <trkpt lat="49.8332" lon="2.21805">
        <ele>44.5</ele>
        <time>2022-08-17T12:07:49Z</time>
      </trkpt>
      <trkpt lat="49.83319" lon="2.21807">
        <ele>44.4</ele>
        <time>2022-08-17T12:07:51Z</time>
      </trkpt>
      <trkpt lat="49.83319" lon="2.2181">
        <ele>44.4</ele>
        <time>2022-08-17T12:07:52Z</time>
      </trkpt>
      <trkpt lat="49.83318" lon="2.21811">
        <ele>44.4</ele>
        <time>2022-08-17T12:07:53Z</time>
      </trkpt>
      <trkpt lat="49.83318" lon="2.21812">
        <ele>44.3</ele>
        <time>2022-08-17T12:07:54Z</time>
      </trkpt>
      <trkpt lat="49.83317" lon="2.21814">
        <ele>44.3</ele>
        <time>2022-08-17T12:07:55Z</time>
      </trkpt>
      <trkpt lat="49.83317" lon="2.21816">
        <ele>44.2</ele>
        <time>2022-08-17T12:07:56Z</time>
      </trkpt>
      <trkpt lat="49.83316" lon="2.21818">
        <ele>44.2</ele>
        <time>2022-08-17T12:07:57Z</time>
      </trkpt>
      <trkpt lat="49.83316" lon="2.21818">
        <ele>44.2</ele>
        <time>2022-08-17T12:07:58Z</time>
      </trkpt>
      <trkpt lat="49.83315" lon="2.2182">
        <ele>44.2</ele>
        <time>2022-08-17T12:07:59Z</time>
      </trkpt>
      <trkpt lat="49.83315" lon="2.21821">
        <ele>44.1</ele>
        <time>2022-08-17T12:08:01Z</time>
      </trkpt>
      <trkpt lat="49.83314" lon="2.21823">
        <ele>44.1</ele>
        <time>2022-08-17T12:08:02Z</time>
      </trkpt>
      <trkpt lat="49.83314" lon="2.21825">
        <ele>44</ele>
        <time>2022-08-17T12:08:03Z</time>
      </trkpt>
      <trkpt lat="49.83312" lon="2.21828">
        <ele>44</ele>
        <time>2022-08-17T12:08:04Z</time>
      </trkpt>
      <trkpt lat="49.83312" lon="2.21829">
        <ele>43.9</ele>
        <time>2022-08-17T12:08:05Z</time>
      </trkpt>
      <trkpt lat="49.83311" lon="2.2183">
        <ele>43.9</ele>
        <time>2022-08-17T12:08:06Z</time>
      </trkpt>
      <trkpt lat="49.8331" lon="2.21832">
        <ele>43.9</ele>
        <time>2022-08-17T12:08:07Z</time>
      </trkpt>
      <trkpt lat="49.8331" lon="2.21834">
        <ele>43.8</ele>
        <time>2022-08-17T12:08:08Z</time>
      </trkpt>
      <trkpt lat="49.83309" lon="2.21835">
        <ele>43.8</ele>
        <time>2022-08-17T12:08:09Z</time>
      </trkpt>
      <trkpt lat="49.83308" lon="2.21836">
        <ele>43.8</ele>
        <time>2022-08-17T12:08:10Z</time>
      </trkpt>
      <trkpt lat="49.83308" lon="2.21838">
        <ele>43.7</ele>
        <time>2022-08-17T12:08:12Z</time>
      </trkpt>
      <trkpt lat="49.83307" lon="2.2184">
        <ele>43.7</ele>
        <time>2022-08-17T12:08:13Z</time>
      </trkpt>
      <trkpt lat="49.83306" lon="2.21842">
        <ele>43.6</ele>
        <time>2022-08-17T12:08:14Z</time>
      </trkpt>
      <trkpt lat="49.83305" lon="2.21844">
        <ele>43.6</ele>
        <time>2022-08-17T12:08:15Z</time>
      </trkpt>
      <trkpt lat="49.83305" lon="2.21845">
        <ele>43.6</ele>
        <time>2022-08-17T12:08:16Z</time>
      </trkpt>
      <trkpt lat="49.83304" lon="2.21847">
        <ele>43.5</ele>
        <time>2022-08-17T12:08:17Z</time>
      </trkpt>
      <trkpt lat="49.83304" lon="2.21849">
        <ele>43.5</ele>
        <time>2022-08-17T12:08:18Z</time>
      </trkpt>
      <trkpt lat="49.83303" lon="2.21851">
        <ele>43.5</ele>
        <time>2022-08-17T12:08:19Z</time>
      </trkpt>
      <trkpt lat="49.83302" lon="2.21853">
        <ele>43.4</ele>
        <time>2022-08-17T12:08:20Z</time>
      </trkpt>
      <trkpt lat="49.83301" lon="2.21855">
        <ele>43.4</ele>
        <time>2022-08-17T12:08:21Z</time>
      </trkpt>
      <trkpt lat="49.833" lon="2.21856">
        <ele>43.3</ele>
        <time>2022-08-17T12:08:22Z</time>
      </trkpt>
      <trkpt lat="49.83299" lon="2.21858">
        <ele>43.3</ele>
        <time>2022-08-17T12:08:24Z</time>
      </trkpt>
      <trkpt lat="49.83298" lon="2.2186">
        <ele>43.2</ele>
        <time>2022-08-17T12:08:25Z</time>
      </trkpt>
      <trkpt lat="49.83297" lon="2.21861">
        <ele>43.2</ele>
        <time>2022-08-17T12:08:26Z</time>
      </trkpt>
      <trkpt lat="49.83296" lon="2.21863">
        <ele>43.2</ele>
        <time>2022-08-17T12:08:27Z</time>
      </trkpt>
      <trkpt lat="49.83296" lon="2.21865">
        <ele>43.2</ele>
        <time>2022-08-17T12:08:28Z</time>
      </trkpt>
      <trkpt lat="49.83295" lon="2.21866">
        <ele>43.1</ele>
        <time>2022-08-17T12:08:29Z</time>
      </trkpt>
      <trkpt lat="49.83295" lon="2.21868">
        <ele>43.1</ele>
        <time>2022-08-17T12:08:31Z</time>
      </trkpt>
      <trkpt lat="49.83294" lon="2.21869">
        <ele>43.1</ele>
        <time>2022-08-17T12:08:32Z</time>
      </trkpt>
      <trkpt lat="49.83293" lon="2.21871">
        <ele>43.1</ele>
        <time>2022-08-17T12:08:33Z</time>
      </trkpt>
      <trkpt lat="49.83292" lon="2.21873">
        <ele>43</ele>
        <time>2022-08-17T12:08:34Z</time>
      </trkpt>
      <trkpt lat="49.83292" lon="2.21874">
        <ele>43</ele>
        <time>2022-08-17T12:08:35Z</time>
      </trkpt>
      <trkpt lat="49.83291" lon="2.21876">
        <ele>43</ele>
        <time>2022-08-17T12:08:36Z</time>
      </trkpt>
      <trkpt lat="49.8329" lon="2.21878">
        <ele>42.9</ele>
        <time>2022-08-17T12:08:37Z</time>
      </trkpt>
      <trkpt lat="49.8329" lon="2.2188">
        <ele>42.9</ele>
        <time>2022-08-17T12:08:38Z</time>
      </trkpt>
      <trkpt lat="49.83289" lon="2.21881">
        <ele>42.9</ele>
        <time>2022-08-17T12:08:39Z</time>
      </trkpt>
      <trkpt lat="49.83288" lon="2.21882">
        <ele>42.9</ele>
        <time>2022-08-17T12:08:40Z</time>
      </trkpt>
      <trkpt lat="49.83288" lon="2.21884">
        <ele>42.8</ele>
        <time>2022-08-17T12:08:41Z</time>
      </trkpt>
      <trkpt lat="49.83287" lon="2.21886">
        <ele>42.8</ele>
        <time>2022-08-17T12:08:43Z</time>
      </trkpt>
      <trkpt lat="49.83286" lon="2.21888">
        <ele>42.8</ele>
        <time>2022-08-17T12:08:44Z</time>
      </trkpt>
      <trkpt lat="49.83286" lon="2.21889">
        <ele>42.7</ele>
        <time>2022-08-17T12:08:45Z</time>
      </trkpt>
      <trkpt lat="49.83285" lon="2.21891">
        <ele>42.7</ele>
        <time>2022-08-17T12:08:46Z</time>
      </trkpt>
      <trkpt lat="49.83285" lon="2.21892">
        <ele>42.7</ele>
        <time>2022-08-17T12:08:47Z</time>
      </trkpt>
      <trkpt lat="49.83284" lon="2.21895">
        <ele>42.6</ele>
        <time>2022-08-17T12:08:49Z</time>
      </trkpt>
      <trkpt lat="49.83283" lon="2.21896">
        <ele>42.6</ele>
        <time>2022-08-17T12:08:50Z</time>
      </trkpt>
      <trkpt lat="49.83282" lon="2.21898">
        <ele>42.6</ele>
        <time>2022-08-17T12:08:51Z</time>
      </trkpt>
      <trkpt lat="49.83282" lon="2.21899">
        <ele>42.6</ele>
        <time>2022-08-17T12:08:52Z</time>
      </trkpt>
      <trkpt lat="49.83281" lon="2.21902">
        <ele>42.5</ele>
        <time>2022-08-17T12:08:54Z</time>
      </trkpt>
      <trkpt lat="49.8328" lon="2.21904">
        <ele>42.5</ele>
        <time>2022-08-17T12:08:55Z</time>
      </trkpt>
      <trkpt lat="49.83279" lon="2.21906">
        <ele>42.4</ele>
        <time>2022-08-17T12:08:56Z</time>
      </trkpt>
      <trkpt lat="49.83279" lon="2.21908">
        <ele>42.4</ele>
        <time>2022-08-17T12:08:57Z</time>
      </trkpt>
      <trkpt lat="49.83278" lon="2.21909">
        <ele>42.4</ele>
        <time>2022-08-17T12:08:58Z</time>
      </trkpt>
      <trkpt lat="49.83277" lon="2.21911">
        <ele>42.3</ele>
        <time>2022-08-17T12:08:59Z</time>
      </trkpt>
      <trkpt lat="49.83277" lon="2.21913">
        <ele>42.3</ele>
        <time>2022-08-17T12:09:00Z</time>
      </trkpt>
      <trkpt lat="49.83276" lon="2.21915">
        <ele>42.3</ele>
        <time>2022-08-17T12:09:01Z</time>
      </trkpt>
      <trkpt lat="49.83273" lon="2.2192">
        <ele>42.1</ele>
        <time>2022-08-17T12:09:03Z</time>
      </trkpt>
      <trkpt lat="49.83273" lon="2.2192">
        <ele>42.1</ele>
        <time>2022-08-17T12:09:04Z</time>
      </trkpt>
      <trkpt lat="49.83272" lon="2.21921">
        <ele>42.1</ele>
        <time>2022-08-17T12:09:05Z</time>
      </trkpt>
      <trkpt lat="49.83272" lon="2.21923">
        <ele>42.1</ele>
        <time>2022-08-17T12:09:06Z</time>
      </trkpt>
      <trkpt lat="49.83272" lon="2.21924">
        <ele>42</ele>
        <time>2022-08-17T12:09:07Z</time>
      </trkpt>
      <trkpt lat="49.83271" lon="2.21925">
        <ele>42</ele>
        <time>2022-08-17T12:09:08Z</time>
      </trkpt>
      <trkpt lat="49.8327" lon="2.21925">
        <ele>42</ele>
        <time>2022-08-17T12:09:09Z</time>
      </trkpt>
      <trkpt lat="49.83269" lon="2.21925">
        <ele>42</ele>
        <time>2022-08-17T12:09:11Z</time>
      </trkpt>
      <trkpt lat="49.83269" lon="2.21926">
        <ele>41.9</ele>
        <time>2022-08-17T12:09:12Z</time>
      </trkpt>
      <trkpt lat="49.83268" lon="2.21926">
        <ele>41.9</ele>
        <time>2022-08-17T12:09:13Z</time>
      </trkpt>
      <trkpt lat="49.83267" lon="2.21927">
        <ele>41.9</ele>
        <time>2022-08-17T12:09:14Z</time>
      </trkpt>
      <trkpt lat="49.83265" lon="2.21927">
        <ele>41.8</ele>
        <time>2022-08-17T12:09:15Z</time>
      </trkpt>
      <trkpt lat="49.83263" lon="2.21928">
        <ele>41.8</ele>
        <time>2022-08-17T12:09:16Z</time>
      </trkpt>
      <trkpt lat="49.83262" lon="2.2193">
        <ele>41.7</ele>
        <time>2022-08-17T12:09:17Z</time>
      </trkpt>
      <trkpt lat="49.8326" lon="2.21932">
        <ele>41.6</ele>
        <time>2022-08-17T12:09:18Z</time>
      </trkpt>
      <trkpt lat="49.83259" lon="2.21933">
        <ele>41.6</ele>
        <time>2022-08-17T12:09:19Z</time>
      </trkpt>
      <trkpt lat="49.83259" lon="2.21934">
        <ele>41</ele>
        <time>2022-08-17T12:09:20Z</time>
      </trkpt>
      <trkpt lat="49.83258" lon="2.21935">
        <ele>41</ele>
        <time>2022-08-17T12:09:21Z</time>
      </trkpt>
      <trkpt lat="49.83257" lon="2.21936">
        <ele>41</ele>
        <time>2022-08-17T12:09:23Z</time>
      </trkpt>
      <trkpt lat="49.83256" lon="2.21937">
        <ele>40.9</ele>
        <time>2022-08-17T12:09:24Z</time>
      </trkpt>
      <trkpt lat="49.83256" lon="2.2194">
        <ele>40.9</ele>
        <time>2022-08-17T12:09:25Z</time>
      </trkpt>
      <trkpt lat="49.83256" lon="2.21944">
        <ele>40.8</ele>
        <time>2022-08-17T12:09:26Z</time>
      </trkpt>
      <trkpt lat="49.83256" lon="2.21945">
        <ele>40.8</ele>
        <time>2022-08-17T12:09:27Z</time>
      </trkpt>
      <trkpt lat="49.83256" lon="2.21946">
        <ele>40.8</ele>
        <time>2022-08-17T12:09:28Z</time>
      </trkpt>
      <trkpt lat="49.83254" lon="2.21948">
        <ele>40.7</ele>
        <time>2022-08-17T12:09:30Z</time>
      </trkpt>
      <trkpt lat="49.83253" lon="2.21949">
        <ele>40.7</ele>
        <time>2022-08-17T12:09:31Z</time>
      </trkpt>
      <trkpt lat="49.83253" lon="2.2195">
        <ele>40.7</ele>
        <time>2022-08-17T12:09:32Z</time>
      </trkpt>
      <trkpt lat="49.83252" lon="2.21952">
        <ele>40.6</ele>
        <time>2022-08-17T12:09:33Z</time>
      </trkpt>
      <trkpt lat="49.83251" lon="2.21953">
        <ele>40.6</ele>
        <time>2022-08-17T12:09:34Z</time>
      </trkpt>
      <trkpt lat="49.8325" lon="2.21955">
        <ele>40.5</ele>
        <time>2022-08-17T12:09:35Z</time>
      </trkpt>
      <trkpt lat="49.83249" lon="2.21956">
        <ele>40.5</ele>
        <time>2022-08-17T12:09:36Z</time>
      </trkpt>
      <trkpt lat="49.83249" lon="2.21958">
        <ele>40.5</ele>
        <time>2022-08-17T12:09:38Z</time>
      </trkpt>
      <trkpt lat="49.83248" lon="2.21959">
        <ele>40.5</ele>
        <time>2022-08-17T12:09:39Z</time>
      </trkpt>
      <trkpt lat="49.83248" lon="2.2196">
        <ele>40.4</ele>
        <time>2022-08-17T12:09:40Z</time>
      </trkpt>
      <trkpt lat="49.83247" lon="2.21961">
        <ele>40.4</ele>
        <time>2022-08-17T12:09:41Z</time>
      </trkpt>
      <trkpt lat="49.83247" lon="2.21962">
        <ele>40.4</ele>
        <time>2022-08-17T12:09:42Z</time>
      </trkpt>
      <trkpt lat="49.83246" lon="2.21962">
        <ele>40.4</ele>
        <time>2022-08-17T12:09:43Z</time>
      </trkpt>
      <trkpt lat="49.83246" lon="2.21963">
        <ele>40.4</ele>
        <time>2022-08-17T12:09:45Z</time>
      </trkpt>
      <trkpt lat="49.83245" lon="2.21963">
        <ele>40.4</ele>
        <time>2022-08-17T12:09:47Z</time>
      </trkpt>
      <trkpt lat="49.83245" lon="2.21963">
        <ele>40.3</ele>
        <time>2022-08-17T12:09:48Z</time>
      </trkpt>
      <trkpt lat="49.83244" lon="2.21964">
        <ele>40.3</ele>
        <time>2022-08-17T12:09:49Z</time>
      </trkpt>
      <trkpt lat="49.83244" lon="2.21964">
        <ele>40.3</ele>
        <time>2022-08-17T12:09:50Z</time>
      </trkpt>
      <trkpt lat="49.83243" lon="2.21964">
        <ele>40.3</ele>
        <time>2022-08-17T12:09:51Z</time>
      </trkpt>
      <trkpt lat="49.83243" lon="2.21965">
        <ele>40.3</ele>
        <time>2022-08-17T12:09:53Z</time>
      </trkpt>
      <trkpt lat="49.83242" lon="2.21965">
        <ele>40.3</ele>
        <time>2022-08-17T12:09:54Z</time>
      </trkpt>
      <trkpt lat="49.83242" lon="2.21966">
        <ele>40.2</ele>
        <time>2022-08-17T12:09:55Z</time>
      </trkpt>
      <trkpt lat="49.83242" lon="2.21966">
        <ele>40.2</ele>
        <time>2022-08-17T12:09:56Z</time>
      </trkpt>
      <trkpt lat="49.83242" lon="2.21967">
        <ele>40.2</ele>
        <time>2022-08-17T12:09:57Z</time>
      </trkpt>
      <trkpt lat="49.83242" lon="2.21966">
        <ele>40.2</ele>
        <time>2022-08-17T12:09:58Z</time>
      </trkpt>
      <trkpt lat="49.83243" lon="2.21966">
        <ele>40.2</ele>
        <time>2022-08-17T12:09:59Z</time>
      </trkpt>
      <trkpt lat="49.83243" lon="2.21967">
        <ele>40.2</ele>
        <time>2022-08-17T12:10:00Z</time>
      </trkpt>
      <trkpt lat="49.83243" lon="2.21968">
        <ele>40.2</ele>
        <time>2022-08-17T12:10:02Z</time>
      </trkpt>
      <trkpt lat="49.83243" lon="2.2197">
        <ele>40.1</ele>
        <time>2022-08-17T12:10:03Z</time>
      </trkpt>
      <trkpt lat="49.83243" lon="2.21971">
        <ele>40.1</ele>
        <time>2022-08-17T12:10:04Z</time>
      </trkpt>
      <trkpt lat="49.83244" lon="2.21974">
        <ele>40.1</ele>
        <time>2022-08-17T12:10:05Z</time>
      </trkpt>
      <trkpt lat="49.83244" lon="2.21975">
        <ele>40.1</ele>
        <time>2022-08-17T12:10:06Z</time>
      </trkpt>
      <trkpt lat="49.83243" lon="2.21977">
        <ele>40</ele>
        <time>2022-08-17T12:10:07Z</time>
      </trkpt>
      <trkpt lat="49.83243" lon="2.21979">
        <ele>40</ele>
        <time>2022-08-17T12:10:09Z</time>
      </trkpt>
      <trkpt lat="49.83243" lon="2.21982">
        <ele>40</ele>
        <time>2022-08-17T12:10:10Z</time>
      </trkpt>
      <trkpt lat="49.83243" lon="2.21983">
        <ele>40</ele>
        <time>2022-08-17T12:10:11Z</time>
      </trkpt>
      <trkpt lat="49.83243" lon="2.21984">
        <ele>39.9</ele>
        <time>2022-08-17T12:10:12Z</time>
      </trkpt>
      <trkpt lat="49.83242" lon="2.21986">
        <ele>39.9</ele>
        <time>2022-08-17T12:10:13Z</time>
      </trkpt>
      <trkpt lat="49.83242" lon="2.21988">
        <ele>39.9</ele>
        <time>2022-08-17T12:10:14Z</time>
      </trkpt>
      <trkpt lat="49.83241" lon="2.21991">
        <ele>39.9</ele>
        <time>2022-08-17T12:10:15Z</time>
      </trkpt>
      <trkpt lat="49.83241" lon="2.21992">
        <ele>39.8</ele>
        <time>2022-08-17T12:10:16Z</time>
      </trkpt>
      <trkpt lat="49.8324" lon="2.21993">
        <ele>39.8</ele>
        <time>2022-08-17T12:10:17Z</time>
      </trkpt>
      <trkpt lat="49.83239" lon="2.21995">
        <ele>39.8</ele>
        <time>2022-08-17T12:10:18Z</time>
      </trkpt>
      <trkpt lat="49.83239" lon="2.21996">
        <ele>39.8</ele>
        <time>2022-08-17T12:10:19Z</time>
      </trkpt>
      <trkpt lat="49.83238" lon="2.21997">
        <ele>39.8</ele>
        <time>2022-08-17T12:10:20Z</time>
      </trkpt>
      <trkpt lat="49.83237" lon="2.22">
        <ele>39.8</ele>
        <time>2022-08-17T12:10:21Z</time>
      </trkpt>
      <trkpt lat="49.83237" lon="2.22002">
        <ele>39.7</ele>
        <time>2022-08-17T12:10:23Z</time>
      </trkpt>
      <trkpt lat="49.83236" lon="2.22004">
        <ele>39.7</ele>
        <time>2022-08-17T12:10:24Z</time>
      </trkpt>
      <trkpt lat="49.83235" lon="2.22007">
        <ele>39.7</ele>
        <time>2022-08-17T12:10:25Z</time>
      </trkpt>
      <trkpt lat="49.83235" lon="2.2201">
        <ele>39.7</ele>
        <time>2022-08-17T12:10:26Z</time>
      </trkpt>
      <trkpt lat="49.83234" lon="2.22011">
        <ele>39.6</ele>
        <time>2022-08-17T12:10:27Z</time>
      </trkpt>
      <trkpt lat="49.83234" lon="2.22012">
        <ele>39.6</ele>
        <time>2022-08-17T12:10:28Z</time>
      </trkpt>
      <trkpt lat="49.83231" lon="2.22015">
        <ele>39.6</ele>
        <time>2022-08-17T12:10:29Z</time>
      </trkpt>
      <trkpt lat="49.83231" lon="2.22016">
        <ele>39.6</ele>
        <time>2022-08-17T12:10:31Z</time>
      </trkpt>
      <trkpt lat="49.8323" lon="2.22017">
        <ele>39.6</ele>
        <time>2022-08-17T12:10:32Z</time>
      </trkpt>
      <trkpt lat="49.83229" lon="2.22019">
        <ele>39.5</ele>
        <time>2022-08-17T12:10:33Z</time>
      </trkpt>
      <trkpt lat="49.83229" lon="2.22021">
        <ele>39.5</ele>
        <time>2022-08-17T12:10:34Z</time>
      </trkpt>
      <trkpt lat="49.83227" lon="2.22024">
        <ele>39.5</ele>
        <time>2022-08-17T12:10:35Z</time>
      </trkpt>
      <trkpt lat="49.83226" lon="2.22024">
        <ele>39.5</ele>
        <time>2022-08-17T12:10:36Z</time>
      </trkpt>
      <trkpt lat="49.83225" lon="2.22026">
        <ele>39.5</ele>
        <time>2022-08-17T12:10:38Z</time>
      </trkpt>
      <trkpt lat="49.83225" lon="2.22028">
        <ele>39.5</ele>
        <time>2022-08-17T12:10:39Z</time>
      </trkpt>
      <trkpt lat="49.83224" lon="2.2203">
        <ele>39.5</ele>
        <time>2022-08-17T12:10:40Z</time>
      </trkpt>
      <trkpt lat="49.83224" lon="2.22031">
        <ele>39.5</ele>
        <time>2022-08-17T12:10:41Z</time>
      </trkpt>
      <trkpt lat="49.83224" lon="2.22032">
        <ele>39.4</ele>
        <time>2022-08-17T12:10:42Z</time>
      </trkpt>
      <trkpt lat="49.83223" lon="2.22036">
        <ele>39.4</ele>
        <time>2022-08-17T12:10:43Z</time>
      </trkpt>
      <trkpt lat="49.83223" lon="2.22038">
        <ele>39.4</ele>
        <time>2022-08-17T12:10:44Z</time>
      </trkpt>
      <trkpt lat="49.83222" lon="2.22039">
        <ele>39.4</ele>
        <time>2022-08-17T12:10:45Z</time>
      </trkpt>
      <trkpt lat="49.83222" lon="2.2204">
        <ele>39.4</ele>
        <time>2022-08-17T12:10:46Z</time>
      </trkpt>
      <trkpt lat="49.83222" lon="2.22042">
        <ele>39.4</ele>
        <time>2022-08-17T12:10:48Z</time>
      </trkpt>
      <trkpt lat="49.83222" lon="2.22043">
        <ele>39.4</ele>
        <time>2022-08-17T12:10:49Z</time>
      </trkpt>
      <trkpt lat="49.83223" lon="2.22045">
        <ele>39.4</ele>
        <time>2022-08-17T12:10:50Z</time>
      </trkpt>
      <trkpt lat="49.83222" lon="2.22046">
        <ele>39.3</ele>
        <time>2022-08-17T12:10:51Z</time>
      </trkpt>
      <trkpt lat="49.83222" lon="2.22048">
        <ele>39.3</ele>
        <time>2022-08-17T12:10:52Z</time>
      </trkpt>
      <trkpt lat="49.83221" lon="2.22051">
        <ele>39.3</ele>
        <time>2022-08-17T12:10:53Z</time>
      </trkpt>
      <trkpt lat="49.8322" lon="2.22052">
        <ele>39.3</ele>
        <time>2022-08-17T12:10:55Z</time>
      </trkpt>
      <trkpt lat="49.8322" lon="2.22053">
        <ele>39.3</ele>
        <time>2022-08-17T12:10:56Z</time>
      </trkpt>
      <trkpt lat="49.8322" lon="2.22055">
        <ele>39.3</ele>
        <time>2022-08-17T12:10:57Z</time>
      </trkpt>
      <trkpt lat="49.83219" lon="2.22056">
        <ele>39.3</ele>
        <time>2022-08-17T12:10:58Z</time>
      </trkpt>
      <trkpt lat="49.83219" lon="2.22059">
        <ele>39.2</ele>
        <time>2022-08-17T12:10:59Z</time>
      </trkpt>
      <trkpt lat="49.83218" lon="2.22062">
        <ele>39.2</ele>
        <time>2022-08-17T12:11:01Z</time>
      </trkpt>
      <trkpt lat="49.83217" lon="2.22063">
        <ele>39.2</ele>
        <time>2022-08-17T12:11:02Z</time>
      </trkpt>
      <trkpt lat="49.83217" lon="2.22064">
        <ele>39.2</ele>
        <time>2022-08-17T12:11:03Z</time>
      </trkpt>
      <trkpt lat="49.83216" lon="2.22068">
        <ele>39.1</ele>
        <time>2022-08-17T12:11:04Z</time>
      </trkpt>
      <trkpt lat="49.83215" lon="2.2207">
        <ele>39.1</ele>
        <time>2022-08-17T12:11:05Z</time>
      </trkpt>
      <trkpt lat="49.83215" lon="2.22072">
        <ele>39.1</ele>
        <time>2022-08-17T12:11:07Z</time>
      </trkpt>
      <trkpt lat="49.83214" lon="2.22074">
        <ele>39.1</ele>
        <time>2022-08-17T12:11:08Z</time>
      </trkpt>
      <trkpt lat="49.83214" lon="2.22075">
        <ele>39.1</ele>
        <time>2022-08-17T12:11:09Z</time>
      </trkpt>
      <trkpt lat="49.83213" lon="2.22078">
        <ele>39</ele>
        <time>2022-08-17T12:11:10Z</time>
      </trkpt>
      <trkpt lat="49.83213" lon="2.2208">
        <ele>39</ele>
        <time>2022-08-17T12:11:11Z</time>
      </trkpt>
      <trkpt lat="49.83213" lon="2.22081">
        <ele>39</ele>
        <time>2022-08-17T12:11:12Z</time>
      </trkpt>
      <trkpt lat="49.83213" lon="2.22083">
        <ele>39</ele>
        <time>2022-08-17T12:11:13Z</time>
      </trkpt>
      <trkpt lat="49.83212" lon="2.22086">
        <ele>39</ele>
        <time>2022-08-17T12:11:14Z</time>
      </trkpt>
      <trkpt lat="49.83212" lon="2.22087">
        <ele>39</ele>
        <time>2022-08-17T12:11:16Z</time>
      </trkpt>
      <trkpt lat="49.83212" lon="2.22089">
        <ele>39</ele>
        <time>2022-08-17T12:11:17Z</time>
      </trkpt>
      <trkpt lat="49.83211" lon="2.22092">
        <ele>38.9</ele>
        <time>2022-08-17T12:11:18Z</time>
      </trkpt>
      <trkpt lat="49.83211" lon="2.22093">
        <ele>38.9</ele>
        <time>2022-08-17T12:11:19Z</time>
      </trkpt>
      <trkpt lat="49.83211" lon="2.22095">
        <ele>38.9</ele>
        <time>2022-08-17T12:11:20Z</time>
      </trkpt>
      <trkpt lat="49.8321" lon="2.22097">
        <ele>38.9</ele>
        <time>2022-08-17T12:11:21Z</time>
      </trkpt>
      <trkpt lat="49.8321" lon="2.22099">
        <ele>38.9</ele>
        <time>2022-08-17T12:11:22Z</time>
      </trkpt>
      <trkpt lat="49.83209" lon="2.22101">
        <ele>38.9</ele>
        <time>2022-08-17T12:11:23Z</time>
      </trkpt>
      <trkpt lat="49.83209" lon="2.22104">
        <ele>38.8</ele>
        <time>2022-08-17T12:11:25Z</time>
      </trkpt>
      <trkpt lat="49.83208" lon="2.22106">
        <ele>38.8</ele>
        <time>2022-08-17T12:11:26Z</time>
      </trkpt>
      <trkpt lat="49.83208" lon="2.22108">
        <ele>38.8</ele>
        <time>2022-08-17T12:11:27Z</time>
      </trkpt>
      <trkpt lat="49.83207" lon="2.2211">
        <ele>38.8</ele>
        <time>2022-08-17T12:11:28Z</time>
      </trkpt>
      <trkpt lat="49.83207" lon="2.22112">
        <ele>38.8</ele>
        <time>2022-08-17T12:11:29Z</time>
      </trkpt>
      <trkpt lat="49.83206" lon="2.22112">
        <ele>38.8</ele>
        <time>2022-08-17T12:11:30Z</time>
      </trkpt>
      <trkpt lat="49.83205" lon="2.22115">
        <ele>38.7</ele>
        <time>2022-08-17T12:11:31Z</time>
      </trkpt>
      <trkpt lat="49.83204" lon="2.22116">
        <ele>38.7</ele>
        <time>2022-08-17T12:11:32Z</time>
      </trkpt>
      <trkpt lat="49.83204" lon="2.22118">
        <ele>38.7</ele>
        <time>2022-08-17T12:11:33Z</time>
      </trkpt>
      <trkpt lat="49.83203" lon="2.22119">
        <ele>38.7</ele>
        <time>2022-08-17T12:11:35Z</time>
      </trkpt>
      <trkpt lat="49.83203" lon="2.22121">
        <ele>38.7</ele>
        <time>2022-08-17T12:11:36Z</time>
      </trkpt>
      <trkpt lat="49.83203" lon="2.22123">
        <ele>38.7</ele>
        <time>2022-08-17T12:11:37Z</time>
      </trkpt>
      <trkpt lat="49.83202" lon="2.22125">
        <ele>38.6</ele>
        <time>2022-08-17T12:11:38Z</time>
      </trkpt>
      <trkpt lat="49.83202" lon="2.22127">
        <ele>38.6</ele>
        <time>2022-08-17T12:11:39Z</time>
      </trkpt>
      <trkpt lat="49.83202" lon="2.22129">
        <ele>38.6</ele>
        <time>2022-08-17T12:11:41Z</time>
      </trkpt>
      <trkpt lat="49.83201" lon="2.22131">
        <ele>38.6</ele>
        <time>2022-08-17T12:11:42Z</time>
      </trkpt>
      <trkpt lat="49.83201" lon="2.22132">
        <ele>38.6</ele>
        <time>2022-08-17T12:11:43Z</time>
      </trkpt>
      <trkpt lat="49.83201" lon="2.22134">
        <ele>38.6</ele>
        <time>2022-08-17T12:11:44Z</time>
      </trkpt>
      <trkpt lat="49.832" lon="2.22136">
        <ele>38.5</ele>
        <time>2022-08-17T12:11:46Z</time>
      </trkpt>
      <trkpt lat="49.832" lon="2.22138">
        <ele>38.5</ele>
        <time>2022-08-17T12:11:47Z</time>
      </trkpt>
      <trkpt lat="49.83199" lon="2.2214">
        <ele>38.5</ele>
        <time>2022-08-17T12:11:48Z</time>
      </trkpt>
      <trkpt lat="49.83199" lon="2.22141">
        <ele>38.5</ele>
        <time>2022-08-17T12:11:49Z</time>
      </trkpt>
      <trkpt lat="49.83198" lon="2.22145">
        <ele>38.5</ele>
        <time>2022-08-17T12:11:50Z</time>
      </trkpt>
      <trkpt lat="49.83198" lon="2.22145">
        <ele>38.5</ele>
        <time>2022-08-17T12:11:51Z</time>
      </trkpt>
      <trkpt lat="49.83198" lon="2.22147">
        <ele>38.5</ele>
        <time>2022-08-17T12:11:53Z</time>
      </trkpt>
      <trkpt lat="49.83197" lon="2.22148">
        <ele>38.4</ele>
        <time>2022-08-17T12:11:54Z</time>
      </trkpt>
      <trkpt lat="49.83197" lon="2.22149">
        <ele>38.4</ele>
        <time>2022-08-17T12:11:55Z</time>
      </trkpt>
      <trkpt lat="49.83197" lon="2.22151">
        <ele>38.4</ele>
        <time>2022-08-17T12:11:56Z</time>
      </trkpt>
      <trkpt lat="49.83196" lon="2.22153">
        <ele>38.4</ele>
        <time>2022-08-17T12:11:57Z</time>
      </trkpt>
      <trkpt lat="49.83196" lon="2.22155">
        <ele>38.4</ele>
        <time>2022-08-17T12:11:58Z</time>
      </trkpt>
      <trkpt lat="49.83195" lon="2.22156">
        <ele>38.4</ele>
        <time>2022-08-17T12:12:00Z</time>
      </trkpt>
      <trkpt lat="49.83194" lon="2.22159">
        <ele>38.3</ele>
        <time>2022-08-17T12:12:01Z</time>
      </trkpt>
      <trkpt lat="49.83194" lon="2.2216">
        <ele>38.3</ele>
        <time>2022-08-17T12:12:02Z</time>
      </trkpt>
      <trkpt lat="49.83194" lon="2.22161">
        <ele>38.3</ele>
        <time>2022-08-17T12:12:03Z</time>
      </trkpt>
      <trkpt lat="49.83193" lon="2.22163">
        <ele>38.3</ele>
        <time>2022-08-17T12:12:04Z</time>
      </trkpt>
      <trkpt lat="49.83193" lon="2.22166">
        <ele>38.3</ele>
        <time>2022-08-17T12:12:05Z</time>
      </trkpt>
      <trkpt lat="49.83193" lon="2.22167">
        <ele>38.3</ele>
        <time>2022-08-17T12:12:06Z</time>
      </trkpt>
      <trkpt lat="49.83192" lon="2.22168">
        <ele>38.3</ele>
        <time>2022-08-17T12:12:07Z</time>
      </trkpt>
      <trkpt lat="49.83192" lon="2.22172">
        <ele>38.2</ele>
        <time>2022-08-17T12:12:09Z</time>
      </trkpt>
      <trkpt lat="49.83191" lon="2.22174">
        <ele>38.2</ele>
        <time>2022-08-17T12:12:10Z</time>
      </trkpt>
      <trkpt lat="49.83191" lon="2.22175">
        <ele>38.2</ele>
        <time>2022-08-17T12:12:11Z</time>
      </trkpt>
      <trkpt lat="49.83191" lon="2.22176">
        <ele>38.2</ele>
        <time>2022-08-17T12:12:12Z</time>
      </trkpt>
      <trkpt lat="49.83191" lon="2.22177">
        <ele>38.2</ele>
        <time>2022-08-17T12:12:13Z</time>
      </trkpt>
      <trkpt lat="49.83191" lon="2.22178">
        <ele>38.2</ele>
        <time>2022-08-17T12:12:14Z</time>
      </trkpt>
      <trkpt lat="49.83191" lon="2.2218">
        <ele>38.2</ele>
        <time>2022-08-17T12:12:16Z</time>
      </trkpt>
      <trkpt lat="49.83191" lon="2.22182">
        <ele>38.2</ele>
        <time>2022-08-17T12:12:17Z</time>
      </trkpt>
      <trkpt lat="49.8319" lon="2.22183">
        <ele>38.2</ele>
        <time>2022-08-17T12:12:18Z</time>
      </trkpt>
      <trkpt lat="49.8319" lon="2.22185">
        <ele>38.2</ele>
        <time>2022-08-17T12:12:19Z</time>
      </trkpt>
      <trkpt lat="49.8319" lon="2.22187">
        <ele>38.2</ele>
        <time>2022-08-17T12:12:20Z</time>
      </trkpt>
      <trkpt lat="49.8319" lon="2.22189">
        <ele>38.1</ele>
        <time>2022-08-17T12:12:21Z</time>
      </trkpt>
      <trkpt lat="49.83189" lon="2.22193">
        <ele>38.1</ele>
        <time>2022-08-17T12:12:23Z</time>
      </trkpt>
      <trkpt lat="49.83189" lon="2.22194">
        <ele>38.1</ele>
        <time>2022-08-17T12:12:24Z</time>
      </trkpt>
      <trkpt lat="49.83188" lon="2.22195">
        <ele>38.1</ele>
        <time>2022-08-17T12:12:25Z</time>
      </trkpt>
      <trkpt lat="49.83187" lon="2.22198">
        <ele>38.1</ele>
        <time>2022-08-17T12:12:26Z</time>
      </trkpt>
      <trkpt lat="49.83187" lon="2.22199">
        <ele>38.1</ele>
        <time>2022-08-17T12:12:27Z</time>
      </trkpt>
      <trkpt lat="49.83187" lon="2.222">
        <ele>38.1</ele>
        <time>2022-08-17T12:12:28Z</time>
      </trkpt>
      <trkpt lat="49.83186" lon="2.22203">
        <ele>38</ele>
        <time>2022-08-17T12:12:29Z</time>
      </trkpt>
      <trkpt lat="49.83185" lon="2.22204">
        <ele>38</ele>
        <time>2022-08-17T12:12:31Z</time>
      </trkpt>
      <trkpt lat="49.83185" lon="2.22206">
        <ele>38</ele>
        <time>2022-08-17T12:12:32Z</time>
      </trkpt>
      <trkpt lat="49.83184" lon="2.22207">
        <ele>38</ele>
        <time>2022-08-17T12:12:33Z</time>
      </trkpt>
      <trkpt lat="49.83184" lon="2.22209">
        <ele>38</ele>
        <time>2022-08-17T12:12:34Z</time>
      </trkpt>
      <trkpt lat="49.83184" lon="2.22211">
        <ele>38</ele>
        <time>2022-08-17T12:12:35Z</time>
      </trkpt>
      <trkpt lat="49.83183" lon="2.22212">
        <ele>38</ele>
        <time>2022-08-17T12:12:36Z</time>
      </trkpt>
      <trkpt lat="49.83183" lon="2.22214">
        <ele>38</ele>
        <time>2022-08-17T12:12:37Z</time>
      </trkpt>
      <trkpt lat="49.83183" lon="2.22215">
        <ele>38</ele>
        <time>2022-08-17T12:12:38Z</time>
      </trkpt>
      <trkpt lat="49.83182" lon="2.22217">
        <ele>38</ele>
        <time>2022-08-17T12:12:40Z</time>
      </trkpt>
      <trkpt lat="49.83182" lon="2.2222">
        <ele>38</ele>
        <time>2022-08-17T12:12:41Z</time>
      </trkpt>
      <trkpt lat="49.83181" lon="2.22221">
        <ele>38</ele>
        <time>2022-08-17T12:12:42Z</time>
      </trkpt>
      <trkpt lat="49.83181" lon="2.22222">
        <ele>38</ele>
        <time>2022-08-17T12:12:43Z</time>
      </trkpt>
      <trkpt lat="49.83181" lon="2.22224">
        <ele>38</ele>
        <time>2022-08-17T12:12:44Z</time>
      </trkpt>
      <trkpt lat="49.83181" lon="2.22226">
        <ele>38</ele>
        <time>2022-08-17T12:12:45Z</time>
      </trkpt>
      <trkpt lat="49.8318" lon="2.22228">
        <ele>38</ele>
        <time>2022-08-17T12:12:46Z</time>
      </trkpt>
      <trkpt lat="49.8318" lon="2.22231">
        <ele>38</ele>
        <time>2022-08-17T12:12:47Z</time>
      </trkpt>
      <trkpt lat="49.8318" lon="2.22232">
        <ele>38</ele>
        <time>2022-08-17T12:12:49Z</time>
      </trkpt>
      <trkpt lat="49.8318" lon="2.22234">
        <ele>38</ele>
        <time>2022-08-17T12:12:50Z</time>
      </trkpt>
      <trkpt lat="49.8318" lon="2.22236">
        <ele>38</ele>
        <time>2022-08-17T12:12:51Z</time>
      </trkpt>
      <trkpt lat="49.8318" lon="2.22238">
        <ele>38</ele>
        <time>2022-08-17T12:12:52Z</time>
      </trkpt>
      <trkpt lat="49.8318" lon="2.22239">
        <ele>38</ele>
        <time>2022-08-17T12:12:53Z</time>
      </trkpt>
      <trkpt lat="49.8318" lon="2.22241">
        <ele>38</ele>
        <time>2022-08-17T12:12:54Z</time>
      </trkpt>
      <trkpt lat="49.8318" lon="2.22243">
        <ele>38</ele>
        <time>2022-08-17T12:12:55Z</time>
      </trkpt>
      <trkpt lat="49.8318" lon="2.22246">
        <ele>38</ele>
        <time>2022-08-17T12:12:56Z</time>
      </trkpt>
      <trkpt lat="49.8318" lon="2.22248">
        <ele>38</ele>
        <time>2022-08-17T12:12:57Z</time>
      </trkpt>
      <trkpt lat="49.83179" lon="2.22253">
        <ele>38</ele>
        <time>2022-08-17T12:12:59Z</time>
      </trkpt>
      <trkpt lat="49.83179" lon="2.22254">
        <ele>38</ele>
        <time>2022-08-17T12:13:00Z</time>
      </trkpt>
      <trkpt lat="49.8318" lon="2.22258">
        <ele>38</ele>
        <time>2022-08-17T12:13:01Z</time>
      </trkpt>
      <trkpt lat="49.8318" lon="2.22259">
        <ele>38</ele>
        <time>2022-08-17T12:13:02Z</time>
      </trkpt>
      <trkpt lat="49.83179" lon="2.22262">
        <ele>38</ele>
        <time>2022-08-17T12:13:03Z</time>
      </trkpt>
      <trkpt lat="49.83179" lon="2.22264">
        <ele>38</ele>
        <time>2022-08-17T12:13:04Z</time>
      </trkpt>
      <trkpt lat="49.83179" lon="2.22265">
        <ele>38</ele>
        <time>2022-08-17T12:13:05Z</time>
      </trkpt>
      <trkpt lat="49.83179" lon="2.22268">
        <ele>38</ele>
        <time>2022-08-17T12:13:06Z</time>
      </trkpt>
      <trkpt lat="49.83179" lon="2.22269">
        <ele>38</ele>
        <time>2022-08-17T12:13:07Z</time>
      </trkpt>
      <trkpt lat="49.83179" lon="2.22271">
        <ele>38</ele>
        <time>2022-08-17T12:13:09Z</time>
      </trkpt>
      <trkpt lat="49.83179" lon="2.22273">
        <ele>38</ele>
        <time>2022-08-17T12:13:10Z</time>
      </trkpt>
      <trkpt lat="49.83179" lon="2.22274">
        <ele>38</ele>
        <time>2022-08-17T12:13:11Z</time>
      </trkpt>
      <trkpt lat="49.8318" lon="2.22276">
        <ele>38</ele>
        <time>2022-08-17T12:13:12Z</time>
      </trkpt>
      <trkpt lat="49.8318" lon="2.22278">
        <ele>38</ele>
        <time>2022-08-17T12:13:13Z</time>
      </trkpt>
      <trkpt lat="49.8318" lon="2.2228">
        <ele>38</ele>
        <time>2022-08-17T12:13:14Z</time>
      </trkpt>
      <trkpt lat="49.8318" lon="2.22282">
        <ele>38</ele>
        <time>2022-08-17T12:13:15Z</time>
      </trkpt>
      <trkpt lat="49.8318" lon="2.22283">
        <ele>38</ele>
        <time>2022-08-17T12:13:16Z</time>
      </trkpt>
      <trkpt lat="49.8318" lon="2.22285">
        <ele>38</ele>
        <time>2022-08-17T12:13:17Z</time>
      </trkpt>
      <trkpt lat="49.8318" lon="2.22286">
        <ele>38</ele>
        <time>2022-08-17T12:13:19Z</time>
      </trkpt>
      <trkpt lat="49.8318" lon="2.22288">
        <ele>38</ele>
        <time>2022-08-17T12:13:20Z</time>
      </trkpt>
      <trkpt lat="49.8318" lon="2.22291">
        <ele>38</ele>
        <time>2022-08-17T12:13:21Z</time>
      </trkpt>
      <trkpt lat="49.8318" lon="2.22293">
        <ele>38</ele>
        <time>2022-08-17T12:13:22Z</time>
      </trkpt>
      <trkpt lat="49.8318" lon="2.22296">
        <ele>38</ele>
        <time>2022-08-17T12:13:23Z</time>
      </trkpt>
      <trkpt lat="49.8318" lon="2.223">
        <ele>38</ele>
        <time>2022-08-17T12:13:25Z</time>
      </trkpt>
      <trkpt lat="49.83181" lon="2.22302">
        <ele>38</ele>
        <time>2022-08-17T12:13:26Z</time>
      </trkpt>
      <trkpt lat="49.8318" lon="2.22303">
        <ele>38</ele>
        <time>2022-08-17T12:13:27Z</time>
      </trkpt>
      <trkpt lat="49.8318" lon="2.22305">
        <ele>38</ele>
        <time>2022-08-17T12:13:28Z</time>
      </trkpt>
      <trkpt lat="49.8318" lon="2.22307">
        <ele>38</ele>
        <time>2022-08-17T12:13:29Z</time>
      </trkpt>
      <trkpt lat="49.8318" lon="2.22309">
        <ele>38</ele>
        <time>2022-08-17T12:13:30Z</time>
      </trkpt>
      <trkpt lat="49.83179" lon="2.22311">
        <ele>38</ele>
        <time>2022-08-17T12:13:32Z</time>
      </trkpt>
      <trkpt lat="49.83179" lon="2.22312">
        <ele>38</ele>
        <time>2022-08-17T12:13:33Z</time>
      </trkpt>
      <trkpt lat="49.83179" lon="2.22314">
        <ele>38</ele>
        <time>2022-08-17T12:13:34Z</time>
      </trkpt>
      <trkpt lat="49.83179" lon="2.22316">
        <ele>38</ele>
        <time>2022-08-17T12:13:35Z</time>
      </trkpt>
      <trkpt lat="49.83179" lon="2.22318">
        <ele>38</ele>
        <time>2022-08-17T12:13:36Z</time>
      </trkpt>
      <trkpt lat="49.83179" lon="2.2232">
        <ele>38</ele>
        <time>2022-08-17T12:13:38Z</time>
      </trkpt>
      <trkpt lat="49.83179" lon="2.22321">
        <ele>38</ele>
        <time>2022-08-17T12:13:39Z</time>
      </trkpt>
      <trkpt lat="49.83178" lon="2.22322">
        <ele>38</ele>
        <time>2022-08-17T12:13:40Z</time>
      </trkpt>
      <trkpt lat="49.83178" lon="2.22324">
        <ele>38</ele>
        <time>2022-08-17T12:13:41Z</time>
      </trkpt>
      <trkpt lat="49.83178" lon="2.22326">
        <ele>38</ele>
        <time>2022-08-17T12:13:42Z</time>
      </trkpt>
      <trkpt lat="49.83176" lon="2.22328">
        <ele>38</ele>
        <time>2022-08-17T12:13:43Z</time>
      </trkpt>
      <trkpt lat="49.83175" lon="2.22329">
        <ele>38</ele>
        <time>2022-08-17T12:13:45Z</time>
      </trkpt>
      <trkpt lat="49.83174" lon="2.2233">
        <ele>38</ele>
        <time>2022-08-17T12:13:47Z</time>
      </trkpt>
      <trkpt lat="49.83174" lon="2.22331">
        <ele>38</ele>
        <time>2022-08-17T12:13:48Z</time>
      </trkpt>
      <trkpt lat="49.83173" lon="2.22332">
        <ele>38</ele>
        <time>2022-08-17T12:13:50Z</time>
      </trkpt>
      <trkpt lat="49.83172" lon="2.22333">
        <ele>38</ele>
        <time>2022-08-17T12:13:51Z</time>
      </trkpt>
      <trkpt lat="49.83172" lon="2.22333">
        <ele>38</ele>
        <time>2022-08-17T12:13:52Z</time>
      </trkpt>
      <trkpt lat="49.83173" lon="2.22334">
        <ele>38</ele>
        <time>2022-08-17T12:13:53Z</time>
      </trkpt>
      <trkpt lat="49.83173" lon="2.22334">
        <ele>38</ele>
        <time>2022-08-17T12:13:54Z</time>
      </trkpt>
      <trkpt lat="49.83174" lon="2.22334">
        <ele>38</ele>
        <time>2022-08-17T12:13:55Z</time>
      </trkpt>
      <trkpt lat="49.83176" lon="2.22333">
        <ele>38</ele>
        <time>2022-08-17T12:13:57Z</time>
      </trkpt>
      <trkpt lat="49.83176" lon="2.22332">
        <ele>38</ele>
        <time>2022-08-17T12:13:58Z</time>
      </trkpt>
      <trkpt lat="49.83176" lon="2.22332">
        <ele>38</ele>
        <time>2022-08-17T12:13:59Z</time>
      </trkpt>
      <trkpt lat="49.83176" lon="2.22331">
        <ele>38</ele>
        <time>2022-08-17T12:14:00Z</time>
      </trkpt>
      <trkpt lat="49.83176" lon="2.22331">
        <ele>38</ele>
        <time>2022-08-17T12:14:01Z</time>
      </trkpt>
      <trkpt lat="49.83176" lon="2.2233">
        <ele>38</ele>
        <time>2022-08-17T12:14:02Z</time>
      </trkpt>
      <trkpt lat="49.83176" lon="2.22331">
        <ele>38</ele>
        <time>2022-08-17T12:14:03Z</time>
      </trkpt>
      <trkpt lat="49.83176" lon="2.22332">
        <ele>38</ele>
        <time>2022-08-17T12:14:04Z</time>
      </trkpt>
      <trkpt lat="49.83176" lon="2.22333">
        <ele>38</ele>
        <time>2022-08-17T12:14:06Z</time>
      </trkpt>
      <trkpt lat="49.83175" lon="2.22334">
        <ele>38</ele>
        <time>2022-08-17T12:14:07Z</time>
      </trkpt>
      <trkpt lat="49.83175" lon="2.22335">
        <ele>38</ele>
        <time>2022-08-17T12:14:08Z</time>
      </trkpt>
      <trkpt lat="49.83175" lon="2.22336">
        <ele>38</ele>
        <time>2022-08-17T12:14:09Z</time>
      </trkpt>
      <trkpt lat="49.83174" lon="2.22337">
        <ele>38</ele>
        <time>2022-08-17T12:14:10Z</time>
      </trkpt>
      <trkpt lat="49.83174" lon="2.22338">
        <ele>38</ele>
        <time>2022-08-17T12:14:11Z</time>
      </trkpt>
      <trkpt lat="49.83173" lon="2.22339">
        <ele>38</ele>
        <time>2022-08-17T12:14:12Z</time>
      </trkpt>
      <trkpt lat="49.83173" lon="2.2234">
        <ele>38</ele>
        <time>2022-08-17T12:14:13Z</time>
      </trkpt>
      <trkpt lat="49.83172" lon="2.22341">
        <ele>38</ele>
        <time>2022-08-17T12:14:14Z</time>
      </trkpt>
      <trkpt lat="49.83172" lon="2.22341">
        <ele>38</ele>
        <time>2022-08-17T12:14:15Z</time>
      </trkpt>
      <trkpt lat="49.83171" lon="2.22342">
        <ele>38</ele>
        <time>2022-08-17T12:14:16Z</time>
      </trkpt>
      <trkpt lat="49.83169" lon="2.22342">
        <ele>38</ele>
        <time>2022-08-17T12:14:17Z</time>
      </trkpt>
      <trkpt lat="49.83168" lon="2.22343">
        <ele>38</ele>
        <time>2022-08-17T12:14:18Z</time>
      </trkpt>
      <trkpt lat="49.83167" lon="2.22344">
        <ele>38</ele>
        <time>2022-08-17T12:14:19Z</time>
      </trkpt>
      <trkpt lat="49.83166" lon="2.22345">
        <ele>38</ele>
        <time>2022-08-17T12:14:20Z</time>
      </trkpt>
      <trkpt lat="49.83163" lon="2.22348">
        <ele>38.1</ele>
        <time>2022-08-17T12:14:21Z</time>
      </trkpt>
      <trkpt lat="49.83162" lon="2.22349">
        <ele>38.1</ele>
        <time>2022-08-17T12:14:22Z</time>
      </trkpt>
      <trkpt lat="49.83161" lon="2.2235">
        <ele>38.1</ele>
        <time>2022-08-17T12:14:24Z</time>
      </trkpt>
      <trkpt lat="49.83161" lon="2.22351">
        <ele>38.1</ele>
        <time>2022-08-17T12:14:25Z</time>
      </trkpt>
      <trkpt lat="49.83158" lon="2.22355">
        <ele>38.1</ele>
        <time>2022-08-17T12:14:26Z</time>
      </trkpt>
      <trkpt lat="49.83156" lon="2.22356">
        <ele>38.1</ele>
        <time>2022-08-17T12:14:27Z</time>
      </trkpt>
      <trkpt lat="49.83155" lon="2.22359">
        <ele>38.1</ele>
        <time>2022-08-17T12:14:28Z</time>
      </trkpt>
      <trkpt lat="49.83154" lon="2.2236">
        <ele>38.1</ele>
        <time>2022-08-17T12:14:29Z</time>
      </trkpt>
      <trkpt lat="49.83153" lon="2.22361">
        <ele>38.1</ele>
        <time>2022-08-17T12:14:30Z</time>
      </trkpt>
      <trkpt lat="49.83151" lon="2.22365">
        <ele>38.1</ele>
        <time>2022-08-17T12:14:31Z</time>
      </trkpt>
      <trkpt lat="49.8315" lon="2.22365">
        <ele>38.1</ele>
        <time>2022-08-17T12:14:32Z</time>
      </trkpt>
      <trkpt lat="49.83149" lon="2.22366">
        <ele>38.1</ele>
        <time>2022-08-17T12:14:33Z</time>
      </trkpt>
      <trkpt lat="49.83149" lon="2.22367">
        <ele>38.1</ele>
        <time>2022-08-17T12:14:35Z</time>
      </trkpt>
      <trkpt lat="49.83148" lon="2.22368">
        <ele>38.1</ele>
        <time>2022-08-17T12:14:36Z</time>
      </trkpt>
      <trkpt lat="49.83146" lon="2.2237">
        <ele>38.1</ele>
        <time>2022-08-17T12:14:37Z</time>
      </trkpt>
      <trkpt lat="49.83146" lon="2.2237">
        <ele>38.1</ele>
        <time>2022-08-17T12:14:38Z</time>
      </trkpt>
      <trkpt lat="49.83145" lon="2.22371">
        <ele>38.1</ele>
        <time>2022-08-17T12:14:39Z</time>
      </trkpt>
      <trkpt lat="49.83144" lon="2.22372">
        <ele>38.1</ele>
        <time>2022-08-17T12:14:40Z</time>
      </trkpt>
      <trkpt lat="49.83143" lon="2.22374">
        <ele>38.1</ele>
        <time>2022-08-17T12:14:41Z</time>
      </trkpt>
      <trkpt lat="49.83143" lon="2.22374">
        <ele>38.1</ele>
        <time>2022-08-17T12:14:42Z</time>
      </trkpt>
      <trkpt lat="49.83142" lon="2.22375">
        <ele>38.1</ele>
        <time>2022-08-17T12:14:44Z</time>
      </trkpt>
      <trkpt lat="49.83141" lon="2.22376">
        <ele>38.1</ele>
        <time>2022-08-17T12:14:45Z</time>
      </trkpt>
      <trkpt lat="49.8314" lon="2.22376">
        <ele>38.1</ele>
        <time>2022-08-17T12:14:46Z</time>
      </trkpt>
      <trkpt lat="49.83137" lon="2.22375">
        <ele>38.1</ele>
        <time>2022-08-17T12:14:47Z</time>
      </trkpt>
      <trkpt lat="49.83136" lon="2.22375">
        <ele>38.1</ele>
        <time>2022-08-17T12:14:48Z</time>
      </trkpt>
      <trkpt lat="49.83135" lon="2.22376">
        <ele>38.1</ele>
        <time>2022-08-17T12:14:49Z</time>
      </trkpt>
      <trkpt lat="49.83135" lon="2.22378">
        <ele>38.1</ele>
        <time>2022-08-17T12:14:50Z</time>
      </trkpt>
      <trkpt lat="49.83133" lon="2.2238">
        <ele>38.1</ele>
        <time>2022-08-17T12:14:51Z</time>
      </trkpt>
      <trkpt lat="49.83132" lon="2.2238">
        <ele>38.1</ele>
        <time>2022-08-17T12:14:52Z</time>
      </trkpt>
      <trkpt lat="49.83131" lon="2.22382">
        <ele>38.1</ele>
        <time>2022-08-17T12:14:54Z</time>
      </trkpt>
      <trkpt lat="49.8313" lon="2.22383">
        <ele>38.1</ele>
        <time>2022-08-17T12:14:55Z</time>
      </trkpt>
      <trkpt lat="49.8313" lon="2.22384">
        <ele>38.1</ele>
        <time>2022-08-17T12:14:56Z</time>
      </trkpt>
      <trkpt lat="49.83128" lon="2.22388">
        <ele>38.1</ele>
        <time>2022-08-17T12:14:57Z</time>
      </trkpt>
      <trkpt lat="49.83128" lon="2.22389">
        <ele>38.1</ele>
        <time>2022-08-17T12:14:58Z</time>
      </trkpt>
      <trkpt lat="49.83127" lon="2.2239">
        <ele>38.1</ele>
        <time>2022-08-17T12:14:59Z</time>
      </trkpt>
      <trkpt lat="49.83126" lon="2.22392">
        <ele>38.1</ele>
        <time>2022-08-17T12:15:01Z</time>
      </trkpt>
      <trkpt lat="49.83124" lon="2.22396">
        <ele>38.1</ele>
        <time>2022-08-17T12:15:02Z</time>
      </trkpt>
      <trkpt lat="49.83123" lon="2.22397">
        <ele>38.1</ele>
        <time>2022-08-17T12:15:03Z</time>
      </trkpt>
      <trkpt lat="49.83122" lon="2.224">
        <ele>38.1</ele>
        <time>2022-08-17T12:15:04Z</time>
      </trkpt>
      <trkpt lat="49.83121" lon="2.22401">
        <ele>38.1</ele>
        <time>2022-08-17T12:15:05Z</time>
      </trkpt>
      <trkpt lat="49.8312" lon="2.22403">
        <ele>38.1</ele>
        <time>2022-08-17T12:15:06Z</time>
      </trkpt>
      <trkpt lat="49.83119" lon="2.22403">
        <ele>38.1</ele>
        <time>2022-08-17T12:15:07Z</time>
      </trkpt>
      <trkpt lat="49.83118" lon="2.22405">
        <ele>38</ele>
        <time>2022-08-17T12:15:09Z</time>
      </trkpt>
      <trkpt lat="49.83117" lon="2.22406">
        <ele>38</ele>
        <time>2022-08-17T12:15:10Z</time>
      </trkpt>
      <trkpt lat="49.83117" lon="2.22407">
        <ele>38</ele>
        <time>2022-08-17T12:15:11Z</time>
      </trkpt>
      <trkpt lat="49.83116" lon="2.22408">
        <ele>38</ele>
        <time>2022-08-17T12:15:12Z</time>
      </trkpt>
      <trkpt lat="49.83116" lon="2.22409">
        <ele>38</ele>
        <time>2022-08-17T12:15:13Z</time>
      </trkpt>
      <trkpt lat="49.83115" lon="2.22411">
        <ele>38</ele>
        <time>2022-08-17T12:15:14Z</time>
      </trkpt>
      <trkpt lat="49.83115" lon="2.22412">
        <ele>38</ele>
        <time>2022-08-17T12:15:15Z</time>
      </trkpt>
      <trkpt lat="49.83114" lon="2.22413">
        <ele>38</ele>
        <time>2022-08-17T12:15:16Z</time>
      </trkpt>
      <trkpt lat="49.83114" lon="2.22415">
        <ele>38</ele>
        <time>2022-08-17T12:15:17Z</time>
      </trkpt>
      <trkpt lat="49.83113" lon="2.22416">
        <ele>38</ele>
        <time>2022-08-17T12:15:18Z</time>
      </trkpt>
      <trkpt lat="49.83112" lon="2.22419">
        <ele>38</ele>
        <time>2022-08-17T12:15:20Z</time>
      </trkpt>
      <trkpt lat="49.83111" lon="2.22421">
        <ele>38</ele>
        <time>2022-08-17T12:15:21Z</time>
      </trkpt>
      <trkpt lat="49.8311" lon="2.22422">
        <ele>38</ele>
        <time>2022-08-17T12:15:22Z</time>
      </trkpt>
      <trkpt lat="49.8311" lon="2.22423">
        <ele>38</ele>
        <time>2022-08-17T12:15:23Z</time>
      </trkpt>
      <trkpt lat="49.83109" lon="2.22424">
        <ele>38</ele>
        <time>2022-08-17T12:15:24Z</time>
      </trkpt>
      <trkpt lat="49.83107" lon="2.22426">
        <ele>38</ele>
        <time>2022-08-17T12:15:26Z</time>
      </trkpt>
      <trkpt lat="49.83107" lon="2.22428">
        <ele>37.9</ele>
        <time>2022-08-17T12:15:27Z</time>
      </trkpt>
      <trkpt lat="49.83107" lon="2.22429">
        <ele>37.9</ele>
        <time>2022-08-17T12:15:28Z</time>
      </trkpt>
      <trkpt lat="49.83106" lon="2.22431">
        <ele>37.9</ele>
        <time>2022-08-17T12:15:29Z</time>
      </trkpt>
      <trkpt lat="49.83105" lon="2.22433">
        <ele>37.9</ele>
        <time>2022-08-17T12:15:31Z</time>
      </trkpt>
      <trkpt lat="49.83105" lon="2.22436">
        <ele>37.9</ele>
        <time>2022-08-17T12:15:32Z</time>
      </trkpt>
      <trkpt lat="49.83104" lon="2.22438">
        <ele>37.9</ele>
        <time>2022-08-17T12:15:33Z</time>
      </trkpt>
      <trkpt lat="49.83103" lon="2.22439">
        <ele>37.9</ele>
        <time>2022-08-17T12:15:34Z</time>
      </trkpt>
      <trkpt lat="49.83103" lon="2.2244">
        <ele>37.9</ele>
        <time>2022-08-17T12:15:35Z</time>
      </trkpt>
      <trkpt lat="49.83102" lon="2.22442">
        <ele>37.9</ele>
        <time>2022-08-17T12:15:36Z</time>
      </trkpt>
      <trkpt lat="49.83101" lon="2.22444">
        <ele>37.9</ele>
        <time>2022-08-17T12:15:37Z</time>
      </trkpt>
      <trkpt lat="49.831" lon="2.22445">
        <ele>37.9</ele>
        <time>2022-08-17T12:15:39Z</time>
      </trkpt>
      <trkpt lat="49.83099" lon="2.22447">
        <ele>37.9</ele>
        <time>2022-08-17T12:15:40Z</time>
      </trkpt>
      <trkpt lat="49.83098" lon="2.22448">
        <ele>37.9</ele>
        <time>2022-08-17T12:15:41Z</time>
      </trkpt>
      <trkpt lat="49.83096" lon="2.2245">
        <ele>37.9</ele>
        <time>2022-08-17T12:15:42Z</time>
      </trkpt>
      <trkpt lat="49.83096" lon="2.22451">
        <ele>37.9</ele>
        <time>2022-08-17T12:15:43Z</time>
      </trkpt>
      <trkpt lat="49.83095" lon="2.22452">
        <ele>37.9</ele>
        <time>2022-08-17T12:15:44Z</time>
      </trkpt>
      <trkpt lat="49.83094" lon="2.22454">
        <ele>37.9</ele>
        <time>2022-08-17T12:15:45Z</time>
      </trkpt>
      <trkpt lat="49.83093" lon="2.22456">
        <ele>37.9</ele>
        <time>2022-08-17T12:15:47Z</time>
      </trkpt>
      <trkpt lat="49.83092" lon="2.22458">
        <ele>37.9</ele>
        <time>2022-08-17T12:15:48Z</time>
      </trkpt>
      <trkpt lat="49.83092" lon="2.22459">
        <ele>37.9</ele>
        <time>2022-08-17T12:15:49Z</time>
      </trkpt>
      <trkpt lat="49.83091" lon="2.2246">
        <ele>37.9</ele>
        <time>2022-08-17T12:15:50Z</time>
      </trkpt>
      <trkpt lat="49.83091" lon="2.22462">
        <ele>37.9</ele>
        <time>2022-08-17T12:15:51Z</time>
      </trkpt>
      <trkpt lat="49.83091" lon="2.22467">
        <ele>37.9</ele>
        <time>2022-08-17T12:15:52Z</time>
      </trkpt>
      <trkpt lat="49.8309" lon="2.2247">
        <ele>37.9</ele>
        <time>2022-08-17T12:15:53Z</time>
      </trkpt>
      <trkpt lat="49.8309" lon="2.22471">
        <ele>37.9</ele>
        <time>2022-08-17T12:15:54Z</time>
      </trkpt>
      <trkpt lat="49.8309" lon="2.22473">
        <ele>37.9</ele>
        <time>2022-08-17T12:15:55Z</time>
      </trkpt>
      <trkpt lat="49.83089" lon="2.22474">
        <ele>37.9</ele>
        <time>2022-08-17T12:15:56Z</time>
      </trkpt>
      <trkpt lat="49.83089" lon="2.22476">
        <ele>37.9</ele>
        <time>2022-08-17T12:15:57Z</time>
      </trkpt>
      <trkpt lat="49.83088" lon="2.22478">
        <ele>37.9</ele>
        <time>2022-08-17T12:15:59Z</time>
      </trkpt>
      <trkpt lat="49.83087" lon="2.2248">
        <ele>37.9</ele>
        <time>2022-08-17T12:16:00Z</time>
      </trkpt>
      <trkpt lat="49.83087" lon="2.22481">
        <ele>37.9</ele>
        <time>2022-08-17T12:16:01Z</time>
      </trkpt>
      <trkpt lat="49.83087" lon="2.22481">
        <ele>37.9</ele>
        <time>2022-08-17T12:16:02Z</time>
      </trkpt>
      <trkpt lat="49.83087" lon="2.22481">
        <ele>37.9</ele>
        <time>2022-08-17T12:16:03Z</time>
      </trkpt>
      <trkpt lat="49.83087" lon="2.22483">
        <ele>37.9</ele>
        <time>2022-08-17T12:16:04Z</time>
      </trkpt>
      <trkpt lat="49.83087" lon="2.22485">
        <ele>37.9</ele>
        <time>2022-08-17T12:16:05Z</time>
      </trkpt>
      <trkpt lat="49.83086" lon="2.22487">
        <ele>37.9</ele>
        <time>2022-08-17T12:16:06Z</time>
      </trkpt>
      <trkpt lat="49.83086" lon="2.22489">
        <ele>37.9</ele>
        <time>2022-08-17T12:16:07Z</time>
      </trkpt>
      <trkpt lat="49.83084" lon="2.22493">
        <ele>37.9</ele>
        <time>2022-08-17T12:16:08Z</time>
      </trkpt>
      <trkpt lat="49.83084" lon="2.22494">
        <ele>37.9</ele>
        <time>2022-08-17T12:16:09Z</time>
      </trkpt>
      <trkpt lat="49.83083" lon="2.22496">
        <ele>37.8</ele>
        <time>2022-08-17T12:16:11Z</time>
      </trkpt>
      <trkpt lat="49.83083" lon="2.22497">
        <ele>37.8</ele>
        <time>2022-08-17T12:16:12Z</time>
      </trkpt>
      <trkpt lat="49.83082" lon="2.22501">
        <ele>37.8</ele>
        <time>2022-08-17T12:16:13Z</time>
      </trkpt>
      <trkpt lat="49.83083" lon="2.22503">
        <ele>37.8</ele>
        <time>2022-08-17T12:16:14Z</time>
      </trkpt>
      <trkpt lat="49.83082" lon="2.22505">
        <ele>37.8</ele>
        <time>2022-08-17T12:16:15Z</time>
      </trkpt>
      <trkpt lat="49.83081" lon="2.22506">
        <ele>37.8</ele>
        <time>2022-08-17T12:16:16Z</time>
      </trkpt>
      <trkpt lat="49.83081" lon="2.22508">
        <ele>37.8</ele>
        <time>2022-08-17T12:16:17Z</time>
      </trkpt>
      <trkpt lat="49.8308" lon="2.22509">
        <ele>37.8</ele>
        <time>2022-08-17T12:16:18Z</time>
      </trkpt>
      <trkpt lat="49.83079" lon="2.2251">
        <ele>37.8</ele>
        <time>2022-08-17T12:16:19Z</time>
      </trkpt>
      <trkpt lat="49.83078" lon="2.22512">
        <ele>37.8</ele>
        <time>2022-08-17T12:16:20Z</time>
      </trkpt>
      <trkpt lat="49.83076" lon="2.22514">
        <ele>37.7</ele>
        <time>2022-08-17T12:16:22Z</time>
      </trkpt>
      <trkpt lat="49.83075" lon="2.22515">
        <ele>37.7</ele>
        <time>2022-08-17T12:16:23Z</time>
      </trkpt>
      <trkpt lat="49.83073" lon="2.22517">
        <ele>37.7</ele>
        <time>2022-08-17T12:16:24Z</time>
      </trkpt>
      <trkpt lat="49.83073" lon="2.22517">
        <ele>37.7</ele>
        <time>2022-08-17T12:16:25Z</time>
      </trkpt>
      <trkpt lat="49.83072" lon="2.22518">
        <ele>37.7</ele>
        <time>2022-08-17T12:16:26Z</time>
      </trkpt>
      <trkpt lat="49.83071" lon="2.22518">
        <ele>37.7</ele>
        <time>2022-08-17T12:16:27Z</time>
      </trkpt>
      <trkpt lat="49.8307" lon="2.22518">
        <ele>37.7</ele>
        <time>2022-08-17T12:16:28Z</time>
      </trkpt>
      <trkpt lat="49.83069" lon="2.2252">
        <ele>37.7</ele>
        <time>2022-08-17T12:16:29Z</time>
      </trkpt>
      <trkpt lat="49.83068" lon="2.22521">
        <ele>37.7</ele>
        <time>2022-08-17T12:16:30Z</time>
      </trkpt>
      <trkpt lat="49.83067" lon="2.22523">
        <ele>37.7</ele>
        <time>2022-08-17T12:16:32Z</time>
      </trkpt>
      <trkpt lat="49.83066" lon="2.22525">
        <ele>37.6</ele>
        <time>2022-08-17T12:16:33Z</time>
      </trkpt>
      <trkpt lat="49.83065" lon="2.22526">
        <ele>37.6</ele>
        <time>2022-08-17T12:16:34Z</time>
      </trkpt>
      <trkpt lat="49.83064" lon="2.22527">
        <ele>37.6</ele>
        <time>2022-08-17T12:16:35Z</time>
      </trkpt>
      <trkpt lat="49.83063" lon="2.22529">
        <ele>37.6</ele>
        <time>2022-08-17T12:16:36Z</time>
      </trkpt>
      <trkpt lat="49.83061" lon="2.22533">
        <ele>37.6</ele>
        <time>2022-08-17T12:16:37Z</time>
      </trkpt>
      <trkpt lat="49.8306" lon="2.22534">
        <ele>37.6</ele>
        <time>2022-08-17T12:16:39Z</time>
      </trkpt>
      <trkpt lat="49.8306" lon="2.22535">
        <ele>37.6</ele>
        <time>2022-08-17T12:16:40Z</time>
      </trkpt>
      <trkpt lat="49.83059" lon="2.22536">
        <ele>37.6</ele>
        <time>2022-08-17T12:16:41Z</time>
      </trkpt>
      <trkpt lat="49.83057" lon="2.22539">
        <ele>37.6</ele>
        <time>2022-08-17T12:16:42Z</time>
      </trkpt>
      <trkpt lat="49.83056" lon="2.2254">
        <ele>37.6</ele>
        <time>2022-08-17T12:16:44Z</time>
      </trkpt>
      <trkpt lat="49.83055" lon="2.22541">
        <ele>37.5</ele>
        <time>2022-08-17T12:16:45Z</time>
      </trkpt>
      <trkpt lat="49.83054" lon="2.22542">
        <ele>37.5</ele>
        <time>2022-08-17T12:16:46Z</time>
      </trkpt>
      <trkpt lat="49.83053" lon="2.22543">
        <ele>37.5</ele>
        <time>2022-08-17T12:16:47Z</time>
      </trkpt>
      <trkpt lat="49.83051" lon="2.22546">
        <ele>37.5</ele>
        <time>2022-08-17T12:16:48Z</time>
      </trkpt>
      <trkpt lat="49.8305" lon="2.22547">
        <ele>37.5</ele>
        <time>2022-08-17T12:16:49Z</time>
      </trkpt>
      <trkpt lat="49.83049" lon="2.22548">
        <ele>37.5</ele>
        <time>2022-08-17T12:16:50Z</time>
      </trkpt>
      <trkpt lat="49.83048" lon="2.22549">
        <ele>37.5</ele>
        <time>2022-08-17T12:16:51Z</time>
      </trkpt>
      <trkpt lat="49.83046" lon="2.22551">
        <ele>37.5</ele>
        <time>2022-08-17T12:16:53Z</time>
      </trkpt>
      <trkpt lat="49.83046" lon="2.22552">
        <ele>37.5</ele>
        <time>2022-08-17T12:16:54Z</time>
      </trkpt>
      <trkpt lat="49.83045" lon="2.22553">
        <ele>37.5</ele>
        <time>2022-08-17T12:16:55Z</time>
      </trkpt>
      <trkpt lat="49.83044" lon="2.22553">
        <ele>37.5</ele>
        <time>2022-08-17T12:16:56Z</time>
      </trkpt>
      <trkpt lat="49.83043" lon="2.22554">
        <ele>37.5</ele>
        <time>2022-08-17T12:16:57Z</time>
      </trkpt>
      <trkpt lat="49.83041" lon="2.22556">
        <ele>37.5</ele>
        <time>2022-08-17T12:16:58Z</time>
      </trkpt>
      <trkpt lat="49.8304" lon="2.22556">
        <ele>37.5</ele>
        <time>2022-08-17T12:16:59Z</time>
      </trkpt>
      <trkpt lat="49.83039" lon="2.22557">
        <ele>37.5</ele>
        <time>2022-08-17T12:17:00Z</time>
      </trkpt>
      <trkpt lat="49.83038" lon="2.22557">
        <ele>37.5</ele>
        <time>2022-08-17T12:17:01Z</time>
      </trkpt>
      <trkpt lat="49.83036" lon="2.22558">
        <ele>37.5</ele>
        <time>2022-08-17T12:17:03Z</time>
      </trkpt>
      <trkpt lat="49.83035" lon="2.22558">
        <ele>37.5</ele>
        <time>2022-08-17T12:17:04Z</time>
      </trkpt>
      <trkpt lat="49.83034" lon="2.22559">
        <ele>37.5</ele>
        <time>2022-08-17T12:17:05Z</time>
      </trkpt>
      <trkpt lat="49.83032" lon="2.2256">
        <ele>37.4</ele>
        <time>2022-08-17T12:17:06Z</time>
      </trkpt>
      <trkpt lat="49.83031" lon="2.22561">
        <ele>37.4</ele>
        <time>2022-08-17T12:17:07Z</time>
      </trkpt>
      <trkpt lat="49.8303" lon="2.22562">
        <ele>37.4</ele>
        <time>2022-08-17T12:17:08Z</time>
      </trkpt>
      <trkpt lat="49.83029" lon="2.22563">
        <ele>37.4</ele>
        <time>2022-08-17T12:17:09Z</time>
      </trkpt>
      <trkpt lat="49.83028" lon="2.22563">
        <ele>37.4</ele>
        <time>2022-08-17T12:17:10Z</time>
      </trkpt>
      <trkpt lat="49.83027" lon="2.22564">
        <ele>37.4</ele>
        <time>2022-08-17T12:17:12Z</time>
      </trkpt>
      <trkpt lat="49.83024" lon="2.22565">
        <ele>37.4</ele>
        <time>2022-08-17T12:17:13Z</time>
      </trkpt>
      <trkpt lat="49.83023" lon="2.22564">
        <ele>37.4</ele>
        <time>2022-08-17T12:17:14Z</time>
      </trkpt>
      <trkpt lat="49.83023" lon="2.22563">
        <ele>37.4</ele>
        <time>2022-08-17T12:17:15Z</time>
      </trkpt>
      <trkpt lat="49.83022" lon="2.22563">
        <ele>37.4</ele>
        <time>2022-08-17T12:17:16Z</time>
      </trkpt>
      <trkpt lat="49.83021" lon="2.22562">
        <ele>37.4</ele>
        <time>2022-08-17T12:17:17Z</time>
      </trkpt>
      <trkpt lat="49.83021" lon="2.22561">
        <ele>37.4</ele>
        <time>2022-08-17T12:17:18Z</time>
      </trkpt>
      <trkpt lat="49.8302" lon="2.22561">
        <ele>37.4</ele>
        <time>2022-08-17T12:17:20Z</time>
      </trkpt>
      <trkpt lat="49.83019" lon="2.22561">
        <ele>37.4</ele>
        <time>2022-08-17T12:17:21Z</time>
      </trkpt>
      <trkpt lat="49.83017" lon="2.22562">
        <ele>37.4</ele>
        <time>2022-08-17T12:17:22Z</time>
      </trkpt>
      <trkpt lat="49.83016" lon="2.22563">
        <ele>37.4</ele>
        <time>2022-08-17T12:17:23Z</time>
      </trkpt>
      <trkpt lat="49.83014" lon="2.22563">
        <ele>37.4</ele>
        <time>2022-08-17T12:17:25Z</time>
      </trkpt>
      <trkpt lat="49.83013" lon="2.22564">
        <ele>37.4</ele>
        <time>2022-08-17T12:17:26Z</time>
      </trkpt>
      <trkpt lat="49.83012" lon="2.22564">
        <ele>37.4</ele>
        <time>2022-08-17T12:17:27Z</time>
      </trkpt>
      <trkpt lat="49.8301" lon="2.22568">
        <ele>37.4</ele>
        <time>2022-08-17T12:17:28Z</time>
      </trkpt>
      <trkpt lat="49.83009" lon="2.22569">
        <ele>37.4</ele>
        <time>2022-08-17T12:17:29Z</time>
      </trkpt>
      <trkpt lat="49.83008" lon="2.22569">
        <ele>37.4</ele>
        <time>2022-08-17T12:17:30Z</time>
      </trkpt>
      <trkpt lat="49.83007" lon="2.22569">
        <ele>37.3</ele>
        <time>2022-08-17T12:17:31Z</time>
      </trkpt>
      <trkpt lat="49.83004" lon="2.2257">
        <ele>37.3</ele>
        <time>2022-08-17T12:17:32Z</time>
      </trkpt>
      <trkpt lat="49.83003" lon="2.2257">
        <ele>37.3</ele>
        <time>2022-08-17T12:17:33Z</time>
      </trkpt>
      <trkpt lat="49.83002" lon="2.2257">
        <ele>37.3</ele>
        <time>2022-08-17T12:17:34Z</time>
      </trkpt>
      <trkpt lat="49.83001" lon="2.22569">
        <ele>37.3</ele>
        <time>2022-08-17T12:17:35Z</time>
      </trkpt>
      <trkpt lat="49.83" lon="2.22569">
        <ele>37.3</ele>
        <time>2022-08-17T12:17:37Z</time>
      </trkpt>
      <trkpt lat="49.82999" lon="2.22567">
        <ele>37.3</ele>
        <time>2022-08-17T12:17:38Z</time>
      </trkpt>
      <trkpt lat="49.82998" lon="2.22567">
        <ele>37.3</ele>
        <time>2022-08-17T12:17:39Z</time>
      </trkpt>
      <trkpt lat="49.82998" lon="2.22566">
        <ele>37.3</ele>
        <time>2022-08-17T12:17:40Z</time>
      </trkpt>
      <trkpt lat="49.82996" lon="2.22566">
        <ele>37.3</ele>
        <time>2022-08-17T12:17:41Z</time>
      </trkpt>
      <trkpt lat="49.82995" lon="2.22565">
        <ele>37.3</ele>
        <time>2022-08-17T12:17:42Z</time>
      </trkpt>
      <trkpt lat="49.82994" lon="2.22565">
        <ele>37.3</ele>
        <time>2022-08-17T12:17:43Z</time>
      </trkpt>
      <trkpt lat="49.82992" lon="2.22564">
        <ele>37.3</ele>
        <time>2022-08-17T12:17:44Z</time>
      </trkpt>
      <trkpt lat="49.82991" lon="2.22564">
        <ele>37.3</ele>
        <time>2022-08-17T12:17:45Z</time>
      </trkpt>
      <trkpt lat="49.8299" lon="2.22564">
        <ele>37.3</ele>
        <time>2022-08-17T12:17:46Z</time>
      </trkpt>
      <trkpt lat="49.82989" lon="2.22564">
        <ele>37.3</ele>
        <time>2022-08-17T12:17:47Z</time>
      </trkpt>
      <trkpt lat="49.82987" lon="2.22564">
        <ele>37.3</ele>
        <time>2022-08-17T12:17:49Z</time>
      </trkpt>
      <trkpt lat="49.82986" lon="2.22563">
        <ele>37.3</ele>
        <time>2022-08-17T12:17:50Z</time>
      </trkpt>
      <trkpt lat="49.82984" lon="2.22563">
        <ele>37.3</ele>
        <time>2022-08-17T12:17:51Z</time>
      </trkpt>
      <trkpt lat="49.82983" lon="2.22563">
        <ele>37.3</ele>
        <time>2022-08-17T12:17:52Z</time>
      </trkpt>
      <trkpt lat="49.82982" lon="2.22563">
        <ele>37.3</ele>
        <time>2022-08-17T12:17:53Z</time>
      </trkpt>
      <trkpt lat="49.8298" lon="2.22562">
        <ele>37.3</ele>
        <time>2022-08-17T12:17:54Z</time>
      </trkpt>
      <trkpt lat="49.82978" lon="2.22562">
        <ele>37.3</ele>
        <time>2022-08-17T12:17:55Z</time>
      </trkpt>
      <trkpt lat="49.82977" lon="2.22562">
        <ele>37.3</ele>
        <time>2022-08-17T12:17:56Z</time>
      </trkpt>
      <trkpt lat="49.82975" lon="2.22563">
        <ele>37.4</ele>
        <time>2022-08-17T12:17:58Z</time>
      </trkpt>
      <trkpt lat="49.82973" lon="2.22566">
        <ele>37.4</ele>
        <time>2022-08-17T12:17:59Z</time>
      </trkpt>
      <trkpt lat="49.82973" lon="2.22567">
        <ele>37.4</ele>
        <time>2022-08-17T12:18:00Z</time>
      </trkpt>
      <trkpt lat="49.82972" lon="2.22568">
        <ele>37.4</ele>
        <time>2022-08-17T12:18:01Z</time>
      </trkpt>
      <trkpt lat="49.82973" lon="2.2257">
        <ele>37.4</ele>
        <time>2022-08-17T12:18:02Z</time>
      </trkpt>
      <trkpt lat="49.82973" lon="2.22571">
        <ele>37.4</ele>
        <time>2022-08-17T12:18:03Z</time>
      </trkpt>
      <trkpt lat="49.82972" lon="2.22571">
        <ele>37.4</ele>
        <time>2022-08-17T12:18:05Z</time>
      </trkpt>
      <trkpt lat="49.82971" lon="2.22571">
        <ele>37.4</ele>
        <time>2022-08-17T12:18:06Z</time>
      </trkpt>
      <trkpt lat="49.8297" lon="2.22571">
        <ele>37.4</ele>
        <time>2022-08-17T12:18:07Z</time>
      </trkpt>
      <trkpt lat="49.8297" lon="2.22572">
        <ele>37.4</ele>
        <time>2022-08-17T12:18:08Z</time>
      </trkpt>
      <trkpt lat="49.82969" lon="2.22575">
        <ele>37.4</ele>
        <time>2022-08-17T12:18:10Z</time>
      </trkpt>
      <trkpt lat="49.82969" lon="2.22576">
        <ele>37.4</ele>
        <time>2022-08-17T12:18:12Z</time>
      </trkpt>
      <trkpt lat="49.82969" lon="2.22577">
        <ele>37.4</ele>
        <time>2022-08-17T12:18:13Z</time>
      </trkpt>
      <trkpt lat="49.82969" lon="2.22578">
        <ele>37.4</ele>
        <time>2022-08-17T12:18:14Z</time>
      </trkpt>
      <trkpt lat="49.82969" lon="2.22579">
        <ele>37.4</ele>
        <time>2022-08-17T12:18:15Z</time>
      </trkpt>
      <trkpt lat="49.82969" lon="2.2258">
        <ele>37.4</ele>
        <time>2022-08-17T12:18:16Z</time>
      </trkpt>
      <trkpt lat="49.82969" lon="2.22581">
        <ele>37.4</ele>
        <time>2022-08-17T12:18:17Z</time>
      </trkpt>
      <trkpt lat="49.82969" lon="2.22582">
        <ele>37.4</ele>
        <time>2022-08-17T12:18:19Z</time>
      </trkpt>
      <trkpt lat="49.82969" lon="2.22583">
        <ele>37.4</ele>
        <time>2022-08-17T12:18:20Z</time>
      </trkpt>
      <trkpt lat="49.82968" lon="2.22583">
        <ele>37.4</ele>
        <time>2022-08-17T12:18:21Z</time>
      </trkpt>
      <trkpt lat="49.82966" lon="2.22584">
        <ele>37.4</ele>
        <time>2022-08-17T12:18:22Z</time>
      </trkpt>
      <trkpt lat="49.82965" lon="2.22584">
        <ele>37.4</ele>
        <time>2022-08-17T12:18:23Z</time>
      </trkpt>
      <trkpt lat="49.82963" lon="2.22587">
        <ele>37.4</ele>
        <time>2022-08-17T12:18:24Z</time>
      </trkpt>
      <trkpt lat="49.82963" lon="2.22589">
        <ele>37.4</ele>
        <time>2022-08-17T12:18:25Z</time>
      </trkpt>
      <trkpt lat="49.82962" lon="2.2259">
        <ele>37.4</ele>
        <time>2022-08-17T12:18:26Z</time>
      </trkpt>
      <trkpt lat="49.82961" lon="2.22592">
        <ele>37.4</ele>
        <time>2022-08-17T12:18:28Z</time>
      </trkpt>
      <trkpt lat="49.8296" lon="2.22593">
        <ele>37.4</ele>
        <time>2022-08-17T12:18:29Z</time>
      </trkpt>
      <trkpt lat="49.82959" lon="2.22593">
        <ele>37.4</ele>
        <time>2022-08-17T12:18:30Z</time>
      </trkpt>
      <trkpt lat="49.82958" lon="2.22593">
        <ele>37.4</ele>
        <time>2022-08-17T12:18:31Z</time>
      </trkpt>
      <trkpt lat="49.82956" lon="2.22595">
        <ele>37.4</ele>
        <time>2022-08-17T12:18:32Z</time>
      </trkpt>
      <trkpt lat="49.82956" lon="2.22597">
        <ele>37.5</ele>
        <time>2022-08-17T12:18:33Z</time>
      </trkpt>
      <trkpt lat="49.82955" lon="2.22598">
        <ele>37.5</ele>
        <time>2022-08-17T12:18:34Z</time>
      </trkpt>
      <trkpt lat="49.82955" lon="2.22599">
        <ele>37.5</ele>
        <time>2022-08-17T12:18:35Z</time>
      </trkpt>
      <trkpt lat="49.82954" lon="2.22601">
        <ele>37.5</ele>
        <time>2022-08-17T12:18:36Z</time>
      </trkpt>
      <trkpt lat="49.82953" lon="2.22602">
        <ele>37.5</ele>
        <time>2022-08-17T12:18:38Z</time>
      </trkpt>
      <trkpt lat="49.82953" lon="2.22604">
        <ele>37.5</ele>
        <time>2022-08-17T12:18:39Z</time>
      </trkpt>
      <trkpt lat="49.82952" lon="2.22605">
        <ele>37.5</ele>
        <time>2022-08-17T12:18:40Z</time>
      </trkpt>
      <trkpt lat="49.82951" lon="2.22607">
        <ele>37.5</ele>
        <time>2022-08-17T12:18:41Z</time>
      </trkpt>
      <trkpt lat="49.8295" lon="2.22609">
        <ele>37.5</ele>
        <time>2022-08-17T12:18:42Z</time>
      </trkpt>
      <trkpt lat="49.8295" lon="2.2261">
        <ele>37.6</ele>
        <time>2022-08-17T12:18:43Z</time>
      </trkpt>
      <trkpt lat="49.82949" lon="2.22611">
        <ele>37.6</ele>
        <time>2022-08-17T12:18:44Z</time>
      </trkpt>
      <trkpt lat="49.82949" lon="2.22612">
        <ele>37.6</ele>
        <time>2022-08-17T12:18:46Z</time>
      </trkpt>
      <trkpt lat="49.82948" lon="2.22613">
        <ele>37.6</ele>
        <time>2022-08-17T12:18:47Z</time>
      </trkpt>
      <trkpt lat="49.82948" lon="2.22614">
        <ele>37.6</ele>
        <time>2022-08-17T12:18:48Z</time>
      </trkpt>
      <trkpt lat="49.82947" lon="2.22615">
        <ele>37.6</ele>
        <time>2022-08-17T12:18:49Z</time>
      </trkpt>
      <trkpt lat="49.82946" lon="2.22621">
        <ele>37.6</ele>
        <time>2022-08-17T12:18:50Z</time>
      </trkpt>
      <trkpt lat="49.82945" lon="2.22622">
        <ele>37.7</ele>
        <time>2022-08-17T12:18:51Z</time>
      </trkpt>
      <trkpt lat="49.82944" lon="2.22626">
        <ele>37.7</ele>
        <time>2022-08-17T12:18:52Z</time>
      </trkpt>
      <trkpt lat="49.82942" lon="2.22629">
        <ele>37.7</ele>
        <time>2022-08-17T12:18:54Z</time>
      </trkpt>
      <trkpt lat="49.8294" lon="2.22634">
        <ele>37.8</ele>
        <time>2022-08-17T12:18:55Z</time>
      </trkpt>
      <trkpt lat="49.82939" lon="2.22635">
        <ele>37.8</ele>
        <time>2022-08-17T12:18:56Z</time>
      </trkpt>
      <trkpt lat="49.82938" lon="2.2264">
        <ele>37.8</ele>
        <time>2022-08-17T12:18:57Z</time>
      </trkpt>
      <trkpt lat="49.82937" lon="2.22641">
        <ele>37.8</ele>
        <time>2022-08-17T12:18:58Z</time>
      </trkpt>
      <trkpt lat="49.82936" lon="2.22644">
        <ele>37.8</ele>
        <time>2022-08-17T12:18:59Z</time>
      </trkpt>
      <trkpt lat="49.82935" lon="2.22645">
        <ele>37.9</ele>
        <time>2022-08-17T12:19:01Z</time>
      </trkpt>
      <trkpt lat="49.82934" lon="2.22647">
        <ele>37.9</ele>
        <time>2022-08-17T12:19:02Z</time>
      </trkpt>
      <trkpt lat="49.82934" lon="2.22646">
        <ele>37.9</ele>
        <time>2022-08-17T12:19:03Z</time>
      </trkpt>
      <trkpt lat="49.82934" lon="2.22646">
        <ele>37.9</ele>
        <time>2022-08-17T12:19:04Z</time>
      </trkpt>
      <trkpt lat="49.82933" lon="2.22648">
        <ele>37.9</ele>
        <time>2022-08-17T12:19:05Z</time>
      </trkpt>
      <trkpt lat="49.82933" lon="2.22649">
        <ele>37.9</ele>
        <time>2022-08-17T12:19:06Z</time>
      </trkpt>
      <trkpt lat="49.82932" lon="2.2265">
        <ele>37.9</ele>
        <time>2022-08-17T12:19:08Z</time>
      </trkpt>
      <trkpt lat="49.82931" lon="2.22651">
        <ele>37.9</ele>
        <time>2022-08-17T12:19:09Z</time>
      </trkpt>
      <trkpt lat="49.82931" lon="2.22652">
        <ele>37.9</ele>
        <time>2022-08-17T12:19:10Z</time>
      </trkpt>
      <trkpt lat="49.8293" lon="2.22653">
        <ele>37.9</ele>
        <time>2022-08-17T12:19:11Z</time>
      </trkpt>
      <trkpt lat="49.82929" lon="2.22657">
        <ele>38</ele>
        <time>2022-08-17T12:19:12Z</time>
      </trkpt>
      <trkpt lat="49.82928" lon="2.22658">
        <ele>38</ele>
        <time>2022-08-17T12:19:14Z</time>
      </trkpt>
      <trkpt lat="49.82928" lon="2.2266">
        <ele>38</ele>
        <time>2022-08-17T12:19:15Z</time>
      </trkpt>
      <trkpt lat="49.82927" lon="2.22661">
        <ele>38.1</ele>
        <time>2022-08-17T12:19:17Z</time>
      </trkpt>
      <trkpt lat="49.82926" lon="2.22663">
        <ele>38.1</ele>
        <time>2022-08-17T12:19:18Z</time>
      </trkpt>
      <trkpt lat="49.82926" lon="2.22665">
        <ele>38.1</ele>
        <time>2022-08-17T12:19:19Z</time>
      </trkpt>
      <trkpt lat="49.82925" lon="2.22666">
        <ele>38.1</ele>
        <time>2022-08-17T12:19:20Z</time>
      </trkpt>
      <trkpt lat="49.82925" lon="2.22668">
        <ele>38.1</ele>
        <time>2022-08-17T12:19:21Z</time>
      </trkpt>
      <trkpt lat="49.82925" lon="2.2267">
        <ele>38.2</ele>
        <time>2022-08-17T12:19:22Z</time>
      </trkpt>
      <trkpt lat="49.82924" lon="2.22672">
        <ele>38.2</ele>
        <time>2022-08-17T12:19:23Z</time>
      </trkpt>
      <trkpt lat="49.82924" lon="2.22673">
        <ele>38.2</ele>
        <time>2022-08-17T12:19:24Z</time>
      </trkpt>
      <trkpt lat="49.82924" lon="2.22676">
        <ele>38.2</ele>
        <time>2022-08-17T12:19:25Z</time>
      </trkpt>
      <trkpt lat="49.82924" lon="2.22677">
        <ele>38.3</ele>
        <time>2022-08-17T12:19:26Z</time>
      </trkpt>
      <trkpt lat="49.82924" lon="2.22679">
        <ele>38.3</ele>
        <time>2022-08-17T12:19:27Z</time>
      </trkpt>
      <trkpt lat="49.82923" lon="2.2268">
        <ele>38.3</ele>
        <time>2022-08-17T12:19:28Z</time>
      </trkpt>
      <trkpt lat="49.82923" lon="2.22684">
        <ele>38.3</ele>
        <time>2022-08-17T12:19:29Z</time>
      </trkpt>
      <trkpt lat="49.82922" lon="2.22685">
        <ele>38.3</ele>
        <time>2022-08-17T12:19:31Z</time>
      </trkpt>
      <trkpt lat="49.82922" lon="2.22686">
        <ele>38.4</ele>
        <time>2022-08-17T12:19:32Z</time>
      </trkpt>
      <trkpt lat="49.82921" lon="2.22689">
        <ele>38.4</ele>
        <time>2022-08-17T12:19:33Z</time>
      </trkpt>
      <trkpt lat="49.82921" lon="2.2269">
        <ele>38.4</ele>
        <time>2022-08-17T12:19:34Z</time>
      </trkpt>
      <trkpt lat="49.82921" lon="2.22691">
        <ele>38.4</ele>
        <time>2022-08-17T12:19:35Z</time>
      </trkpt>
      <trkpt lat="49.8292" lon="2.22694">
        <ele>38.5</ele>
        <time>2022-08-17T12:19:36Z</time>
      </trkpt>
      <trkpt lat="49.8292" lon="2.22695">
        <ele>38.5</ele>
        <time>2022-08-17T12:19:37Z</time>
      </trkpt>
      <trkpt lat="49.82919" lon="2.22696">
        <ele>38.5</ele>
        <time>2022-08-17T12:19:38Z</time>
      </trkpt>
      <trkpt lat="49.82919" lon="2.22699">
        <ele>38.5</ele>
        <time>2022-08-17T12:19:39Z</time>
      </trkpt>
      <trkpt lat="49.82919" lon="2.22699">
        <ele>38.5</ele>
        <time>2022-08-17T12:19:40Z</time>
      </trkpt>
      <trkpt lat="49.82919" lon="2.22701">
        <ele>38.5</ele>
        <time>2022-08-17T12:19:42Z</time>
      </trkpt>
      <trkpt lat="49.82918" lon="2.22703">
        <ele>38.6</ele>
        <time>2022-08-17T12:19:43Z</time>
      </trkpt>
      <trkpt lat="49.82917" lon="2.22705">
        <ele>38.6</ele>
        <time>2022-08-17T12:19:44Z</time>
      </trkpt>
      <trkpt lat="49.82916" lon="2.22708">
        <ele>38.6</ele>
        <time>2022-08-17T12:19:45Z</time>
      </trkpt>
      <trkpt lat="49.82915" lon="2.22708">
        <ele>38.6</ele>
        <time>2022-08-17T12:19:46Z</time>
      </trkpt>
      <trkpt lat="49.82914" lon="2.22709">
        <ele>38.7</ele>
        <time>2022-08-17T12:19:47Z</time>
      </trkpt>
      <trkpt lat="49.82913" lon="2.22711">
        <ele>38.7</ele>
        <time>2022-08-17T12:19:48Z</time>
      </trkpt>
      <trkpt lat="49.82912" lon="2.22712">
        <ele>38.7</ele>
        <time>2022-08-17T12:19:49Z</time>
      </trkpt>
      <trkpt lat="49.8291" lon="2.22713">
        <ele>38.7</ele>
        <time>2022-08-17T12:19:50Z</time>
      </trkpt>
      <trkpt lat="49.82909" lon="2.22715">
        <ele>38.8</ele>
        <time>2022-08-17T12:19:51Z</time>
      </trkpt>
      <trkpt lat="49.82909" lon="2.22716">
        <ele>38.8</ele>
        <time>2022-08-17T12:19:52Z</time>
      </trkpt>
      <trkpt lat="49.82908" lon="2.22717">
        <ele>38.8</ele>
        <time>2022-08-17T12:19:54Z</time>
      </trkpt>
      <trkpt lat="49.82907" lon="2.22719">
        <ele>38.8</ele>
        <time>2022-08-17T12:19:55Z</time>
      </trkpt>
      <trkpt lat="49.82907" lon="2.2272">
        <ele>38.8</ele>
        <time>2022-08-17T12:19:56Z</time>
      </trkpt>
      <trkpt lat="49.82906" lon="2.22721">
        <ele>38.8</ele>
        <time>2022-08-17T12:19:57Z</time>
      </trkpt>
      <trkpt lat="49.82905" lon="2.22722">
        <ele>38.9</ele>
        <time>2022-08-17T12:19:58Z</time>
      </trkpt>
      <trkpt lat="49.82905" lon="2.22723">
        <ele>38.9</ele>
        <time>2022-08-17T12:19:59Z</time>
      </trkpt>
      <trkpt lat="49.82904" lon="2.22725">
        <ele>38.9</ele>
        <time>2022-08-17T12:20:00Z</time>
      </trkpt>
      <trkpt lat="49.82904" lon="2.22727">
        <ele>38.9</ele>
        <time>2022-08-17T12:20:01Z</time>
      </trkpt>
      <trkpt lat="49.82903" lon="2.22728">
        <ele>38.9</ele>
        <time>2022-08-17T12:20:02Z</time>
      </trkpt>
      <trkpt lat="49.82903" lon="2.2273">
        <ele>39</ele>
        <time>2022-08-17T12:20:03Z</time>
      </trkpt>
      <trkpt lat="49.82902" lon="2.22732">
        <ele>39</ele>
        <time>2022-08-17T12:20:05Z</time>
      </trkpt>
      <trkpt lat="49.82901" lon="2.22733">
        <ele>39</ele>
        <time>2022-08-17T12:20:06Z</time>
      </trkpt>
      <trkpt lat="49.82901" lon="2.22734">
        <ele>39</ele>
        <time>2022-08-17T12:20:07Z</time>
      </trkpt>
      <trkpt lat="49.82899" lon="2.22736">
        <ele>39.1</ele>
        <time>2022-08-17T12:20:08Z</time>
      </trkpt>
      <trkpt lat="49.82899" lon="2.22737">
        <ele>39.1</ele>
        <time>2022-08-17T12:20:09Z</time>
      </trkpt>
      <trkpt lat="49.82898" lon="2.22738">
        <ele>39.1</ele>
        <time>2022-08-17T12:20:10Z</time>
      </trkpt>
      <trkpt lat="49.82897" lon="2.22741">
        <ele>39.2</ele>
        <time>2022-08-17T12:20:11Z</time>
      </trkpt>
      <trkpt lat="49.82897" lon="2.22742">
        <ele>39.2</ele>
        <time>2022-08-17T12:20:12Z</time>
      </trkpt>
      <trkpt lat="49.82896" lon="2.22743">
        <ele>39.2</ele>
        <time>2022-08-17T12:20:13Z</time>
      </trkpt>
      <trkpt lat="49.82895" lon="2.22745">
        <ele>39.3</ele>
        <time>2022-08-17T12:20:15Z</time>
      </trkpt>
      <trkpt lat="49.82895" lon="2.22746">
        <ele>39.3</ele>
        <time>2022-08-17T12:20:16Z</time>
      </trkpt>
      <trkpt lat="49.82894" lon="2.22746">
        <ele>39.3</ele>
        <time>2022-08-17T12:20:17Z</time>
      </trkpt>
      <trkpt lat="49.82893" lon="2.22749">
        <ele>39.4</ele>
        <time>2022-08-17T12:20:18Z</time>
      </trkpt>
      <trkpt lat="49.82892" lon="2.2275">
        <ele>39.4</ele>
        <time>2022-08-17T12:20:19Z</time>
      </trkpt>
      <trkpt lat="49.82892" lon="2.22751">
        <ele>39.4</ele>
        <time>2022-08-17T12:20:20Z</time>
      </trkpt>
      <trkpt lat="49.82891" lon="2.22753">
        <ele>39.5</ele>
        <time>2022-08-17T12:20:21Z</time>
      </trkpt>
      <trkpt lat="49.82891" lon="2.22755">
        <ele>39.5</ele>
        <time>2022-08-17T12:20:22Z</time>
      </trkpt>
      <trkpt lat="49.8289" lon="2.22757">
        <ele>39.6</ele>
        <time>2022-08-17T12:20:24Z</time>
      </trkpt>
      <trkpt lat="49.82889" lon="2.22759">
        <ele>39.6</ele>
        <time>2022-08-17T12:20:25Z</time>
      </trkpt>
      <trkpt lat="49.82888" lon="2.22761">
        <ele>39.7</ele>
        <time>2022-08-17T12:20:26Z</time>
      </trkpt>
      <trkpt lat="49.82888" lon="2.22763">
        <ele>39.7</ele>
        <time>2022-08-17T12:20:27Z</time>
      </trkpt>
      <trkpt lat="49.82887" lon="2.22765">
        <ele>39.8</ele>
        <time>2022-08-17T12:20:28Z</time>
      </trkpt>
      <trkpt lat="49.82886" lon="2.22768">
        <ele>39.9</ele>
        <time>2022-08-17T12:20:30Z</time>
      </trkpt>
      <trkpt lat="49.82885" lon="2.2277">
        <ele>40</ele>
        <time>2022-08-17T12:20:31Z</time>
      </trkpt>
      <trkpt lat="49.82885" lon="2.22773">
        <ele>40.1</ele>
        <time>2022-08-17T12:20:33Z</time>
      </trkpt>
      <trkpt lat="49.82885" lon="2.22775">
        <ele>40.2</ele>
        <time>2022-08-17T12:20:34Z</time>
      </trkpt>
      <trkpt lat="49.82886" lon="2.22774">
        <ele>40.4</ele>
        <time>2022-08-17T12:20:35Z</time>
      </trkpt>
      <trkpt lat="49.82886" lon="2.22774">
        <ele>40.4</ele>
        <time>2022-08-17T12:20:36Z</time>
      </trkpt>
      <trkpt lat="49.82886" lon="2.22774">
        <ele>40.4</ele>
        <time>2022-08-17T12:20:37Z</time>
      </trkpt>
      <trkpt lat="49.82885" lon="2.22774">
        <ele>40.5</ele>
        <time>2022-08-17T12:20:39Z</time>
      </trkpt>
      <trkpt lat="49.82885" lon="2.22774">
        <ele>40.5</ele>
        <time>2022-08-17T12:20:40Z</time>
      </trkpt>
      <trkpt lat="49.82886" lon="2.22776">
        <ele>40.7</ele>
        <time>2022-08-17T12:20:42Z</time>
      </trkpt>
      <trkpt lat="49.82886" lon="2.22777">
        <ele>40.7</ele>
        <time>2022-08-17T12:20:43Z</time>
      </trkpt>
      <trkpt lat="49.82887" lon="2.22778">
        <ele>40.8</ele>
        <time>2022-08-17T12:20:44Z</time>
      </trkpt>
      <trkpt lat="49.82888" lon="2.22778">
        <ele>40.9</ele>
        <time>2022-08-17T12:20:45Z</time>
      </trkpt>
      <trkpt lat="49.82889" lon="2.22777">
        <ele>41</ele>
        <time>2022-08-17T12:20:47Z</time>
      </trkpt>
      <trkpt lat="49.82889" lon="2.22777">
        <ele>41</ele>
        <time>2022-08-17T12:20:48Z</time>
      </trkpt>
      <trkpt lat="49.8289" lon="2.22779">
        <ele>41.1</ele>
        <time>2022-08-17T12:20:49Z</time>
      </trkpt>
      <trkpt lat="49.8289" lon="2.22781">
        <ele>41.2</ele>
        <time>2022-08-17T12:20:50Z</time>
      </trkpt>
      <trkpt lat="49.8289" lon="2.22782">
        <ele>41.3</ele>
        <time>2022-08-17T12:20:51Z</time>
      </trkpt>
      <trkpt lat="49.8289" lon="2.22784">
        <ele>41.4</ele>
        <time>2022-08-17T12:20:53Z</time>
      </trkpt>
      <trkpt lat="49.8289" lon="2.22785">
        <ele>41.5</ele>
        <time>2022-08-17T12:20:54Z</time>
      </trkpt>
      <trkpt lat="49.82891" lon="2.22787">
        <ele>41.6</ele>
        <time>2022-08-17T12:20:55Z</time>
      </trkpt>
      <trkpt lat="49.82891" lon="2.22788">
        <ele>41.7</ele>
        <time>2022-08-17T12:20:56Z</time>
      </trkpt>
      <trkpt lat="49.82891" lon="2.22791">
        <ele>41.8</ele>
        <time>2022-08-17T12:20:57Z</time>
      </trkpt>
      <trkpt lat="49.82892" lon="2.22795">
        <ele>42</ele>
        <time>2022-08-17T12:20:59Z</time>
      </trkpt>
      <trkpt lat="49.82892" lon="2.228">
        <ele>42.3</ele>
        <time>2022-08-17T12:21:00Z</time>
      </trkpt>
      <trkpt lat="49.82892" lon="2.22801">
        <ele>42.5</ele>
        <time>2022-08-17T12:21:01Z</time>
      </trkpt>
      <trkpt lat="49.82893" lon="2.22804">
        <ele>42.5</ele>
        <time>2022-08-17T12:21:02Z</time>
      </trkpt>
      <trkpt lat="49.82893" lon="2.22807">
        <ele>42.5</ele>
        <time>2022-08-17T12:21:04Z</time>
      </trkpt>
      <trkpt lat="49.82893" lon="2.2281">
        <ele>42.5</ele>
        <time>2022-08-17T12:21:05Z</time>
      </trkpt>
      <trkpt lat="49.82893" lon="2.22812">
        <ele>42.5</ele>
        <time>2022-08-17T12:21:06Z</time>
      </trkpt>
      <trkpt lat="49.82893" lon="2.22815">
        <ele>42.6</ele>
        <time>2022-08-17T12:21:07Z</time>
      </trkpt>
      <trkpt lat="49.82894" lon="2.22817">
        <ele>42.6</ele>
        <time>2022-08-17T12:21:08Z</time>
      </trkpt>
      <trkpt lat="49.82894" lon="2.22819">
        <ele>42.6</ele>
        <time>2022-08-17T12:21:10Z</time>
      </trkpt>
      <trkpt lat="49.82895" lon="2.22822">
        <ele>42.6</ele>
        <time>2022-08-17T12:21:11Z</time>
      </trkpt>
      <trkpt lat="49.82896" lon="2.22825">
        <ele>42.6</ele>
        <time>2022-08-17T12:21:12Z</time>
      </trkpt>
      <trkpt lat="49.82897" lon="2.22826">
        <ele>42.7</ele>
        <time>2022-08-17T12:21:13Z</time>
      </trkpt>
      <trkpt lat="49.82898" lon="2.22828">
        <ele>42.7</ele>
        <time>2022-08-17T12:21:14Z</time>
      </trkpt>
      <trkpt lat="49.829" lon="2.22828">
        <ele>42.7</ele>
        <time>2022-08-17T12:21:15Z</time>
      </trkpt>
      <trkpt lat="49.82901" lon="2.22828">
        <ele>42.7</ele>
        <time>2022-08-17T12:21:17Z</time>
      </trkpt>
      <trkpt lat="49.82903" lon="2.22828">
        <ele>42.8</ele>
        <time>2022-08-17T12:21:18Z</time>
      </trkpt>
      <trkpt lat="49.82905" lon="2.22828">
        <ele>42.8</ele>
        <time>2022-08-17T12:21:19Z</time>
      </trkpt>
      <trkpt lat="49.82906" lon="2.22828">
        <ele>42.8</ele>
        <time>2022-08-17T12:21:20Z</time>
      </trkpt>
      <trkpt lat="49.82908" lon="2.22828">
        <ele>42.9</ele>
        <time>2022-08-17T12:21:21Z</time>
      </trkpt>
      <trkpt lat="49.82909" lon="2.22829">
        <ele>42.9</ele>
        <time>2022-08-17T12:21:22Z</time>
      </trkpt>
      <trkpt lat="49.82911" lon="2.2283">
        <ele>42.9</ele>
        <time>2022-08-17T12:21:24Z</time>
      </trkpt>
      <trkpt lat="49.82912" lon="2.22831">
        <ele>43</ele>
        <time>2022-08-17T12:21:25Z</time>
      </trkpt>
      <trkpt lat="49.82915" lon="2.22831">
        <ele>43</ele>
        <time>2022-08-17T12:21:26Z</time>
      </trkpt>
      <trkpt lat="49.82916" lon="2.22832">
        <ele>43</ele>
        <time>2022-08-17T12:21:27Z</time>
      </trkpt>
      <trkpt lat="49.82916" lon="2.22832">
        <ele>43.1</ele>
        <time>2022-08-17T12:21:28Z</time>
      </trkpt>
      <trkpt lat="49.82918" lon="2.22833">
        <ele>43.1</ele>
        <time>2022-08-17T12:21:29Z</time>
      </trkpt>
      <trkpt lat="49.82919" lon="2.22833">
        <ele>43.1</ele>
        <time>2022-08-17T12:21:30Z</time>
      </trkpt>
      <trkpt lat="49.8292" lon="2.22834">
        <ele>43.1</ele>
        <time>2022-08-17T12:21:32Z</time>
      </trkpt>
      <trkpt lat="49.82921" lon="2.22835">
        <ele>43.2</ele>
        <time>2022-08-17T12:21:33Z</time>
      </trkpt>
      <trkpt lat="49.82923" lon="2.22836">
        <ele>43.2</ele>
        <time>2022-08-17T12:21:34Z</time>
      </trkpt>
      <trkpt lat="49.82924" lon="2.22837">
        <ele>43.2</ele>
        <time>2022-08-17T12:21:35Z</time>
      </trkpt>
      <trkpt lat="49.82925" lon="2.22838">
        <ele>43.3</ele>
        <time>2022-08-17T12:21:36Z</time>
      </trkpt>
      <trkpt lat="49.82927" lon="2.22839">
        <ele>43.3</ele>
        <time>2022-08-17T12:21:37Z</time>
      </trkpt>
      <trkpt lat="49.82928" lon="2.2284">
        <ele>43.3</ele>
        <time>2022-08-17T12:21:38Z</time>
      </trkpt>
      <trkpt lat="49.82929" lon="2.22841">
        <ele>43.4</ele>
        <time>2022-08-17T12:21:39Z</time>
      </trkpt>
      <trkpt lat="49.8293" lon="2.22842">
        <ele>43.4</ele>
        <time>2022-08-17T12:21:41Z</time>
      </trkpt>
      <trkpt lat="49.8293" lon="2.22842">
        <ele>43.4</ele>
        <time>2022-08-17T12:21:42Z</time>
      </trkpt>
      <trkpt lat="49.82931" lon="2.22843">
        <ele>43.4</ele>
        <time>2022-08-17T12:21:43Z</time>
      </trkpt>
      <trkpt lat="49.82931" lon="2.22843">
        <ele>43.4</ele>
        <time>2022-08-17T12:21:44Z</time>
      </trkpt>
      <trkpt lat="49.82934" lon="2.22845">
        <ele>43.5</ele>
        <time>2022-08-17T12:21:46Z</time>
      </trkpt>
      <trkpt lat="49.82935" lon="2.22846">
        <ele>43.5</ele>
        <time>2022-08-17T12:21:47Z</time>
      </trkpt>
      <trkpt lat="49.82937" lon="2.22847">
        <ele>43.6</ele>
        <time>2022-08-17T12:21:48Z</time>
      </trkpt>
      <trkpt lat="49.82938" lon="2.22848">
        <ele>43.6</ele>
        <time>2022-08-17T12:21:49Z</time>
      </trkpt>
      <trkpt lat="49.82938" lon="2.22849">
        <ele>43.7</ele>
        <time>2022-08-17T12:21:50Z</time>
      </trkpt>
      <trkpt lat="49.8294" lon="2.2285">
        <ele>43.7</ele>
        <time>2022-08-17T12:21:51Z</time>
      </trkpt>
      <trkpt lat="49.82942" lon="2.22851">
        <ele>43.7</ele>
        <time>2022-08-17T12:21:52Z</time>
      </trkpt>
      <trkpt lat="49.82943" lon="2.22852">
        <ele>43.8</ele>
        <time>2022-08-17T12:21:53Z</time>
      </trkpt>
      <trkpt lat="49.82944" lon="2.22852">
        <ele>43.8</ele>
        <time>2022-08-17T12:21:55Z</time>
      </trkpt>
      <trkpt lat="49.82946" lon="2.22853">
        <ele>43.9</ele>
        <time>2022-08-17T12:21:56Z</time>
      </trkpt>
      <trkpt lat="49.82947" lon="2.22853">
        <ele>43.9</ele>
        <time>2022-08-17T12:21:57Z</time>
      </trkpt>
      <trkpt lat="49.82948" lon="2.22854">
        <ele>43.9</ele>
        <time>2022-08-17T12:21:58Z</time>
      </trkpt>
      <trkpt lat="49.8295" lon="2.22854">
        <ele>44</ele>
        <time>2022-08-17T12:21:59Z</time>
      </trkpt>
      <trkpt lat="49.82951" lon="2.22855">
        <ele>44</ele>
        <time>2022-08-17T12:22:00Z</time>
      </trkpt>
      <trkpt lat="49.82953" lon="2.22855">
        <ele>44.1</ele>
        <time>2022-08-17T12:22:01Z</time>
      </trkpt>
      <trkpt lat="49.82955" lon="2.22856">
        <ele>44.1</ele>
        <time>2022-08-17T12:22:03Z</time>
      </trkpt>
      <trkpt lat="49.82956" lon="2.22857">
        <ele>44.1</ele>
        <time>2022-08-17T12:22:04Z</time>
      </trkpt>
      <trkpt lat="49.82958" lon="2.22857">
        <ele>44.2</ele>
        <time>2022-08-17T12:22:05Z</time>
      </trkpt>
      <trkpt lat="49.82959" lon="2.22858">
        <ele>44.2</ele>
        <time>2022-08-17T12:22:06Z</time>
      </trkpt>
      <trkpt lat="49.82961" lon="2.22859">
        <ele>44.3</ele>
        <time>2022-08-17T12:22:07Z</time>
      </trkpt>
      <trkpt lat="49.82962" lon="2.22859">
        <ele>44.3</ele>
        <time>2022-08-17T12:22:08Z</time>
      </trkpt>
      <trkpt lat="49.82964" lon="2.2286">
        <ele>44.3</ele>
        <time>2022-08-17T12:22:09Z</time>
      </trkpt>
      <trkpt lat="49.82966" lon="2.22861">
        <ele>44.4</ele>
        <time>2022-08-17T12:22:11Z</time>
      </trkpt>
      <trkpt lat="49.82967" lon="2.22862">
        <ele>44.4</ele>
        <time>2022-08-17T12:22:12Z</time>
      </trkpt>
      <trkpt lat="49.82968" lon="2.22863">
        <ele>44.4</ele>
        <time>2022-08-17T12:22:13Z</time>
      </trkpt>
      <trkpt lat="49.8297" lon="2.22864">
        <ele>44.5</ele>
        <time>2022-08-17T12:22:14Z</time>
      </trkpt>
      <trkpt lat="49.82971" lon="2.22864">
        <ele>44.5</ele>
        <time>2022-08-17T12:22:15Z</time>
      </trkpt>
      <trkpt lat="49.82972" lon="2.22865">
        <ele>44.5</ele>
        <time>2022-08-17T12:22:16Z</time>
      </trkpt>
      <trkpt lat="49.82974" lon="2.22866">
        <ele>44.6</ele>
        <time>2022-08-17T12:22:17Z</time>
      </trkpt>
      <trkpt lat="49.82975" lon="2.22866">
        <ele>44.6</ele>
        <time>2022-08-17T12:22:19Z</time>
      </trkpt>
      <trkpt lat="49.82975" lon="2.22866">
        <ele>44.6</ele>
        <time>2022-08-17T12:22:20Z</time>
      </trkpt>
      <trkpt lat="49.82976" lon="2.22867">
        <ele>44.6</ele>
        <time>2022-08-17T12:22:21Z</time>
      </trkpt>
      <trkpt lat="49.82978" lon="2.22868">
        <ele>44.7</ele>
        <time>2022-08-17T12:22:22Z</time>
      </trkpt>
      <trkpt lat="49.82979" lon="2.22868">
        <ele>44.7</ele>
        <time>2022-08-17T12:22:23Z</time>
      </trkpt>
      <trkpt lat="49.82981" lon="2.22869">
        <ele>44.8</ele>
        <time>2022-08-17T12:22:24Z</time>
      </trkpt>
      <trkpt lat="49.82982" lon="2.22871">
        <ele>44.8</ele>
        <time>2022-08-17T12:22:25Z</time>
      </trkpt>
      <trkpt lat="49.82983" lon="2.22872">
        <ele>44.8</ele>
        <time>2022-08-17T12:22:27Z</time>
      </trkpt>
      <trkpt lat="49.82984" lon="2.22872">
        <ele>44.9</ele>
        <time>2022-08-17T12:22:28Z</time>
      </trkpt>
      <trkpt lat="49.82985" lon="2.22873">
        <ele>44.9</ele>
        <time>2022-08-17T12:22:29Z</time>
      </trkpt>
      <trkpt lat="49.82985" lon="2.22873">
        <ele>44.9</ele>
        <time>2022-08-17T12:22:30Z</time>
      </trkpt>
      <trkpt lat="49.82986" lon="2.22873">
        <ele>44.9</ele>
        <time>2022-08-17T12:22:31Z</time>
      </trkpt>
      <trkpt lat="49.82987" lon="2.22874">
        <ele>44.9</ele>
        <time>2022-08-17T12:22:32Z</time>
      </trkpt>
      <trkpt lat="49.82987" lon="2.22874">
        <ele>45</ele>
        <time>2022-08-17T12:22:33Z</time>
      </trkpt>
      <trkpt lat="49.82988" lon="2.22874">
        <ele>45</ele>
        <time>2022-08-17T12:22:34Z</time>
      </trkpt>
      <trkpt lat="49.82989" lon="2.22874">
        <ele>45</ele>
        <time>2022-08-17T12:22:36Z</time>
      </trkpt>
      <trkpt lat="49.8299" lon="2.22874">
        <ele>45</ele>
        <time>2022-08-17T12:22:37Z</time>
      </trkpt>
      <trkpt lat="49.82991" lon="2.22874">
        <ele>45.1</ele>
        <time>2022-08-17T12:22:38Z</time>
      </trkpt>
      <trkpt lat="49.82992" lon="2.22874">
        <ele>45.1</ele>
        <time>2022-08-17T12:22:39Z</time>
      </trkpt>
      <trkpt lat="49.82993" lon="2.22875">
        <ele>45.1</ele>
        <time>2022-08-17T12:22:40Z</time>
      </trkpt>
      <trkpt lat="49.82995" lon="2.22875">
        <ele>45.2</ele>
        <time>2022-08-17T12:22:41Z</time>
      </trkpt>
      <trkpt lat="49.82996" lon="2.22876">
        <ele>45.2</ele>
        <time>2022-08-17T12:22:43Z</time>
      </trkpt>
      <trkpt lat="49.82997" lon="2.22877">
        <ele>45.2</ele>
        <time>2022-08-17T12:22:44Z</time>
      </trkpt>
      <trkpt lat="49.82998" lon="2.22877">
        <ele>45.3</ele>
        <time>2022-08-17T12:22:45Z</time>
      </trkpt>
      <trkpt lat="49.82999" lon="2.22878">
        <ele>45.3</ele>
        <time>2022-08-17T12:22:46Z</time>
      </trkpt>
      <trkpt lat="49.83001" lon="2.22879">
        <ele>45.3</ele>
        <time>2022-08-17T12:22:47Z</time>
      </trkpt>
      <trkpt lat="49.83002" lon="2.22879">
        <ele>45.4</ele>
        <time>2022-08-17T12:22:48Z</time>
      </trkpt>
      <trkpt lat="49.83003" lon="2.2288">
        <ele>45.4</ele>
        <time>2022-08-17T12:22:49Z</time>
      </trkpt>
      <trkpt lat="49.83004" lon="2.22881">
        <ele>45.4</ele>
        <time>2022-08-17T12:22:51Z</time>
      </trkpt>
      <trkpt lat="49.83005" lon="2.22881">
        <ele>45.5</ele>
        <time>2022-08-17T12:22:52Z</time>
      </trkpt>
      <trkpt lat="49.83006" lon="2.22882">
        <ele>45.5</ele>
        <time>2022-08-17T12:22:53Z</time>
      </trkpt>
      <trkpt lat="49.83007" lon="2.22883">
        <ele>45.5</ele>
        <time>2022-08-17T12:22:54Z</time>
      </trkpt>
      <trkpt lat="49.83008" lon="2.22884">
        <ele>45.5</ele>
        <time>2022-08-17T12:22:55Z</time>
      </trkpt>
      <trkpt lat="49.8301" lon="2.22885">
        <ele>45.6</ele>
        <time>2022-08-17T12:22:57Z</time>
      </trkpt>
      <trkpt lat="49.8301" lon="2.22885">
        <ele>45.6</ele>
        <time>2022-08-17T12:22:58Z</time>
      </trkpt>
      <trkpt lat="49.83011" lon="2.22886">
        <ele>45.6</ele>
        <time>2022-08-17T12:22:59Z</time>
      </trkpt>
      <trkpt lat="49.83012" lon="2.22886">
        <ele>45.6</ele>
        <time>2022-08-17T12:23:00Z</time>
      </trkpt>
      <trkpt lat="49.83013" lon="2.22887">
        <ele>45.6</ele>
        <time>2022-08-17T12:23:01Z</time>
      </trkpt>
      <trkpt lat="49.83014" lon="2.22888">
        <ele>45.7</ele>
        <time>2022-08-17T12:23:02Z</time>
      </trkpt>
      <trkpt lat="49.83015" lon="2.22888">
        <ele>45.7</ele>
        <time>2022-08-17T12:23:04Z</time>
      </trkpt>
      <trkpt lat="49.83016" lon="2.22889">
        <ele>45.7</ele>
        <time>2022-08-17T12:23:05Z</time>
      </trkpt>
      <trkpt lat="49.83017" lon="2.22889">
        <ele>45.7</ele>
        <time>2022-08-17T12:23:06Z</time>
      </trkpt>
      <trkpt lat="49.83018" lon="2.2289">
        <ele>46</ele>
        <time>2022-08-17T12:23:07Z</time>
      </trkpt>
      <trkpt lat="49.83018" lon="2.22891">
        <ele>46.1</ele>
        <time>2022-08-17T12:23:08Z</time>
      </trkpt>
      <trkpt lat="49.83016" lon="2.22889">
        <ele>46.1</ele>
        <time>2022-08-17T12:23:10Z</time>
      </trkpt>
      <trkpt lat="49.83016" lon="2.22889">
        <ele>46.1</ele>
        <time>2022-08-17T12:23:11Z</time>
      </trkpt>
      <trkpt lat="49.83016" lon="2.22889">
        <ele>46.1</ele>
        <time>2022-08-17T12:23:12Z</time>
      </trkpt>
      <trkpt lat="49.83017" lon="2.2289">
        <ele>46.1</ele>
        <time>2022-08-17T12:23:13Z</time>
      </trkpt>
      <trkpt lat="49.83017" lon="2.2289">
        <ele>46.1</ele>
        <time>2022-08-17T12:23:14Z</time>
      </trkpt>
      <trkpt lat="49.83017" lon="2.2289">
        <ele>46.1</ele>
        <time>2022-08-17T12:23:15Z</time>
      </trkpt>
      <trkpt lat="49.83017" lon="2.22891">
        <ele>46.1</ele>
        <time>2022-08-17T12:23:16Z</time>
      </trkpt>
      <trkpt lat="49.83017" lon="2.22891">
        <ele>46.1</ele>
        <time>2022-08-17T12:23:17Z</time>
      </trkpt>
      <trkpt lat="49.83017" lon="2.22891">
        <ele>46.1</ele>
        <time>2022-08-17T12:23:18Z</time>
      </trkpt>
      <trkpt lat="49.83017" lon="2.22891">
        <ele>46.1</ele>
        <time>2022-08-17T12:23:19Z</time>
      </trkpt>
      <trkpt lat="49.83016" lon="2.22891">
        <ele>46.2</ele>
        <time>2022-08-17T12:23:20Z</time>
      </trkpt>
      <trkpt lat="49.83016" lon="2.22891">
        <ele>46.2</ele>
        <time>2022-08-17T12:23:21Z</time>
      </trkpt>
      <trkpt lat="49.83016" lon="2.22891">
        <ele>46.2</ele>
        <time>2022-08-17T12:23:22Z</time>
      </trkpt>
      <trkpt lat="49.83016" lon="2.22891">
        <ele>46.2</ele>
        <time>2022-08-17T12:23:23Z</time>
      </trkpt>
      <trkpt lat="49.83016" lon="2.22891">
        <ele>46.2</ele>
        <time>2022-08-17T12:23:24Z</time>
      </trkpt>
      <trkpt lat="49.83016" lon="2.22891">
        <ele>46.2</ele>
        <time>2022-08-17T12:23:25Z</time>
      </trkpt>
      <trkpt lat="49.83016" lon="2.22891">
        <ele>46.2</ele>
        <time>2022-08-17T12:23:26Z</time>
      </trkpt>
      <trkpt lat="49.83016" lon="2.22891">
        <ele>46.2</ele>
        <time>2022-08-17T12:23:27Z</time>
      </trkpt>
      <trkpt lat="49.83016" lon="2.22891">
        <ele>46.2</ele>
        <time>2022-08-17T12:23:28Z</time>
      </trkpt>
      <trkpt lat="49.83016" lon="2.22892">
        <ele>46.2</ele>
        <time>2022-08-17T12:23:29Z</time>
      </trkpt>
      <trkpt lat="49.83015" lon="2.22892">
        <ele>46.2</ele>
        <time>2022-08-17T12:23:31Z</time>
      </trkpt>
      <trkpt lat="49.83016" lon="2.22893">
        <ele>46.2</ele>
        <time>2022-08-17T12:23:32Z</time>
      </trkpt>
      <trkpt lat="49.83016" lon="2.22894">
        <ele>46.2</ele>
        <time>2022-08-17T12:23:33Z</time>
      </trkpt>
      <trkpt lat="49.83017" lon="2.22896">
        <ele>46.2</ele>
        <time>2022-08-17T12:23:34Z</time>
      </trkpt>
      <trkpt lat="49.83018" lon="2.22897">
        <ele>46.3</ele>
        <time>2022-08-17T12:23:35Z</time>
      </trkpt>
      <trkpt lat="49.83019" lon="2.22898">
        <ele>46.3</ele>
        <time>2022-08-17T12:23:36Z</time>
      </trkpt>
      <trkpt lat="49.83019" lon="2.22899">
        <ele>46.3</ele>
        <time>2022-08-17T12:23:38Z</time>
      </trkpt>
      <trkpt lat="49.83019" lon="2.22899">
        <ele>46.3</ele>
        <time>2022-08-17T12:23:39Z</time>
      </trkpt>
      <trkpt lat="49.83019" lon="2.229">
        <ele>46.3</ele>
        <time>2022-08-17T12:23:40Z</time>
      </trkpt>
      <trkpt lat="49.83019" lon="2.22903">
        <ele>46.3</ele>
        <time>2022-08-17T12:23:42Z</time>
      </trkpt>
      <trkpt lat="49.83018" lon="2.22903">
        <ele>46.4</ele>
        <time>2022-08-17T12:23:43Z</time>
      </trkpt>
      <trkpt lat="49.83016" lon="2.22905">
        <ele>46.4</ele>
        <time>2022-08-17T12:23:44Z</time>
      </trkpt>
      <trkpt lat="49.83015" lon="2.22905">
        <ele>46.4</ele>
        <time>2022-08-17T12:23:45Z</time>
      </trkpt>
      <trkpt lat="49.83014" lon="2.22906">
        <ele>46.5</ele>
        <time>2022-08-17T12:23:46Z</time>
      </trkpt>
      <trkpt lat="49.83011" lon="2.22906">
        <ele>46.5</ele>
        <time>2022-08-17T12:23:47Z</time>
      </trkpt>
      <trkpt lat="49.8301" lon="2.22906">
        <ele>46.5</ele>
        <time>2022-08-17T12:23:49Z</time>
      </trkpt>
      <trkpt lat="49.83008" lon="2.22905">
        <ele>46.6</ele>
        <time>2022-08-17T12:23:50Z</time>
      </trkpt>
      <trkpt lat="49.83005" lon="2.22904">
        <ele>46.7</ele>
        <time>2022-08-17T12:23:52Z</time>
      </trkpt>
      <trkpt lat="49.83003" lon="2.22904">
        <ele>46.7</ele>
        <time>2022-08-17T12:23:53Z</time>
      </trkpt>
      <trkpt lat="49.83002" lon="2.22903">
        <ele>46.7</ele>
        <time>2022-08-17T12:23:54Z</time>
      </trkpt>
      <trkpt lat="49.83001" lon="2.22903">
        <ele>46.7</ele>
        <time>2022-08-17T12:23:55Z</time>
      </trkpt>
      <trkpt lat="49.82998" lon="2.22903">
        <ele>46.8</ele>
        <time>2022-08-17T12:23:56Z</time>
      </trkpt>
      <trkpt lat="49.82997" lon="2.22902">
        <ele>46.8</ele>
        <time>2022-08-17T12:23:57Z</time>
      </trkpt>
      <trkpt lat="49.82994" lon="2.22901">
        <ele>46.9</ele>
        <time>2022-08-17T12:23:59Z</time>
      </trkpt>
      <trkpt lat="49.82993" lon="2.22901">
        <ele>46.9</ele>
        <time>2022-08-17T12:24:00Z</time>
      </trkpt>
      <trkpt lat="49.82991" lon="2.229">
        <ele>47</ele>
        <time>2022-08-17T12:24:01Z</time>
      </trkpt>
      <trkpt lat="49.8299" lon="2.22899">
        <ele>47</ele>
        <time>2022-08-17T12:24:02Z</time>
      </trkpt>
      <trkpt lat="49.82988" lon="2.22898">
        <ele>47.1</ele>
        <time>2022-08-17T12:24:03Z</time>
      </trkpt>
      <trkpt lat="49.82987" lon="2.22897">
        <ele>47.1</ele>
        <time>2022-08-17T12:24:04Z</time>
      </trkpt>
      <trkpt lat="49.82986" lon="2.22897">
        <ele>47.1</ele>
        <time>2022-08-17T12:24:06Z</time>
      </trkpt>
      <trkpt lat="49.82984" lon="2.22896">
        <ele>47.2</ele>
        <time>2022-08-17T12:24:07Z</time>
      </trkpt>
      <trkpt lat="49.82982" lon="2.22894">
        <ele>47.2</ele>
        <time>2022-08-17T12:24:08Z</time>
      </trkpt>
      <trkpt lat="49.82982" lon="2.22894">
        <ele>47.3</ele>
        <time>2022-08-17T12:24:09Z</time>
      </trkpt>
      <trkpt lat="49.82981" lon="2.22893">
        <ele>47.3</ele>
        <time>2022-08-17T12:24:10Z</time>
      </trkpt>
      <trkpt lat="49.82979" lon="2.22892">
        <ele>47.3</ele>
        <time>2022-08-17T12:24:11Z</time>
      </trkpt>
      <trkpt lat="49.82978" lon="2.22892">
        <ele>47.4</ele>
        <time>2022-08-17T12:24:12Z</time>
      </trkpt>
      <trkpt lat="49.82977" lon="2.22891">
        <ele>47.4</ele>
        <time>2022-08-17T12:24:13Z</time>
      </trkpt>
      <trkpt lat="49.82976" lon="2.22891">
        <ele>47.4</ele>
        <time>2022-08-17T12:24:14Z</time>
      </trkpt>
      <trkpt lat="49.82974" lon="2.2289">
        <ele>47.5</ele>
        <time>2022-08-17T12:24:15Z</time>
      </trkpt>
      <trkpt lat="49.82972" lon="2.22889">
        <ele>47.6</ele>
        <time>2022-08-17T12:24:16Z</time>
      </trkpt>
      <trkpt lat="49.82971" lon="2.22888">
        <ele>47.6</ele>
        <time>2022-08-17T12:24:18Z</time>
      </trkpt>
      <trkpt lat="49.8297" lon="2.22888">
        <ele>47.6</ele>
        <time>2022-08-17T12:24:19Z</time>
      </trkpt>
      <trkpt lat="49.82969" lon="2.22888">
        <ele>47.7</ele>
        <time>2022-08-17T12:24:20Z</time>
      </trkpt>
      <trkpt lat="49.82969" lon="2.22887">
        <ele>47.7</ele>
        <time>2022-08-17T12:24:21Z</time>
      </trkpt>
      <trkpt lat="49.82968" lon="2.22886">
        <ele>47.7</ele>
        <time>2022-08-17T12:24:22Z</time>
      </trkpt>
      <trkpt lat="49.82967" lon="2.22885">
        <ele>47.8</ele>
        <time>2022-08-17T12:24:24Z</time>
      </trkpt>
      <trkpt lat="49.82965" lon="2.22885">
        <ele>47.8</ele>
        <time>2022-08-17T12:24:25Z</time>
      </trkpt>
      <trkpt lat="49.82964" lon="2.22884">
        <ele>47.9</ele>
        <time>2022-08-17T12:24:26Z</time>
      </trkpt>
      <trkpt lat="49.82963" lon="2.22884">
        <ele>47.9</ele>
        <time>2022-08-17T12:24:27Z</time>
      </trkpt>
      <trkpt lat="49.82962" lon="2.22883">
        <ele>47.9</ele>
        <time>2022-08-17T12:24:28Z</time>
      </trkpt>
      <trkpt lat="49.82961" lon="2.22883">
        <ele>48</ele>
        <time>2022-08-17T12:24:29Z</time>
      </trkpt>
      <trkpt lat="49.82961" lon="2.22882">
        <ele>48</ele>
        <time>2022-08-17T12:24:30Z</time>
      </trkpt>
      <trkpt lat="49.8296" lon="2.22882">
        <ele>48</ele>
        <time>2022-08-17T12:24:31Z</time>
      </trkpt>
      <trkpt lat="49.82959" lon="2.22881">
        <ele>48.1</ele>
        <time>2022-08-17T12:24:32Z</time>
      </trkpt>
      <trkpt lat="49.82957" lon="2.2288">
        <ele>48.2</ele>
        <time>2022-08-17T12:24:33Z</time>
      </trkpt>
      <trkpt lat="49.82956" lon="2.22879">
        <ele>48.2</ele>
        <time>2022-08-17T12:24:34Z</time>
      </trkpt>
      <trkpt lat="49.82954" lon="2.22878">
        <ele>48.3</ele>
        <time>2022-08-17T12:24:35Z</time>
      </trkpt>
      <trkpt lat="49.82953" lon="2.22878">
        <ele>48.3</ele>
        <time>2022-08-17T12:24:36Z</time>
      </trkpt>
      <trkpt lat="49.82952" lon="2.22877">
        <ele>48.4</ele>
        <time>2022-08-17T12:24:38Z</time>
      </trkpt>
      <trkpt lat="49.82951" lon="2.22877">
        <ele>48.4</ele>
        <time>2022-08-17T12:24:39Z</time>
      </trkpt>
      <trkpt lat="49.8295" lon="2.22877">
        <ele>48.5</ele>
        <time>2022-08-17T12:24:40Z</time>
      </trkpt>
      <trkpt lat="49.8295" lon="2.22876">
        <ele>48.5</ele>
        <time>2022-08-17T12:24:41Z</time>
      </trkpt>
      <trkpt lat="49.82948" lon="2.22876">
        <ele>48.6</ele>
        <time>2022-08-17T12:24:42Z</time>
      </trkpt>
      <trkpt lat="49.82946" lon="2.22875">
        <ele>48.6</ele>
        <time>2022-08-17T12:24:43Z</time>
      </trkpt>
      <trkpt lat="49.82945" lon="2.22874">
        <ele>48.7</ele>
        <time>2022-08-17T12:24:45Z</time>
      </trkpt>
      <trkpt lat="49.82944" lon="2.22874">
        <ele>48.8</ele>
        <time>2022-08-17T12:24:46Z</time>
      </trkpt>
      <trkpt lat="49.82943" lon="2.22873">
        <ele>48.8</ele>
        <time>2022-08-17T12:24:47Z</time>
      </trkpt>
      <trkpt lat="49.82942" lon="2.22873">
        <ele>48.9</ele>
        <time>2022-08-17T12:24:48Z</time>
      </trkpt>
      <trkpt lat="49.82941" lon="2.22872">
        <ele>48.9</ele>
        <time>2022-08-17T12:24:49Z</time>
      </trkpt>
      <trkpt lat="49.8294" lon="2.22872">
        <ele>48.9</ele>
        <time>2022-08-17T12:24:50Z</time>
      </trkpt>
      <trkpt lat="49.8294" lon="2.22872">
        <ele>49</ele>
        <time>2022-08-17T12:24:51Z</time>
      </trkpt>
      <trkpt lat="49.82941" lon="2.22871">
        <ele>49</ele>
        <time>2022-08-17T12:24:53Z</time>
      </trkpt>
      <trkpt lat="49.8294" lon="2.22871">
        <ele>49</ele>
        <time>2022-08-17T12:24:54Z</time>
      </trkpt>
      <trkpt lat="49.82939" lon="2.2287">
        <ele>49.1</ele>
        <time>2022-08-17T12:24:55Z</time>
      </trkpt>
      <trkpt lat="49.82938" lon="2.2287">
        <ele>49.2</ele>
        <time>2022-08-17T12:24:56Z</time>
      </trkpt>
      <trkpt lat="49.82936" lon="2.22869">
        <ele>49.3</ele>
        <time>2022-08-17T12:24:57Z</time>
      </trkpt>
      <trkpt lat="49.82935" lon="2.22869">
        <ele>49.4</ele>
        <time>2022-08-17T12:24:58Z</time>
      </trkpt>
      <trkpt lat="49.82933" lon="2.22869">
        <ele>49.4</ele>
        <time>2022-08-17T12:25:00Z</time>
      </trkpt>
      <trkpt lat="49.82932" lon="2.22868">
        <ele>49.5</ele>
        <time>2022-08-17T12:25:01Z</time>
      </trkpt>
      <trkpt lat="49.8293" lon="2.22868">
        <ele>49.6</ele>
        <time>2022-08-17T12:25:02Z</time>
      </trkpt>
      <trkpt lat="49.82929" lon="2.22867">
        <ele>49.7</ele>
        <time>2022-08-17T12:25:03Z</time>
      </trkpt>
      <trkpt lat="49.82927" lon="2.22867">
        <ele>49.8</ele>
        <time>2022-08-17T12:25:04Z</time>
      </trkpt>
      <trkpt lat="49.82925" lon="2.22867">
        <ele>49.9</ele>
        <time>2022-08-17T12:25:05Z</time>
      </trkpt>
      <trkpt lat="49.82924" lon="2.22867">
        <ele>50</ele>
        <time>2022-08-17T12:25:07Z</time>
      </trkpt>
      <trkpt lat="49.82922" lon="2.22866">
        <ele>50.1</ele>
        <time>2022-08-17T12:25:08Z</time>
      </trkpt>
      <trkpt lat="49.82921" lon="2.22866">
        <ele>50.2</ele>
        <time>2022-08-17T12:25:09Z</time>
      </trkpt>
      <trkpt lat="49.82919" lon="2.22866">
        <ele>50.2</ele>
        <time>2022-08-17T12:25:10Z</time>
      </trkpt>
      <trkpt lat="49.82918" lon="2.22866">
        <ele>50.3</ele>
        <time>2022-08-17T12:25:11Z</time>
      </trkpt>
      <trkpt lat="49.82917" lon="2.22867">
        <ele>50.4</ele>
        <time>2022-08-17T12:25:12Z</time>
      </trkpt>
      <trkpt lat="49.82915" lon="2.22867">
        <ele>50.5</ele>
        <time>2022-08-17T12:25:13Z</time>
      </trkpt>
      <trkpt lat="49.82914" lon="2.22867">
        <ele>50.6</ele>
        <time>2022-08-17T12:25:15Z</time>
      </trkpt>
      <trkpt lat="49.82914" lon="2.22868">
        <ele>50.6</ele>
        <time>2022-08-17T12:25:16Z</time>
      </trkpt>
      <trkpt lat="49.82913" lon="2.22868">
        <ele>50.7</ele>
        <time>2022-08-17T12:25:17Z</time>
      </trkpt>
      <trkpt lat="49.82912" lon="2.22868">
        <ele>50.7</ele>
        <time>2022-08-17T12:25:18Z</time>
      </trkpt>
      <trkpt lat="49.8291" lon="2.22868">
        <ele>50.8</ele>
        <time>2022-08-17T12:25:19Z</time>
      </trkpt>
      <trkpt lat="49.82908" lon="2.22869">
        <ele>50.9</ele>
        <time>2022-08-17T12:25:20Z</time>
      </trkpt>
      <trkpt lat="49.82908" lon="2.22869">
        <ele>51</ele>
        <time>2022-08-17T12:25:22Z</time>
      </trkpt>
      <trkpt lat="49.82907" lon="2.2287">
        <ele>51</ele>
        <time>2022-08-17T12:25:23Z</time>
      </trkpt>
      <trkpt lat="49.82906" lon="2.2287">
        <ele>51.1</ele>
        <time>2022-08-17T12:25:24Z</time>
      </trkpt>
      <trkpt lat="49.82905" lon="2.2287">
        <ele>51.1</ele>
        <time>2022-08-17T12:25:25Z</time>
      </trkpt>
      <trkpt lat="49.82904" lon="2.22871">
        <ele>51.2</ele>
        <time>2022-08-17T12:25:26Z</time>
      </trkpt>
      <trkpt lat="49.82903" lon="2.22871">
        <ele>51.3</ele>
        <time>2022-08-17T12:25:27Z</time>
      </trkpt>
      <trkpt lat="49.82901" lon="2.22872">
        <ele>51.4</ele>
        <time>2022-08-17T12:25:28Z</time>
      </trkpt>
      <trkpt lat="49.829" lon="2.22872">
        <ele>51.5</ele>
        <time>2022-08-17T12:25:30Z</time>
      </trkpt>
      <trkpt lat="49.82899" lon="2.22872">
        <ele>51.5</ele>
        <time>2022-08-17T12:25:31Z</time>
      </trkpt>
      <trkpt lat="49.82898" lon="2.22873">
        <ele>51.6</ele>
        <time>2022-08-17T12:25:32Z</time>
      </trkpt>
      <trkpt lat="49.82897" lon="2.22873">
        <ele>51.6</ele>
        <time>2022-08-17T12:25:33Z</time>
      </trkpt>
      <trkpt lat="49.82896" lon="2.22873">
        <ele>51.7</ele>
        <time>2022-08-17T12:25:34Z</time>
      </trkpt>
      <trkpt lat="49.82895" lon="2.22872">
        <ele>51.8</ele>
        <time>2022-08-17T12:25:35Z</time>
      </trkpt>
      <trkpt lat="49.82894" lon="2.22873">
        <ele>51.8</ele>
        <time>2022-08-17T12:25:36Z</time>
      </trkpt>
      <trkpt lat="49.82893" lon="2.22873">
        <ele>51.9</ele>
        <time>2022-08-17T12:25:37Z</time>
      </trkpt>
      <trkpt lat="49.82891" lon="2.22873">
        <ele>52</ele>
        <time>2022-08-17T12:25:38Z</time>
      </trkpt>
      <trkpt lat="49.82889" lon="2.22873">
        <ele>52.1</ele>
        <time>2022-08-17T12:25:40Z</time>
      </trkpt>
      <trkpt lat="49.82888" lon="2.22873">
        <ele>52.2</ele>
        <time>2022-08-17T12:25:41Z</time>
      </trkpt>
      <trkpt lat="49.82886" lon="2.22872">
        <ele>52.3</ele>
        <time>2022-08-17T12:25:42Z</time>
      </trkpt>
      <trkpt lat="49.82885" lon="2.22872">
        <ele>52.4</ele>
        <time>2022-08-17T12:25:43Z</time>
      </trkpt>
      <trkpt lat="49.82883" lon="2.22872">
        <ele>52.5</ele>
        <time>2022-08-17T12:25:44Z</time>
      </trkpt>
      <trkpt lat="49.82881" lon="2.22872">
        <ele>52.6</ele>
        <time>2022-08-17T12:25:45Z</time>
      </trkpt>
      <trkpt lat="49.8288" lon="2.22871">
        <ele>52.7</ele>
        <time>2022-08-17T12:25:46Z</time>
      </trkpt>
      <trkpt lat="49.82879" lon="2.22871">
        <ele>52.7</ele>
        <time>2022-08-17T12:25:47Z</time>
      </trkpt>
      <trkpt lat="49.82877" lon="2.22871">
        <ele>52.8</ele>
        <time>2022-08-17T12:25:48Z</time>
      </trkpt>
      <trkpt lat="49.82875" lon="2.2287">
        <ele>53</ele>
        <time>2022-08-17T12:25:50Z</time>
      </trkpt>
      <trkpt lat="49.82874" lon="2.2287">
        <ele>53</ele>
        <time>2022-08-17T12:25:51Z</time>
      </trkpt>
      <trkpt lat="49.82873" lon="2.22869">
        <ele>53.1</ele>
        <time>2022-08-17T12:25:52Z</time>
      </trkpt>
      <trkpt lat="49.82874" lon="2.22869">
        <ele>53.1</ele>
        <time>2022-08-17T12:25:53Z</time>
      </trkpt>
      <trkpt lat="49.82874" lon="2.22869">
        <ele>53.1</ele>
        <time>2022-08-17T12:25:54Z</time>
      </trkpt>
      <trkpt lat="49.82874" lon="2.22868">
        <ele>53.1</ele>
        <time>2022-08-17T12:25:55Z</time>
      </trkpt>
      <trkpt lat="49.82873" lon="2.22868">
        <ele>53.2</ele>
        <time>2022-08-17T12:25:57Z</time>
      </trkpt>
      <trkpt lat="49.82873" lon="2.22868">
        <ele>53.2</ele>
        <time>2022-08-17T12:25:58Z</time>
      </trkpt>
      <trkpt lat="49.82872" lon="2.22867">
        <ele>53.2</ele>
        <time>2022-08-17T12:25:59Z</time>
      </trkpt>
      <trkpt lat="49.82872" lon="2.22867">
        <ele>53.3</ele>
        <time>2022-08-17T12:26:00Z</time>
      </trkpt>
      <trkpt lat="49.82871" lon="2.22867">
        <ele>53.3</ele>
        <time>2022-08-17T12:26:01Z</time>
      </trkpt>
      <trkpt lat="49.8287" lon="2.22866">
        <ele>53.4</ele>
        <time>2022-08-17T12:26:02Z</time>
      </trkpt>
      <trkpt lat="49.82869" lon="2.22866">
        <ele>53.4</ele>
        <time>2022-08-17T12:26:03Z</time>
      </trkpt>
      <trkpt lat="49.82868" lon="2.22865">
        <ele>53.5</ele>
        <time>2022-08-17T12:26:04Z</time>
      </trkpt>
      <trkpt lat="49.82867" lon="2.22865">
        <ele>53.5</ele>
        <time>2022-08-17T12:26:05Z</time>
      </trkpt>
      <trkpt lat="49.82866" lon="2.22865">
        <ele>53.6</ele>
        <time>2022-08-17T12:26:06Z</time>
      </trkpt>
      <trkpt lat="49.82865" lon="2.22865">
        <ele>53.6</ele>
        <time>2022-08-17T12:26:08Z</time>
      </trkpt>
      <trkpt lat="49.82864" lon="2.22864">
        <ele>53.7</ele>
        <time>2022-08-17T12:26:09Z</time>
      </trkpt>
      <trkpt lat="49.82862" lon="2.22863">
        <ele>53.8</ele>
        <time>2022-08-17T12:26:10Z</time>
      </trkpt>
      <trkpt lat="49.82861" lon="2.22863">
        <ele>53.8</ele>
        <time>2022-08-17T12:26:11Z</time>
      </trkpt>
      <trkpt lat="49.8286" lon="2.22862">
        <ele>53.9</ele>
        <time>2022-08-17T12:26:12Z</time>
      </trkpt>
      <trkpt lat="49.82859" lon="2.22862">
        <ele>53.9</ele>
        <time>2022-08-17T12:26:13Z</time>
      </trkpt>
      <trkpt lat="49.82858" lon="2.22861">
        <ele>54</ele>
        <time>2022-08-17T12:26:14Z</time>
      </trkpt>
      <trkpt lat="49.82858" lon="2.22861">
        <ele>54</ele>
        <time>2022-08-17T12:26:15Z</time>
      </trkpt>
      <trkpt lat="49.82857" lon="2.2286">
        <ele>54</ele>
        <time>2022-08-17T12:26:16Z</time>
      </trkpt>
      <trkpt lat="49.82856" lon="2.2286">
        <ele>54.1</ele>
        <time>2022-08-17T12:26:17Z</time>
      </trkpt>
      <trkpt lat="49.82855" lon="2.22859">
        <ele>54.2</ele>
        <time>2022-08-17T12:26:18Z</time>
      </trkpt>
      <trkpt lat="49.82853" lon="2.22858">
        <ele>54.4</ele>
        <time>2022-08-17T12:26:19Z</time>
      </trkpt>
      <trkpt lat="49.82852" lon="2.22857">
        <ele>54.5</ele>
        <time>2022-08-17T12:26:20Z</time>
      </trkpt>
      <trkpt lat="49.82851" lon="2.22857">
        <ele>54.5</ele>
        <time>2022-08-17T12:26:21Z</time>
      </trkpt>
      <trkpt lat="49.8285" lon="2.22856">
        <ele>54.6</ele>
        <time>2022-08-17T12:26:22Z</time>
      </trkpt>
      <trkpt lat="49.82848" lon="2.22855">
        <ele>54.7</ele>
        <time>2022-08-17T12:26:23Z</time>
      </trkpt>
      <trkpt lat="49.82846" lon="2.22854">
        <ele>54.8</ele>
        <time>2022-08-17T12:26:25Z</time>
      </trkpt>
      <trkpt lat="49.82846" lon="2.22854">
        <ele>54.8</ele>
        <time>2022-08-17T12:26:26Z</time>
      </trkpt>
      <trkpt lat="49.82845" lon="2.22853">
        <ele>54.8</ele>
        <time>2022-08-17T12:26:27Z</time>
      </trkpt>
      <trkpt lat="49.82844" lon="2.22853">
        <ele>54.9</ele>
        <time>2022-08-17T12:26:28Z</time>
      </trkpt>
      <trkpt lat="49.82842" lon="2.22852">
        <ele>55</ele>
        <time>2022-08-17T12:26:29Z</time>
      </trkpt>
      <trkpt lat="49.82842" lon="2.22852">
        <ele>55</ele>
        <time>2022-08-17T12:26:30Z</time>
      </trkpt>
      <trkpt lat="49.82842" lon="2.22852">
        <ele>55</ele>
        <time>2022-08-17T12:26:32Z</time>
      </trkpt>
      <trkpt lat="49.82841" lon="2.22852">
        <ele>55.1</ele>
        <time>2022-08-17T12:26:33Z</time>
      </trkpt>
      <trkpt lat="49.8284" lon="2.22851">
        <ele>55.1</ele>
        <time>2022-08-17T12:26:35Z</time>
      </trkpt>
      <trkpt lat="49.8284" lon="2.2285">
        <ele>55.2</ele>
        <time>2022-08-17T12:26:36Z</time>
      </trkpt>
      <trkpt lat="49.82839" lon="2.2285">
        <ele>55.2</ele>
        <time>2022-08-17T12:26:37Z</time>
      </trkpt>
      <trkpt lat="49.8284" lon="2.2285">
        <ele>55.2</ele>
        <time>2022-08-17T12:26:38Z</time>
      </trkpt>
      <trkpt lat="49.8284" lon="2.2285">
        <ele>55.2</ele>
        <time>2022-08-17T12:26:39Z</time>
      </trkpt>
      <trkpt lat="49.8284" lon="2.2285">
        <ele>55.2</ele>
        <time>2022-08-17T12:26:40Z</time>
      </trkpt>
      <trkpt lat="49.8284" lon="2.2285">
        <ele>55.2</ele>
        <time>2022-08-17T12:26:41Z</time>
      </trkpt>
      <trkpt lat="49.8284" lon="2.2285">
        <ele>55.2</ele>
        <time>2022-08-17T12:26:42Z</time>
      </trkpt>
      <trkpt lat="49.8284" lon="2.2285">
        <ele>55.2</ele>
        <time>2022-08-17T12:26:43Z</time>
      </trkpt>
      <trkpt lat="49.82841" lon="2.2285">
        <ele>55.2</ele>
        <time>2022-08-17T12:26:44Z</time>
      </trkpt>
      <trkpt lat="49.82841" lon="2.2285">
        <ele>55.2</ele>
        <time>2022-08-17T12:26:46Z</time>
      </trkpt>
      <trkpt lat="49.82841" lon="2.2285">
        <ele>55.2</ele>
        <time>2022-08-17T12:26:47Z</time>
      </trkpt>
      <trkpt lat="49.82841" lon="2.2285">
        <ele>55.3</ele>
        <time>2022-08-17T12:26:48Z</time>
      </trkpt>
      <trkpt lat="49.82841" lon="2.22851">
        <ele>55.3</ele>
        <time>2022-08-17T12:26:49Z</time>
      </trkpt>
      <trkpt lat="49.82841" lon="2.22851">
        <ele>55.3</ele>
        <time>2022-08-17T12:26:50Z</time>
      </trkpt>
      <trkpt lat="49.82841" lon="2.22851">
        <ele>55.3</ele>
        <time>2022-08-17T12:26:51Z</time>
      </trkpt>
      <trkpt lat="49.82842" lon="2.22851">
        <ele>55.3</ele>
        <time>2022-08-17T12:26:52Z</time>
      </trkpt>
      <trkpt lat="49.82842" lon="2.22851">
        <ele>55.3</ele>
        <time>2022-08-17T12:26:53Z</time>
      </trkpt>
      <trkpt lat="49.82842" lon="2.22851">
        <ele>55.3</ele>
        <time>2022-08-17T12:26:54Z</time>
      </trkpt>
      <trkpt lat="49.82842" lon="2.22851">
        <ele>55.3</ele>
        <time>2022-08-17T12:26:55Z</time>
      </trkpt>
      <trkpt lat="49.82842" lon="2.22851">
        <ele>55.3</ele>
        <time>2022-08-17T12:26:56Z</time>
      </trkpt>
      <trkpt lat="49.82842" lon="2.22851">
        <ele>55.3</ele>
        <time>2022-08-17T12:26:57Z</time>
      </trkpt>
      <trkpt lat="49.82843" lon="2.22851">
        <ele>55.3</ele>
        <time>2022-08-17T12:26:58Z</time>
      </trkpt>
      <trkpt lat="49.82843" lon="2.22851">
        <ele>55.3</ele>
        <time>2022-08-17T12:26:59Z</time>
      </trkpt>
      <trkpt lat="49.82843" lon="2.22851">
        <ele>55.4</ele>
        <time>2022-08-17T12:27:00Z</time>
      </trkpt>
      <trkpt lat="49.82843" lon="2.22851">
        <ele>55.4</ele>
        <time>2022-08-17T12:27:01Z</time>
      </trkpt>
      <trkpt lat="49.82843" lon="2.22851">
        <ele>55.4</ele>
        <time>2022-08-17T12:27:02Z</time>
      </trkpt>
      <trkpt lat="49.82843" lon="2.22851">
        <ele>55.4</ele>
        <time>2022-08-17T12:27:03Z</time>
      </trkpt>
      <trkpt lat="49.82845" lon="2.22853">
        <ele>55.5</ele>
        <time>2022-08-17T12:27:04Z</time>
      </trkpt>
      <trkpt lat="49.82846" lon="2.22854">
        <ele>55.5</ele>
        <time>2022-08-17T12:27:05Z</time>
      </trkpt>
      <trkpt lat="49.82843" lon="2.22851">
        <ele>55.7</ele>
        <time>2022-08-17T12:27:06Z</time>
      </trkpt>
      <trkpt lat="49.82843" lon="2.22851">
        <ele>55.7</ele>
        <time>2022-08-17T12:27:07Z</time>
      </trkpt>
      <trkpt lat="49.82842" lon="2.22851">
        <ele>55.8</ele>
        <time>2022-08-17T12:27:08Z</time>
      </trkpt>
      <trkpt lat="49.82842" lon="2.22851">
        <ele>55.8</ele>
        <time>2022-08-17T12:27:09Z</time>
      </trkpt>
      <trkpt lat="49.82841" lon="2.22852">
        <ele>55.8</ele>
        <time>2022-08-17T12:27:10Z</time>
      </trkpt>
      <trkpt lat="49.82841" lon="2.22853">
        <ele>55.9</ele>
        <time>2022-08-17T12:27:11Z</time>
      </trkpt>
      <trkpt lat="49.82841" lon="2.22856">
        <ele>56</ele>
        <time>2022-08-17T12:27:12Z</time>
      </trkpt>
      <trkpt lat="49.82839" lon="2.22859">
        <ele>56.2</ele>
        <time>2022-08-17T12:27:13Z</time>
      </trkpt>
      <trkpt lat="49.82838" lon="2.22859">
        <ele>56.2</ele>
        <time>2022-08-17T12:27:15Z</time>
      </trkpt>
      <trkpt lat="49.82836" lon="2.2286">
        <ele>56.3</ele>
        <time>2022-08-17T12:27:16Z</time>
      </trkpt>
      <trkpt lat="49.82835" lon="2.22861">
        <ele>56.4</ele>
        <time>2022-08-17T12:27:17Z</time>
      </trkpt>
      <trkpt lat="49.82832" lon="2.22859">
        <ele>56.6</ele>
        <time>2022-08-17T12:27:18Z</time>
      </trkpt>
      <trkpt lat="49.82831" lon="2.22859">
        <ele>56.6</ele>
        <time>2022-08-17T12:27:19Z</time>
      </trkpt>
      <trkpt lat="49.82829" lon="2.22859">
        <ele>56.8</ele>
        <time>2022-08-17T12:27:20Z</time>
      </trkpt>
      <trkpt lat="49.82828" lon="2.22859">
        <ele>56.9</ele>
        <time>2022-08-17T12:27:21Z</time>
      </trkpt>
      <trkpt lat="49.82826" lon="2.22859">
        <ele>57</ele>
        <time>2022-08-17T12:27:23Z</time>
      </trkpt>
      <trkpt lat="49.82824" lon="2.2286">
        <ele>57.1</ele>
        <time>2022-08-17T12:27:24Z</time>
      </trkpt>
      <trkpt lat="49.82823" lon="2.2286">
        <ele>57.2</ele>
        <time>2022-08-17T12:27:25Z</time>
      </trkpt>
      <trkpt lat="49.82821" lon="2.22861">
        <ele>57.3</ele>
        <time>2022-08-17T12:27:26Z</time>
      </trkpt>
      <trkpt lat="49.82818" lon="2.22862">
        <ele>57.5</ele>
        <time>2022-08-17T12:27:27Z</time>
      </trkpt>
      <trkpt lat="49.82817" lon="2.22862">
        <ele>57.6</ele>
        <time>2022-08-17T12:27:28Z</time>
      </trkpt>
      <trkpt lat="49.82814" lon="2.22863">
        <ele>57.8</ele>
        <time>2022-08-17T12:27:30Z</time>
      </trkpt>
      <trkpt lat="49.82813" lon="2.22863">
        <ele>57.8</ele>
        <time>2022-08-17T12:27:31Z</time>
      </trkpt>
      <trkpt lat="49.82812" lon="2.22864">
        <ele>57.9</ele>
        <time>2022-08-17T12:27:32Z</time>
      </trkpt>
      <trkpt lat="49.8281" lon="2.22864">
        <ele>58</ele>
        <time>2022-08-17T12:27:33Z</time>
      </trkpt>
      <trkpt lat="49.82809" lon="2.22865">
        <ele>58.1</ele>
        <time>2022-08-17T12:27:34Z</time>
      </trkpt>
      <trkpt lat="49.82808" lon="2.22866">
        <ele>58.2</ele>
        <time>2022-08-17T12:27:35Z</time>
      </trkpt>
      <trkpt lat="49.82807" lon="2.22866">
        <ele>58.3</ele>
        <time>2022-08-17T12:27:36Z</time>
      </trkpt>
      <trkpt lat="49.82805" lon="2.22866">
        <ele>58.4</ele>
        <time>2022-08-17T12:27:38Z</time>
      </trkpt>
      <trkpt lat="49.82804" lon="2.22866">
        <ele>58.5</ele>
        <time>2022-08-17T12:27:39Z</time>
      </trkpt>
      <trkpt lat="49.82802" lon="2.22867">
        <ele>58.6</ele>
        <time>2022-08-17T12:27:40Z</time>
      </trkpt>
      <trkpt lat="49.82801" lon="2.22867">
        <ele>58.6</ele>
        <time>2022-08-17T12:27:41Z</time>
      </trkpt>
      <trkpt lat="49.828" lon="2.22868">
        <ele>58.7</ele>
        <time>2022-08-17T12:27:42Z</time>
      </trkpt>
      <trkpt lat="49.82799" lon="2.22869">
        <ele>58.8</ele>
        <time>2022-08-17T12:27:43Z</time>
      </trkpt>
      <trkpt lat="49.82797" lon="2.22869">
        <ele>58.9</ele>
        <time>2022-08-17T12:27:44Z</time>
      </trkpt>
      <trkpt lat="49.82796" lon="2.2287">
        <ele>59</ele>
        <time>2022-08-17T12:27:45Z</time>
      </trkpt>
      <trkpt lat="49.82795" lon="2.22871">
        <ele>59.1</ele>
        <time>2022-08-17T12:27:47Z</time>
      </trkpt>
      <trkpt lat="49.82793" lon="2.22872">
        <ele>59.3</ele>
        <time>2022-08-17T12:27:48Z</time>
      </trkpt>
      <trkpt lat="49.82792" lon="2.22872">
        <ele>59.3</ele>
        <time>2022-08-17T12:27:49Z</time>
      </trkpt>
      <trkpt lat="49.82791" lon="2.22873">
        <ele>59.4</ele>
        <time>2022-08-17T12:27:50Z</time>
      </trkpt>
      <trkpt lat="49.82789" lon="2.22873">
        <ele>59.5</ele>
        <time>2022-08-17T12:27:51Z</time>
      </trkpt>
      <trkpt lat="49.82788" lon="2.22874">
        <ele>59.6</ele>
        <time>2022-08-17T12:27:52Z</time>
      </trkpt>
      <trkpt lat="49.82787" lon="2.22875">
        <ele>59.6</ele>
        <time>2022-08-17T12:27:54Z</time>
      </trkpt>
      <trkpt lat="49.82786" lon="2.22876">
        <ele>59.7</ele>
        <time>2022-08-17T12:27:55Z</time>
      </trkpt>
      <trkpt lat="49.82785" lon="2.22876">
        <ele>59.8</ele>
        <time>2022-08-17T12:27:56Z</time>
      </trkpt>
      <trkpt lat="49.82784" lon="2.22877">
        <ele>59.9</ele>
        <time>2022-08-17T12:27:57Z</time>
      </trkpt>
      <trkpt lat="49.82784" lon="2.22878">
        <ele>59.9</ele>
        <time>2022-08-17T12:27:58Z</time>
      </trkpt>
      <trkpt lat="49.82783" lon="2.22879">
        <ele>60</ele>
        <time>2022-08-17T12:27:59Z</time>
      </trkpt>
      <trkpt lat="49.82781" lon="2.22879">
        <ele>60.1</ele>
        <time>2022-08-17T12:28:01Z</time>
      </trkpt>
      <trkpt lat="49.82781" lon="2.2288">
        <ele>60.1</ele>
        <time>2022-08-17T12:28:02Z</time>
      </trkpt>
      <trkpt lat="49.82779" lon="2.22881">
        <ele>60.2</ele>
        <time>2022-08-17T12:28:03Z</time>
      </trkpt>
      <trkpt lat="49.82777" lon="2.22882">
        <ele>60.4</ele>
        <time>2022-08-17T12:28:05Z</time>
      </trkpt>
      <trkpt lat="49.82775" lon="2.22883">
        <ele>60.5</ele>
        <time>2022-08-17T12:28:06Z</time>
      </trkpt>
      <trkpt lat="49.82774" lon="2.22883">
        <ele>60.6</ele>
        <time>2022-08-17T12:28:07Z</time>
      </trkpt>
      <trkpt lat="49.82773" lon="2.22884">
        <ele>60.6</ele>
        <time>2022-08-17T12:28:08Z</time>
      </trkpt>
      <trkpt lat="49.82772" lon="2.22884">
        <ele>60.8</ele>
        <time>2022-08-17T12:28:09Z</time>
      </trkpt>
      <trkpt lat="49.82771" lon="2.22885">
        <ele>60.8</ele>
        <time>2022-08-17T12:28:11Z</time>
      </trkpt>
      <trkpt lat="49.8277" lon="2.22885">
        <ele>60.9</ele>
        <time>2022-08-17T12:28:12Z</time>
      </trkpt>
      <trkpt lat="49.82768" lon="2.22886">
        <ele>61</ele>
        <time>2022-08-17T12:28:13Z</time>
      </trkpt>
      <trkpt lat="49.82767" lon="2.22886">
        <ele>61.1</ele>
        <time>2022-08-17T12:28:14Z</time>
      </trkpt>
      <trkpt lat="49.82766" lon="2.22887">
        <ele>61.1</ele>
        <time>2022-08-17T12:28:15Z</time>
      </trkpt>
      <trkpt lat="49.82764" lon="2.22888">
        <ele>61.2</ele>
        <time>2022-08-17T12:28:16Z</time>
      </trkpt>
      <trkpt lat="49.82763" lon="2.22888">
        <ele>61.3</ele>
        <time>2022-08-17T12:28:18Z</time>
      </trkpt>
      <trkpt lat="49.82762" lon="2.22889">
        <ele>61.4</ele>
        <time>2022-08-17T12:28:19Z</time>
      </trkpt>
      <trkpt lat="49.8276" lon="2.22889">
        <ele>61.5</ele>
        <time>2022-08-17T12:28:20Z</time>
      </trkpt>
      <trkpt lat="49.82759" lon="2.2289">
        <ele>61.5</ele>
        <time>2022-08-17T12:28:21Z</time>
      </trkpt>
      <trkpt lat="49.82758" lon="2.2289">
        <ele>61.6</ele>
        <time>2022-08-17T12:28:22Z</time>
      </trkpt>
      <trkpt lat="49.82756" lon="2.2289">
        <ele>61.7</ele>
        <time>2022-08-17T12:28:23Z</time>
      </trkpt>
      <trkpt lat="49.82755" lon="2.2289">
        <ele>61.8</ele>
        <time>2022-08-17T12:28:25Z</time>
      </trkpt>
      <trkpt lat="49.82754" lon="2.2289">
        <ele>61.8</ele>
        <time>2022-08-17T12:28:26Z</time>
      </trkpt>
      <trkpt lat="49.82754" lon="2.2289">
        <ele>61.9</ele>
        <time>2022-08-17T12:28:27Z</time>
      </trkpt>
      <trkpt lat="49.82753" lon="2.22891">
        <ele>61.9</ele>
        <time>2022-08-17T12:28:28Z</time>
      </trkpt>
      <trkpt lat="49.82752" lon="2.22891">
        <ele>62</ele>
        <time>2022-08-17T12:28:29Z</time>
      </trkpt>
      <trkpt lat="49.82752" lon="2.22892">
        <ele>62</ele>
        <time>2022-08-17T12:28:31Z</time>
      </trkpt>
      <trkpt lat="49.82751" lon="2.22893">
        <ele>62.1</ele>
        <time>2022-08-17T12:28:32Z</time>
      </trkpt>
      <trkpt lat="49.8275" lon="2.22894">
        <ele>62.1</ele>
        <time>2022-08-17T12:28:33Z</time>
      </trkpt>
      <trkpt lat="49.8275" lon="2.22896">
        <ele>62.2</ele>
        <time>2022-08-17T12:28:34Z</time>
      </trkpt>
      <trkpt lat="49.82749" lon="2.22897">
        <ele>62.2</ele>
        <time>2022-08-17T12:28:35Z</time>
      </trkpt>
      <trkpt lat="49.82748" lon="2.22899">
        <ele>62.3</ele>
        <time>2022-08-17T12:28:36Z</time>
      </trkpt>
      <trkpt lat="49.82747" lon="2.229">
        <ele>62.4</ele>
        <time>2022-08-17T12:28:37Z</time>
      </trkpt>
      <trkpt lat="49.82746" lon="2.22902">
        <ele>62.5</ele>
        <time>2022-08-17T12:28:38Z</time>
      </trkpt>
      <trkpt lat="49.82745" lon="2.22903">
        <ele>62.5</ele>
        <time>2022-08-17T12:28:40Z</time>
      </trkpt>
      <trkpt lat="49.82745" lon="2.22904">
        <ele>62.6</ele>
        <time>2022-08-17T12:28:41Z</time>
      </trkpt>
      <trkpt lat="49.82745" lon="2.22906">
        <ele>62.7</ele>
        <time>2022-08-17T12:28:42Z</time>
      </trkpt>
      <trkpt lat="49.82745" lon="2.22907">
        <ele>62.7</ele>
        <time>2022-08-17T12:28:43Z</time>
      </trkpt>
      <trkpt lat="49.82745" lon="2.22909">
        <ele>62.8</ele>
        <time>2022-08-17T12:28:44Z</time>
      </trkpt>
      <trkpt lat="49.82745" lon="2.22911">
        <ele>62.8</ele>
        <time>2022-08-17T12:28:45Z</time>
      </trkpt>
      <trkpt lat="49.82745" lon="2.22912">
        <ele>62.9</ele>
        <time>2022-08-17T12:28:46Z</time>
      </trkpt>
      <trkpt lat="49.82745" lon="2.22914">
        <ele>63</ele>
        <time>2022-08-17T12:28:48Z</time>
      </trkpt>
      <trkpt lat="49.82744" lon="2.22916">
        <ele>63</ele>
        <time>2022-08-17T12:28:49Z</time>
      </trkpt>
      <trkpt lat="49.82744" lon="2.22917">
        <ele>63.1</ele>
        <time>2022-08-17T12:28:50Z</time>
      </trkpt>
      <trkpt lat="49.82744" lon="2.22919">
        <ele>63.2</ele>
        <time>2022-08-17T12:28:51Z</time>
      </trkpt>
      <trkpt lat="49.82744" lon="2.22922">
        <ele>63.3</ele>
        <time>2022-08-17T12:28:52Z</time>
      </trkpt>
      <trkpt lat="49.82744" lon="2.22924">
        <ele>63.3</ele>
        <time>2022-08-17T12:28:53Z</time>
      </trkpt>
      <trkpt lat="49.82744" lon="2.22925">
        <ele>63.4</ele>
        <time>2022-08-17T12:28:54Z</time>
      </trkpt>
      <trkpt lat="49.82743" lon="2.22927">
        <ele>63.5</ele>
        <time>2022-08-17T12:28:55Z</time>
      </trkpt>
      <trkpt lat="49.82743" lon="2.22929">
        <ele>63.6</ele>
        <time>2022-08-17T12:28:57Z</time>
      </trkpt>
      <trkpt lat="49.82742" lon="2.22932">
        <ele>63.7</ele>
        <time>2022-08-17T12:28:58Z</time>
      </trkpt>
      <trkpt lat="49.82742" lon="2.22934">
        <ele>63.8</ele>
        <time>2022-08-17T12:28:59Z</time>
      </trkpt>
      <trkpt lat="49.82741" lon="2.22936">
        <ele>63.8</ele>
        <time>2022-08-17T12:29:00Z</time>
      </trkpt>
      <trkpt lat="49.82741" lon="2.22939">
        <ele>64</ele>
        <time>2022-08-17T12:29:01Z</time>
      </trkpt>
      <trkpt lat="49.8274" lon="2.22941">
        <ele>64.1</ele>
        <time>2022-08-17T12:29:02Z</time>
      </trkpt>
      <trkpt lat="49.8274" lon="2.22944">
        <ele>64.2</ele>
        <time>2022-08-17T12:29:03Z</time>
      </trkpt>
      <trkpt lat="49.82739" lon="2.22947">
        <ele>64.3</ele>
        <time>2022-08-17T12:29:05Z</time>
      </trkpt>
      <trkpt lat="49.82738" lon="2.22948">
        <ele>64.3</ele>
        <time>2022-08-17T12:29:06Z</time>
      </trkpt>
      <trkpt lat="49.82738" lon="2.22949">
        <ele>64.4</ele>
        <time>2022-08-17T12:29:07Z</time>
      </trkpt>
      <trkpt lat="49.82737" lon="2.22952">
        <ele>64.5</ele>
        <time>2022-08-17T12:29:08Z</time>
      </trkpt>
      <trkpt lat="49.82737" lon="2.22953">
        <ele>64.5</ele>
        <time>2022-08-17T12:29:09Z</time>
      </trkpt>
      <trkpt lat="49.82737" lon="2.22955">
        <ele>64.6</ele>
        <time>2022-08-17T12:29:10Z</time>
      </trkpt>
      <trkpt lat="49.82736" lon="2.22957">
        <ele>64.7</ele>
        <time>2022-08-17T12:29:12Z</time>
      </trkpt>
      <trkpt lat="49.82736" lon="2.22959">
        <ele>64.7</ele>
        <time>2022-08-17T12:29:13Z</time>
      </trkpt>
      <trkpt lat="49.82736" lon="2.2296">
        <ele>64.8</ele>
        <time>2022-08-17T12:29:14Z</time>
      </trkpt>
      <trkpt lat="49.82736" lon="2.22961">
        <ele>64.8</ele>
        <time>2022-08-17T12:29:15Z</time>
      </trkpt>
      <trkpt lat="49.82736" lon="2.22961">
        <ele>64.8</ele>
        <time>2022-08-17T12:29:16Z</time>
      </trkpt>
      <trkpt lat="49.82735" lon="2.22962">
        <ele>64.9</ele>
        <time>2022-08-17T12:29:17Z</time>
      </trkpt>
      <trkpt lat="49.82735" lon="2.22964">
        <ele>64.9</ele>
        <time>2022-08-17T12:29:18Z</time>
      </trkpt>
      <trkpt lat="49.82734" lon="2.22967">
        <ele>65.1</ele>
        <time>2022-08-17T12:29:19Z</time>
      </trkpt>
      <trkpt lat="49.82733" lon="2.22969">
        <ele>65.1</ele>
        <time>2022-08-17T12:29:21Z</time>
      </trkpt>
      <trkpt lat="49.82733" lon="2.2297">
        <ele>65.2</ele>
        <time>2022-08-17T12:29:22Z</time>
      </trkpt>
      <trkpt lat="49.82733" lon="2.22972">
        <ele>65.2</ele>
        <time>2022-08-17T12:29:23Z</time>
      </trkpt>
      <trkpt lat="49.82732" lon="2.22973">
        <ele>65.3</ele>
        <time>2022-08-17T12:29:24Z</time>
      </trkpt>
      <trkpt lat="49.82732" lon="2.22975">
        <ele>65.4</ele>
        <time>2022-08-17T12:29:25Z</time>
      </trkpt>
      <trkpt lat="49.82731" lon="2.22977">
        <ele>65.4</ele>
        <time>2022-08-17T12:29:26Z</time>
      </trkpt>
      <trkpt lat="49.82731" lon="2.22979">
        <ele>65.5</ele>
        <time>2022-08-17T12:29:27Z</time>
      </trkpt>
      <trkpt lat="49.8273" lon="2.2298">
        <ele>65.5</ele>
        <time>2022-08-17T12:29:29Z</time>
      </trkpt>
      <trkpt lat="49.8273" lon="2.22981">
        <ele>65.6</ele>
        <time>2022-08-17T12:29:30Z</time>
      </trkpt>
      <trkpt lat="49.82729" lon="2.22982">
        <ele>65.6</ele>
        <time>2022-08-17T12:29:31Z</time>
      </trkpt>
      <trkpt lat="49.82729" lon="2.22985">
        <ele>65.7</ele>
        <time>2022-08-17T12:29:32Z</time>
      </trkpt>
      <trkpt lat="49.82728" lon="2.22986">
        <ele>65.8</ele>
        <time>2022-08-17T12:29:33Z</time>
      </trkpt>
      <trkpt lat="49.82728" lon="2.22988">
        <ele>65.8</ele>
        <time>2022-08-17T12:29:34Z</time>
      </trkpt>
      <trkpt lat="49.82727" lon="2.2299">
        <ele>65.9</ele>
        <time>2022-08-17T12:29:35Z</time>
      </trkpt>
      <trkpt lat="49.82727" lon="2.22992">
        <ele>66</ele>
        <time>2022-08-17T12:29:36Z</time>
      </trkpt>
      <trkpt lat="49.82726" lon="2.22994">
        <ele>66</ele>
        <time>2022-08-17T12:29:38Z</time>
      </trkpt>
      <trkpt lat="49.82726" lon="2.22995">
        <ele>66.1</ele>
        <time>2022-08-17T12:29:39Z</time>
      </trkpt>
      <trkpt lat="49.82726" lon="2.22997">
        <ele>66.1</ele>
        <time>2022-08-17T12:29:40Z</time>
      </trkpt>
      <trkpt lat="49.82726" lon="2.22998">
        <ele>66.1</ele>
        <time>2022-08-17T12:29:41Z</time>
      </trkpt>
      <trkpt lat="49.82726" lon="2.22999">
        <ele>66.2</ele>
        <time>2022-08-17T12:29:42Z</time>
      </trkpt>
      <trkpt lat="49.82725" lon="2.23001">
        <ele>66.2</ele>
        <time>2022-08-17T12:29:43Z</time>
      </trkpt>
      <trkpt lat="49.82725" lon="2.23002">
        <ele>66.3</ele>
        <time>2022-08-17T12:29:44Z</time>
      </trkpt>
      <trkpt lat="49.82724" lon="2.23004">
        <ele>66.3</ele>
        <time>2022-08-17T12:29:46Z</time>
      </trkpt>
      <trkpt lat="49.82724" lon="2.23006">
        <ele>66.4</ele>
        <time>2022-08-17T12:29:47Z</time>
      </trkpt>
      <trkpt lat="49.82723" lon="2.23009">
        <ele>66.5</ele>
        <time>2022-08-17T12:29:48Z</time>
      </trkpt>
      <trkpt lat="49.82723" lon="2.23011">
        <ele>66.5</ele>
        <time>2022-08-17T12:29:49Z</time>
      </trkpt>
      <trkpt lat="49.82722" lon="2.23013">
        <ele>66.6</ele>
        <time>2022-08-17T12:29:50Z</time>
      </trkpt>
      <trkpt lat="49.82722" lon="2.23015">
        <ele>66.7</ele>
        <time>2022-08-17T12:29:51Z</time>
      </trkpt>
      <trkpt lat="49.82721" lon="2.23017">
        <ele>66.7</ele>
        <time>2022-08-17T12:29:52Z</time>
      </trkpt>
      <trkpt lat="49.82721" lon="2.23019">
        <ele>66.8</ele>
        <time>2022-08-17T12:29:53Z</time>
      </trkpt>
      <trkpt lat="49.8272" lon="2.23022">
        <ele>66.9</ele>
        <time>2022-08-17T12:29:55Z</time>
      </trkpt>
      <trkpt lat="49.8272" lon="2.23024">
        <ele>66.9</ele>
        <time>2022-08-17T12:29:56Z</time>
      </trkpt>
      <trkpt lat="49.82719" lon="2.23026">
        <ele>67</ele>
        <time>2022-08-17T12:29:57Z</time>
      </trkpt>
      <trkpt lat="49.82719" lon="2.23028">
        <ele>67</ele>
        <time>2022-08-17T12:29:58Z</time>
      </trkpt>
      <trkpt lat="49.82719" lon="2.23029">
        <ele>67.1</ele>
        <time>2022-08-17T12:29:59Z</time>
      </trkpt>
      <trkpt lat="49.82718" lon="2.2303">
        <ele>67.1</ele>
        <time>2022-08-17T12:30:00Z</time>
      </trkpt>
      <trkpt lat="49.82718" lon="2.2303">
        <ele>67.1</ele>
        <time>2022-08-17T12:30:01Z</time>
      </trkpt>
      <trkpt lat="49.82718" lon="2.23031">
        <ele>67.1</ele>
        <time>2022-08-17T12:30:02Z</time>
      </trkpt>
      <trkpt lat="49.82718" lon="2.23032">
        <ele>67.2</ele>
        <time>2022-08-17T12:30:04Z</time>
      </trkpt>
      <trkpt lat="49.82717" lon="2.23035">
        <ele>67.2</ele>
        <time>2022-08-17T12:30:05Z</time>
      </trkpt>
      <trkpt lat="49.82717" lon="2.23037">
        <ele>67.3</ele>
        <time>2022-08-17T12:30:06Z</time>
      </trkpt>
      <trkpt lat="49.82716" lon="2.2304">
        <ele>67.4</ele>
        <time>2022-08-17T12:30:07Z</time>
      </trkpt>
      <trkpt lat="49.82716" lon="2.23041">
        <ele>67.4</ele>
        <time>2022-08-17T12:30:08Z</time>
      </trkpt>
      <trkpt lat="49.82715" lon="2.23043">
        <ele>67.5</ele>
        <time>2022-08-17T12:30:09Z</time>
      </trkpt>
      <trkpt lat="49.82715" lon="2.23044">
        <ele>67.5</ele>
        <time>2022-08-17T12:30:10Z</time>
      </trkpt>
      <trkpt lat="49.82714" lon="2.23046">
        <ele>67.6</ele>
        <time>2022-08-17T12:30:11Z</time>
      </trkpt>
      <trkpt lat="49.82714" lon="2.23047">
        <ele>67.6</ele>
        <time>2022-08-17T12:30:12Z</time>
      </trkpt>
      <trkpt lat="49.82714" lon="2.23049">
        <ele>67.6</ele>
        <time>2022-08-17T12:30:14Z</time>
      </trkpt>
      <trkpt lat="49.82713" lon="2.23051">
        <ele>67.7</ele>
        <time>2022-08-17T12:30:15Z</time>
      </trkpt>
      <trkpt lat="49.82713" lon="2.23052">
        <ele>67.7</ele>
        <time>2022-08-17T12:30:16Z</time>
      </trkpt>
      <trkpt lat="49.82712" lon="2.23054">
        <ele>67.8</ele>
        <time>2022-08-17T12:30:17Z</time>
      </trkpt>
      <trkpt lat="49.82712" lon="2.23056">
        <ele>67.9</ele>
        <time>2022-08-17T12:30:18Z</time>
      </trkpt>
      <trkpt lat="49.82711" lon="2.23058">
        <ele>67.9</ele>
        <time>2022-08-17T12:30:19Z</time>
      </trkpt>
      <trkpt lat="49.8271" lon="2.2306">
        <ele>68</ele>
        <time>2022-08-17T12:30:20Z</time>
      </trkpt>
      <trkpt lat="49.8271" lon="2.23063">
        <ele>68</ele>
        <time>2022-08-17T12:30:22Z</time>
      </trkpt>
      <trkpt lat="49.82709" lon="2.23065">
        <ele>68.1</ele>
        <time>2022-08-17T12:30:23Z</time>
      </trkpt>
      <trkpt lat="49.82709" lon="2.23068">
        <ele>68.2</ele>
        <time>2022-08-17T12:30:24Z</time>
      </trkpt>
      <trkpt lat="49.82708" lon="2.2307">
        <ele>68.2</ele>
        <time>2022-08-17T12:30:25Z</time>
      </trkpt>
      <trkpt lat="49.82708" lon="2.23072">
        <ele>68.3</ele>
        <time>2022-08-17T12:30:26Z</time>
      </trkpt>
      <trkpt lat="49.82707" lon="2.23074">
        <ele>68.3</ele>
        <time>2022-08-17T12:30:27Z</time>
      </trkpt>
      <trkpt lat="49.82706" lon="2.23077">
        <ele>68.4</ele>
        <time>2022-08-17T12:30:28Z</time>
      </trkpt>
      <trkpt lat="49.82706" lon="2.23078">
        <ele>68.4</ele>
        <time>2022-08-17T12:30:29Z</time>
      </trkpt>
      <trkpt lat="49.82705" lon="2.2308">
        <ele>68.5</ele>
        <time>2022-08-17T12:30:31Z</time>
      </trkpt>
      <trkpt lat="49.82705" lon="2.23081">
        <ele>68.5</ele>
        <time>2022-08-17T12:30:32Z</time>
      </trkpt>
      <trkpt lat="49.82705" lon="2.23082">
        <ele>68.5</ele>
        <time>2022-08-17T12:30:33Z</time>
      </trkpt>
      <trkpt lat="49.82704" lon="2.23084">
        <ele>68.6</ele>
        <time>2022-08-17T12:30:34Z</time>
      </trkpt>
      <trkpt lat="49.82703" lon="2.23087">
        <ele>68.7</ele>
        <time>2022-08-17T12:30:35Z</time>
      </trkpt>
      <trkpt lat="49.82703" lon="2.23088">
        <ele>68.7</ele>
        <time>2022-08-17T12:30:37Z</time>
      </trkpt>
      <trkpt lat="49.82702" lon="2.23089">
        <ele>68.7</ele>
        <time>2022-08-17T12:30:38Z</time>
      </trkpt>
      <trkpt lat="49.82702" lon="2.23091">
        <ele>68.8</ele>
        <time>2022-08-17T12:30:39Z</time>
      </trkpt>
      <trkpt lat="49.82701" lon="2.23092">
        <ele>68.8</ele>
        <time>2022-08-17T12:30:40Z</time>
      </trkpt>
      <trkpt lat="49.82701" lon="2.23094">
        <ele>68.8</ele>
        <time>2022-08-17T12:30:41Z</time>
      </trkpt>
      <trkpt lat="49.827" lon="2.23095">
        <ele>68.9</ele>
        <time>2022-08-17T12:30:42Z</time>
      </trkpt>
      <trkpt lat="49.827" lon="2.23097">
        <ele>68.9</ele>
        <time>2022-08-17T12:30:43Z</time>
      </trkpt>
      <trkpt lat="49.82699" lon="2.23099">
        <ele>69</ele>
        <time>2022-08-17T12:30:44Z</time>
      </trkpt>
      <trkpt lat="49.82698" lon="2.23102">
        <ele>69</ele>
        <time>2022-08-17T12:30:46Z</time>
      </trkpt>
      <trkpt lat="49.82698" lon="2.23104">
        <ele>69.1</ele>
        <time>2022-08-17T12:30:47Z</time>
      </trkpt>
      <trkpt lat="49.82698" lon="2.23106">
        <ele>69.2</ele>
        <time>2022-08-17T12:30:48Z</time>
      </trkpt>
      <trkpt lat="49.82697" lon="2.23108">
        <ele>69.2</ele>
        <time>2022-08-17T12:30:49Z</time>
      </trkpt>
      <trkpt lat="49.82697" lon="2.2311">
        <ele>69.3</ele>
        <time>2022-08-17T12:30:50Z</time>
      </trkpt>
      <trkpt lat="49.82696" lon="2.23112">
        <ele>69.3</ele>
        <time>2022-08-17T12:30:51Z</time>
      </trkpt>
      <trkpt lat="49.82696" lon="2.23114">
        <ele>69.4</ele>
        <time>2022-08-17T12:30:52Z</time>
      </trkpt>
      <trkpt lat="49.82696" lon="2.23116">
        <ele>69.4</ele>
        <time>2022-08-17T12:30:53Z</time>
      </trkpt>
      <trkpt lat="49.82695" lon="2.23117">
        <ele>69.4</ele>
        <time>2022-08-17T12:30:54Z</time>
      </trkpt>
      <trkpt lat="49.82695" lon="2.23119">
        <ele>69.5</ele>
        <time>2022-08-17T12:30:56Z</time>
      </trkpt>
      <trkpt lat="49.82695" lon="2.23121">
        <ele>69.5</ele>
        <time>2022-08-17T12:30:57Z</time>
      </trkpt>
      <trkpt lat="49.82694" lon="2.23122">
        <ele>69.5</ele>
        <time>2022-08-17T12:30:58Z</time>
      </trkpt>
      <trkpt lat="49.82694" lon="2.23124">
        <ele>69.6</ele>
        <time>2022-08-17T12:30:59Z</time>
      </trkpt>
      <trkpt lat="49.82694" lon="2.23126">
        <ele>69.6</ele>
        <time>2022-08-17T12:31:00Z</time>
      </trkpt>
      <trkpt lat="49.82693" lon="2.23128">
        <ele>69.7</ele>
        <time>2022-08-17T12:31:01Z</time>
      </trkpt>
      <trkpt lat="49.82693" lon="2.2313">
        <ele>69.8</ele>
        <time>2022-08-17T12:31:02Z</time>
      </trkpt>
      <trkpt lat="49.82692" lon="2.23133">
        <ele>69.8</ele>
        <time>2022-08-17T12:31:03Z</time>
      </trkpt>
      <trkpt lat="49.82691" lon="2.23136">
        <ele>69.9</ele>
        <time>2022-08-17T12:31:05Z</time>
      </trkpt>
      <trkpt lat="49.82691" lon="2.23137">
        <ele>70</ele>
        <time>2022-08-17T12:31:06Z</time>
      </trkpt>
      <trkpt lat="49.82691" lon="2.23139">
        <ele>70</ele>
        <time>2022-08-17T12:31:07Z</time>
      </trkpt>
      <trkpt lat="49.8269" lon="2.2314">
        <ele>70</ele>
        <time>2022-08-17T12:31:08Z</time>
      </trkpt>
      <trkpt lat="49.8269" lon="2.23142">
        <ele>70.1</ele>
        <time>2022-08-17T12:31:09Z</time>
      </trkpt>
      <trkpt lat="49.82689" lon="2.23143">
        <ele>70.1</ele>
        <time>2022-08-17T12:31:10Z</time>
      </trkpt>
      <trkpt lat="49.82689" lon="2.23145">
        <ele>70.2</ele>
        <time>2022-08-17T12:31:11Z</time>
      </trkpt>
      <trkpt lat="49.82689" lon="2.23146">
        <ele>70.2</ele>
        <time>2022-08-17T12:31:12Z</time>
      </trkpt>
      <trkpt lat="49.82688" lon="2.23147">
        <ele>70.3</ele>
        <time>2022-08-17T12:31:13Z</time>
      </trkpt>
      <trkpt lat="49.82688" lon="2.23149">
        <ele>70.3</ele>
        <time>2022-08-17T12:31:15Z</time>
      </trkpt>
      <trkpt lat="49.82688" lon="2.23151">
        <ele>70.4</ele>
        <time>2022-08-17T12:31:16Z</time>
      </trkpt>
      <trkpt lat="49.82688" lon="2.23153">
        <ele>70.4</ele>
        <time>2022-08-17T12:31:17Z</time>
      </trkpt>
      <trkpt lat="49.82687" lon="2.23154">
        <ele>70.5</ele>
        <time>2022-08-17T12:31:18Z</time>
      </trkpt>
      <trkpt lat="49.82686" lon="2.23156">
        <ele>70.5</ele>
        <time>2022-08-17T12:31:20Z</time>
      </trkpt>
      <trkpt lat="49.82686" lon="2.23157">
        <ele>70.6</ele>
        <time>2022-08-17T12:31:21Z</time>
      </trkpt>
      <trkpt lat="49.82685" lon="2.23158">
        <ele>70.6</ele>
        <time>2022-08-17T12:31:22Z</time>
      </trkpt>
      <trkpt lat="49.82685" lon="2.23159">
        <ele>70.7</ele>
        <time>2022-08-17T12:31:23Z</time>
      </trkpt>
      <trkpt lat="49.82684" lon="2.23161">
        <ele>70.7</ele>
        <time>2022-08-17T12:31:24Z</time>
      </trkpt>
      <trkpt lat="49.82684" lon="2.23163">
        <ele>70.8</ele>
        <time>2022-08-17T12:31:25Z</time>
      </trkpt>
      <trkpt lat="49.82683" lon="2.23165">
        <ele>70.9</ele>
        <time>2022-08-17T12:31:27Z</time>
      </trkpt>
      <trkpt lat="49.82682" lon="2.23167">
        <ele>70.9</ele>
        <time>2022-08-17T12:31:28Z</time>
      </trkpt>
      <trkpt lat="49.82682" lon="2.23168">
        <ele>71</ele>
        <time>2022-08-17T12:31:29Z</time>
      </trkpt>
      <trkpt lat="49.82681" lon="2.2317">
        <ele>71.1</ele>
        <time>2022-08-17T12:31:30Z</time>
      </trkpt>
      <trkpt lat="49.82681" lon="2.23172">
        <ele>71.1</ele>
        <time>2022-08-17T12:31:32Z</time>
      </trkpt>
      <trkpt lat="49.8268" lon="2.23173">
        <ele>71.2</ele>
        <time>2022-08-17T12:31:33Z</time>
      </trkpt>
      <trkpt lat="49.8268" lon="2.23174">
        <ele>71.2</ele>
        <time>2022-08-17T12:31:34Z</time>
      </trkpt>
      <trkpt lat="49.82679" lon="2.23175">
        <ele>71.2</ele>
        <time>2022-08-17T12:31:35Z</time>
      </trkpt>
      <trkpt lat="49.82679" lon="2.23177">
        <ele>71.3</ele>
        <time>2022-08-17T12:31:36Z</time>
      </trkpt>
      <trkpt lat="49.82678" lon="2.23179">
        <ele>71.3</ele>
        <time>2022-08-17T12:31:38Z</time>
      </trkpt>
      <trkpt lat="49.82677" lon="2.2318">
        <ele>71.3</ele>
        <time>2022-08-17T12:31:39Z</time>
      </trkpt>
      <trkpt lat="49.82677" lon="2.23181">
        <ele>71.3</ele>
        <time>2022-08-17T12:31:40Z</time>
      </trkpt>
      <trkpt lat="49.82676" lon="2.23181">
        <ele>71.3</ele>
        <time>2022-08-17T12:31:41Z</time>
      </trkpt>
      <trkpt lat="49.82676" lon="2.23182">
        <ele>71.3</ele>
        <time>2022-08-17T12:31:43Z</time>
      </trkpt>
      <trkpt lat="49.82675" lon="2.23181">
        <ele>71.3</ele>
        <time>2022-08-17T12:31:44Z</time>
      </trkpt>
      <trkpt lat="49.82674" lon="2.23181">
        <ele>71.4</ele>
        <time>2022-08-17T12:31:45Z</time>
      </trkpt>
      <trkpt lat="49.82673" lon="2.2318">
        <ele>71.4</ele>
        <time>2022-08-17T12:31:46Z</time>
      </trkpt>
      <trkpt lat="49.82673" lon="2.2318">
        <ele>71.4</ele>
        <time>2022-08-17T12:31:47Z</time>
      </trkpt>
      <trkpt lat="49.82673" lon="2.23179">
        <ele>71.4</ele>
        <time>2022-08-17T12:31:48Z</time>
      </trkpt>
      <trkpt lat="49.82673" lon="2.23179">
        <ele>71.4</ele>
        <time>2022-08-17T12:31:49Z</time>
      </trkpt>
      <trkpt lat="49.82673" lon="2.23178">
        <ele>71.4</ele>
        <time>2022-08-17T12:31:50Z</time>
      </trkpt>
      <trkpt lat="49.82673" lon="2.23177">
        <ele>71.4</ele>
        <time>2022-08-17T12:31:51Z</time>
      </trkpt>
      <trkpt lat="49.82673" lon="2.23177">
        <ele>71.4</ele>
        <time>2022-08-17T12:31:52Z</time>
      </trkpt>
      <trkpt lat="49.82674" lon="2.23177">
        <ele>71.4</ele>
        <time>2022-08-17T12:31:53Z</time>
      </trkpt>
      <trkpt lat="49.82674" lon="2.23177">
        <ele>71.4</ele>
        <time>2022-08-17T12:31:54Z</time>
      </trkpt>
      <trkpt lat="49.82674" lon="2.23177">
        <ele>71.4</ele>
        <time>2022-08-17T12:31:55Z</time>
      </trkpt>
      <trkpt lat="49.82674" lon="2.23177">
        <ele>71.4</ele>
        <time>2022-08-17T12:31:56Z</time>
      </trkpt>
      <trkpt lat="49.82674" lon="2.23176">
        <ele>71.4</ele>
        <time>2022-08-17T12:31:57Z</time>
      </trkpt>
      <trkpt lat="49.82675" lon="2.23176">
        <ele>71.4</ele>
        <time>2022-08-17T12:31:58Z</time>
      </trkpt>
      <trkpt lat="49.82675" lon="2.23177">
        <ele>71.4</ele>
        <time>2022-08-17T12:31:59Z</time>
      </trkpt>
      <trkpt lat="49.82675" lon="2.23177">
        <ele>71.4</ele>
        <time>2022-08-17T12:32:00Z</time>
      </trkpt>
      <trkpt lat="49.82675" lon="2.23177">
        <ele>71.4</ele>
        <time>2022-08-17T12:32:02Z</time>
      </trkpt>
      <trkpt lat="49.82675" lon="2.23178">
        <ele>71.4</ele>
        <time>2022-08-17T12:32:03Z</time>
      </trkpt>
      <trkpt lat="49.82674" lon="2.23179">
        <ele>71.5</ele>
        <time>2022-08-17T12:32:04Z</time>
      </trkpt>
      <trkpt lat="49.82675" lon="2.2318">
        <ele>71.5</ele>
        <time>2022-08-17T12:32:05Z</time>
      </trkpt>
      <trkpt lat="49.82675" lon="2.23181">
        <ele>71.5</ele>
        <time>2022-08-17T12:32:06Z</time>
      </trkpt>
      <trkpt lat="49.82676" lon="2.23182">
        <ele>71.5</ele>
        <time>2022-08-17T12:32:07Z</time>
      </trkpt>
      <trkpt lat="49.82677" lon="2.23183">
        <ele>71.5</ele>
        <time>2022-08-17T12:32:08Z</time>
      </trkpt>
      <trkpt lat="49.82677" lon="2.23184">
        <ele>71.5</ele>
        <time>2022-08-17T12:32:09Z</time>
      </trkpt>
      <trkpt lat="49.82677" lon="2.23185">
        <ele>71.5</ele>
        <time>2022-08-17T12:32:11Z</time>
      </trkpt>
      <trkpt lat="49.82677" lon="2.23186">
        <ele>71.5</ele>
        <time>2022-08-17T12:32:12Z</time>
      </trkpt>
      <trkpt lat="49.82677" lon="2.23187">
        <ele>71.6</ele>
        <time>2022-08-17T12:32:13Z</time>
      </trkpt>
      <trkpt lat="49.82677" lon="2.23189">
        <ele>71.6</ele>
        <time>2022-08-17T12:32:14Z</time>
      </trkpt>
      <trkpt lat="49.82676" lon="2.2319">
        <ele>71.6</ele>
        <time>2022-08-17T12:32:16Z</time>
      </trkpt>
      <trkpt lat="49.82676" lon="2.2319">
        <ele>71.6</ele>
        <time>2022-08-17T12:32:17Z</time>
      </trkpt>
      <trkpt lat="49.82676" lon="2.23191">
        <ele>71.6</ele>
        <time>2022-08-17T12:32:18Z</time>
      </trkpt>
      <trkpt lat="49.82675" lon="2.23192">
        <ele>71.6</ele>
        <time>2022-08-17T12:32:19Z</time>
      </trkpt>
      <trkpt lat="49.82675" lon="2.23193">
        <ele>71.6</ele>
        <time>2022-08-17T12:32:20Z</time>
      </trkpt>
      <trkpt lat="49.82675" lon="2.23195">
        <ele>71.6</ele>
        <time>2022-08-17T12:32:21Z</time>
      </trkpt>
      <trkpt lat="49.82675" lon="2.23197">
        <ele>71.7</ele>
        <time>2022-08-17T12:32:23Z</time>
      </trkpt>
      <trkpt lat="49.82676" lon="2.23197">
        <ele>71.7</ele>
        <time>2022-08-17T12:32:24Z</time>
      </trkpt>
      <trkpt lat="49.82676" lon="2.23199">
        <ele>71.7</ele>
        <time>2022-08-17T12:32:25Z</time>
      </trkpt>
      <trkpt lat="49.82675" lon="2.232">
        <ele>71.7</ele>
        <time>2022-08-17T12:32:27Z</time>
      </trkpt>
      <trkpt lat="49.82675" lon="2.23202">
        <ele>71.7</ele>
        <time>2022-08-17T12:32:28Z</time>
      </trkpt>
      <trkpt lat="49.82675" lon="2.23203">
        <ele>71.7</ele>
        <time>2022-08-17T12:32:29Z</time>
      </trkpt>
      <trkpt lat="49.82674" lon="2.23204">
        <ele>71.7</ele>
        <time>2022-08-17T12:32:30Z</time>
      </trkpt>
      <trkpt lat="49.82674" lon="2.23206">
        <ele>71.8</ele>
        <time>2022-08-17T12:32:31Z</time>
      </trkpt>
      <trkpt lat="49.82674" lon="2.23208">
        <ele>71.8</ele>
        <time>2022-08-17T12:32:32Z</time>
      </trkpt>
      <trkpt lat="49.82673" lon="2.23209">
        <ele>71.8</ele>
        <time>2022-08-17T12:32:34Z</time>
      </trkpt>
      <trkpt lat="49.82673" lon="2.23211">
        <ele>71.8</ele>
        <time>2022-08-17T12:32:35Z</time>
      </trkpt>
      <trkpt lat="49.82673" lon="2.23212">
        <ele>71.8</ele>
        <time>2022-08-17T12:32:36Z</time>
      </trkpt>
      <trkpt lat="49.82672" lon="2.23214">
        <ele>71.9</ele>
        <time>2022-08-17T12:32:37Z</time>
      </trkpt>
      <trkpt lat="49.82672" lon="2.23215">
        <ele>71.9</ele>
        <time>2022-08-17T12:32:38Z</time>
      </trkpt>
      <trkpt lat="49.82672" lon="2.23216">
        <ele>71.9</ele>
        <time>2022-08-17T12:32:40Z</time>
      </trkpt>
      <trkpt lat="49.82672" lon="2.23218">
        <ele>71.9</ele>
        <time>2022-08-17T12:32:41Z</time>
      </trkpt>
      <trkpt lat="49.82672" lon="2.23219">
        <ele>71.9</ele>
        <time>2022-08-17T12:32:42Z</time>
      </trkpt>
      <trkpt lat="49.82671" lon="2.23221">
        <ele>71.9</ele>
        <time>2022-08-17T12:32:43Z</time>
      </trkpt>
      <trkpt lat="49.82671" lon="2.23222">
        <ele>72</ele>
        <time>2022-08-17T12:32:44Z</time>
      </trkpt>
      <trkpt lat="49.82671" lon="2.23223">
        <ele>72</ele>
        <time>2022-08-17T12:32:45Z</time>
      </trkpt>
      <trkpt lat="49.82671" lon="2.23225">
        <ele>72</ele>
        <time>2022-08-17T12:32:46Z</time>
      </trkpt>
      <trkpt lat="49.8267" lon="2.23226">
        <ele>72</ele>
        <time>2022-08-17T12:32:47Z</time>
      </trkpt>
      <trkpt lat="49.82669" lon="2.23227">
        <ele>72.1</ele>
        <time>2022-08-17T12:32:48Z</time>
      </trkpt>
      <trkpt lat="49.82669" lon="2.23229">
        <ele>72.1</ele>
        <time>2022-08-17T12:32:49Z</time>
      </trkpt>
      <trkpt lat="49.82668" lon="2.23231">
        <ele>72.1</ele>
        <time>2022-08-17T12:32:51Z</time>
      </trkpt>
      <trkpt lat="49.82667" lon="2.23233">
        <ele>72.2</ele>
        <time>2022-08-17T12:32:52Z</time>
      </trkpt>
      <trkpt lat="49.82667" lon="2.23235">
        <ele>72.2</ele>
        <time>2022-08-17T12:32:53Z</time>
      </trkpt>
      <trkpt lat="49.82666" lon="2.23237">
        <ele>72.2</ele>
        <time>2022-08-17T12:32:54Z</time>
      </trkpt>
      <trkpt lat="49.82665" lon="2.2324">
        <ele>72.3</ele>
        <time>2022-08-17T12:32:55Z</time>
      </trkpt>
      <trkpt lat="49.82665" lon="2.23242">
        <ele>72.3</ele>
        <time>2022-08-17T12:32:56Z</time>
      </trkpt>
      <trkpt lat="49.82664" lon="2.23245">
        <ele>72.4</ele>
        <time>2022-08-17T12:32:57Z</time>
      </trkpt>
      <trkpt lat="49.82664" lon="2.23247">
        <ele>72.4</ele>
        <time>2022-08-17T12:32:58Z</time>
      </trkpt>
      <trkpt lat="49.82663" lon="2.23249">
        <ele>72.4</ele>
        <time>2022-08-17T12:33:00Z</time>
      </trkpt>
      <trkpt lat="49.82663" lon="2.23251">
        <ele>72.5</ele>
        <time>2022-08-17T12:33:01Z</time>
      </trkpt>
      <trkpt lat="49.82662" lon="2.23253">
        <ele>72.5</ele>
        <time>2022-08-17T12:33:02Z</time>
      </trkpt>
      <trkpt lat="49.82662" lon="2.23255">
        <ele>72.5</ele>
        <time>2022-08-17T12:33:03Z</time>
      </trkpt>
      <trkpt lat="49.82661" lon="2.23257">
        <ele>72.6</ele>
        <time>2022-08-17T12:33:04Z</time>
      </trkpt>
      <trkpt lat="49.82661" lon="2.23259">
        <ele>72.6</ele>
        <time>2022-08-17T12:33:05Z</time>
      </trkpt>
      <trkpt lat="49.8266" lon="2.23261">
        <ele>72.6</ele>
        <time>2022-08-17T12:33:06Z</time>
      </trkpt>
      <trkpt lat="49.8266" lon="2.23262">
        <ele>72.7</ele>
        <time>2022-08-17T12:33:07Z</time>
      </trkpt>
      <trkpt lat="49.8266" lon="2.23262">
        <ele>72.7</ele>
        <time>2022-08-17T12:33:09Z</time>
      </trkpt>
      <trkpt lat="49.82659" lon="2.23263">
        <ele>72.7</ele>
        <time>2022-08-17T12:33:10Z</time>
      </trkpt>
      <trkpt lat="49.82659" lon="2.23265">
        <ele>72.7</ele>
        <time>2022-08-17T12:33:11Z</time>
      </trkpt>
      <trkpt lat="49.82658" lon="2.23267">
        <ele>72.8</ele>
        <time>2022-08-17T12:33:12Z</time>
      </trkpt>
      <trkpt lat="49.82657" lon="2.2327">
        <ele>72.8</ele>
        <time>2022-08-17T12:33:13Z</time>
      </trkpt>
      <trkpt lat="49.82657" lon="2.23271">
        <ele>72.9</ele>
        <time>2022-08-17T12:33:14Z</time>
      </trkpt>
      <trkpt lat="49.82656" lon="2.23272">
        <ele>72.9</ele>
        <time>2022-08-17T12:33:15Z</time>
      </trkpt>
      <trkpt lat="49.82656" lon="2.23276">
        <ele>72.9</ele>
        <time>2022-08-17T12:33:17Z</time>
      </trkpt>
      <trkpt lat="49.82655" lon="2.23277">
        <ele>73</ele>
        <time>2022-08-17T12:33:18Z</time>
      </trkpt>
      <trkpt lat="49.82655" lon="2.23278">
        <ele>73</ele>
        <time>2022-08-17T12:33:19Z</time>
      </trkpt>
      <trkpt lat="49.82654" lon="2.2328">
        <ele>73</ele>
        <time>2022-08-17T12:33:20Z</time>
      </trkpt>
      <trkpt lat="49.82654" lon="2.23283">
        <ele>73.1</ele>
        <time>2022-08-17T12:33:21Z</time>
      </trkpt>
      <trkpt lat="49.82653" lon="2.23284">
        <ele>73.1</ele>
        <time>2022-08-17T12:33:22Z</time>
      </trkpt>
      <trkpt lat="49.82652" lon="2.23285">
        <ele>73.2</ele>
        <time>2022-08-17T12:33:23Z</time>
      </trkpt>
      <trkpt lat="49.82652" lon="2.23285">
        <ele>73.2</ele>
        <time>2022-08-17T12:33:25Z</time>
      </trkpt>
      <trkpt lat="49.82652" lon="2.23287">
        <ele>73.2</ele>
        <time>2022-08-17T12:33:26Z</time>
      </trkpt>
      <trkpt lat="49.8265" lon="2.23289">
        <ele>73.3</ele>
        <time>2022-08-17T12:33:27Z</time>
      </trkpt>
      <trkpt lat="49.8265" lon="2.2329">
        <ele>73.3</ele>
        <time>2022-08-17T12:33:28Z</time>
      </trkpt>
      <trkpt lat="49.82649" lon="2.23292">
        <ele>73.3</ele>
        <time>2022-08-17T12:33:29Z</time>
      </trkpt>
      <trkpt lat="49.82649" lon="2.23293">
        <ele>73.4</ele>
        <time>2022-08-17T12:33:30Z</time>
      </trkpt>
      <trkpt lat="49.82648" lon="2.23295">
        <ele>73.4</ele>
        <time>2022-08-17T12:33:31Z</time>
      </trkpt>
      <trkpt lat="49.82648" lon="2.23295">
        <ele>73.5</ele>
        <time>2022-08-17T12:33:32Z</time>
      </trkpt>
      <trkpt lat="49.82648" lon="2.23297">
        <ele>73.5</ele>
        <time>2022-08-17T12:33:34Z</time>
      </trkpt>
      <trkpt lat="49.82647" lon="2.23298">
        <ele>73.5</ele>
        <time>2022-08-17T12:33:35Z</time>
      </trkpt>
      <trkpt lat="49.82647" lon="2.233">
        <ele>73.6</ele>
        <time>2022-08-17T12:33:36Z</time>
      </trkpt>
      <trkpt lat="49.82646" lon="2.23302">
        <ele>73.7</ele>
        <time>2022-08-17T12:33:38Z</time>
      </trkpt>
      <trkpt lat="49.82645" lon="2.23303">
        <ele>73.7</ele>
        <time>2022-08-17T12:33:39Z</time>
      </trkpt>
      <trkpt lat="49.82645" lon="2.23304">
        <ele>73.7</ele>
        <time>2022-08-17T12:33:40Z</time>
      </trkpt>
      <trkpt lat="49.82644" lon="2.23306">
        <ele>73.8</ele>
        <time>2022-08-17T12:33:41Z</time>
      </trkpt>
      <trkpt lat="49.82644" lon="2.23307">
        <ele>73.8</ele>
        <time>2022-08-17T12:33:42Z</time>
      </trkpt>
      <trkpt lat="49.82643" lon="2.23309">
        <ele>73.9</ele>
        <time>2022-08-17T12:33:43Z</time>
      </trkpt>
      <trkpt lat="49.82643" lon="2.2331">
        <ele>73.9</ele>
        <time>2022-08-17T12:33:45Z</time>
      </trkpt>
      <trkpt lat="49.82642" lon="2.23311">
        <ele>74</ele>
        <time>2022-08-17T12:33:46Z</time>
      </trkpt>
      <trkpt lat="49.82642" lon="2.23313">
        <ele>74</ele>
        <time>2022-08-17T12:33:47Z</time>
      </trkpt>
      <trkpt lat="49.82642" lon="2.23313">
        <ele>74</ele>
        <time>2022-08-17T12:33:48Z</time>
      </trkpt>
      <trkpt lat="49.82641" lon="2.23315">
        <ele>74.1</ele>
        <time>2022-08-17T12:33:49Z</time>
      </trkpt>
      <trkpt lat="49.8264" lon="2.23317">
        <ele>74.2</ele>
        <time>2022-08-17T12:33:50Z</time>
      </trkpt>
      <trkpt lat="49.8264" lon="2.23318">
        <ele>74.2</ele>
        <time>2022-08-17T12:33:51Z</time>
      </trkpt>
      <trkpt lat="49.82639" lon="2.2332">
        <ele>74.3</ele>
        <time>2022-08-17T12:33:53Z</time>
      </trkpt>
      <trkpt lat="49.82639" lon="2.23323">
        <ele>74.4</ele>
        <time>2022-08-17T12:33:54Z</time>
      </trkpt>
      <trkpt lat="49.82638" lon="2.23325">
        <ele>74.4</ele>
        <time>2022-08-17T12:33:55Z</time>
      </trkpt>
      <trkpt lat="49.82637" lon="2.23327">
        <ele>74.5</ele>
        <time>2022-08-17T12:33:56Z</time>
      </trkpt>
      <trkpt lat="49.82637" lon="2.23329">
        <ele>74.5</ele>
        <time>2022-08-17T12:33:57Z</time>
      </trkpt>
      <trkpt lat="49.82636" lon="2.23331">
        <ele>74.6</ele>
        <time>2022-08-17T12:33:58Z</time>
      </trkpt>
      <trkpt lat="49.82635" lon="2.23333">
        <ele>74.7</ele>
        <time>2022-08-17T12:33:59Z</time>
      </trkpt>
      <trkpt lat="49.82634" lon="2.23335">
        <ele>74.8</ele>
        <time>2022-08-17T12:34:01Z</time>
      </trkpt>
      <trkpt lat="49.82633" lon="2.23337">
        <ele>74.8</ele>
        <time>2022-08-17T12:34:02Z</time>
      </trkpt>
      <trkpt lat="49.82632" lon="2.23339">
        <ele>74.9</ele>
        <time>2022-08-17T12:34:03Z</time>
      </trkpt>
      <trkpt lat="49.82632" lon="2.23341">
        <ele>75</ele>
        <time>2022-08-17T12:34:04Z</time>
      </trkpt>
      <trkpt lat="49.82631" lon="2.23343">
        <ele>75</ele>
        <time>2022-08-17T12:34:05Z</time>
      </trkpt>
      <trkpt lat="49.8263" lon="2.23345">
        <ele>75.1</ele>
        <time>2022-08-17T12:34:06Z</time>
      </trkpt>
      <trkpt lat="49.8263" lon="2.23347">
        <ele>75.1</ele>
        <time>2022-08-17T12:34:07Z</time>
      </trkpt>
      <trkpt lat="49.82629" lon="2.23349">
        <ele>75.2</ele>
        <time>2022-08-17T12:34:08Z</time>
      </trkpt>
      <trkpt lat="49.82629" lon="2.23351">
        <ele>75.2</ele>
        <time>2022-08-17T12:34:10Z</time>
      </trkpt>
      <trkpt lat="49.82631" lon="2.23352">
        <ele>75.3</ele>
        <time>2022-08-17T12:34:11Z</time>
      </trkpt>
      <trkpt lat="49.82631" lon="2.23354">
        <ele>75.3</ele>
        <time>2022-08-17T12:34:12Z</time>
      </trkpt>
      <trkpt lat="49.82631" lon="2.23356">
        <ele>75.4</ele>
        <time>2022-08-17T12:34:13Z</time>
      </trkpt>
      <trkpt lat="49.8263" lon="2.23358">
        <ele>75.5</ele>
        <time>2022-08-17T12:34:14Z</time>
      </trkpt>
      <trkpt lat="49.82629" lon="2.2336">
        <ele>75.5</ele>
        <time>2022-08-17T12:34:15Z</time>
      </trkpt>
      <trkpt lat="49.82629" lon="2.23361">
        <ele>75.5</ele>
        <time>2022-08-17T12:34:16Z</time>
      </trkpt>
      <trkpt lat="49.82628" lon="2.23363">
        <ele>75.6</ele>
        <time>2022-08-17T12:34:18Z</time>
      </trkpt>
      <trkpt lat="49.82628" lon="2.23364">
        <ele>75.6</ele>
        <time>2022-08-17T12:34:19Z</time>
      </trkpt>
      <trkpt lat="49.82627" lon="2.23365">
        <ele>75.7</ele>
        <time>2022-08-17T12:34:20Z</time>
      </trkpt>
      <trkpt lat="49.82626" lon="2.23367">
        <ele>75.7</ele>
        <time>2022-08-17T12:34:21Z</time>
      </trkpt>
      <trkpt lat="49.82625" lon="2.2337">
        <ele>75.8</ele>
        <time>2022-08-17T12:34:23Z</time>
      </trkpt>
      <trkpt lat="49.82625" lon="2.23373">
        <ele>75.9</ele>
        <time>2022-08-17T12:34:24Z</time>
      </trkpt>
      <trkpt lat="49.82624" lon="2.23374">
        <ele>75.9</ele>
        <time>2022-08-17T12:34:25Z</time>
      </trkpt>
      <trkpt lat="49.82623" lon="2.23377">
        <ele>76</ele>
        <time>2022-08-17T12:34:27Z</time>
      </trkpt>
      <trkpt lat="49.82623" lon="2.23378">
        <ele>76</ele>
        <time>2022-08-17T12:34:28Z</time>
      </trkpt>
      <trkpt lat="49.82622" lon="2.23381">
        <ele>76.1</ele>
        <time>2022-08-17T12:34:29Z</time>
      </trkpt>
      <trkpt lat="49.82621" lon="2.23382">
        <ele>76.1</ele>
        <time>2022-08-17T12:34:30Z</time>
      </trkpt>
      <trkpt lat="49.82621" lon="2.23383">
        <ele>76.1</ele>
        <time>2022-08-17T12:34:31Z</time>
      </trkpt>
      <trkpt lat="49.8262" lon="2.23384">
        <ele>76.1</ele>
        <time>2022-08-17T12:34:32Z</time>
      </trkpt>
      <trkpt lat="49.82619" lon="2.23386">
        <ele>76.2</ele>
        <time>2022-08-17T12:34:33Z</time>
      </trkpt>
      <trkpt lat="49.82619" lon="2.23387">
        <ele>76.2</ele>
        <time>2022-08-17T12:34:34Z</time>
      </trkpt>
      <trkpt lat="49.82618" lon="2.23389">
        <ele>76.3</ele>
        <time>2022-08-17T12:34:35Z</time>
      </trkpt>
      <trkpt lat="49.82617" lon="2.2339">
        <ele>76.3</ele>
        <time>2022-08-17T12:34:36Z</time>
      </trkpt>
      <trkpt lat="49.82617" lon="2.23392">
        <ele>76.3</ele>
        <time>2022-08-17T12:34:38Z</time>
      </trkpt>
      <trkpt lat="49.82616" lon="2.23394">
        <ele>76.4</ele>
        <time>2022-08-17T12:34:39Z</time>
      </trkpt>
      <trkpt lat="49.82615" lon="2.23397">
        <ele>76.4</ele>
        <time>2022-08-17T12:34:40Z</time>
      </trkpt>
      <trkpt lat="49.82614" lon="2.23399">
        <ele>76.5</ele>
        <time>2022-08-17T12:34:41Z</time>
      </trkpt>
      <trkpt lat="49.82613" lon="2.23401">
        <ele>76.5</ele>
        <time>2022-08-17T12:34:42Z</time>
      </trkpt>
      <trkpt lat="49.82612" lon="2.23403">
        <ele>76.5</ele>
        <time>2022-08-17T12:34:43Z</time>
      </trkpt>
      <trkpt lat="49.82611" lon="2.23405">
        <ele>76.6</ele>
        <time>2022-08-17T12:34:44Z</time>
      </trkpt>
      <trkpt lat="49.8261" lon="2.23408">
        <ele>76.6</ele>
        <time>2022-08-17T12:34:45Z</time>
      </trkpt>
      <trkpt lat="49.82609" lon="2.2341">
        <ele>76.6</ele>
        <time>2022-08-17T12:34:47Z</time>
      </trkpt>
      <trkpt lat="49.82609" lon="2.23411">
        <ele>76.6</ele>
        <time>2022-08-17T12:34:48Z</time>
      </trkpt>
      <trkpt lat="49.82608" lon="2.23413">
        <ele>76.6</ele>
        <time>2022-08-17T12:34:49Z</time>
      </trkpt>
      <trkpt lat="49.82608" lon="2.23414">
        <ele>76.7</ele>
        <time>2022-08-17T12:34:50Z</time>
      </trkpt>
      <trkpt lat="49.82607" lon="2.23416">
        <ele>76.7</ele>
        <time>2022-08-17T12:34:51Z</time>
      </trkpt>
      <trkpt lat="49.82607" lon="2.23417">
        <ele>76.7</ele>
        <time>2022-08-17T12:34:52Z</time>
      </trkpt>
      <trkpt lat="49.82607" lon="2.23419">
        <ele>76.7</ele>
        <time>2022-08-17T12:34:53Z</time>
      </trkpt>
      <trkpt lat="49.82606" lon="2.2342">
        <ele>76.7</ele>
        <time>2022-08-17T12:34:54Z</time>
      </trkpt>
      <trkpt lat="49.82605" lon="2.23422">
        <ele>76.7</ele>
        <time>2022-08-17T12:34:55Z</time>
      </trkpt>
      <trkpt lat="49.82605" lon="2.23423">
        <ele>76.7</ele>
        <time>2022-08-17T12:34:56Z</time>
      </trkpt>
      <trkpt lat="49.82605" lon="2.23424">
        <ele>76.8</ele>
        <time>2022-08-17T12:34:58Z</time>
      </trkpt>
      <trkpt lat="49.82604" lon="2.23426">
        <ele>76.8</ele>
        <time>2022-08-17T12:34:59Z</time>
      </trkpt>
      <trkpt lat="49.82604" lon="2.23428">
        <ele>76.8</ele>
        <time>2022-08-17T12:35:00Z</time>
      </trkpt>
      <trkpt lat="49.82603" lon="2.23429">
        <ele>76.8</ele>
        <time>2022-08-17T12:35:01Z</time>
      </trkpt>
      <trkpt lat="49.82603" lon="2.23431">
        <ele>76.8</ele>
        <time>2022-08-17T12:35:02Z</time>
      </trkpt>
      <trkpt lat="49.82602" lon="2.23432">
        <ele>76.8</ele>
        <time>2022-08-17T12:35:03Z</time>
      </trkpt>
      <trkpt lat="49.82601" lon="2.23434">
        <ele>76.8</ele>
        <time>2022-08-17T12:35:04Z</time>
      </trkpt>
      <trkpt lat="49.82601" lon="2.23435">
        <ele>76.8</ele>
        <time>2022-08-17T12:35:05Z</time>
      </trkpt>
      <trkpt lat="49.826" lon="2.23437">
        <ele>76.8</ele>
        <time>2022-08-17T12:35:06Z</time>
      </trkpt>
      <trkpt lat="49.82599" lon="2.23439">
        <ele>76.8</ele>
        <time>2022-08-17T12:35:07Z</time>
      </trkpt>
      <trkpt lat="49.82599" lon="2.2344">
        <ele>76.9</ele>
        <time>2022-08-17T12:35:09Z</time>
      </trkpt>
      <trkpt lat="49.82598" lon="2.23441">
        <ele>76.9</ele>
        <time>2022-08-17T12:35:10Z</time>
      </trkpt>
      <trkpt lat="49.82598" lon="2.23442">
        <ele>76.9</ele>
        <time>2022-08-17T12:35:11Z</time>
      </trkpt>
      <trkpt lat="49.82598" lon="2.23443">
        <ele>76.9</ele>
        <time>2022-08-17T12:35:12Z</time>
      </trkpt>
      <trkpt lat="49.82597" lon="2.23445">
        <ele>76.9</ele>
        <time>2022-08-17T12:35:13Z</time>
      </trkpt>
      <trkpt lat="49.82596" lon="2.23447">
        <ele>76.9</ele>
        <time>2022-08-17T12:35:14Z</time>
      </trkpt>
      <trkpt lat="49.82595" lon="2.23449">
        <ele>76.9</ele>
        <time>2022-08-17T12:35:15Z</time>
      </trkpt>
      <trkpt lat="49.82594" lon="2.23451">
        <ele>76.9</ele>
        <time>2022-08-17T12:35:16Z</time>
      </trkpt>
      <trkpt lat="49.82593" lon="2.23454">
        <ele>76.9</ele>
        <time>2022-08-17T12:35:18Z</time>
      </trkpt>
      <trkpt lat="49.82593" lon="2.23456">
        <ele>76.9</ele>
        <time>2022-08-17T12:35:19Z</time>
      </trkpt>
      <trkpt lat="49.82592" lon="2.23458">
        <ele>76.9</ele>
        <time>2022-08-17T12:35:20Z</time>
      </trkpt>
      <trkpt lat="49.82591" lon="2.2346">
        <ele>76.9</ele>
        <time>2022-08-17T12:35:21Z</time>
      </trkpt>
      <trkpt lat="49.8259" lon="2.23462">
        <ele>76.9</ele>
        <time>2022-08-17T12:35:22Z</time>
      </trkpt>
      <trkpt lat="49.82589" lon="2.23465">
        <ele>76.8</ele>
        <time>2022-08-17T12:35:23Z</time>
      </trkpt>
      <trkpt lat="49.82589" lon="2.23466">
        <ele>76.8</ele>
        <time>2022-08-17T12:35:24Z</time>
      </trkpt>
      <trkpt lat="49.82589" lon="2.23468">
        <ele>76.8</ele>
        <time>2022-08-17T12:35:25Z</time>
      </trkpt>
      <trkpt lat="49.82588" lon="2.23469">
        <ele>76.8</ele>
        <time>2022-08-17T12:35:26Z</time>
      </trkpt>
      <trkpt lat="49.82588" lon="2.23471">
        <ele>76.8</ele>
        <time>2022-08-17T12:35:27Z</time>
      </trkpt>
      <trkpt lat="49.82589" lon="2.2347">
        <ele>76.8</ele>
        <time>2022-08-17T12:35:29Z</time>
      </trkpt>
      <trkpt lat="49.82589" lon="2.23472">
        <ele>76.8</ele>
        <time>2022-08-17T12:35:30Z</time>
      </trkpt>
      <trkpt lat="49.82589" lon="2.23474">
        <ele>76.7</ele>
        <time>2022-08-17T12:35:31Z</time>
      </trkpt>
      <trkpt lat="49.82588" lon="2.23476">
        <ele>76.7</ele>
        <time>2022-08-17T12:35:32Z</time>
      </trkpt>
      <trkpt lat="49.82588" lon="2.23479">
        <ele>76.7</ele>
        <time>2022-08-17T12:35:34Z</time>
      </trkpt>
      <trkpt lat="49.82588" lon="2.23481">
        <ele>76.7</ele>
        <time>2022-08-17T12:35:35Z</time>
      </trkpt>
      <trkpt lat="49.82587" lon="2.23482">
        <ele>76.7</ele>
        <time>2022-08-17T12:35:36Z</time>
      </trkpt>
      <trkpt lat="49.82587" lon="2.23484">
        <ele>76.6</ele>
        <time>2022-08-17T12:35:37Z</time>
      </trkpt>
      <trkpt lat="49.82586" lon="2.23487">
        <ele>76.6</ele>
        <time>2022-08-17T12:35:38Z</time>
      </trkpt>
      <trkpt lat="49.82585" lon="2.23488">
        <ele>76.6</ele>
        <time>2022-08-17T12:35:39Z</time>
      </trkpt>
      <trkpt lat="49.82585" lon="2.23489">
        <ele>76.6</ele>
        <time>2022-08-17T12:35:40Z</time>
      </trkpt>
      <trkpt lat="49.82584" lon="2.23491">
        <ele>76.5</ele>
        <time>2022-08-17T12:35:41Z</time>
      </trkpt>
      <trkpt lat="49.82583" lon="2.23492">
        <ele>76.5</ele>
        <time>2022-08-17T12:35:42Z</time>
      </trkpt>
      <trkpt lat="49.82582" lon="2.23493">
        <ele>76.5</ele>
        <time>2022-08-17T12:35:43Z</time>
      </trkpt>
      <trkpt lat="49.82581" lon="2.23495">
        <ele>76.4</ele>
        <time>2022-08-17T12:35:44Z</time>
      </trkpt>
      <trkpt lat="49.8258" lon="2.23496">
        <ele>76.4</ele>
        <time>2022-08-17T12:35:45Z</time>
      </trkpt>
      <trkpt lat="49.82578" lon="2.23499">
        <ele>76.4</ele>
        <time>2022-08-17T12:35:47Z</time>
      </trkpt>
      <trkpt lat="49.82578" lon="2.235">
        <ele>76.4</ele>
        <time>2022-08-17T12:35:48Z</time>
      </trkpt>
      <trkpt lat="49.82577" lon="2.23501">
        <ele>76.3</ele>
        <time>2022-08-17T12:35:49Z</time>
      </trkpt>
      <trkpt lat="49.82576" lon="2.23503">
        <ele>76.3</ele>
        <time>2022-08-17T12:35:50Z</time>
      </trkpt>
      <trkpt lat="49.82575" lon="2.23504">
        <ele>76.3</ele>
        <time>2022-08-17T12:35:51Z</time>
      </trkpt>
      <trkpt lat="49.82575" lon="2.23505">
        <ele>76.2</ele>
        <time>2022-08-17T12:35:52Z</time>
      </trkpt>
      <trkpt lat="49.82574" lon="2.23506">
        <ele>76.2</ele>
        <time>2022-08-17T12:35:53Z</time>
      </trkpt>
      <trkpt lat="49.82573" lon="2.23507">
        <ele>76.2</ele>
        <time>2022-08-17T12:35:54Z</time>
      </trkpt>
      <trkpt lat="49.82572" lon="2.23508">
        <ele>76.2</ele>
        <time>2022-08-17T12:35:55Z</time>
      </trkpt>
      <trkpt lat="49.82572" lon="2.2351">
        <ele>76.1</ele>
        <time>2022-08-17T12:35:56Z</time>
      </trkpt>
      <trkpt lat="49.82572" lon="2.23511">
        <ele>76.1</ele>
        <time>2022-08-17T12:35:57Z</time>
      </trkpt>
      <trkpt lat="49.82571" lon="2.23513">
        <ele>76.1</ele>
        <time>2022-08-17T12:35:58Z</time>
      </trkpt>
      <trkpt lat="49.8257" lon="2.23516">
        <ele>76</ele>
        <time>2022-08-17T12:35:59Z</time>
      </trkpt>
      <trkpt lat="49.82569" lon="2.23516">
        <ele>76</ele>
        <time>2022-08-17T12:36:01Z</time>
      </trkpt>
      <trkpt lat="49.82569" lon="2.23517">
        <ele>76</ele>
        <time>2022-08-17T12:36:02Z</time>
      </trkpt>
      <trkpt lat="49.82568" lon="2.23519">
        <ele>75.9</ele>
        <time>2022-08-17T12:36:03Z</time>
      </trkpt>
      <trkpt lat="49.82568" lon="2.2352">
        <ele>75.9</ele>
        <time>2022-08-17T12:36:04Z</time>
      </trkpt>
      <trkpt lat="49.82568" lon="2.23522">
        <ele>75.8</ele>
        <time>2022-08-17T12:36:05Z</time>
      </trkpt>
      <trkpt lat="49.82567" lon="2.23524">
        <ele>75.8</ele>
        <time>2022-08-17T12:36:06Z</time>
      </trkpt>
      <trkpt lat="49.82567" lon="2.23525">
        <ele>75.8</ele>
        <time>2022-08-17T12:36:07Z</time>
      </trkpt>
      <trkpt lat="49.82567" lon="2.23527">
        <ele>75.7</ele>
        <time>2022-08-17T12:36:09Z</time>
      </trkpt>
      <trkpt lat="49.82566" lon="2.23529">
        <ele>75.7</ele>
        <time>2022-08-17T12:36:10Z</time>
      </trkpt>
      <trkpt lat="49.82566" lon="2.2353">
        <ele>75.7</ele>
        <time>2022-08-17T12:36:11Z</time>
      </trkpt>
      <trkpt lat="49.82565" lon="2.23531">
        <ele>75.7</ele>
        <time>2022-08-17T12:36:12Z</time>
      </trkpt>
      <trkpt lat="49.82565" lon="2.23533">
        <ele>75.6</ele>
        <time>2022-08-17T12:36:13Z</time>
      </trkpt>
      <trkpt lat="49.82564" lon="2.23536">
        <ele>75.5</ele>
        <time>2022-08-17T12:36:15Z</time>
      </trkpt>
      <trkpt lat="49.82564" lon="2.23537">
        <ele>75.5</ele>
        <time>2022-08-17T12:36:16Z</time>
      </trkpt>
      <trkpt lat="49.82563" lon="2.23538">
        <ele>75.5</ele>
        <time>2022-08-17T12:36:17Z</time>
      </trkpt>
      <trkpt lat="49.82562" lon="2.2354">
        <ele>75.4</ele>
        <time>2022-08-17T12:36:18Z</time>
      </trkpt>
      <trkpt lat="49.82562" lon="2.23542">
        <ele>75.4</ele>
        <time>2022-08-17T12:36:19Z</time>
      </trkpt>
      <trkpt lat="49.82561" lon="2.23543">
        <ele>75.3</ele>
        <time>2022-08-17T12:36:20Z</time>
      </trkpt>
      <trkpt lat="49.82561" lon="2.23545">
        <ele>75.3</ele>
        <time>2022-08-17T12:36:21Z</time>
      </trkpt>
      <trkpt lat="49.8256" lon="2.23547">
        <ele>75.2</ele>
        <time>2022-08-17T12:36:22Z</time>
      </trkpt>
      <trkpt lat="49.82559" lon="2.23549">
        <ele>75.1</ele>
        <time>2022-08-17T12:36:24Z</time>
      </trkpt>
      <trkpt lat="49.82559" lon="2.2355">
        <ele>75.1</ele>
        <time>2022-08-17T12:36:25Z</time>
      </trkpt>
      <trkpt lat="49.82558" lon="2.23552">
        <ele>75</ele>
        <time>2022-08-17T12:36:26Z</time>
      </trkpt>
      <trkpt lat="49.82558" lon="2.23553">
        <ele>75</ele>
        <time>2022-08-17T12:36:27Z</time>
      </trkpt>
      <trkpt lat="49.82557" lon="2.23554">
        <ele>75</ele>
        <time>2022-08-17T12:36:28Z</time>
      </trkpt>
      <trkpt lat="49.82557" lon="2.23556">
        <ele>74.9</ele>
        <time>2022-08-17T12:36:29Z</time>
      </trkpt>
      <trkpt lat="49.82556" lon="2.23557">
        <ele>74.9</ele>
        <time>2022-08-17T12:36:30Z</time>
      </trkpt>
      <trkpt lat="49.82555" lon="2.23559">
        <ele>74.8</ele>
        <time>2022-08-17T12:36:31Z</time>
      </trkpt>
      <trkpt lat="49.82555" lon="2.23561">
        <ele>74.7</ele>
        <time>2022-08-17T12:36:33Z</time>
      </trkpt>
      <trkpt lat="49.82554" lon="2.23563">
        <ele>74.7</ele>
        <time>2022-08-17T12:36:34Z</time>
      </trkpt>
      <trkpt lat="49.82553" lon="2.23564">
        <ele>74.6</ele>
        <time>2022-08-17T12:36:35Z</time>
      </trkpt>
      <trkpt lat="49.82553" lon="2.23566">
        <ele>74.6</ele>
        <time>2022-08-17T12:36:36Z</time>
      </trkpt>
      <trkpt lat="49.82553" lon="2.23567">
        <ele>74.6</ele>
        <time>2022-08-17T12:36:37Z</time>
      </trkpt>
      <trkpt lat="49.82552" lon="2.23569">
        <ele>74.5</ele>
        <time>2022-08-17T12:36:39Z</time>
      </trkpt>
      <trkpt lat="49.82551" lon="2.23571">
        <ele>74.4</ele>
        <time>2022-08-17T12:36:40Z</time>
      </trkpt>
      <trkpt lat="49.8255" lon="2.23572">
        <ele>74.3</ele>
        <time>2022-08-17T12:36:41Z</time>
      </trkpt>
      <trkpt lat="49.82549" lon="2.23574">
        <ele>74.3</ele>
        <time>2022-08-17T12:36:42Z</time>
      </trkpt>
      <trkpt lat="49.82548" lon="2.23576">
        <ele>74.2</ele>
        <time>2022-08-17T12:36:43Z</time>
      </trkpt>
      <trkpt lat="49.82547" lon="2.23578">
        <ele>74.1</ele>
        <time>2022-08-17T12:36:44Z</time>
      </trkpt>
      <trkpt lat="49.82546" lon="2.23581">
        <ele>74</ele>
        <time>2022-08-17T12:36:45Z</time>
      </trkpt>
      <trkpt lat="49.82546" lon="2.23582">
        <ele>73.9</ele>
        <time>2022-08-17T12:36:46Z</time>
      </trkpt>
      <trkpt lat="49.82545" lon="2.23584">
        <ele>73.9</ele>
        <time>2022-08-17T12:36:47Z</time>
      </trkpt>
      <trkpt lat="49.82545" lon="2.23585">
        <ele>73.8</ele>
        <time>2022-08-17T12:36:49Z</time>
      </trkpt>
      <trkpt lat="49.82544" lon="2.23586">
        <ele>73.8</ele>
        <time>2022-08-17T12:36:50Z</time>
      </trkpt>
      <trkpt lat="49.82544" lon="2.23588">
        <ele>73.7</ele>
        <time>2022-08-17T12:36:51Z</time>
      </trkpt>
      <trkpt lat="49.82544" lon="2.2359">
        <ele>73.6</ele>
        <time>2022-08-17T12:36:52Z</time>
      </trkpt>
      <trkpt lat="49.82543" lon="2.23592">
        <ele>73.6</ele>
        <time>2022-08-17T12:36:53Z</time>
      </trkpt>
      <trkpt lat="49.82542" lon="2.23593">
        <ele>73.5</ele>
        <time>2022-08-17T12:36:54Z</time>
      </trkpt>
      <trkpt lat="49.82542" lon="2.23595">
        <ele>73.5</ele>
        <time>2022-08-17T12:36:55Z</time>
      </trkpt>
      <trkpt lat="49.82541" lon="2.23596">
        <ele>73.4</ele>
        <time>2022-08-17T12:36:56Z</time>
      </trkpt>
      <trkpt lat="49.8254" lon="2.23598">
        <ele>73.3</ele>
        <time>2022-08-17T12:36:58Z</time>
      </trkpt>
      <trkpt lat="49.8254" lon="2.23599">
        <ele>73.2</ele>
        <time>2022-08-17T12:36:59Z</time>
      </trkpt>
      <trkpt lat="49.82539" lon="2.23601">
        <ele>73.2</ele>
        <time>2022-08-17T12:37:00Z</time>
      </trkpt>
      <trkpt lat="49.82538" lon="2.23602">
        <ele>73.1</ele>
        <time>2022-08-17T12:37:01Z</time>
      </trkpt>
      <trkpt lat="49.82538" lon="2.23604">
        <ele>73</ele>
        <time>2022-08-17T12:37:02Z</time>
      </trkpt>
      <trkpt lat="49.82537" lon="2.23606">
        <ele>72.9</ele>
        <time>2022-08-17T12:37:03Z</time>
      </trkpt>
      <trkpt lat="49.82536" lon="2.23608">
        <ele>72.8</ele>
        <time>2022-08-17T12:37:04Z</time>
      </trkpt>
      <trkpt lat="49.82535" lon="2.23609">
        <ele>72.8</ele>
        <time>2022-08-17T12:37:05Z</time>
      </trkpt>
      <trkpt lat="49.82535" lon="2.23611">
        <ele>72.7</ele>
        <time>2022-08-17T12:37:06Z</time>
      </trkpt>
      <trkpt lat="49.82534" lon="2.23612">
        <ele>72.7</ele>
        <time>2022-08-17T12:37:08Z</time>
      </trkpt>
      <trkpt lat="49.82533" lon="2.23613">
        <ele>72.6</ele>
        <time>2022-08-17T12:37:09Z</time>
      </trkpt>
      <trkpt lat="49.82532" lon="2.23614">
        <ele>72.5</ele>
        <time>2022-08-17T12:37:10Z</time>
      </trkpt>
      <trkpt lat="49.82531" lon="2.23617">
        <ele>72.4</ele>
        <time>2022-08-17T12:37:11Z</time>
      </trkpt>
      <trkpt lat="49.82531" lon="2.23618">
        <ele>72.4</ele>
        <time>2022-08-17T12:37:12Z</time>
      </trkpt>
      <trkpt lat="49.8253" lon="2.23619">
        <ele>72.3</ele>
        <time>2022-08-17T12:37:13Z</time>
      </trkpt>
      <trkpt lat="49.82529" lon="2.23621">
        <ele>72.2</ele>
        <time>2022-08-17T12:37:14Z</time>
      </trkpt>
      <trkpt lat="49.82529" lon="2.23622">
        <ele>72.2</ele>
        <time>2022-08-17T12:37:16Z</time>
      </trkpt>
      <trkpt lat="49.82528" lon="2.23624">
        <ele>72.1</ele>
        <time>2022-08-17T12:37:17Z</time>
      </trkpt>
      <trkpt lat="49.82527" lon="2.23626">
        <ele>72</ele>
        <time>2022-08-17T12:37:18Z</time>
      </trkpt>
      <trkpt lat="49.82526" lon="2.23628">
        <ele>71.9</ele>
        <time>2022-08-17T12:37:19Z</time>
      </trkpt>
      <trkpt lat="49.82525" lon="2.23629">
        <ele>71.8</ele>
        <time>2022-08-17T12:37:20Z</time>
      </trkpt>
      <trkpt lat="49.82524" lon="2.23632">
        <ele>71.7</ele>
        <time>2022-08-17T12:37:22Z</time>
      </trkpt>
      <trkpt lat="49.82523" lon="2.23633">
        <ele>71.6</ele>
        <time>2022-08-17T12:37:23Z</time>
      </trkpt>
      <trkpt lat="49.82523" lon="2.23634">
        <ele>71.6</ele>
        <time>2022-08-17T12:37:24Z</time>
      </trkpt>
      <trkpt lat="49.82522" lon="2.23635">
        <ele>71.5</ele>
        <time>2022-08-17T12:37:25Z</time>
      </trkpt>
      <trkpt lat="49.82522" lon="2.23636">
        <ele>71.5</ele>
        <time>2022-08-17T12:37:26Z</time>
      </trkpt>
      <trkpt lat="49.82521" lon="2.23638">
        <ele>71.4</ele>
        <time>2022-08-17T12:37:27Z</time>
      </trkpt>
      <trkpt lat="49.82521" lon="2.23639">
        <ele>71.4</ele>
        <time>2022-08-17T12:37:28Z</time>
      </trkpt>
      <trkpt lat="49.8252" lon="2.23641">
        <ele>71.3</ele>
        <time>2022-08-17T12:37:29Z</time>
      </trkpt>
      <trkpt lat="49.82519" lon="2.23642">
        <ele>71.2</ele>
        <time>2022-08-17T12:37:31Z</time>
      </trkpt>
      <trkpt lat="49.82519" lon="2.23643">
        <ele>71.2</ele>
        <time>2022-08-17T12:37:32Z</time>
      </trkpt>
      <trkpt lat="49.82518" lon="2.23644">
        <ele>71.1</ele>
        <time>2022-08-17T12:37:33Z</time>
      </trkpt>
      <trkpt lat="49.82518" lon="2.23646">
        <ele>71</ele>
        <time>2022-08-17T12:37:34Z</time>
      </trkpt>
      <trkpt lat="49.82517" lon="2.23647">
        <ele>70.9</ele>
        <time>2022-08-17T12:37:35Z</time>
      </trkpt>
      <trkpt lat="49.82516" lon="2.23649">
        <ele>70.8</ele>
        <time>2022-08-17T12:37:36Z</time>
      </trkpt>
      <trkpt lat="49.82515" lon="2.23651">
        <ele>70.8</ele>
        <time>2022-08-17T12:37:37Z</time>
      </trkpt>
      <trkpt lat="49.82514" lon="2.23652">
        <ele>70.7</ele>
        <time>2022-08-17T12:37:38Z</time>
      </trkpt>
      <trkpt lat="49.82514" lon="2.23654">
        <ele>70.6</ele>
        <time>2022-08-17T12:37:40Z</time>
      </trkpt>
      <trkpt lat="49.82514" lon="2.23654">
        <ele>70.6</ele>
        <time>2022-08-17T12:37:41Z</time>
      </trkpt>
      <trkpt lat="49.82514" lon="2.23654">
        <ele>70.6</ele>
        <time>2022-08-17T12:37:42Z</time>
      </trkpt>
      <trkpt lat="49.82514" lon="2.23656">
        <ele>70.5</ele>
        <time>2022-08-17T12:37:43Z</time>
      </trkpt>
      <trkpt lat="49.82514" lon="2.23657">
        <ele>70.5</ele>
        <time>2022-08-17T12:37:44Z</time>
      </trkpt>
      <trkpt lat="49.82513" lon="2.23658">
        <ele>70.4</ele>
        <time>2022-08-17T12:37:45Z</time>
      </trkpt>
      <trkpt lat="49.82512" lon="2.23661">
        <ele>70.3</ele>
        <time>2022-08-17T12:37:46Z</time>
      </trkpt>
      <trkpt lat="49.82512" lon="2.23662">
        <ele>70.2</ele>
        <time>2022-08-17T12:37:47Z</time>
      </trkpt>
      <trkpt lat="49.82511" lon="2.23663">
        <ele>70.2</ele>
        <time>2022-08-17T12:37:49Z</time>
      </trkpt>
      <trkpt lat="49.82511" lon="2.23664">
        <ele>70.1</ele>
        <time>2022-08-17T12:37:50Z</time>
      </trkpt>
      <trkpt lat="49.82511" lon="2.23666">
        <ele>70</ele>
        <time>2022-08-17T12:37:51Z</time>
      </trkpt>
      <trkpt lat="49.8251" lon="2.23668">
        <ele>69.9</ele>
        <time>2022-08-17T12:37:52Z</time>
      </trkpt>
      <trkpt lat="49.8251" lon="2.23669">
        <ele>69.9</ele>
        <time>2022-08-17T12:37:53Z</time>
      </trkpt>
      <trkpt lat="49.82509" lon="2.2367">
        <ele>69.8</ele>
        <time>2022-08-17T12:37:54Z</time>
      </trkpt>
      <trkpt lat="49.82509" lon="2.23672">
        <ele>69.7</ele>
        <time>2022-08-17T12:37:55Z</time>
      </trkpt>
      <trkpt lat="49.82508" lon="2.23676">
        <ele>69.5</ele>
        <time>2022-08-17T12:37:56Z</time>
      </trkpt>
      <trkpt lat="49.82507" lon="2.23677">
        <ele>69.5</ele>
        <time>2022-08-17T12:37:58Z</time>
      </trkpt>
      <trkpt lat="49.82507" lon="2.23678">
        <ele>69.4</ele>
        <time>2022-08-17T12:37:59Z</time>
      </trkpt>
      <trkpt lat="49.82506" lon="2.2368">
        <ele>69.3</ele>
        <time>2022-08-17T12:38:00Z</time>
      </trkpt>
      <trkpt lat="49.82506" lon="2.23681">
        <ele>69.2</ele>
        <time>2022-08-17T12:38:01Z</time>
      </trkpt>
      <trkpt lat="49.82505" lon="2.23683">
        <ele>69.1</ele>
        <time>2022-08-17T12:38:02Z</time>
      </trkpt>
      <trkpt lat="49.82504" lon="2.23685">
        <ele>69</ele>
        <time>2022-08-17T12:38:03Z</time>
      </trkpt>
      <trkpt lat="49.82503" lon="2.23686">
        <ele>68.9</ele>
        <time>2022-08-17T12:38:04Z</time>
      </trkpt>
      <trkpt lat="49.82503" lon="2.23687">
        <ele>68.8</ele>
        <time>2022-08-17T12:38:05Z</time>
      </trkpt>
      <trkpt lat="49.82502" lon="2.23689">
        <ele>68.7</ele>
        <time>2022-08-17T12:38:07Z</time>
      </trkpt>
      <trkpt lat="49.82501" lon="2.2369">
        <ele>68.6</ele>
        <time>2022-08-17T12:38:08Z</time>
      </trkpt>
      <trkpt lat="49.825" lon="2.23692">
        <ele>68.5</ele>
        <time>2022-08-17T12:38:09Z</time>
      </trkpt>
      <trkpt lat="49.82499" lon="2.23692">
        <ele>68.4</ele>
        <time>2022-08-17T12:38:10Z</time>
      </trkpt>
      <trkpt lat="49.82498" lon="2.23693">
        <ele>68.3</ele>
        <time>2022-08-17T12:38:11Z</time>
      </trkpt>
      <trkpt lat="49.82497" lon="2.23695">
        <ele>68.2</ele>
        <time>2022-08-17T12:38:12Z</time>
      </trkpt>
      <trkpt lat="49.82497" lon="2.23697">
        <ele>68.1</ele>
        <time>2022-08-17T12:38:13Z</time>
      </trkpt>
      <trkpt lat="49.82495" lon="2.23699">
        <ele>67.9</ele>
        <time>2022-08-17T12:38:14Z</time>
      </trkpt>
      <trkpt lat="49.82494" lon="2.237">
        <ele>67.9</ele>
        <time>2022-08-17T12:38:16Z</time>
      </trkpt>
      <trkpt lat="49.82493" lon="2.23701">
        <ele>67.8</ele>
        <time>2022-08-17T12:38:17Z</time>
      </trkpt>
      <trkpt lat="49.82493" lon="2.23702">
        <ele>67.7</ele>
        <time>2022-08-17T12:38:18Z</time>
      </trkpt>
      <trkpt lat="49.82492" lon="2.23702">
        <ele>67.6</ele>
        <time>2022-08-17T12:38:19Z</time>
      </trkpt>
      <trkpt lat="49.82491" lon="2.23704">
        <ele>67.5</ele>
        <time>2022-08-17T12:38:20Z</time>
      </trkpt>
      <trkpt lat="49.8249" lon="2.23705">
        <ele>67.4</ele>
        <time>2022-08-17T12:38:21Z</time>
      </trkpt>
      <trkpt lat="49.82489" lon="2.23706">
        <ele>67.3</ele>
        <time>2022-08-17T12:38:22Z</time>
      </trkpt>
      <trkpt lat="49.82488" lon="2.23707">
        <ele>67.2</ele>
        <time>2022-08-17T12:38:24Z</time>
      </trkpt>
      <trkpt lat="49.82487" lon="2.23708">
        <ele>67.1</ele>
        <time>2022-08-17T12:38:25Z</time>
      </trkpt>
      <trkpt lat="49.82486" lon="2.2371">
        <ele>67</ele>
        <time>2022-08-17T12:38:26Z</time>
      </trkpt>
      <trkpt lat="49.82485" lon="2.23711">
        <ele>66.9</ele>
        <time>2022-08-17T12:38:27Z</time>
      </trkpt>
      <trkpt lat="49.82484" lon="2.23712">
        <ele>66.8</ele>
        <time>2022-08-17T12:38:28Z</time>
      </trkpt>
      <trkpt lat="49.82484" lon="2.23713">
        <ele>66.7</ele>
        <time>2022-08-17T12:38:29Z</time>
      </trkpt>
      <trkpt lat="49.82483" lon="2.23714">
        <ele>66.5</ele>
        <time>2022-08-17T12:38:30Z</time>
      </trkpt>
      <trkpt lat="49.82481" lon="2.23716">
        <ele>66.4</ele>
        <time>2022-08-17T12:38:32Z</time>
      </trkpt>
      <trkpt lat="49.8248" lon="2.23718">
        <ele>66.2</ele>
        <time>2022-08-17T12:38:33Z</time>
      </trkpt>
      <trkpt lat="49.8248" lon="2.23719">
        <ele>66.1</ele>
        <time>2022-08-17T12:38:34Z</time>
      </trkpt>
      <trkpt lat="49.82479" lon="2.2372">
        <ele>66</ele>
        <time>2022-08-17T12:38:35Z</time>
      </trkpt>
      <trkpt lat="49.82478" lon="2.23722">
        <ele>65.8</ele>
        <time>2022-08-17T12:38:37Z</time>
      </trkpt>
      <trkpt lat="49.82477" lon="2.23723">
        <ele>65.7</ele>
        <time>2022-08-17T12:38:38Z</time>
      </trkpt>
      <trkpt lat="49.82476" lon="2.23725">
        <ele>65.6</ele>
        <time>2022-08-17T12:38:39Z</time>
      </trkpt>
      <trkpt lat="49.82476" lon="2.23726">
        <ele>65.5</ele>
        <time>2022-08-17T12:38:40Z</time>
      </trkpt>
      <trkpt lat="49.82474" lon="2.23729">
        <ele>65.2</ele>
        <time>2022-08-17T12:38:41Z</time>
      </trkpt>
      <trkpt lat="49.82473" lon="2.2373">
        <ele>65.1</ele>
        <time>2022-08-17T12:38:43Z</time>
      </trkpt>
      <trkpt lat="49.82473" lon="2.23731">
        <ele>65.1</ele>
        <time>2022-08-17T12:38:44Z</time>
      </trkpt>
      <trkpt lat="49.82472" lon="2.23731">
        <ele>65</ele>
        <time>2022-08-17T12:38:45Z</time>
      </trkpt>
      <trkpt lat="49.82472" lon="2.23732">
        <ele>64.9</ele>
        <time>2022-08-17T12:38:46Z</time>
      </trkpt>
      <trkpt lat="49.82471" lon="2.23734">
        <ele>64.7</ele>
        <time>2022-08-17T12:38:47Z</time>
      </trkpt>
      <trkpt lat="49.8247" lon="2.23735">
        <ele>64.6</ele>
        <time>2022-08-17T12:38:48Z</time>
      </trkpt>
      <trkpt lat="49.82469" lon="2.23737">
        <ele>64.4</ele>
        <time>2022-08-17T12:38:49Z</time>
      </trkpt>
      <trkpt lat="49.82468" lon="2.23738">
        <ele>64.3</ele>
        <time>2022-08-17T12:38:51Z</time>
      </trkpt>
      <trkpt lat="49.82467" lon="2.2374">
        <ele>64.1</ele>
        <time>2022-08-17T12:38:52Z</time>
      </trkpt>
      <trkpt lat="49.82466" lon="2.2374">
        <ele>64.1</ele>
        <time>2022-08-17T12:38:53Z</time>
      </trkpt>
      <trkpt lat="49.82466" lon="2.23741">
        <ele>64</ele>
        <time>2022-08-17T12:38:54Z</time>
      </trkpt>
      <trkpt lat="49.82465" lon="2.23743">
        <ele>63.9</ele>
        <time>2022-08-17T12:38:55Z</time>
      </trkpt>
      <trkpt lat="49.82465" lon="2.23745">
        <ele>63.7</ele>
        <time>2022-08-17T12:38:56Z</time>
      </trkpt>
      <trkpt lat="49.82464" lon="2.23747">
        <ele>63.5</ele>
        <time>2022-08-17T12:38:58Z</time>
      </trkpt>
      <trkpt lat="49.82464" lon="2.23748">
        <ele>63.4</ele>
        <time>2022-08-17T12:38:59Z</time>
      </trkpt>
      <trkpt lat="49.82463" lon="2.23749">
        <ele>63.3</ele>
        <time>2022-08-17T12:39:00Z</time>
      </trkpt>
      <trkpt lat="49.82463" lon="2.23751">
        <ele>63.2</ele>
        <time>2022-08-17T12:39:01Z</time>
      </trkpt>
      <trkpt lat="49.82462" lon="2.23753">
        <ele>63.1</ele>
        <time>2022-08-17T12:39:02Z</time>
      </trkpt>
      <trkpt lat="49.82462" lon="2.23754">
        <ele>63</ele>
        <time>2022-08-17T12:39:03Z</time>
      </trkpt>
      <trkpt lat="49.82461" lon="2.23756">
        <ele>62.9</ele>
        <time>2022-08-17T12:39:05Z</time>
      </trkpt>
      <trkpt lat="49.82461" lon="2.23757">
        <ele>62.7</ele>
        <time>2022-08-17T12:39:06Z</time>
      </trkpt>
      <trkpt lat="49.82461" lon="2.23758">
        <ele>62.7</ele>
        <time>2022-08-17T12:39:07Z</time>
      </trkpt>
      <trkpt lat="49.82461" lon="2.23761">
        <ele>62.5</ele>
        <time>2022-08-17T12:39:08Z</time>
      </trkpt>
      <trkpt lat="49.82461" lon="2.23762">
        <ele>62.4</ele>
        <time>2022-08-17T12:39:09Z</time>
      </trkpt>
      <trkpt lat="49.82461" lon="2.23763">
        <ele>62.3</ele>
        <time>2022-08-17T12:39:10Z</time>
      </trkpt>
      <trkpt lat="49.82461" lon="2.23764">
        <ele>62.3</ele>
        <time>2022-08-17T12:39:11Z</time>
      </trkpt>
      <trkpt lat="49.82461" lon="2.23766">
        <ele>62.2</ele>
        <time>2022-08-17T12:39:13Z</time>
      </trkpt>
      <trkpt lat="49.8246" lon="2.23768">
        <ele>62</ele>
        <time>2022-08-17T12:39:14Z</time>
      </trkpt>
      <trkpt lat="49.8246" lon="2.23769">
        <ele>62</ele>
        <time>2022-08-17T12:39:15Z</time>
      </trkpt>
      <trkpt lat="49.8246" lon="2.23771">
        <ele>61.9</ele>
        <time>2022-08-17T12:39:16Z</time>
      </trkpt>
      <trkpt lat="49.8246" lon="2.23772">
        <ele>61.8</ele>
        <time>2022-08-17T12:39:17Z</time>
      </trkpt>
      <trkpt lat="49.82459" lon="2.23775">
        <ele>61.6</ele>
        <time>2022-08-17T12:39:18Z</time>
      </trkpt>
      <trkpt lat="49.82459" lon="2.23777">
        <ele>61.5</ele>
        <time>2022-08-17T12:39:19Z</time>
      </trkpt>
      <trkpt lat="49.82459" lon="2.23778">
        <ele>61.4</ele>
        <time>2022-08-17T12:39:20Z</time>
      </trkpt>
      <trkpt lat="49.82458" lon="2.23779">
        <ele>61.4</ele>
        <time>2022-08-17T12:39:22Z</time>
      </trkpt>
      <trkpt lat="49.82458" lon="2.2378">
        <ele>61.3</ele>
        <time>2022-08-17T12:39:23Z</time>
      </trkpt>
      <trkpt lat="49.82457" lon="2.23782">
        <ele>61.2</ele>
        <time>2022-08-17T12:39:24Z</time>
      </trkpt>
      <trkpt lat="49.82457" lon="2.23783">
        <ele>61.1</ele>
        <time>2022-08-17T12:39:25Z</time>
      </trkpt>
      <trkpt lat="49.82456" lon="2.23785">
        <ele>61</ele>
        <time>2022-08-17T12:39:26Z</time>
      </trkpt>
      <trkpt lat="49.82456" lon="2.23786">
        <ele>61</ele>
        <time>2022-08-17T12:39:27Z</time>
      </trkpt>
      <trkpt lat="49.82455" lon="2.23789">
        <ele>60.8</ele>
        <time>2022-08-17T12:39:28Z</time>
      </trkpt>
      <trkpt lat="49.82455" lon="2.2379">
        <ele>60.8</ele>
        <time>2022-08-17T12:39:30Z</time>
      </trkpt>
      <trkpt lat="49.82454" lon="2.23792">
        <ele>60.7</ele>
        <time>2022-08-17T12:39:31Z</time>
      </trkpt>
      <trkpt lat="49.82454" lon="2.23793">
        <ele>60.6</ele>
        <time>2022-08-17T12:39:32Z</time>
      </trkpt>
      <trkpt lat="49.82454" lon="2.23796">
        <ele>60.5</ele>
        <time>2022-08-17T12:39:34Z</time>
      </trkpt>
      <trkpt lat="49.82453" lon="2.23797">
        <ele>60.5</ele>
        <time>2022-08-17T12:39:35Z</time>
      </trkpt>
      <trkpt lat="49.82453" lon="2.23798">
        <ele>60.5</ele>
        <time>2022-08-17T12:39:36Z</time>
      </trkpt>
      <trkpt lat="49.82453" lon="2.23799">
        <ele>60.4</ele>
        <time>2022-08-17T12:39:37Z</time>
      </trkpt>
      <trkpt lat="49.82453" lon="2.23801">
        <ele>60.3</ele>
        <time>2022-08-17T12:39:39Z</time>
      </trkpt>
      <trkpt lat="49.82452" lon="2.23802">
        <ele>60.3</ele>
        <time>2022-08-17T12:39:40Z</time>
      </trkpt>
      <trkpt lat="49.82452" lon="2.23803">
        <ele>60.3</ele>
        <time>2022-08-17T12:39:41Z</time>
      </trkpt>
      <trkpt lat="49.82452" lon="2.23805">
        <ele>60.2</ele>
        <time>2022-08-17T12:39:42Z</time>
      </trkpt>
      <trkpt lat="49.82451" lon="2.23807">
        <ele>60.1</ele>
        <time>2022-08-17T12:39:44Z</time>
      </trkpt>
      <trkpt lat="49.82451" lon="2.23809">
        <ele>60.1</ele>
        <time>2022-08-17T12:39:45Z</time>
      </trkpt>
      <trkpt lat="49.82451" lon="2.2381">
        <ele>60</ele>
        <time>2022-08-17T12:39:46Z</time>
      </trkpt>
      <trkpt lat="49.8245" lon="2.23812">
        <ele>60</ele>
        <time>2022-08-17T12:39:47Z</time>
      </trkpt>
      <trkpt lat="49.82449" lon="2.23815">
        <ele>59.9</ele>
        <time>2022-08-17T12:39:49Z</time>
      </trkpt>
      <trkpt lat="49.82449" lon="2.23815">
        <ele>59.9</ele>
        <time>2022-08-17T12:39:50Z</time>
      </trkpt>
      <trkpt lat="49.82449" lon="2.23816">
        <ele>59.9</ele>
        <time>2022-08-17T12:39:51Z</time>
      </trkpt>
      <trkpt lat="49.82448" lon="2.23817">
        <ele>59.9</ele>
        <time>2022-08-17T12:39:52Z</time>
      </trkpt>
      <trkpt lat="49.82447" lon="2.2382">
        <ele>59.8</ele>
        <time>2022-08-17T12:39:54Z</time>
      </trkpt>
      <trkpt lat="49.82447" lon="2.23821">
        <ele>59.8</ele>
        <time>2022-08-17T12:39:55Z</time>
      </trkpt>
      <trkpt lat="49.82446" lon="2.23822">
        <ele>59.8</ele>
        <time>2022-08-17T12:39:56Z</time>
      </trkpt>
      <trkpt lat="49.82446" lon="2.23824">
        <ele>59.7</ele>
        <time>2022-08-17T12:39:57Z</time>
      </trkpt>
      <trkpt lat="49.82446" lon="2.23826">
        <ele>59.7</ele>
        <time>2022-08-17T12:39:58Z</time>
      </trkpt>
      <trkpt lat="49.82445" lon="2.23828">
        <ele>59.7</ele>
        <time>2022-08-17T12:39:59Z</time>
      </trkpt>
      <trkpt lat="49.82445" lon="2.23829">
        <ele>59.7</ele>
        <time>2022-08-17T12:40:00Z</time>
      </trkpt>
      <trkpt lat="49.82445" lon="2.23831">
        <ele>59.6</ele>
        <time>2022-08-17T12:40:02Z</time>
      </trkpt>
      <trkpt lat="49.82444" lon="2.23832">
        <ele>59.6</ele>
        <time>2022-08-17T12:40:03Z</time>
      </trkpt>
      <trkpt lat="49.82444" lon="2.23834">
        <ele>59.6</ele>
        <time>2022-08-17T12:40:04Z</time>
      </trkpt>
      <trkpt lat="49.82444" lon="2.23835">
        <ele>59.6</ele>
        <time>2022-08-17T12:40:05Z</time>
      </trkpt>
      <trkpt lat="49.82444" lon="2.23837">
        <ele>59.6</ele>
        <time>2022-08-17T12:40:06Z</time>
      </trkpt>
      <trkpt lat="49.82443" lon="2.23839">
        <ele>59.6</ele>
        <time>2022-08-17T12:40:07Z</time>
      </trkpt>
      <trkpt lat="49.82443" lon="2.23841">
        <ele>59.6</ele>
        <time>2022-08-17T12:40:08Z</time>
      </trkpt>
      <trkpt lat="49.82443" lon="2.23842">
        <ele>59.6</ele>
        <time>2022-08-17T12:40:10Z</time>
      </trkpt>
      <trkpt lat="49.82443" lon="2.23843">
        <ele>59.6</ele>
        <time>2022-08-17T12:40:11Z</time>
      </trkpt>
      <trkpt lat="49.82442" lon="2.23844">
        <ele>59.5</ele>
        <time>2022-08-17T12:40:12Z</time>
      </trkpt>
      <trkpt lat="49.82442" lon="2.23845">
        <ele>59.5</ele>
        <time>2022-08-17T12:40:13Z</time>
      </trkpt>
      <trkpt lat="49.82441" lon="2.23847">
        <ele>59.5</ele>
        <time>2022-08-17T12:40:14Z</time>
      </trkpt>
      <trkpt lat="49.82441" lon="2.23849">
        <ele>59.5</ele>
        <time>2022-08-17T12:40:15Z</time>
      </trkpt>
      <trkpt lat="49.82441" lon="2.2385">
        <ele>59.5</ele>
        <time>2022-08-17T12:40:16Z</time>
      </trkpt>
      <trkpt lat="49.8244" lon="2.23852">
        <ele>59.5</ele>
        <time>2022-08-17T12:40:18Z</time>
      </trkpt>
      <trkpt lat="49.8244" lon="2.23854">
        <ele>59.5</ele>
        <time>2022-08-17T12:40:19Z</time>
      </trkpt>
      <trkpt lat="49.82439" lon="2.23856">
        <ele>59.6</ele>
        <time>2022-08-17T12:40:20Z</time>
      </trkpt>
      <trkpt lat="49.82439" lon="2.23857">
        <ele>59.6</ele>
        <time>2022-08-17T12:40:21Z</time>
      </trkpt>
      <trkpt lat="49.82438" lon="2.2386">
        <ele>59.6</ele>
        <time>2022-08-17T12:40:23Z</time>
      </trkpt>
      <trkpt lat="49.82438" lon="2.23863">
        <ele>59.6</ele>
        <time>2022-08-17T12:40:24Z</time>
      </trkpt>
      <trkpt lat="49.82437" lon="2.23864">
        <ele>59.6</ele>
        <time>2022-08-17T12:40:25Z</time>
      </trkpt>
      <trkpt lat="49.82436" lon="2.23867">
        <ele>59.6</ele>
        <time>2022-08-17T12:40:26Z</time>
      </trkpt>
      <trkpt lat="49.82436" lon="2.23868">
        <ele>59.6</ele>
        <time>2022-08-17T12:40:27Z</time>
      </trkpt>
      <trkpt lat="49.82436" lon="2.2387">
        <ele>59.6</ele>
        <time>2022-08-17T12:40:28Z</time>
      </trkpt>
      <trkpt lat="49.82435" lon="2.23872">
        <ele>59.7</ele>
        <time>2022-08-17T12:40:29Z</time>
      </trkpt>
      <trkpt lat="49.82434" lon="2.23874">
        <ele>59.7</ele>
        <time>2022-08-17T12:40:30Z</time>
      </trkpt>
      <trkpt lat="49.82433" lon="2.23876">
        <ele>59.7</ele>
        <time>2022-08-17T12:40:32Z</time>
      </trkpt>
      <trkpt lat="49.82433" lon="2.23879">
        <ele>59.7</ele>
        <time>2022-08-17T12:40:33Z</time>
      </trkpt>
      <trkpt lat="49.82432" lon="2.23881">
        <ele>59.7</ele>
        <time>2022-08-17T12:40:34Z</time>
      </trkpt>
      <trkpt lat="49.82431" lon="2.23883">
        <ele>59.8</ele>
        <time>2022-08-17T12:40:35Z</time>
      </trkpt>
      <trkpt lat="49.82431" lon="2.23886">
        <ele>59.8</ele>
        <time>2022-08-17T12:40:36Z</time>
      </trkpt>
      <trkpt lat="49.8243" lon="2.23887">
        <ele>59.8</ele>
        <time>2022-08-17T12:40:37Z</time>
      </trkpt>
      <trkpt lat="49.8243" lon="2.23888">
        <ele>59.8</ele>
        <time>2022-08-17T12:40:38Z</time>
      </trkpt>
      <trkpt lat="49.82429" lon="2.23891">
        <ele>59.8</ele>
        <time>2022-08-17T12:40:39Z</time>
      </trkpt>
      <trkpt lat="49.82429" lon="2.23893">
        <ele>59.8</ele>
        <time>2022-08-17T12:40:41Z</time>
      </trkpt>
      <trkpt lat="49.82429" lon="2.23894">
        <ele>59.9</ele>
        <time>2022-08-17T12:40:42Z</time>
      </trkpt>
      <trkpt lat="49.82428" lon="2.23897">
        <ele>59.9</ele>
        <time>2022-08-17T12:40:43Z</time>
      </trkpt>
      <trkpt lat="49.82428" lon="2.23899">
        <ele>59.9</ele>
        <time>2022-08-17T12:40:44Z</time>
      </trkpt>
      <trkpt lat="49.82428" lon="2.239">
        <ele>59.9</ele>
        <time>2022-08-17T12:40:45Z</time>
      </trkpt>
      <trkpt lat="49.82428" lon="2.23903">
        <ele>59.9</ele>
        <time>2022-08-17T12:40:46Z</time>
      </trkpt>
      <trkpt lat="49.82427" lon="2.23905">
        <ele>60</ele>
        <time>2022-08-17T12:40:47Z</time>
      </trkpt>
      <trkpt lat="49.82427" lon="2.23906">
        <ele>60</ele>
        <time>2022-08-17T12:40:49Z</time>
      </trkpt>
      <trkpt lat="49.82427" lon="2.23908">
        <ele>60</ele>
        <time>2022-08-17T12:40:50Z</time>
      </trkpt>
      <trkpt lat="49.82427" lon="2.23909">
        <ele>60</ele>
        <time>2022-08-17T12:40:51Z</time>
      </trkpt>
      <trkpt lat="49.82426" lon="2.23911">
        <ele>60</ele>
        <time>2022-08-17T12:40:52Z</time>
      </trkpt>
      <trkpt lat="49.82426" lon="2.23913">
        <ele>60.1</ele>
        <time>2022-08-17T12:40:53Z</time>
      </trkpt>
      <trkpt lat="49.82425" lon="2.23915">
        <ele>60.1</ele>
        <time>2022-08-17T12:40:54Z</time>
      </trkpt>
      <trkpt lat="49.82424" lon="2.23917">
        <ele>60.1</ele>
        <time>2022-08-17T12:40:55Z</time>
      </trkpt>
      <trkpt lat="49.82424" lon="2.23919">
        <ele>60.1</ele>
        <time>2022-08-17T12:40:56Z</time>
      </trkpt>
      <trkpt lat="49.82424" lon="2.2392">
        <ele>60.2</ele>
        <time>2022-08-17T12:40:58Z</time>
      </trkpt>
      <trkpt lat="49.82423" lon="2.23922">
        <ele>60.2</ele>
        <time>2022-08-17T12:40:59Z</time>
      </trkpt>
      <trkpt lat="49.82423" lon="2.23923">
        <ele>60.2</ele>
        <time>2022-08-17T12:41:00Z</time>
      </trkpt>
      <trkpt lat="49.82423" lon="2.23924">
        <ele>60.2</ele>
        <time>2022-08-17T12:41:01Z</time>
      </trkpt>
      <trkpt lat="49.82422" lon="2.23925">
        <ele>60.2</ele>
        <time>2022-08-17T12:41:02Z</time>
      </trkpt>
      <trkpt lat="49.82422" lon="2.23925">
        <ele>60.2</ele>
        <time>2022-08-17T12:41:03Z</time>
      </trkpt>
      <trkpt lat="49.82421" lon="2.23925">
        <ele>60.3</ele>
        <time>2022-08-17T12:41:05Z</time>
      </trkpt>
      <trkpt lat="49.82421" lon="2.23927">
        <ele>60.3</ele>
        <time>2022-08-17T12:41:06Z</time>
      </trkpt>
      <trkpt lat="49.82421" lon="2.23928">
        <ele>60.3</ele>
        <time>2022-08-17T12:41:07Z</time>
      </trkpt>
      <trkpt lat="49.8242" lon="2.2393">
        <ele>60.3</ele>
        <time>2022-08-17T12:41:08Z</time>
      </trkpt>
      <trkpt lat="49.8242" lon="2.23931">
        <ele>60.3</ele>
        <time>2022-08-17T12:41:10Z</time>
      </trkpt>
      <trkpt lat="49.8242" lon="2.23933">
        <ele>60.4</ele>
        <time>2022-08-17T12:41:11Z</time>
      </trkpt>
      <trkpt lat="49.8242" lon="2.23934">
        <ele>60.4</ele>
        <time>2022-08-17T12:41:12Z</time>
      </trkpt>
      <trkpt lat="49.8242" lon="2.23936">
        <ele>60.4</ele>
        <time>2022-08-17T12:41:13Z</time>
      </trkpt>
      <trkpt lat="49.8242" lon="2.23936">
        <ele>60.4</ele>
        <time>2022-08-17T12:41:14Z</time>
      </trkpt>
      <trkpt lat="49.8242" lon="2.23937">
        <ele>60.5</ele>
        <time>2022-08-17T12:41:15Z</time>
      </trkpt>
      <trkpt lat="49.82421" lon="2.23938">
        <ele>60.5</ele>
        <time>2022-08-17T12:41:16Z</time>
      </trkpt>
      <trkpt lat="49.82421" lon="2.23938">
        <ele>60.5</ele>
        <time>2022-08-17T12:41:17Z</time>
      </trkpt>
      <trkpt lat="49.82421" lon="2.23938">
        <ele>60.5</ele>
        <time>2022-08-17T12:41:19Z</time>
      </trkpt>
      <trkpt lat="49.82421" lon="2.23938">
        <ele>60.5</ele>
        <time>2022-08-17T12:41:20Z</time>
      </trkpt>
      <trkpt lat="49.82421" lon="2.23938">
        <ele>60.5</ele>
        <time>2022-08-17T12:41:21Z</time>
      </trkpt>
      <trkpt lat="49.82421" lon="2.23938">
        <ele>60.5</ele>
        <time>2022-08-17T12:41:22Z</time>
      </trkpt>
      <trkpt lat="49.82421" lon="2.23938">
        <ele>60.5</ele>
        <time>2022-08-17T12:41:23Z</time>
      </trkpt>
      <trkpt lat="49.82421" lon="2.23938">
        <ele>60.5</ele>
        <time>2022-08-17T12:41:24Z</time>
      </trkpt>
      <trkpt lat="49.82421" lon="2.23938">
        <ele>60.5</ele>
        <time>2022-08-17T12:41:25Z</time>
      </trkpt>
      <trkpt lat="49.82421" lon="2.23938">
        <ele>60.5</ele>
        <time>2022-08-17T12:41:26Z</time>
      </trkpt>
      <trkpt lat="49.82421" lon="2.23938">
        <ele>60.5</ele>
        <time>2022-08-17T12:41:27Z</time>
      </trkpt>
      <trkpt lat="49.82421" lon="2.23938">
        <ele>60.5</ele>
        <time>2022-08-17T12:41:29Z</time>
      </trkpt>
      <trkpt lat="49.82421" lon="2.23938">
        <ele>60.5</ele>
        <time>2022-08-17T12:41:30Z</time>
      </trkpt>
      <trkpt lat="49.82421" lon="2.23938">
        <ele>60.5</ele>
        <time>2022-08-17T12:41:31Z</time>
      </trkpt>
      <trkpt lat="49.82421" lon="2.23938">
        <ele>60.5</ele>
        <time>2022-08-17T12:41:32Z</time>
      </trkpt>
      <trkpt lat="49.82421" lon="2.23937">
        <ele>60.5</ele>
        <time>2022-08-17T12:41:33Z</time>
      </trkpt>
      <trkpt lat="49.82421" lon="2.23937">
        <ele>60.5</ele>
        <time>2022-08-17T12:41:34Z</time>
      </trkpt>
      <trkpt lat="49.82421" lon="2.23937">
        <ele>60.5</ele>
        <time>2022-08-17T12:41:35Z</time>
      </trkpt>
      <trkpt lat="49.82421" lon="2.23937">
        <ele>60.5</ele>
        <time>2022-08-17T12:41:36Z</time>
      </trkpt>
      <trkpt lat="49.82421" lon="2.23937">
        <ele>60.5</ele>
        <time>2022-08-17T12:41:37Z</time>
      </trkpt>
      <trkpt lat="49.82421" lon="2.23937">
        <ele>60.5</ele>
        <time>2022-08-17T12:41:38Z</time>
      </trkpt>
      <trkpt lat="49.82421" lon="2.23937">
        <ele>60.5</ele>
        <time>2022-08-17T12:41:39Z</time>
      </trkpt>
      <trkpt lat="49.82421" lon="2.23937">
        <ele>60.5</ele>
        <time>2022-08-17T12:41:40Z</time>
      </trkpt>
      <trkpt lat="49.82421" lon="2.23937">
        <ele>60.5</ele>
        <time>2022-08-17T12:41:41Z</time>
      </trkpt>
      <trkpt lat="49.82421" lon="2.23937">
        <ele>60.5</ele>
        <time>2022-08-17T12:41:42Z</time>
      </trkpt>
      <trkpt lat="49.82421" lon="2.23937">
        <ele>60.5</ele>
        <time>2022-08-17T12:41:43Z</time>
      </trkpt>
      <trkpt lat="49.82421" lon="2.23937">
        <ele>60.5</ele>
        <time>2022-08-17T12:41:44Z</time>
      </trkpt>
      <trkpt lat="49.82421" lon="2.23937">
        <ele>60.5</ele>
        <time>2022-08-17T12:41:45Z</time>
      </trkpt>
      <trkpt lat="49.82421" lon="2.23937">
        <ele>60.5</ele>
        <time>2022-08-17T12:41:46Z</time>
      </trkpt>
      <trkpt lat="49.82421" lon="2.23937">
        <ele>60.5</ele>
        <time>2022-08-17T12:41:47Z</time>
      </trkpt>
      <trkpt lat="49.82421" lon="2.23937">
        <ele>60.5</ele>
        <time>2022-08-17T12:41:48Z</time>
      </trkpt>
      <trkpt lat="49.82421" lon="2.23937">
        <ele>60.5</ele>
        <time>2022-08-17T12:41:49Z</time>
      </trkpt>
      <trkpt lat="49.82421" lon="2.23937">
        <ele>60.5</ele>
        <time>2022-08-17T12:41:50Z</time>
      </trkpt>
      <trkpt lat="49.82421" lon="2.23937">
        <ele>60.5</ele>
        <time>2022-08-17T12:41:51Z</time>
      </trkpt>
      <trkpt lat="49.82421" lon="2.23937">
        <ele>60.5</ele>
        <time>2022-08-17T12:41:52Z</time>
      </trkpt>
      <trkpt lat="49.82421" lon="2.23937">
        <ele>60.5</ele>
        <time>2022-08-17T12:41:53Z</time>
      </trkpt>
      <trkpt lat="49.82421" lon="2.23937">
        <ele>60.5</ele>
        <time>2022-08-17T12:41:54Z</time>
      </trkpt>
      <trkpt lat="49.82421" lon="2.23937">
        <ele>60.5</ele>
        <time>2022-08-17T12:41:55Z</time>
      </trkpt>
      <trkpt lat="49.82421" lon="2.23937">
        <ele>60.5</ele>
        <time>2022-08-17T12:41:56Z</time>
      </trkpt>
      <trkpt lat="49.82421" lon="2.23937">
        <ele>60.5</ele>
        <time>2022-08-17T12:41:57Z</time>
      </trkpt>
      <trkpt lat="49.82421" lon="2.23932">
        <ele>60.6</ele>
        <time>2022-08-17T12:41:58Z</time>
      </trkpt>
      <trkpt lat="49.82421" lon="2.23931">
        <ele>60.7</ele>
        <time>2022-08-17T12:41:59Z</time>
      </trkpt>
      <trkpt lat="49.82421" lon="2.23931">
        <ele>60.7</ele>
        <time>2022-08-17T12:42:00Z</time>
      </trkpt>
      <trkpt lat="49.82421" lon="2.23932">
        <ele>60.7</ele>
        <time>2022-08-17T12:42:01Z</time>
      </trkpt>
      <trkpt lat="49.82421" lon="2.23933">
        <ele>60.7</ele>
        <time>2022-08-17T12:42:02Z</time>
      </trkpt>
      <trkpt lat="49.8242" lon="2.23934">
        <ele>60.7</ele>
        <time>2022-08-17T12:42:03Z</time>
      </trkpt>
      <trkpt lat="49.8242" lon="2.23935">
        <ele>60.7</ele>
        <time>2022-08-17T12:42:04Z</time>
      </trkpt>
      <trkpt lat="49.8242" lon="2.23935">
        <ele>60.7</ele>
        <time>2022-08-17T12:42:06Z</time>
      </trkpt>
      <trkpt lat="49.8242" lon="2.23936">
        <ele>60.8</ele>
        <time>2022-08-17T12:42:07Z</time>
      </trkpt>
      <trkpt lat="49.82419" lon="2.2394">
        <ele>60.9</ele>
        <time>2022-08-17T12:42:08Z</time>
      </trkpt>
      <trkpt lat="49.82419" lon="2.23941">
        <ele>60.9</ele>
        <time>2022-08-17T12:42:10Z</time>
      </trkpt>
      <trkpt lat="49.82419" lon="2.23942">
        <ele>60.9</ele>
        <time>2022-08-17T12:42:11Z</time>
      </trkpt>
      <trkpt lat="49.82418" lon="2.23943">
        <ele>60.9</ele>
        <time>2022-08-17T12:42:12Z</time>
      </trkpt>
      <trkpt lat="49.82418" lon="2.23945">
        <ele>61</ele>
        <time>2022-08-17T12:42:13Z</time>
      </trkpt>
      <trkpt lat="49.82418" lon="2.23946">
        <ele>61</ele>
        <time>2022-08-17T12:42:14Z</time>
      </trkpt>
      <trkpt lat="49.82418" lon="2.23948">
        <ele>61</ele>
        <time>2022-08-17T12:42:15Z</time>
      </trkpt>
      <trkpt lat="49.82417" lon="2.23949">
        <ele>61.1</ele>
        <time>2022-08-17T12:42:17Z</time>
      </trkpt>
      <trkpt lat="49.82417" lon="2.23951">
        <ele>61.1</ele>
        <time>2022-08-17T12:42:18Z</time>
      </trkpt>
      <trkpt lat="49.82416" lon="2.23953">
        <ele>61.2</ele>
        <time>2022-08-17T12:42:19Z</time>
      </trkpt>
      <trkpt lat="49.82416" lon="2.23954">
        <ele>61.2</ele>
        <time>2022-08-17T12:42:20Z</time>
      </trkpt>
      <trkpt lat="49.82415" lon="2.23956">
        <ele>61.2</ele>
        <time>2022-08-17T12:42:21Z</time>
      </trkpt>
      <trkpt lat="49.82415" lon="2.23957">
        <ele>61.3</ele>
        <time>2022-08-17T12:42:23Z</time>
      </trkpt>
      <trkpt lat="49.82414" lon="2.2396">
        <ele>61.3</ele>
        <time>2022-08-17T12:42:24Z</time>
      </trkpt>
      <trkpt lat="49.82413" lon="2.23961">
        <ele>61.4</ele>
        <time>2022-08-17T12:42:25Z</time>
      </trkpt>
      <trkpt lat="49.82413" lon="2.23962">
        <ele>61.5</ele>
        <time>2022-08-17T12:42:26Z</time>
      </trkpt>
      <trkpt lat="49.82412" lon="2.23964">
        <ele>61.5</ele>
        <time>2022-08-17T12:42:27Z</time>
      </trkpt>
      <trkpt lat="49.82412" lon="2.23966">
        <ele>61.6</ele>
        <time>2022-08-17T12:42:28Z</time>
      </trkpt>
      <trkpt lat="49.82411" lon="2.23968">
        <ele>61.6</ele>
        <time>2022-08-17T12:42:29Z</time>
      </trkpt>
      <trkpt lat="49.82411" lon="2.23971">
        <ele>61.7</ele>
        <time>2022-08-17T12:42:30Z</time>
      </trkpt>
      <trkpt lat="49.8241" lon="2.23972">
        <ele>61.7</ele>
        <time>2022-08-17T12:42:32Z</time>
      </trkpt>
      <trkpt lat="49.8241" lon="2.23973">
        <ele>61.8</ele>
        <time>2022-08-17T12:42:33Z</time>
      </trkpt>
      <trkpt lat="49.8241" lon="2.23977">
        <ele>61.9</ele>
        <time>2022-08-17T12:42:34Z</time>
      </trkpt>
      <trkpt lat="49.82409" lon="2.23978">
        <ele>61.9</ele>
        <time>2022-08-17T12:42:35Z</time>
      </trkpt>
      <trkpt lat="49.82409" lon="2.23979">
        <ele>61.9</ele>
        <time>2022-08-17T12:42:36Z</time>
      </trkpt>
      <trkpt lat="49.82409" lon="2.23981">
        <ele>62</ele>
        <time>2022-08-17T12:42:37Z</time>
      </trkpt>
      <trkpt lat="49.82408" lon="2.23983">
        <ele>62.1</ele>
        <time>2022-08-17T12:42:38Z</time>
      </trkpt>
      <trkpt lat="49.82407" lon="2.23985">
        <ele>62.1</ele>
        <time>2022-08-17T12:42:39Z</time>
      </trkpt>
      <trkpt lat="49.82406" lon="2.23987">
        <ele>62.2</ele>
        <time>2022-08-17T12:42:41Z</time>
      </trkpt>
      <trkpt lat="49.82406" lon="2.23989">
        <ele>62.2</ele>
        <time>2022-08-17T12:42:42Z</time>
      </trkpt>
      <trkpt lat="49.82405" lon="2.23991">
        <ele>62.3</ele>
        <time>2022-08-17T12:42:43Z</time>
      </trkpt>
      <trkpt lat="49.82404" lon="2.23996">
        <ele>62.4</ele>
        <time>2022-08-17T12:42:44Z</time>
      </trkpt>
      <trkpt lat="49.82403" lon="2.23997">
        <ele>62.5</ele>
        <time>2022-08-17T12:42:45Z</time>
      </trkpt>
      <trkpt lat="49.82402" lon="2.24">
        <ele>62.6</ele>
        <time>2022-08-17T12:42:47Z</time>
      </trkpt>
      <trkpt lat="49.82402" lon="2.24002">
        <ele>62.6</ele>
        <time>2022-08-17T12:42:48Z</time>
      </trkpt>
      <trkpt lat="49.82401" lon="2.24003">
        <ele>62.7</ele>
        <time>2022-08-17T12:42:49Z</time>
      </trkpt>
      <trkpt lat="49.824" lon="2.24005">
        <ele>62.7</ele>
        <time>2022-08-17T12:42:50Z</time>
      </trkpt>
      <trkpt lat="49.824" lon="2.24006">
        <ele>62.8</ele>
        <time>2022-08-17T12:42:51Z</time>
      </trkpt>
      <trkpt lat="49.82399" lon="2.24007">
        <ele>62.8</ele>
        <time>2022-08-17T12:42:52Z</time>
      </trkpt>
      <trkpt lat="49.82399" lon="2.24008">
        <ele>62.8</ele>
        <time>2022-08-17T12:42:53Z</time>
      </trkpt>
      <trkpt lat="49.82398" lon="2.2401">
        <ele>62.9</ele>
        <time>2022-08-17T12:42:55Z</time>
      </trkpt>
      <trkpt lat="49.82398" lon="2.24011">
        <ele>63</ele>
        <time>2022-08-17T12:42:56Z</time>
      </trkpt>
      <trkpt lat="49.82397" lon="2.24013">
        <ele>63</ele>
        <time>2022-08-17T12:42:57Z</time>
      </trkpt>
      <trkpt lat="49.82397" lon="2.24014">
        <ele>63.1</ele>
        <time>2022-08-17T12:42:58Z</time>
      </trkpt>
      <trkpt lat="49.82397" lon="2.24015">
        <ele>63.1</ele>
        <time>2022-08-17T12:42:59Z</time>
      </trkpt>
      <trkpt lat="49.82397" lon="2.24015">
        <ele>63.1</ele>
        <time>2022-08-17T12:43:00Z</time>
      </trkpt>
      <trkpt lat="49.82397" lon="2.24016">
        <ele>63.1</ele>
        <time>2022-08-17T12:43:02Z</time>
      </trkpt>
      <trkpt lat="49.82397" lon="2.24017">
        <ele>63.2</ele>
        <time>2022-08-17T12:43:03Z</time>
      </trkpt>
      <trkpt lat="49.82397" lon="2.24018">
        <ele>63.2</ele>
        <time>2022-08-17T12:43:04Z</time>
      </trkpt>
      <trkpt lat="49.82397" lon="2.24018">
        <ele>63.3</ele>
        <time>2022-08-17T12:43:05Z</time>
      </trkpt>
      <trkpt lat="49.82397" lon="2.24018">
        <ele>63.3</ele>
        <time>2022-08-17T12:43:06Z</time>
      </trkpt>
      <trkpt lat="49.82397" lon="2.24019">
        <ele>63.3</ele>
        <time>2022-08-17T12:43:07Z</time>
      </trkpt>
      <trkpt lat="49.82397" lon="2.24019">
        <ele>63.3</ele>
        <time>2022-08-17T12:43:08Z</time>
      </trkpt>
      <trkpt lat="49.82397" lon="2.24018">
        <ele>63.3</ele>
        <time>2022-08-17T12:43:09Z</time>
      </trkpt>
      <trkpt lat="49.82397" lon="2.24018">
        <ele>63.3</ele>
        <time>2022-08-17T12:43:10Z</time>
      </trkpt>
      <trkpt lat="49.82397" lon="2.24018">
        <ele>63.3</ele>
        <time>2022-08-17T12:43:11Z</time>
      </trkpt>
      <trkpt lat="49.82397" lon="2.24018">
        <ele>63.3</ele>
        <time>2022-08-17T12:43:12Z</time>
      </trkpt>
      <trkpt lat="49.82397" lon="2.24018">
        <ele>63.3</ele>
        <time>2022-08-17T12:43:13Z</time>
      </trkpt>
      <trkpt lat="49.82397" lon="2.24018">
        <ele>63.3</ele>
        <time>2022-08-17T12:43:14Z</time>
      </trkpt>
      <trkpt lat="49.82397" lon="2.24018">
        <ele>63.3</ele>
        <time>2022-08-17T12:43:15Z</time>
      </trkpt>
      <trkpt lat="49.82397" lon="2.24018">
        <ele>63.3</ele>
        <time>2022-08-17T12:43:16Z</time>
      </trkpt>
      <trkpt lat="49.82397" lon="2.24018">
        <ele>63.3</ele>
        <time>2022-08-17T12:43:17Z</time>
      </trkpt>
      <trkpt lat="49.82397" lon="2.24018">
        <ele>63.3</ele>
        <time>2022-08-17T12:43:18Z</time>
      </trkpt>
      <trkpt lat="49.82397" lon="2.24018">
        <ele>63.3</ele>
        <time>2022-08-17T12:43:19Z</time>
      </trkpt>
      <trkpt lat="49.82397" lon="2.24018">
        <ele>63.3</ele>
        <time>2022-08-17T12:43:20Z</time>
      </trkpt>
      <trkpt lat="49.82397" lon="2.24018">
        <ele>63.3</ele>
        <time>2022-08-17T12:43:21Z</time>
      </trkpt>
      <trkpt lat="49.82397" lon="2.24018">
        <ele>63.3</ele>
        <time>2022-08-17T12:43:22Z</time>
      </trkpt>
      <trkpt lat="49.82397" lon="2.24018">
        <ele>63.3</ele>
        <time>2022-08-17T12:43:23Z</time>
      </trkpt>
      <trkpt lat="49.82398" lon="2.24018">
        <ele>63.3</ele>
        <time>2022-08-17T12:43:24Z</time>
      </trkpt>
      <trkpt lat="49.82398" lon="2.24017">
        <ele>63.3</ele>
        <time>2022-08-17T12:43:25Z</time>
      </trkpt>
      <trkpt lat="49.82398" lon="2.24017">
        <ele>63.3</ele>
        <time>2022-08-17T12:43:26Z</time>
      </trkpt>
      <trkpt lat="49.82398" lon="2.24017">
        <ele>63.3</ele>
        <time>2022-08-17T12:43:27Z</time>
      </trkpt>
      <trkpt lat="49.82398" lon="2.24017">
        <ele>63.3</ele>
        <time>2022-08-17T12:43:28Z</time>
      </trkpt>
      <trkpt lat="49.82398" lon="2.24017">
        <ele>63.3</ele>
        <time>2022-08-17T12:43:29Z</time>
      </trkpt>
      <trkpt lat="49.82398" lon="2.24017">
        <ele>63.3</ele>
        <time>2022-08-17T12:43:30Z</time>
      </trkpt>
      <trkpt lat="49.82398" lon="2.24017">
        <ele>63.3</ele>
        <time>2022-08-17T12:43:31Z</time>
      </trkpt>
      <trkpt lat="49.82398" lon="2.24017">
        <ele>63.3</ele>
        <time>2022-08-17T12:43:32Z</time>
      </trkpt>
      <trkpt lat="49.82398" lon="2.24017">
        <ele>63.3</ele>
        <time>2022-08-17T12:43:33Z</time>
      </trkpt>
      <trkpt lat="49.82398" lon="2.24017">
        <ele>63.3</ele>
        <time>2022-08-17T12:43:34Z</time>
      </trkpt>
      <trkpt lat="49.82398" lon="2.24017">
        <ele>63.3</ele>
        <time>2022-08-17T12:43:35Z</time>
      </trkpt>
      <trkpt lat="49.82398" lon="2.24017">
        <ele>63.3</ele>
        <time>2022-08-17T12:43:36Z</time>
      </trkpt>
      <trkpt lat="49.82398" lon="2.24017">
        <ele>63.3</ele>
        <time>2022-08-17T12:43:37Z</time>
      </trkpt>
      <trkpt lat="49.82398" lon="2.24017">
        <ele>63.3</ele>
        <time>2022-08-17T12:43:38Z</time>
      </trkpt>
      <trkpt lat="49.82398" lon="2.24017">
        <ele>63.3</ele>
        <time>2022-08-17T12:43:39Z</time>
      </trkpt>
      <trkpt lat="49.82398" lon="2.24017">
        <ele>63.3</ele>
        <time>2022-08-17T12:43:40Z</time>
      </trkpt>
      <trkpt lat="49.82398" lon="2.24017">
        <ele>63.3</ele>
        <time>2022-08-17T12:43:41Z</time>
      </trkpt>
      <trkpt lat="49.82398" lon="2.24017">
        <ele>63.3</ele>
        <time>2022-08-17T12:43:42Z</time>
      </trkpt>
      <trkpt lat="49.82398" lon="2.24017">
        <ele>63.3</ele>
        <time>2022-08-17T12:43:43Z</time>
      </trkpt>
      <trkpt lat="49.82398" lon="2.24017">
        <ele>63.3</ele>
        <time>2022-08-17T12:43:44Z</time>
      </trkpt>
      <trkpt lat="49.82398" lon="2.24017">
        <ele>63.3</ele>
        <time>2022-08-17T12:43:45Z</time>
      </trkpt>
      <trkpt lat="49.82398" lon="2.24017">
        <ele>63.3</ele>
        <time>2022-08-17T12:43:46Z</time>
      </trkpt>
      <trkpt lat="49.82398" lon="2.24017">
        <ele>63.3</ele>
        <time>2022-08-17T12:43:47Z</time>
      </trkpt>
      <trkpt lat="49.82398" lon="2.24017">
        <ele>63.3</ele>
        <time>2022-08-17T12:43:48Z</time>
      </trkpt>
      <trkpt lat="49.82398" lon="2.24017">
        <ele>63.3</ele>
        <time>2022-08-17T12:43:49Z</time>
      </trkpt>
      <trkpt lat="49.82398" lon="2.24017">
        <ele>63.3</ele>
        <time>2022-08-17T12:43:50Z</time>
      </trkpt>
      <trkpt lat="49.82398" lon="2.24017">
        <ele>63.3</ele>
        <time>2022-08-17T12:43:51Z</time>
      </trkpt>
      <trkpt lat="49.82398" lon="2.24017">
        <ele>63.3</ele>
        <time>2022-08-17T12:43:52Z</time>
      </trkpt>
      <trkpt lat="49.82398" lon="2.24017">
        <ele>63.3</ele>
        <time>2022-08-17T12:43:53Z</time>
      </trkpt>
      <trkpt lat="49.82398" lon="2.24017">
        <ele>63.3</ele>
        <time>2022-08-17T12:43:54Z</time>
      </trkpt>
      <trkpt lat="49.82398" lon="2.24017">
        <ele>63.3</ele>
        <time>2022-08-17T12:43:55Z</time>
      </trkpt>
      <trkpt lat="49.82398" lon="2.24017">
        <ele>63.3</ele>
        <time>2022-08-17T12:43:56Z</time>
      </trkpt>
      <trkpt lat="49.82398" lon="2.24017">
        <ele>63.3</ele>
        <time>2022-08-17T12:43:57Z</time>
      </trkpt>
      <trkpt lat="49.82398" lon="2.24017">
        <ele>63.3</ele>
        <time>2022-08-17T12:43:58Z</time>
      </trkpt>
      <trkpt lat="49.82398" lon="2.24017">
        <ele>63.3</ele>
        <time>2022-08-17T12:43:59Z</time>
      </trkpt>
      <trkpt lat="49.82398" lon="2.24017">
        <ele>63.3</ele>
        <time>2022-08-17T12:44:00Z</time>
      </trkpt>
      <trkpt lat="49.82398" lon="2.24017">
        <ele>63.3</ele>
        <time>2022-08-17T12:44:01Z</time>
      </trkpt>
      <trkpt lat="49.82398" lon="2.24017">
        <ele>63.3</ele>
        <time>2022-08-17T12:44:02Z</time>
      </trkpt>
      <trkpt lat="49.82398" lon="2.24017">
        <ele>63.3</ele>
        <time>2022-08-17T12:44:03Z</time>
      </trkpt>
      <trkpt lat="49.82398" lon="2.24017">
        <ele>63.3</ele>
        <time>2022-08-17T12:44:04Z</time>
      </trkpt>
      <trkpt lat="49.82398" lon="2.24017">
        <ele>63.3</ele>
        <time>2022-08-17T12:44:05Z</time>
      </trkpt>
      <trkpt lat="49.82398" lon="2.24017">
        <ele>63.3</ele>
        <time>2022-08-17T12:44:06Z</time>
      </trkpt>
      <trkpt lat="49.82398" lon="2.24017">
        <ele>63.3</ele>
        <time>2022-08-17T12:44:07Z</time>
      </trkpt>
      <trkpt lat="49.82398" lon="2.24017">
        <ele>63.3</ele>
        <time>2022-08-17T12:44:08Z</time>
      </trkpt>
      <trkpt lat="49.82398" lon="2.24017">
        <ele>63.3</ele>
        <time>2022-08-17T12:44:09Z</time>
      </trkpt>
      <trkpt lat="49.82398" lon="2.24017">
        <ele>63.3</ele>
        <time>2022-08-17T12:44:10Z</time>
      </trkpt>
      <trkpt lat="49.82398" lon="2.24017">
        <ele>63.3</ele>
        <time>2022-08-17T12:44:11Z</time>
      </trkpt>
      <trkpt lat="49.82398" lon="2.24017">
        <ele>63.3</ele>
        <time>2022-08-17T12:44:12Z</time>
      </trkpt>
      <trkpt lat="49.82398" lon="2.24017">
        <ele>63.3</ele>
        <time>2022-08-17T12:44:13Z</time>
      </trkpt>
      <trkpt lat="49.82398" lon="2.24017">
        <ele>63.3</ele>
        <time>2022-08-17T12:44:14Z</time>
      </trkpt>
      <trkpt lat="49.82398" lon="2.24017">
        <ele>63.3</ele>
        <time>2022-08-17T12:44:15Z</time>
      </trkpt>
      <trkpt lat="49.82398" lon="2.24017">
        <ele>63.3</ele>
        <time>2022-08-17T12:44:16Z</time>
      </trkpt>
      <trkpt lat="49.82398" lon="2.24017">
        <ele>63.3</ele>
        <time>2022-08-17T12:44:17Z</time>
      </trkpt>
      <trkpt lat="49.82398" lon="2.24017">
        <ele>63.3</ele>
        <time>2022-08-17T12:44:18Z</time>
      </trkpt>
      <trkpt lat="49.82398" lon="2.24017">
        <ele>63.3</ele>
        <time>2022-08-17T12:44:19Z</time>
      </trkpt>
      <trkpt lat="49.82398" lon="2.24017">
        <ele>63.3</ele>
        <time>2022-08-17T12:44:20Z</time>
      </trkpt>
      <trkpt lat="49.82398" lon="2.24017">
        <ele>63.3</ele>
        <time>2022-08-17T12:44:21Z</time>
      </trkpt>
      <trkpt lat="49.82398" lon="2.24017">
        <ele>63.3</ele>
        <time>2022-08-17T12:44:22Z</time>
      </trkpt>
      <trkpt lat="49.82398" lon="2.24017">
        <ele>63.3</ele>
        <time>2022-08-17T12:44:23Z</time>
      </trkpt>
      <trkpt lat="49.82398" lon="2.24017">
        <ele>63.3</ele>
        <time>2022-08-17T12:44:24Z</time>
      </trkpt>
      <trkpt lat="49.82398" lon="2.24017">
        <ele>63.3</ele>
        <time>2022-08-17T12:44:25Z</time>
      </trkpt>
      <trkpt lat="49.82398" lon="2.24017">
        <ele>63.3</ele>
        <time>2022-08-17T12:44:26Z</time>
      </trkpt>
      <trkpt lat="49.82398" lon="2.24017">
        <ele>63.3</ele>
        <time>2022-08-17T12:44:27Z</time>
      </trkpt>
      <trkpt lat="49.82398" lon="2.24017">
        <ele>63.3</ele>
        <time>2022-08-17T12:44:28Z</time>
      </trkpt>
      <trkpt lat="49.82398" lon="2.24017">
        <ele>63.3</ele>
        <time>2022-08-17T12:44:29Z</time>
      </trkpt>
      <trkpt lat="49.82398" lon="2.24017">
        <ele>63.3</ele>
        <time>2022-08-17T12:44:30Z</time>
      </trkpt>
      <trkpt lat="49.82398" lon="2.24017">
        <ele>63.3</ele>
        <time>2022-08-17T12:44:31Z</time>
      </trkpt>
      <trkpt lat="49.82398" lon="2.24017">
        <ele>63.3</ele>
        <time>2022-08-17T12:44:32Z</time>
      </trkpt>
      <trkpt lat="49.82398" lon="2.24017">
        <ele>63.3</ele>
        <time>2022-08-17T12:44:33Z</time>
      </trkpt>
      <trkpt lat="49.82398" lon="2.24017">
        <ele>63.3</ele>
        <time>2022-08-17T12:44:34Z</time>
      </trkpt>
      <trkpt lat="49.82398" lon="2.24017">
        <ele>63.3</ele>
        <time>2022-08-17T12:44:35Z</time>
      </trkpt>
      <trkpt lat="49.82398" lon="2.24017">
        <ele>63.3</ele>
        <time>2022-08-17T12:44:36Z</time>
      </trkpt>
      <trkpt lat="49.82398" lon="2.24017">
        <ele>63.3</ele>
        <time>2022-08-17T12:44:37Z</time>
      </trkpt>
      <trkpt lat="49.82398" lon="2.24017">
        <ele>63.3</ele>
        <time>2022-08-17T12:44:38Z</time>
      </trkpt>
      <trkpt lat="49.82398" lon="2.24017">
        <ele>63.3</ele>
        <time>2022-08-17T12:44:39Z</time>
      </trkpt>
      <trkpt lat="49.82398" lon="2.24017">
        <ele>63.3</ele>
        <time>2022-08-17T12:44:40Z</time>
      </trkpt>
      <trkpt lat="49.82398" lon="2.24017">
        <ele>63.3</ele>
        <time>2022-08-17T12:44:41Z</time>
      </trkpt>
      <trkpt lat="49.82398" lon="2.24017">
        <ele>63.3</ele>
        <time>2022-08-17T12:44:42Z</time>
      </trkpt>
      <trkpt lat="49.82398" lon="2.24017">
        <ele>63.3</ele>
        <time>2022-08-17T12:44:43Z</time>
      </trkpt>
      <trkpt lat="49.82398" lon="2.24017">
        <ele>63.3</ele>
        <time>2022-08-17T12:44:44Z</time>
      </trkpt>
      <trkpt lat="49.82398" lon="2.24017">
        <ele>63.3</ele>
        <time>2022-08-17T12:44:45Z</time>
      </trkpt>
      <trkpt lat="49.82398" lon="2.24017">
        <ele>63.3</ele>
        <time>2022-08-17T12:44:46Z</time>
      </trkpt>
      <trkpt lat="49.82398" lon="2.24017">
        <ele>63.3</ele>
        <time>2022-08-17T12:44:47Z</time>
      </trkpt>
      <trkpt lat="49.82398" lon="2.24017">
        <ele>63.3</ele>
        <time>2022-08-17T12:44:48Z</time>
      </trkpt>
      <trkpt lat="49.82398" lon="2.24017">
        <ele>63.3</ele>
        <time>2022-08-17T12:44:49Z</time>
      </trkpt>
      <trkpt lat="49.82398" lon="2.24017">
        <ele>63.3</ele>
        <time>2022-08-17T12:44:50Z</time>
      </trkpt>
      <trkpt lat="49.82398" lon="2.24017">
        <ele>63.3</ele>
        <time>2022-08-17T12:44:51Z</time>
      </trkpt>
      <trkpt lat="49.82398" lon="2.24017">
        <ele>63.3</ele>
        <time>2022-08-17T12:44:52Z</time>
      </trkpt>
      <trkpt lat="49.82398" lon="2.24017">
        <ele>63.3</ele>
        <time>2022-08-17T12:44:53Z</time>
      </trkpt>
      <trkpt lat="49.82398" lon="2.24017">
        <ele>63.3</ele>
        <time>2022-08-17T12:44:54Z</time>
      </trkpt>
      <trkpt lat="49.82398" lon="2.24017">
        <ele>63.3</ele>
        <time>2022-08-17T12:44:55Z</time>
      </trkpt>
      <trkpt lat="49.82398" lon="2.24017">
        <ele>63.3</ele>
        <time>2022-08-17T12:44:56Z</time>
      </trkpt>
      <trkpt lat="49.82398" lon="2.24017">
        <ele>63.3</ele>
        <time>2022-08-17T12:44:57Z</time>
      </trkpt>
      <trkpt lat="49.82398" lon="2.24017">
        <ele>63.3</ele>
        <time>2022-08-17T12:44:58Z</time>
      </trkpt>
      <trkpt lat="49.82398" lon="2.24017">
        <ele>63.3</ele>
        <time>2022-08-17T12:44:59Z</time>
      </trkpt>
      <trkpt lat="49.82398" lon="2.24017">
        <ele>63.3</ele>
        <time>2022-08-17T12:45:00Z</time>
      </trkpt>
      <trkpt lat="49.82398" lon="2.24017">
        <ele>63.3</ele>
        <time>2022-08-17T12:45:01Z</time>
      </trkpt>
      <trkpt lat="49.82398" lon="2.24017">
        <ele>63.3</ele>
        <time>2022-08-17T12:45:02Z</time>
      </trkpt>
      <trkpt lat="49.82398" lon="2.24017">
        <ele>63.3</ele>
        <time>2022-08-17T12:45:03Z</time>
      </trkpt>
      <trkpt lat="49.82398" lon="2.24017">
        <ele>63.3</ele>
        <time>2022-08-17T12:45:04Z</time>
      </trkpt>
      <trkpt lat="49.82398" lon="2.24017">
        <ele>63.3</ele>
        <time>2022-08-17T12:45:05Z</time>
      </trkpt>
      <trkpt lat="49.82398" lon="2.24017">
        <ele>63.3</ele>
        <time>2022-08-17T12:45:06Z</time>
      </trkpt>
      <trkpt lat="49.82398" lon="2.24017">
        <ele>63.3</ele>
        <time>2022-08-17T12:45:07Z</time>
      </trkpt>
      <trkpt lat="49.82398" lon="2.24017">
        <ele>63.3</ele>
        <time>2022-08-17T12:45:08Z</time>
      </trkpt>
      <trkpt lat="49.82398" lon="2.24017">
        <ele>63.3</ele>
        <time>2022-08-17T12:45:09Z</time>
      </trkpt>
      <trkpt lat="49.82398" lon="2.24017">
        <ele>63.3</ele>
        <time>2022-08-17T12:45:10Z</time>
      </trkpt>
      <trkpt lat="49.82398" lon="2.24017">
        <ele>63.3</ele>
        <time>2022-08-17T12:45:11Z</time>
      </trkpt>
      <trkpt lat="49.82398" lon="2.24017">
        <ele>63.3</ele>
        <time>2022-08-17T12:45:12Z</time>
      </trkpt>
      <trkpt lat="49.82398" lon="2.24017">
        <ele>63.3</ele>
        <time>2022-08-17T12:45:13Z</time>
      </trkpt>
      <trkpt lat="49.82398" lon="2.24017">
        <ele>63.3</ele>
        <time>2022-08-17T12:45:14Z</time>
      </trkpt>
      <trkpt lat="49.82398" lon="2.24017">
        <ele>63.3</ele>
        <time>2022-08-17T12:45:15Z</time>
      </trkpt>
      <trkpt lat="49.82398" lon="2.24017">
        <ele>63.3</ele>
        <time>2022-08-17T12:45:16Z</time>
      </trkpt>
      <trkpt lat="49.82398" lon="2.24017">
        <ele>63.3</ele>
        <time>2022-08-17T12:45:17Z</time>
      </trkpt>
      <trkpt lat="49.82398" lon="2.24017">
        <ele>63.3</ele>
        <time>2022-08-17T12:45:18Z</time>
      </trkpt>
      <trkpt lat="49.82398" lon="2.24017">
        <ele>63.3</ele>
        <time>2022-08-17T12:45:19Z</time>
      </trkpt>
      <trkpt lat="49.82398" lon="2.24017">
        <ele>63.3</ele>
        <time>2022-08-17T12:45:20Z</time>
      </trkpt>
      <trkpt lat="49.82398" lon="2.24017">
        <ele>63.3</ele>
        <time>2022-08-17T12:45:21Z</time>
      </trkpt>
      <trkpt lat="49.82398" lon="2.24017">
        <ele>63.3</ele>
        <time>2022-08-17T12:45:22Z</time>
      </trkpt>
      <trkpt lat="49.82398" lon="2.24017">
        <ele>63.3</ele>
        <time>2022-08-17T12:45:23Z</time>
      </trkpt>
      <trkpt lat="49.82398" lon="2.24017">
        <ele>63.3</ele>
        <time>2022-08-17T12:45:24Z</time>
      </trkpt>
      <trkpt lat="49.82398" lon="2.24017">
        <ele>63.3</ele>
        <time>2022-08-17T12:45:25Z</time>
      </trkpt>
      <trkpt lat="49.82398" lon="2.24017">
        <ele>63.3</ele>
        <time>2022-08-17T12:45:26Z</time>
      </trkpt>
      <trkpt lat="49.82398" lon="2.24017">
        <ele>63.3</ele>
        <time>2022-08-17T12:45:27Z</time>
      </trkpt>
      <trkpt lat="49.82398" lon="2.24017">
        <ele>63.3</ele>
        <time>2022-08-17T12:45:28Z</time>
      </trkpt>
      <trkpt lat="49.82398" lon="2.24017">
        <ele>63.3</ele>
        <time>2022-08-17T12:45:29Z</time>
      </trkpt>
      <trkpt lat="49.82398" lon="2.24017">
        <ele>63.3</ele>
        <time>2022-08-17T12:45:30Z</time>
      </trkpt>
      <trkpt lat="49.82398" lon="2.24017">
        <ele>63.3</ele>
        <time>2022-08-17T12:45:31Z</time>
      </trkpt>
      <trkpt lat="49.82398" lon="2.24017">
        <ele>63.3</ele>
        <time>2022-08-17T12:45:32Z</time>
      </trkpt>
      <trkpt lat="49.82398" lon="2.24017">
        <ele>63.3</ele>
        <time>2022-08-17T12:45:33Z</time>
      </trkpt>
      <trkpt lat="49.82398" lon="2.24017">
        <ele>63.3</ele>
        <time>2022-08-17T12:45:34Z</time>
      </trkpt>
      <trkpt lat="49.82398" lon="2.24017">
        <ele>63.3</ele>
        <time>2022-08-17T12:45:35Z</time>
      </trkpt>
      <trkpt lat="49.82398" lon="2.24017">
        <ele>63.3</ele>
        <time>2022-08-17T12:45:36Z</time>
      </trkpt>
      <trkpt lat="49.82398" lon="2.24017">
        <ele>63.3</ele>
        <time>2022-08-17T12:45:37Z</time>
      </trkpt>
      <trkpt lat="49.82398" lon="2.24017">
        <ele>63.3</ele>
        <time>2022-08-17T12:45:38Z</time>
      </trkpt>
      <trkpt lat="49.82398" lon="2.24017">
        <ele>63.3</ele>
        <time>2022-08-17T12:45:39Z</time>
      </trkpt>
      <trkpt lat="49.82398" lon="2.24017">
        <ele>63.3</ele>
        <time>2022-08-17T12:45:40Z</time>
      </trkpt>
      <trkpt lat="49.82398" lon="2.24017">
        <ele>63.3</ele>
        <time>2022-08-17T12:45:41Z</time>
      </trkpt>
      <trkpt lat="49.82398" lon="2.24017">
        <ele>63.3</ele>
        <time>2022-08-17T12:45:42Z</time>
      </trkpt>
      <trkpt lat="49.82398" lon="2.24017">
        <ele>63.3</ele>
        <time>2022-08-17T12:45:43Z</time>
      </trkpt>
      <trkpt lat="49.82398" lon="2.24017">
        <ele>63.3</ele>
        <time>2022-08-17T12:45:44Z</time>
      </trkpt>
      <trkpt lat="49.82398" lon="2.24017">
        <ele>63.3</ele>
        <time>2022-08-17T12:45:45Z</time>
      </trkpt>
      <trkpt lat="49.82398" lon="2.24017">
        <ele>63.3</ele>
        <time>2022-08-17T12:45:46Z</time>
      </trkpt>
      <trkpt lat="49.82398" lon="2.24017">
        <ele>63.3</ele>
        <time>2022-08-17T12:45:47Z</time>
      </trkpt>
      <trkpt lat="49.82398" lon="2.24017">
        <ele>63.3</ele>
        <time>2022-08-17T12:45:48Z</time>
      </trkpt>
      <trkpt lat="49.82398" lon="2.24017">
        <ele>63.3</ele>
        <time>2022-08-17T12:45:49Z</time>
      </trkpt>
      <trkpt lat="49.82398" lon="2.24017">
        <ele>63.3</ele>
        <time>2022-08-17T12:45:50Z</time>
      </trkpt>
      <trkpt lat="49.82398" lon="2.24017">
        <ele>63.3</ele>
        <time>2022-08-17T12:45:51Z</time>
      </trkpt>
      <trkpt lat="49.82398" lon="2.24017">
        <ele>63.3</ele>
        <time>2022-08-17T12:45:52Z</time>
      </trkpt>
      <trkpt lat="49.82398" lon="2.24017">
        <ele>63.3</ele>
        <time>2022-08-17T12:45:53Z</time>
      </trkpt>
      <trkpt lat="49.82398" lon="2.24017">
        <ele>63.3</ele>
        <time>2022-08-17T12:45:54Z</time>
      </trkpt>
      <trkpt lat="49.82398" lon="2.24017">
        <ele>63.3</ele>
        <time>2022-08-17T12:45:55Z</time>
      </trkpt>
      <trkpt lat="49.82398" lon="2.24017">
        <ele>63.3</ele>
        <time>2022-08-17T12:45:56Z</time>
      </trkpt>
      <trkpt lat="49.82398" lon="2.24017">
        <ele>63.3</ele>
        <time>2022-08-17T12:45:57Z</time>
      </trkpt>
      <trkpt lat="49.82398" lon="2.24017">
        <ele>63.3</ele>
        <time>2022-08-17T12:45:58Z</time>
      </trkpt>
      <trkpt lat="49.82398" lon="2.24017">
        <ele>63.3</ele>
        <time>2022-08-17T12:45:59Z</time>
      </trkpt>
      <trkpt lat="49.82398" lon="2.24017">
        <ele>63.3</ele>
        <time>2022-08-17T12:46:00Z</time>
      </trkpt>
      <trkpt lat="49.82398" lon="2.24017">
        <ele>63.3</ele>
        <time>2022-08-17T12:46:01Z</time>
      </trkpt>
      <trkpt lat="49.82398" lon="2.24017">
        <ele>63.3</ele>
        <time>2022-08-17T12:46:02Z</time>
      </trkpt>
      <trkpt lat="49.82398" lon="2.24017">
        <ele>63.3</ele>
        <time>2022-08-17T12:46:03Z</time>
      </trkpt>
      <trkpt lat="49.82398" lon="2.24017">
        <ele>63.3</ele>
        <time>2022-08-17T12:46:04Z</time>
      </trkpt>
      <trkpt lat="49.82398" lon="2.24017">
        <ele>63.3</ele>
        <time>2022-08-17T12:46:05Z</time>
      </trkpt>
      <trkpt lat="49.82398" lon="2.24017">
        <ele>63.3</ele>
        <time>2022-08-17T12:46:06Z</time>
      </trkpt>
      <trkpt lat="49.82398" lon="2.24017">
        <ele>63.3</ele>
        <time>2022-08-17T12:46:07Z</time>
      </trkpt>
      <trkpt lat="49.82398" lon="2.24017">
        <ele>63.3</ele>
        <time>2022-08-17T12:46:08Z</time>
      </trkpt>
      <trkpt lat="49.82398" lon="2.24017">
        <ele>63.3</ele>
        <time>2022-08-17T12:46:09Z</time>
      </trkpt>
      <trkpt lat="49.82398" lon="2.24017">
        <ele>63.3</ele>
        <time>2022-08-17T12:46:10Z</time>
      </trkpt>
      <trkpt lat="49.82398" lon="2.24017">
        <ele>63.3</ele>
        <time>2022-08-17T12:46:11Z</time>
      </trkpt>
      <trkpt lat="49.82398" lon="2.24017">
        <ele>63.3</ele>
        <time>2022-08-17T12:46:12Z</time>
      </trkpt>
      <trkpt lat="49.82398" lon="2.24017">
        <ele>63.3</ele>
        <time>2022-08-17T12:46:13Z</time>
      </trkpt>
      <trkpt lat="49.82398" lon="2.24017">
        <ele>63.3</ele>
        <time>2022-08-17T12:46:14Z</time>
      </trkpt>
      <trkpt lat="49.82398" lon="2.24017">
        <ele>63.3</ele>
        <time>2022-08-17T12:46:15Z</time>
      </trkpt>
      <trkpt lat="49.82398" lon="2.24017">
        <ele>63.3</ele>
        <time>2022-08-17T12:46:16Z</time>
      </trkpt>
      <trkpt lat="49.82398" lon="2.24017">
        <ele>63.3</ele>
        <time>2022-08-17T12:46:17Z</time>
      </trkpt>
      <trkpt lat="49.82398" lon="2.24017">
        <ele>63.3</ele>
        <time>2022-08-17T12:46:18Z</time>
      </trkpt>
      <trkpt lat="49.82398" lon="2.24017">
        <ele>63.3</ele>
        <time>2022-08-17T12:46:19Z</time>
      </trkpt>
      <trkpt lat="49.82398" lon="2.24017">
        <ele>63.3</ele>
        <time>2022-08-17T12:46:20Z</time>
      </trkpt>
      <trkpt lat="49.82398" lon="2.24017">
        <ele>63.3</ele>
        <time>2022-08-17T12:46:21Z</time>
      </trkpt>
      <trkpt lat="49.82398" lon="2.24017">
        <ele>63.3</ele>
        <time>2022-08-17T12:46:22Z</time>
      </trkpt>
      <trkpt lat="49.82398" lon="2.24017">
        <ele>63.3</ele>
        <time>2022-08-17T12:46:23Z</time>
      </trkpt>
      <trkpt lat="49.82398" lon="2.24017">
        <ele>63.3</ele>
        <time>2022-08-17T12:46:24Z</time>
      </trkpt>
      <trkpt lat="49.82398" lon="2.24017">
        <ele>63.3</ele>
        <time>2022-08-17T12:46:25Z</time>
      </trkpt>
      <trkpt lat="49.82398" lon="2.24017">
        <ele>63.3</ele>
        <time>2022-08-17T12:46:26Z</time>
      </trkpt>
      <trkpt lat="49.82398" lon="2.24017">
        <ele>63.3</ele>
        <time>2022-08-17T12:46:27Z</time>
      </trkpt>
      <trkpt lat="49.82398" lon="2.24017">
        <ele>63.3</ele>
        <time>2022-08-17T12:46:28Z</time>
      </trkpt>
      <trkpt lat="49.82398" lon="2.24017">
        <ele>63.3</ele>
        <time>2022-08-17T12:46:29Z</time>
      </trkpt>
      <trkpt lat="49.82398" lon="2.24017">
        <ele>63.3</ele>
        <time>2022-08-17T12:46:30Z</time>
      </trkpt>
      <trkpt lat="49.82398" lon="2.24017">
        <ele>63.3</ele>
        <time>2022-08-17T12:46:31Z</time>
      </trkpt>
      <trkpt lat="49.82398" lon="2.24017">
        <ele>63.3</ele>
        <time>2022-08-17T12:46:32Z</time>
      </trkpt>
      <trkpt lat="49.82398" lon="2.24017">
        <ele>63.3</ele>
        <time>2022-08-17T12:46:33Z</time>
      </trkpt>
      <trkpt lat="49.82398" lon="2.24017">
        <ele>63.3</ele>
        <time>2022-08-17T12:46:34Z</time>
      </trkpt>
      <trkpt lat="49.82398" lon="2.24017">
        <ele>63.3</ele>
        <time>2022-08-17T12:46:35Z</time>
      </trkpt>
      <trkpt lat="49.82398" lon="2.24017">
        <ele>63.3</ele>
        <time>2022-08-17T12:46:36Z</time>
      </trkpt>
      <trkpt lat="49.82398" lon="2.24017">
        <ele>63.3</ele>
        <time>2022-08-17T12:46:37Z</time>
      </trkpt>
      <trkpt lat="49.82398" lon="2.24017">
        <ele>63.3</ele>
        <time>2022-08-17T12:46:38Z</time>
      </trkpt>
      <trkpt lat="49.82398" lon="2.24017">
        <ele>63.3</ele>
        <time>2022-08-17T12:46:39Z</time>
      </trkpt>
      <trkpt lat="49.82398" lon="2.24017">
        <ele>63.3</ele>
        <time>2022-08-17T12:46:40Z</time>
      </trkpt>
      <trkpt lat="49.82398" lon="2.24017">
        <ele>63.3</ele>
        <time>2022-08-17T12:46:41Z</time>
      </trkpt>
      <trkpt lat="49.82398" lon="2.24017">
        <ele>63.3</ele>
        <time>2022-08-17T12:46:42Z</time>
      </trkpt>
      <trkpt lat="49.82398" lon="2.24017">
        <ele>63.3</ele>
        <time>2022-08-17T12:46:43Z</time>
      </trkpt>
      <trkpt lat="49.82398" lon="2.24017">
        <ele>63.3</ele>
        <time>2022-08-17T12:46:44Z</time>
      </trkpt>
      <trkpt lat="49.82398" lon="2.24017">
        <ele>63.3</ele>
        <time>2022-08-17T12:46:45Z</time>
      </trkpt>
      <trkpt lat="49.82398" lon="2.24017">
        <ele>63.3</ele>
        <time>2022-08-17T12:46:46Z</time>
      </trkpt>
      <trkpt lat="49.82398" lon="2.24017">
        <ele>63.3</ele>
        <time>2022-08-17T12:46:47Z</time>
      </trkpt>
      <trkpt lat="49.82398" lon="2.24017">
        <ele>63.3</ele>
        <time>2022-08-17T12:46:48Z</time>
      </trkpt>
      <trkpt lat="49.82398" lon="2.24017">
        <ele>63.3</ele>
        <time>2022-08-17T12:46:49Z</time>
      </trkpt>
      <trkpt lat="49.82398" lon="2.24017">
        <ele>63.3</ele>
        <time>2022-08-17T12:46:50Z</time>
      </trkpt>
      <trkpt lat="49.82398" lon="2.24017">
        <ele>63.3</ele>
        <time>2022-08-17T12:46:51Z</time>
      </trkpt>
      <trkpt lat="49.82398" lon="2.24017">
        <ele>63.3</ele>
        <time>2022-08-17T12:46:52Z</time>
      </trkpt>
      <trkpt lat="49.82398" lon="2.24017">
        <ele>63.3</ele>
        <time>2022-08-17T12:46:53Z</time>
      </trkpt>
      <trkpt lat="49.82398" lon="2.24017">
        <ele>63.3</ele>
        <time>2022-08-17T12:46:54Z</time>
      </trkpt>
      <trkpt lat="49.82398" lon="2.24017">
        <ele>63.3</ele>
        <time>2022-08-17T12:46:55Z</time>
      </trkpt>
      <trkpt lat="49.82398" lon="2.24017">
        <ele>63.3</ele>
        <time>2022-08-17T12:46:56Z</time>
      </trkpt>
      <trkpt lat="49.82398" lon="2.24017">
        <ele>63.3</ele>
        <time>2022-08-17T12:46:57Z</time>
      </trkpt>
      <trkpt lat="49.82398" lon="2.24017">
        <ele>63.3</ele>
        <time>2022-08-17T12:46:58Z</time>
      </trkpt>
      <trkpt lat="49.82398" lon="2.24017">
        <ele>63.3</ele>
        <time>2022-08-17T12:46:59Z</time>
      </trkpt>
      <trkpt lat="49.82398" lon="2.24017">
        <ele>63.3</ele>
        <time>2022-08-17T12:47:00Z</time>
      </trkpt>
      <trkpt lat="49.82398" lon="2.24017">
        <ele>63.3</ele>
        <time>2022-08-17T12:47:01Z</time>
      </trkpt>
      <trkpt lat="49.82398" lon="2.24017">
        <ele>63.3</ele>
        <time>2022-08-17T12:47:02Z</time>
      </trkpt>
      <trkpt lat="49.82398" lon="2.24017">
        <ele>63.3</ele>
        <time>2022-08-17T12:47:03Z</time>
      </trkpt>
      <trkpt lat="49.82398" lon="2.24017">
        <ele>63.3</ele>
        <time>2022-08-17T12:47:04Z</time>
      </trkpt>
      <trkpt lat="49.82398" lon="2.24017">
        <ele>63.3</ele>
        <time>2022-08-17T12:47:05Z</time>
      </trkpt>
      <trkpt lat="49.82399" lon="2.24014">
        <ele>63.3</ele>
        <time>2022-08-17T12:47:06Z</time>
      </trkpt>
      <trkpt lat="49.82399" lon="2.24012">
        <ele>63.3</ele>
        <time>2022-08-17T12:47:07Z</time>
      </trkpt>
      <trkpt lat="49.82399" lon="2.24011">
        <ele>63.3</ele>
        <time>2022-08-17T12:47:08Z</time>
      </trkpt>
      <trkpt lat="49.82399" lon="2.24011">
        <ele>63.3</ele>
        <time>2022-08-17T12:47:09Z</time>
      </trkpt>
      <trkpt lat="49.82398" lon="2.24012">
        <ele>63.3</ele>
        <time>2022-08-17T12:47:10Z</time>
      </trkpt>
      <trkpt lat="49.82397" lon="2.24012">
        <ele>63.3</ele>
        <time>2022-08-17T12:47:11Z</time>
      </trkpt>
      <trkpt lat="49.82397" lon="2.24012">
        <ele>63.3</ele>
        <time>2022-08-17T12:47:12Z</time>
      </trkpt>
      <trkpt lat="49.82396" lon="2.24012">
        <ele>63.3</ele>
        <time>2022-08-17T12:47:13Z</time>
      </trkpt>
      <trkpt lat="49.82396" lon="2.24012">
        <ele>63.3</ele>
        <time>2022-08-17T12:47:14Z</time>
      </trkpt>
      <trkpt lat="49.82395" lon="2.24011">
        <ele>63.4</ele>
        <time>2022-08-17T12:47:15Z</time>
      </trkpt>
      <trkpt lat="49.82393" lon="2.24011">
        <ele>63.4</ele>
        <time>2022-08-17T12:47:16Z</time>
      </trkpt>
      <trkpt lat="49.82391" lon="2.24008">
        <ele>63.4</ele>
        <time>2022-08-17T12:47:18Z</time>
      </trkpt>
      <trkpt lat="49.8239" lon="2.24007">
        <ele>63.4</ele>
        <time>2022-08-17T12:47:20Z</time>
      </trkpt>
      <trkpt lat="49.82389" lon="2.24006">
        <ele>63.4</ele>
        <time>2022-08-17T12:47:21Z</time>
      </trkpt>
      <trkpt lat="49.82388" lon="2.24006">
        <ele>63.4</ele>
        <time>2022-08-17T12:47:22Z</time>
      </trkpt>
      <trkpt lat="49.82387" lon="2.24005">
        <ele>63.4</ele>
        <time>2022-08-17T12:47:23Z</time>
      </trkpt>
      <trkpt lat="49.82387" lon="2.24004">
        <ele>63.4</ele>
        <time>2022-08-17T12:47:24Z</time>
      </trkpt>
      <trkpt lat="49.82386" lon="2.24004">
        <ele>63.4</ele>
        <time>2022-08-17T12:47:25Z</time>
      </trkpt>
      <trkpt lat="49.82385" lon="2.24004">
        <ele>63.4</ele>
        <time>2022-08-17T12:47:26Z</time>
      </trkpt>
      <trkpt lat="49.82383" lon="2.24003">
        <ele>63.5</ele>
        <time>2022-08-17T12:47:28Z</time>
      </trkpt>
      <trkpt lat="49.82383" lon="2.24003">
        <ele>63.5</ele>
        <time>2022-08-17T12:47:29Z</time>
      </trkpt>
      <trkpt lat="49.82382" lon="2.24003">
        <ele>63.5</ele>
        <time>2022-08-17T12:47:30Z</time>
      </trkpt>
      <trkpt lat="49.82381" lon="2.24003">
        <ele>63.5</ele>
        <time>2022-08-17T12:47:31Z</time>
      </trkpt>
      <trkpt lat="49.8238" lon="2.24002">
        <ele>63.5</ele>
        <time>2022-08-17T12:47:32Z</time>
      </trkpt>
      <trkpt lat="49.82379" lon="2.24001">
        <ele>63.5</ele>
        <time>2022-08-17T12:47:34Z</time>
      </trkpt>
      <trkpt lat="49.82378" lon="2.24">
        <ele>63.6</ele>
        <time>2022-08-17T12:47:35Z</time>
      </trkpt>
      <trkpt lat="49.82377" lon="2.23999">
        <ele>63.6</ele>
        <time>2022-08-17T12:47:36Z</time>
      </trkpt>
      <trkpt lat="49.82376" lon="2.23999">
        <ele>63.6</ele>
        <time>2022-08-17T12:47:37Z</time>
      </trkpt>
      <trkpt lat="49.82375" lon="2.23998">
        <ele>63.6</ele>
        <time>2022-08-17T12:47:38Z</time>
      </trkpt>
      <trkpt lat="49.82374" lon="2.23997">
        <ele>63.6</ele>
        <time>2022-08-17T12:47:39Z</time>
      </trkpt>
      <trkpt lat="49.82373" lon="2.23997">
        <ele>63.6</ele>
        <time>2022-08-17T12:47:40Z</time>
      </trkpt>
      <trkpt lat="49.82372" lon="2.23995">
        <ele>63.7</ele>
        <time>2022-08-17T12:47:41Z</time>
      </trkpt>
      <trkpt lat="49.82371" lon="2.23994">
        <ele>63.7</ele>
        <time>2022-08-17T12:47:42Z</time>
      </trkpt>
      <trkpt lat="49.8237" lon="2.23994">
        <ele>63.7</ele>
        <time>2022-08-17T12:47:43Z</time>
      </trkpt>
      <trkpt lat="49.82369" lon="2.23993">
        <ele>63.7</ele>
        <time>2022-08-17T12:47:44Z</time>
      </trkpt>
      <trkpt lat="49.82369" lon="2.23992">
        <ele>63.7</ele>
        <time>2022-08-17T12:47:45Z</time>
      </trkpt>
      <trkpt lat="49.82368" lon="2.23991">
        <ele>63.7</ele>
        <time>2022-08-17T12:47:47Z</time>
      </trkpt>
      <trkpt lat="49.82367" lon="2.2399">
        <ele>63.8</ele>
        <time>2022-08-17T12:47:48Z</time>
      </trkpt>
      <trkpt lat="49.82366" lon="2.23989">
        <ele>63.8</ele>
        <time>2022-08-17T12:47:49Z</time>
      </trkpt>
      <trkpt lat="49.82366" lon="2.23989">
        <ele>63.8</ele>
        <time>2022-08-17T12:47:50Z</time>
      </trkpt>
      <trkpt lat="49.82365" lon="2.23988">
        <ele>63.8</ele>
        <time>2022-08-17T12:47:51Z</time>
      </trkpt>
      <trkpt lat="49.82363" lon="2.23987">
        <ele>63.8</ele>
        <time>2022-08-17T12:47:52Z</time>
      </trkpt>
      <trkpt lat="49.82362" lon="2.23985">
        <ele>63.9</ele>
        <time>2022-08-17T12:47:53Z</time>
      </trkpt>
      <trkpt lat="49.82361" lon="2.23984">
        <ele>63.9</ele>
        <time>2022-08-17T12:47:54Z</time>
      </trkpt>
      <trkpt lat="49.82361" lon="2.23983">
        <ele>63.9</ele>
        <time>2022-08-17T12:47:56Z</time>
      </trkpt>
      <trkpt lat="49.8236" lon="2.23982">
        <ele>63.9</ele>
        <time>2022-08-17T12:47:57Z</time>
      </trkpt>
      <trkpt lat="49.82359" lon="2.23982">
        <ele>64</ele>
        <time>2022-08-17T12:47:58Z</time>
      </trkpt>
      <trkpt lat="49.82358" lon="2.23981">
        <ele>64</ele>
        <time>2022-08-17T12:47:59Z</time>
      </trkpt>
      <trkpt lat="49.82357" lon="2.2398">
        <ele>64</ele>
        <time>2022-08-17T12:48:00Z</time>
      </trkpt>
      <trkpt lat="49.82356" lon="2.23979">
        <ele>64</ele>
        <time>2022-08-17T12:48:01Z</time>
      </trkpt>
      <trkpt lat="49.82355" lon="2.23979">
        <ele>64</ele>
        <time>2022-08-17T12:48:03Z</time>
      </trkpt>
      <trkpt lat="49.82354" lon="2.23978">
        <ele>64.1</ele>
        <time>2022-08-17T12:48:04Z</time>
      </trkpt>
      <trkpt lat="49.82353" lon="2.23977">
        <ele>64.1</ele>
        <time>2022-08-17T12:48:05Z</time>
      </trkpt>
      <trkpt lat="49.82352" lon="2.23976">
        <ele>64.1</ele>
        <time>2022-08-17T12:48:06Z</time>
      </trkpt>
      <trkpt lat="49.82351" lon="2.23975">
        <ele>64.1</ele>
        <time>2022-08-17T12:48:07Z</time>
      </trkpt>
      <trkpt lat="49.82349" lon="2.23974">
        <ele>64.2</ele>
        <time>2022-08-17T12:48:09Z</time>
      </trkpt>
      <trkpt lat="49.82349" lon="2.23973">
        <ele>64.2</ele>
        <time>2022-08-17T12:48:10Z</time>
      </trkpt>
      <trkpt lat="49.82348" lon="2.23973">
        <ele>64.2</ele>
        <time>2022-08-17T12:48:11Z</time>
      </trkpt>
      <trkpt lat="49.82347" lon="2.23971">
        <ele>64.2</ele>
        <time>2022-08-17T12:48:12Z</time>
      </trkpt>
      <trkpt lat="49.82345" lon="2.2397">
        <ele>64.2</ele>
        <time>2022-08-17T12:48:13Z</time>
      </trkpt>
      <trkpt lat="49.82345" lon="2.23969">
        <ele>64.2</ele>
        <time>2022-08-17T12:48:14Z</time>
      </trkpt>
      <trkpt lat="49.82344" lon="2.23968">
        <ele>64.2</ele>
        <time>2022-08-17T12:48:16Z</time>
      </trkpt>
      <trkpt lat="49.82343" lon="2.23967">
        <ele>64.2</ele>
        <time>2022-08-17T12:48:17Z</time>
      </trkpt>
      <trkpt lat="49.82342" lon="2.23966">
        <ele>64.2</ele>
        <time>2022-08-17T12:48:18Z</time>
      </trkpt>
      <trkpt lat="49.82341" lon="2.23964">
        <ele>64.2</ele>
        <time>2022-08-17T12:48:19Z</time>
      </trkpt>
      <trkpt lat="49.8234" lon="2.23962">
        <ele>64.2</ele>
        <time>2022-08-17T12:48:20Z</time>
      </trkpt>
      <trkpt lat="49.82339" lon="2.23961">
        <ele>64.2</ele>
        <time>2022-08-17T12:48:21Z</time>
      </trkpt>
      <trkpt lat="49.82338" lon="2.2396">
        <ele>64.2</ele>
        <time>2022-08-17T12:48:22Z</time>
      </trkpt>
      <trkpt lat="49.82337" lon="2.23957">
        <ele>64.2</ele>
        <time>2022-08-17T12:48:23Z</time>
      </trkpt>
      <trkpt lat="49.82336" lon="2.23956">
        <ele>64.2</ele>
        <time>2022-08-17T12:48:25Z</time>
      </trkpt>
      <trkpt lat="49.82336" lon="2.23955">
        <ele>64.2</ele>
        <time>2022-08-17T12:48:26Z</time>
      </trkpt>
      <trkpt lat="49.82335" lon="2.23953">
        <ele>64.2</ele>
        <time>2022-08-17T12:48:27Z</time>
      </trkpt>
      <trkpt lat="49.82334" lon="2.23952">
        <ele>64.1</ele>
        <time>2022-08-17T12:48:28Z</time>
      </trkpt>
      <trkpt lat="49.82334" lon="2.23951">
        <ele>64.1</ele>
        <time>2022-08-17T12:48:29Z</time>
      </trkpt>
      <trkpt lat="49.82333" lon="2.23949">
        <ele>64.1</ele>
        <time>2022-08-17T12:48:30Z</time>
      </trkpt>
      <trkpt lat="49.82332" lon="2.23948">
        <ele>64.1</ele>
        <time>2022-08-17T12:48:31Z</time>
      </trkpt>
      <trkpt lat="49.82332" lon="2.23947">
        <ele>64</ele>
        <time>2022-08-17T12:48:33Z</time>
      </trkpt>
      <trkpt lat="49.82331" lon="2.23944">
        <ele>64</ele>
        <time>2022-08-17T12:48:34Z</time>
      </trkpt>
      <trkpt lat="49.8233" lon="2.23944">
        <ele>63.9</ele>
        <time>2022-08-17T12:48:35Z</time>
      </trkpt>
      <trkpt lat="49.8233" lon="2.23943">
        <ele>63.9</ele>
        <time>2022-08-17T12:48:36Z</time>
      </trkpt>
      <trkpt lat="49.82329" lon="2.23941">
        <ele>63.9</ele>
        <time>2022-08-17T12:48:37Z</time>
      </trkpt>
      <trkpt lat="49.82328" lon="2.23938">
        <ele>63.8</ele>
        <time>2022-08-17T12:48:38Z</time>
      </trkpt>
      <trkpt lat="49.82328" lon="2.23937">
        <ele>63.7</ele>
        <time>2022-08-17T12:48:40Z</time>
      </trkpt>
      <trkpt lat="49.82328" lon="2.23936">
        <ele>63.7</ele>
        <time>2022-08-17T12:48:41Z</time>
      </trkpt>
      <trkpt lat="49.82327" lon="2.23934">
        <ele>63.6</ele>
        <time>2022-08-17T12:48:42Z</time>
      </trkpt>
      <trkpt lat="49.82327" lon="2.23931">
        <ele>63.5</ele>
        <time>2022-08-17T12:48:43Z</time>
      </trkpt>
      <trkpt lat="49.82327" lon="2.2393">
        <ele>63.5</ele>
        <time>2022-08-17T12:48:45Z</time>
      </trkpt>
      <trkpt lat="49.82327" lon="2.23928">
        <ele>63.4</ele>
        <time>2022-08-17T12:48:46Z</time>
      </trkpt>
      <trkpt lat="49.82327" lon="2.23925">
        <ele>63.3</ele>
        <time>2022-08-17T12:48:47Z</time>
      </trkpt>
      <trkpt lat="49.82327" lon="2.23924">
        <ele>63.2</ele>
        <time>2022-08-17T12:48:48Z</time>
      </trkpt>
      <trkpt lat="49.82327" lon="2.23922">
        <ele>63.2</ele>
        <time>2022-08-17T12:48:49Z</time>
      </trkpt>
      <trkpt lat="49.82328" lon="2.2392">
        <ele>63</ele>
        <time>2022-08-17T12:48:50Z</time>
      </trkpt>
      <trkpt lat="49.82329" lon="2.23919">
        <ele>63</ele>
        <time>2022-08-17T12:48:51Z</time>
      </trkpt>
      <trkpt lat="49.82329" lon="2.23918">
        <ele>62.9</ele>
        <time>2022-08-17T12:48:53Z</time>
      </trkpt>
      <trkpt lat="49.8233" lon="2.23917">
        <ele>62.8</ele>
        <time>2022-08-17T12:48:54Z</time>
      </trkpt>
      <trkpt lat="49.82331" lon="2.23916">
        <ele>62.8</ele>
        <time>2022-08-17T12:48:55Z</time>
      </trkpt>
      <trkpt lat="49.82331" lon="2.23914">
        <ele>62.7</ele>
        <time>2022-08-17T12:48:56Z</time>
      </trkpt>
      <trkpt lat="49.82333" lon="2.23912">
        <ele>62.5</ele>
        <time>2022-08-17T12:48:57Z</time>
      </trkpt>
      <trkpt lat="49.82333" lon="2.23911">
        <ele>62.5</ele>
        <time>2022-08-17T12:48:58Z</time>
      </trkpt>
      <trkpt lat="49.82334" lon="2.2391">
        <ele>62.4</ele>
        <time>2022-08-17T12:48:59Z</time>
      </trkpt>
      <trkpt lat="49.82335" lon="2.23909">
        <ele>62.3</ele>
        <time>2022-08-17T12:49:00Z</time>
      </trkpt>
      <trkpt lat="49.82335" lon="2.23908">
        <ele>62.2</ele>
        <time>2022-08-17T12:49:01Z</time>
      </trkpt>
      <trkpt lat="49.82336" lon="2.23907">
        <ele>62.2</ele>
        <time>2022-08-17T12:49:03Z</time>
      </trkpt>
      <trkpt lat="49.82338" lon="2.23906">
        <ele>62.1</ele>
        <time>2022-08-17T12:49:04Z</time>
      </trkpt>
      <trkpt lat="49.82338" lon="2.23905">
        <ele>62</ele>
        <time>2022-08-17T12:49:05Z</time>
      </trkpt>
      <trkpt lat="49.82339" lon="2.23904">
        <ele>61.9</ele>
        <time>2022-08-17T12:49:06Z</time>
      </trkpt>
      <trkpt lat="49.8234" lon="2.23903">
        <ele>61.8</ele>
        <time>2022-08-17T12:49:07Z</time>
      </trkpt>
      <trkpt lat="49.8234" lon="2.23902">
        <ele>61.7</ele>
        <time>2022-08-17T12:49:08Z</time>
      </trkpt>
      <trkpt lat="49.82341" lon="2.239">
        <ele>61.6</ele>
        <time>2022-08-17T12:49:09Z</time>
      </trkpt>
      <trkpt lat="49.82343" lon="2.23898">
        <ele>61.5</ele>
        <time>2022-08-17T12:49:10Z</time>
      </trkpt>
      <trkpt lat="49.82343" lon="2.23897">
        <ele>61.4</ele>
        <time>2022-08-17T12:49:11Z</time>
      </trkpt>
      <trkpt lat="49.82344" lon="2.23896">
        <ele>61.4</ele>
        <time>2022-08-17T12:49:13Z</time>
      </trkpt>
      <trkpt lat="49.82345" lon="2.23895">
        <ele>61.3</ele>
        <time>2022-08-17T12:49:14Z</time>
      </trkpt>
      <trkpt lat="49.82345" lon="2.23894">
        <ele>61.2</ele>
        <time>2022-08-17T12:49:15Z</time>
      </trkpt>
      <trkpt lat="49.82346" lon="2.23893">
        <ele>61.1</ele>
        <time>2022-08-17T12:49:16Z</time>
      </trkpt>
      <trkpt lat="49.82348" lon="2.2389">
        <ele>61</ele>
        <time>2022-08-17T12:49:18Z</time>
      </trkpt>
      <trkpt lat="49.82348" lon="2.23889">
        <ele>60.9</ele>
        <time>2022-08-17T12:49:19Z</time>
      </trkpt>
      <trkpt lat="49.82349" lon="2.23886">
        <ele>60.8</ele>
        <time>2022-08-17T12:49:20Z</time>
      </trkpt>
      <trkpt lat="49.82349" lon="2.23885">
        <ele>60.7</ele>
        <time>2022-08-17T12:49:21Z</time>
      </trkpt>
      <trkpt lat="49.8235" lon="2.23883">
        <ele>60.7</ele>
        <time>2022-08-17T12:49:23Z</time>
      </trkpt>
      <trkpt lat="49.8235" lon="2.23882">
        <ele>60.6</ele>
        <time>2022-08-17T12:49:24Z</time>
      </trkpt>
      <trkpt lat="49.8235" lon="2.2388">
        <ele>60.5</ele>
        <time>2022-08-17T12:49:25Z</time>
      </trkpt>
      <trkpt lat="49.82351" lon="2.23879">
        <ele>60.5</ele>
        <time>2022-08-17T12:49:26Z</time>
      </trkpt>
      <trkpt lat="49.82351" lon="2.23877">
        <ele>60.4</ele>
        <time>2022-08-17T12:49:27Z</time>
      </trkpt>
      <trkpt lat="49.82352" lon="2.23876">
        <ele>60.4</ele>
        <time>2022-08-17T12:49:28Z</time>
      </trkpt>
      <trkpt lat="49.82352" lon="2.23874">
        <ele>60.3</ele>
        <time>2022-08-17T12:49:30Z</time>
      </trkpt>
      <trkpt lat="49.82352" lon="2.23872">
        <ele>60.3</ele>
        <time>2022-08-17T12:49:31Z</time>
      </trkpt>
      <trkpt lat="49.82353" lon="2.23871">
        <ele>60.3</ele>
        <time>2022-08-17T12:49:32Z</time>
      </trkpt>
      <trkpt lat="49.82353" lon="2.2387">
        <ele>60.2</ele>
        <time>2022-08-17T12:49:33Z</time>
      </trkpt>
      <trkpt lat="49.82354" lon="2.23868">
        <ele>60.2</ele>
        <time>2022-08-17T12:49:34Z</time>
      </trkpt>
      <trkpt lat="49.82354" lon="2.23866">
        <ele>60.1</ele>
        <time>2022-08-17T12:49:35Z</time>
      </trkpt>
      <trkpt lat="49.82355" lon="2.23865">
        <ele>60.1</ele>
        <time>2022-08-17T12:49:36Z</time>
      </trkpt>
      <trkpt lat="49.82355" lon="2.23864">
        <ele>60.1</ele>
        <time>2022-08-17T12:49:38Z</time>
      </trkpt>
      <trkpt lat="49.82356" lon="2.23863">
        <ele>60.1</ele>
        <time>2022-08-17T12:49:39Z</time>
      </trkpt>
      <trkpt lat="49.82356" lon="2.23861">
        <ele>60</ele>
        <time>2022-08-17T12:49:40Z</time>
      </trkpt>
      <trkpt lat="49.82356" lon="2.23859">
        <ele>60</ele>
        <time>2022-08-17T12:49:41Z</time>
      </trkpt>
      <trkpt lat="49.82357" lon="2.23857">
        <ele>60</ele>
        <time>2022-08-17T12:49:42Z</time>
      </trkpt>
      <trkpt lat="49.82357" lon="2.23854">
        <ele>60</ele>
        <time>2022-08-17T12:49:44Z</time>
      </trkpt>
      <trkpt lat="49.82356" lon="2.23851">
        <ele>60</ele>
        <time>2022-08-17T12:49:45Z</time>
      </trkpt>
      <trkpt lat="49.82355" lon="2.2385">
        <ele>60</ele>
        <time>2022-08-17T12:49:46Z</time>
      </trkpt>
      <trkpt lat="49.82355" lon="2.23849">
        <ele>59.9</ele>
        <time>2022-08-17T12:49:47Z</time>
      </trkpt>
      <trkpt lat="49.82353" lon="2.23847">
        <ele>59.9</ele>
        <time>2022-08-17T12:49:48Z</time>
      </trkpt>
      <trkpt lat="49.82352" lon="2.23846">
        <ele>59.9</ele>
        <time>2022-08-17T12:49:49Z</time>
      </trkpt>
      <trkpt lat="49.8235" lon="2.23845">
        <ele>60</ele>
        <time>2022-08-17T12:49:50Z</time>
      </trkpt>
      <trkpt lat="49.82349" lon="2.23845">
        <ele>60</ele>
        <time>2022-08-17T12:49:52Z</time>
      </trkpt>
      <trkpt lat="49.82348" lon="2.23844">
        <ele>60</ele>
        <time>2022-08-17T12:49:53Z</time>
      </trkpt>
      <trkpt lat="49.82346" lon="2.23843">
        <ele>60</ele>
        <time>2022-08-17T12:49:54Z</time>
      </trkpt>
      <trkpt lat="49.82345" lon="2.23842">
        <ele>60</ele>
        <time>2022-08-17T12:49:55Z</time>
      </trkpt>
      <trkpt lat="49.82344" lon="2.23842">
        <ele>60</ele>
        <time>2022-08-17T12:49:56Z</time>
      </trkpt>
      <trkpt lat="49.82342" lon="2.23841">
        <ele>60.1</ele>
        <time>2022-08-17T12:49:57Z</time>
      </trkpt>
      <trkpt lat="49.8234" lon="2.23841">
        <ele>60.1</ele>
        <time>2022-08-17T12:49:58Z</time>
      </trkpt>
      <trkpt lat="49.82337" lon="2.2384">
        <ele>60.1</ele>
        <time>2022-08-17T12:49:59Z</time>
      </trkpt>
      <trkpt lat="49.82336" lon="2.2384">
        <ele>60.1</ele>
        <time>2022-08-17T12:50:00Z</time>
      </trkpt>
      <trkpt lat="49.82334" lon="2.2384">
        <ele>60.2</ele>
        <time>2022-08-17T12:50:01Z</time>
      </trkpt>
      <trkpt lat="49.82332" lon="2.23839">
        <ele>60.2</ele>
        <time>2022-08-17T12:50:03Z</time>
      </trkpt>
      <trkpt lat="49.82329" lon="2.23838">
        <ele>60.3</ele>
        <time>2022-08-17T12:50:04Z</time>
      </trkpt>
      <trkpt lat="49.82328" lon="2.23838">
        <ele>60.3</ele>
        <time>2022-08-17T12:50:05Z</time>
      </trkpt>
      <trkpt lat="49.82325" lon="2.23838">
        <ele>60.3</ele>
        <time>2022-08-17T12:50:06Z</time>
      </trkpt>
      <trkpt lat="49.82324" lon="2.23838">
        <ele>60.3</ele>
        <time>2022-08-17T12:50:07Z</time>
      </trkpt>
      <trkpt lat="49.82321" lon="2.23838">
        <ele>60.4</ele>
        <time>2022-08-17T12:50:08Z</time>
      </trkpt>
      <trkpt lat="49.8232" lon="2.23837">
        <ele>60.4</ele>
        <time>2022-08-17T12:50:09Z</time>
      </trkpt>
      <trkpt lat="49.82317" lon="2.23837">
        <ele>60.4</ele>
        <time>2022-08-17T12:50:10Z</time>
      </trkpt>
      <trkpt lat="49.82316" lon="2.23837">
        <ele>60.4</ele>
        <time>2022-08-17T12:50:11Z</time>
      </trkpt>
      <trkpt lat="49.82313" lon="2.23836">
        <ele>60.4</ele>
        <time>2022-08-17T12:50:12Z</time>
      </trkpt>
      <trkpt lat="49.82312" lon="2.23836">
        <ele>60.4</ele>
        <time>2022-08-17T12:50:13Z</time>
      </trkpt>
      <trkpt lat="49.82309" lon="2.23836">
        <ele>60.5</ele>
        <time>2022-08-17T12:50:15Z</time>
      </trkpt>
      <trkpt lat="49.82308" lon="2.23836">
        <ele>60.5</ele>
        <time>2022-08-17T12:50:16Z</time>
      </trkpt>
      <trkpt lat="49.82306" lon="2.23837">
        <ele>60.5</ele>
        <time>2022-08-17T12:50:17Z</time>
      </trkpt>
      <trkpt lat="49.82305" lon="2.23837">
        <ele>60.5</ele>
        <time>2022-08-17T12:50:18Z</time>
      </trkpt>
      <trkpt lat="49.82303" lon="2.23838">
        <ele>60.5</ele>
        <time>2022-08-17T12:50:19Z</time>
      </trkpt>
      <trkpt lat="49.82302" lon="2.23838">
        <ele>60.5</ele>
        <time>2022-08-17T12:50:20Z</time>
      </trkpt>
      <trkpt lat="49.82301" lon="2.23838">
        <ele>60.5</ele>
        <time>2022-08-17T12:50:21Z</time>
      </trkpt>
      <trkpt lat="49.82299" lon="2.23839">
        <ele>60.5</ele>
        <time>2022-08-17T12:50:22Z</time>
      </trkpt>
      <trkpt lat="49.82298" lon="2.23839">
        <ele>60.5</ele>
        <time>2022-08-17T12:50:23Z</time>
      </trkpt>
      <trkpt lat="49.82297" lon="2.23839">
        <ele>60.5</ele>
        <time>2022-08-17T12:50:24Z</time>
      </trkpt>
      <trkpt lat="49.82296" lon="2.23838">
        <ele>60.5</ele>
        <time>2022-08-17T12:50:26Z</time>
      </trkpt>
      <trkpt lat="49.82295" lon="2.23838">
        <ele>60.6</ele>
        <time>2022-08-17T12:50:27Z</time>
      </trkpt>
      <trkpt lat="49.82294" lon="2.23838">
        <ele>60.6</ele>
        <time>2022-08-17T12:50:28Z</time>
      </trkpt>
      <trkpt lat="49.82294" lon="2.23838">
        <ele>60.6</ele>
        <time>2022-08-17T12:50:29Z</time>
      </trkpt>
      <trkpt lat="49.82293" lon="2.23837">
        <ele>60.6</ele>
        <time>2022-08-17T12:50:30Z</time>
      </trkpt>
      <trkpt lat="49.82292" lon="2.23837">
        <ele>60.6</ele>
        <time>2022-08-17T12:50:31Z</time>
      </trkpt>
      <trkpt lat="49.82291" lon="2.23837">
        <ele>60.6</ele>
        <time>2022-08-17T12:50:32Z</time>
      </trkpt>
      <trkpt lat="49.8229" lon="2.23836">
        <ele>60.6</ele>
        <time>2022-08-17T12:50:33Z</time>
      </trkpt>
      <trkpt lat="49.82289" lon="2.23835">
        <ele>60.6</ele>
        <time>2022-08-17T12:50:34Z</time>
      </trkpt>
      <trkpt lat="49.82287" lon="2.23835">
        <ele>60.6</ele>
        <time>2022-08-17T12:50:35Z</time>
      </trkpt>
      <trkpt lat="49.82286" lon="2.23834">
        <ele>60.6</ele>
        <time>2022-08-17T12:50:37Z</time>
      </trkpt>
      <trkpt lat="49.82284" lon="2.23834">
        <ele>60.6</ele>
        <time>2022-08-17T12:50:38Z</time>
      </trkpt>
      <trkpt lat="49.82283" lon="2.23833">
        <ele>60.6</ele>
        <time>2022-08-17T12:50:39Z</time>
      </trkpt>
      <trkpt lat="49.82282" lon="2.23832">
        <ele>60.6</ele>
        <time>2022-08-17T12:50:40Z</time>
      </trkpt>
      <trkpt lat="49.82281" lon="2.23832">
        <ele>60.5</ele>
        <time>2022-08-17T12:50:41Z</time>
      </trkpt>
      <trkpt lat="49.82279" lon="2.2383">
        <ele>60.5</ele>
        <time>2022-08-17T12:50:42Z</time>
      </trkpt>
      <trkpt lat="49.82278" lon="2.2383">
        <ele>60.5</ele>
        <time>2022-08-17T12:50:43Z</time>
      </trkpt>
      <trkpt lat="49.82278" lon="2.23829">
        <ele>60.5</ele>
        <time>2022-08-17T12:50:44Z</time>
      </trkpt>
      <trkpt lat="49.82276" lon="2.23828">
        <ele>60.5</ele>
        <time>2022-08-17T12:50:45Z</time>
      </trkpt>
      <trkpt lat="49.82275" lon="2.23827">
        <ele>60.5</ele>
        <time>2022-08-17T12:50:46Z</time>
      </trkpt>
      <trkpt lat="49.82274" lon="2.23827">
        <ele>60.5</ele>
        <time>2022-08-17T12:50:47Z</time>
      </trkpt>
      <trkpt lat="49.82273" lon="2.23826">
        <ele>60.5</ele>
        <time>2022-08-17T12:50:48Z</time>
      </trkpt>
      <trkpt lat="49.82272" lon="2.23825">
        <ele>60.5</ele>
        <time>2022-08-17T12:50:50Z</time>
      </trkpt>
      <trkpt lat="49.82271" lon="2.23824">
        <ele>60.5</ele>
        <time>2022-08-17T12:50:51Z</time>
      </trkpt>
      <trkpt lat="49.82271" lon="2.23824">
        <ele>60.5</ele>
        <time>2022-08-17T12:50:52Z</time>
      </trkpt>
      <trkpt lat="49.8227" lon="2.23823">
        <ele>60.5</ele>
        <time>2022-08-17T12:50:53Z</time>
      </trkpt>
      <trkpt lat="49.82268" lon="2.23822">
        <ele>60.4</ele>
        <time>2022-08-17T12:50:55Z</time>
      </trkpt>
      <trkpt lat="49.82266" lon="2.23821">
        <ele>60.4</ele>
        <time>2022-08-17T12:50:56Z</time>
      </trkpt>
      <trkpt lat="49.82265" lon="2.2382">
        <ele>60.4</ele>
        <time>2022-08-17T12:50:57Z</time>
      </trkpt>
      <trkpt lat="49.82265" lon="2.2382">
        <ele>60.4</ele>
        <time>2022-08-17T12:50:58Z</time>
      </trkpt>
      <trkpt lat="49.82264" lon="2.23819">
        <ele>60.4</ele>
        <time>2022-08-17T12:50:59Z</time>
      </trkpt>
      <trkpt lat="49.82262" lon="2.23818">
        <ele>60.4</ele>
        <time>2022-08-17T12:51:00Z</time>
      </trkpt>
      <trkpt lat="49.82261" lon="2.23817">
        <ele>60.4</ele>
        <time>2022-08-17T12:51:01Z</time>
      </trkpt>
      <trkpt lat="49.8226" lon="2.23816">
        <ele>60.4</ele>
        <time>2022-08-17T12:51:02Z</time>
      </trkpt>
      <trkpt lat="49.82259" lon="2.23816">
        <ele>60.4</ele>
        <time>2022-08-17T12:51:03Z</time>
      </trkpt>
      <trkpt lat="49.82259" lon="2.23815">
        <ele>60.4</ele>
        <time>2022-08-17T12:51:05Z</time>
      </trkpt>
      <trkpt lat="49.82258" lon="2.23815">
        <ele>60.4</ele>
        <time>2022-08-17T12:51:06Z</time>
      </trkpt>
      <trkpt lat="49.82257" lon="2.23814">
        <ele>60.4</ele>
        <time>2022-08-17T12:51:07Z</time>
      </trkpt>
      <trkpt lat="49.82257" lon="2.23814">
        <ele>60.4</ele>
        <time>2022-08-17T12:51:08Z</time>
      </trkpt>
      <trkpt lat="49.82255" lon="2.23813">
        <ele>60.4</ele>
        <time>2022-08-17T12:51:09Z</time>
      </trkpt>
      <trkpt lat="49.82254" lon="2.23813">
        <ele>60.4</ele>
        <time>2022-08-17T12:51:10Z</time>
      </trkpt>
      <trkpt lat="49.82252" lon="2.23812">
        <ele>60.4</ele>
        <time>2022-08-17T12:51:11Z</time>
      </trkpt>
      <trkpt lat="49.82251" lon="2.23811">
        <ele>60.4</ele>
        <time>2022-08-17T12:51:12Z</time>
      </trkpt>
      <trkpt lat="49.8225" lon="2.23811">
        <ele>60.4</ele>
        <time>2022-08-17T12:51:13Z</time>
      </trkpt>
      <trkpt lat="49.8225" lon="2.23811">
        <ele>60.4</ele>
        <time>2022-08-17T12:51:15Z</time>
      </trkpt>
      <trkpt lat="49.82249" lon="2.2381">
        <ele>60.4</ele>
        <time>2022-08-17T12:51:16Z</time>
      </trkpt>
      <trkpt lat="49.82247" lon="2.2381">
        <ele>60.4</ele>
        <time>2022-08-17T12:51:17Z</time>
      </trkpt>
      <trkpt lat="49.82246" lon="2.23809">
        <ele>60.4</ele>
        <time>2022-08-17T12:51:18Z</time>
      </trkpt>
      <trkpt lat="49.82245" lon="2.23809">
        <ele>60.4</ele>
        <time>2022-08-17T12:51:19Z</time>
      </trkpt>
      <trkpt lat="49.82244" lon="2.23807">
        <ele>60.4</ele>
        <time>2022-08-17T12:51:20Z</time>
      </trkpt>
      <trkpt lat="49.82244" lon="2.23805">
        <ele>60.4</ele>
        <time>2022-08-17T12:51:22Z</time>
      </trkpt>
      <trkpt lat="49.82243" lon="2.23804">
        <ele>60.4</ele>
        <time>2022-08-17T12:51:23Z</time>
      </trkpt>
      <trkpt lat="49.82241" lon="2.23803">
        <ele>60.3</ele>
        <time>2022-08-17T12:51:25Z</time>
      </trkpt>
      <trkpt lat="49.82239" lon="2.23802">
        <ele>60.3</ele>
        <time>2022-08-17T12:51:26Z</time>
      </trkpt>
      <trkpt lat="49.82238" lon="2.23802">
        <ele>60.3</ele>
        <time>2022-08-17T12:51:27Z</time>
      </trkpt>
      <trkpt lat="49.82237" lon="2.23802">
        <ele>60.3</ele>
        <time>2022-08-17T12:51:28Z</time>
      </trkpt>
      <trkpt lat="49.82236" lon="2.23801">
        <ele>60.3</ele>
        <time>2022-08-17T12:51:29Z</time>
      </trkpt>
      <trkpt lat="49.82235" lon="2.23801">
        <ele>60.3</ele>
        <time>2022-08-17T12:51:30Z</time>
      </trkpt>
      <trkpt lat="49.82233" lon="2.238">
        <ele>60.3</ele>
        <time>2022-08-17T12:51:31Z</time>
      </trkpt>
      <trkpt lat="49.82232" lon="2.23799">
        <ele>60.3</ele>
        <time>2022-08-17T12:51:32Z</time>
      </trkpt>
      <trkpt lat="49.82231" lon="2.23799">
        <ele>60.3</ele>
        <time>2022-08-17T12:51:33Z</time>
      </trkpt>
      <trkpt lat="49.8223" lon="2.23798">
        <ele>60.3</ele>
        <time>2022-08-17T12:51:34Z</time>
      </trkpt>
      <trkpt lat="49.82229" lon="2.23797">
        <ele>60.3</ele>
        <time>2022-08-17T12:51:36Z</time>
      </trkpt>
      <trkpt lat="49.82227" lon="2.23796">
        <ele>60.2</ele>
        <time>2022-08-17T12:51:37Z</time>
      </trkpt>
      <trkpt lat="49.82226" lon="2.23796">
        <ele>60.2</ele>
        <time>2022-08-17T12:51:38Z</time>
      </trkpt>
      <trkpt lat="49.82224" lon="2.23795">
        <ele>60.2</ele>
        <time>2022-08-17T12:51:39Z</time>
      </trkpt>
      <trkpt lat="49.82223" lon="2.23794">
        <ele>60.2</ele>
        <time>2022-08-17T12:51:40Z</time>
      </trkpt>
      <trkpt lat="49.82222" lon="2.23794">
        <ele>60.2</ele>
        <time>2022-08-17T12:51:41Z</time>
      </trkpt>
      <trkpt lat="49.82221" lon="2.23793">
        <ele>60.2</ele>
        <time>2022-08-17T12:51:42Z</time>
      </trkpt>
      <trkpt lat="49.8222" lon="2.23793">
        <ele>60.2</ele>
        <time>2022-08-17T12:51:43Z</time>
      </trkpt>
      <trkpt lat="49.82219" lon="2.23793">
        <ele>60.2</ele>
        <time>2022-08-17T12:51:44Z</time>
      </trkpt>
      <trkpt lat="49.82218" lon="2.23793">
        <ele>60.2</ele>
        <time>2022-08-17T12:51:46Z</time>
      </trkpt>
      <trkpt lat="49.82217" lon="2.23793">
        <ele>60.2</ele>
        <time>2022-08-17T12:51:47Z</time>
      </trkpt>
      <trkpt lat="49.82216" lon="2.23794">
        <ele>60.2</ele>
        <time>2022-08-17T12:51:48Z</time>
      </trkpt>
      <trkpt lat="49.82215" lon="2.23793">
        <ele>60.2</ele>
        <time>2022-08-17T12:51:49Z</time>
      </trkpt>
      <trkpt lat="49.82213" lon="2.23792">
        <ele>60.2</ele>
        <time>2022-08-17T12:51:50Z</time>
      </trkpt>
      <trkpt lat="49.82212" lon="2.23791">
        <ele>60.2</ele>
        <time>2022-08-17T12:51:51Z</time>
      </trkpt>
      <trkpt lat="49.82211" lon="2.2379">
        <ele>60.2</ele>
        <time>2022-08-17T12:51:52Z</time>
      </trkpt>
      <trkpt lat="49.82209" lon="2.2379">
        <ele>60.2</ele>
        <time>2022-08-17T12:51:54Z</time>
      </trkpt>
      <trkpt lat="49.82208" lon="2.23789">
        <ele>60.2</ele>
        <time>2022-08-17T12:51:55Z</time>
      </trkpt>
      <trkpt lat="49.82207" lon="2.23789">
        <ele>60.2</ele>
        <time>2022-08-17T12:51:56Z</time>
      </trkpt>
      <trkpt lat="49.82205" lon="2.23788">
        <ele>60.3</ele>
        <time>2022-08-17T12:51:57Z</time>
      </trkpt>
      <trkpt lat="49.82204" lon="2.23788">
        <ele>60.3</ele>
        <time>2022-08-17T12:51:58Z</time>
      </trkpt>
      <trkpt lat="49.82203" lon="2.23788">
        <ele>60.3</ele>
        <time>2022-08-17T12:51:59Z</time>
      </trkpt>
      <trkpt lat="49.82202" lon="2.23787">
        <ele>60.3</ele>
        <time>2022-08-17T12:52:00Z</time>
      </trkpt>
      <trkpt lat="49.822" lon="2.23786">
        <ele>60.3</ele>
        <time>2022-08-17T12:52:01Z</time>
      </trkpt>
      <trkpt lat="49.82199" lon="2.23786">
        <ele>60.3</ele>
        <time>2022-08-17T12:52:02Z</time>
      </trkpt>
      <trkpt lat="49.82198" lon="2.23785">
        <ele>60.3</ele>
        <time>2022-08-17T12:52:03Z</time>
      </trkpt>
      <trkpt lat="49.82197" lon="2.23785">
        <ele>60.3</ele>
        <time>2022-08-17T12:52:05Z</time>
      </trkpt>
      <trkpt lat="49.82196" lon="2.23784">
        <ele>60.4</ele>
        <time>2022-08-17T12:52:06Z</time>
      </trkpt>
      <trkpt lat="49.82195" lon="2.23784">
        <ele>60.4</ele>
        <time>2022-08-17T12:52:07Z</time>
      </trkpt>
      <trkpt lat="49.82194" lon="2.23783">
        <ele>60.4</ele>
        <time>2022-08-17T12:52:08Z</time>
      </trkpt>
      <trkpt lat="49.82192" lon="2.23783">
        <ele>60.4</ele>
        <time>2022-08-17T12:52:09Z</time>
      </trkpt>
      <trkpt lat="49.8219" lon="2.23782">
        <ele>60.4</ele>
        <time>2022-08-17T12:52:10Z</time>
      </trkpt>
      <trkpt lat="49.82189" lon="2.23782">
        <ele>60.4</ele>
        <time>2022-08-17T12:52:11Z</time>
      </trkpt>
      <trkpt lat="49.82187" lon="2.23781">
        <ele>60.5</ele>
        <time>2022-08-17T12:52:13Z</time>
      </trkpt>
      <trkpt lat="49.82186" lon="2.23781">
        <ele>60.5</ele>
        <time>2022-08-17T12:52:14Z</time>
      </trkpt>
      <trkpt lat="49.82186" lon="2.23781">
        <ele>60.5</ele>
        <time>2022-08-17T12:52:15Z</time>
      </trkpt>
      <trkpt lat="49.82183" lon="2.2378">
        <ele>60.5</ele>
        <time>2022-08-17T12:52:16Z</time>
      </trkpt>
      <trkpt lat="49.82182" lon="2.2378">
        <ele>60.5</ele>
        <time>2022-08-17T12:52:17Z</time>
      </trkpt>
      <trkpt lat="49.82182" lon="2.2378">
        <ele>60.5</ele>
        <time>2022-08-17T12:52:18Z</time>
      </trkpt>
      <trkpt lat="49.8218" lon="2.23779">
        <ele>60.6</ele>
        <time>2022-08-17T12:52:20Z</time>
      </trkpt>
      <trkpt lat="49.82179" lon="2.23779">
        <ele>60.6</ele>
        <time>2022-08-17T12:52:21Z</time>
      </trkpt>
      <trkpt lat="49.82178" lon="2.2378">
        <ele>60.6</ele>
        <time>2022-08-17T12:52:22Z</time>
      </trkpt>
      <trkpt lat="49.82177" lon="2.23781">
        <ele>60.6</ele>
        <time>2022-08-17T12:52:23Z</time>
      </trkpt>
      <trkpt lat="49.82176" lon="2.23781">
        <ele>60.6</ele>
        <time>2022-08-17T12:52:24Z</time>
      </trkpt>
      <trkpt lat="49.82174" lon="2.23781">
        <ele>60.6</ele>
        <time>2022-08-17T12:52:25Z</time>
      </trkpt>
      <trkpt lat="49.82173" lon="2.2378">
        <ele>60.6</ele>
        <time>2022-08-17T12:52:26Z</time>
      </trkpt>
      <trkpt lat="49.82171" lon="2.2378">
        <ele>60.6</ele>
        <time>2022-08-17T12:52:27Z</time>
      </trkpt>
      <trkpt lat="49.82169" lon="2.2378">
        <ele>60.6</ele>
        <time>2022-08-17T12:52:28Z</time>
      </trkpt>
      <trkpt lat="49.82169" lon="2.23781">
        <ele>60.6</ele>
        <time>2022-08-17T12:52:30Z</time>
      </trkpt>
      <trkpt lat="49.82168" lon="2.2378">
        <ele>60.6</ele>
        <time>2022-08-17T12:52:31Z</time>
      </trkpt>
      <trkpt lat="49.82166" lon="2.2378">
        <ele>60.6</ele>
        <time>2022-08-17T12:52:32Z</time>
      </trkpt>
      <trkpt lat="49.82165" lon="2.23779">
        <ele>60.6</ele>
        <time>2022-08-17T12:52:33Z</time>
      </trkpt>
      <trkpt lat="49.82163" lon="2.23779">
        <ele>60.7</ele>
        <time>2022-08-17T12:52:34Z</time>
      </trkpt>
      <trkpt lat="49.82161" lon="2.23778">
        <ele>60.7</ele>
        <time>2022-08-17T12:52:35Z</time>
      </trkpt>
      <trkpt lat="49.8216" lon="2.23778">
        <ele>60.7</ele>
        <time>2022-08-17T12:52:36Z</time>
      </trkpt>
      <trkpt lat="49.82157" lon="2.23777">
        <ele>60.7</ele>
        <time>2022-08-17T12:52:38Z</time>
      </trkpt>
      <trkpt lat="49.82156" lon="2.23777">
        <ele>60.7</ele>
        <time>2022-08-17T12:52:39Z</time>
      </trkpt>
      <trkpt lat="49.82155" lon="2.23776">
        <ele>60.7</ele>
        <time>2022-08-17T12:52:40Z</time>
      </trkpt>
      <trkpt lat="49.82154" lon="2.23776">
        <ele>60.7</ele>
        <time>2022-08-17T12:52:42Z</time>
      </trkpt>
      <trkpt lat="49.82152" lon="2.23776">
        <ele>60.7</ele>
        <time>2022-08-17T12:52:43Z</time>
      </trkpt>
      <trkpt lat="49.82152" lon="2.23776">
        <ele>60.7</ele>
        <time>2022-08-17T12:52:44Z</time>
      </trkpt>
      <trkpt lat="49.82151" lon="2.23776">
        <ele>60.7</ele>
        <time>2022-08-17T12:52:45Z</time>
      </trkpt>
      <trkpt lat="49.82151" lon="2.23776">
        <ele>60.7</ele>
        <time>2022-08-17T12:52:46Z</time>
      </trkpt>
      <trkpt lat="49.8215" lon="2.23775">
        <ele>60.7</ele>
        <time>2022-08-17T12:52:47Z</time>
      </trkpt>
      <trkpt lat="49.82148" lon="2.23775">
        <ele>60.7</ele>
        <time>2022-08-17T12:52:48Z</time>
      </trkpt>
      <trkpt lat="49.82146" lon="2.23774">
        <ele>60.7</ele>
        <time>2022-08-17T12:52:49Z</time>
      </trkpt>
      <trkpt lat="49.82146" lon="2.23774">
        <ele>60.7</ele>
        <time>2022-08-17T12:52:50Z</time>
      </trkpt>
      <trkpt lat="49.82145" lon="2.23773">
        <ele>60.7</ele>
        <time>2022-08-17T12:52:51Z</time>
      </trkpt>
      <trkpt lat="49.82144" lon="2.23773">
        <ele>60.8</ele>
        <time>2022-08-17T12:52:52Z</time>
      </trkpt>
      <trkpt lat="49.82143" lon="2.23772">
        <ele>60.8</ele>
        <time>2022-08-17T12:52:54Z</time>
      </trkpt>
      <trkpt lat="49.82141" lon="2.23772">
        <ele>60.8</ele>
        <time>2022-08-17T12:52:55Z</time>
      </trkpt>
      <trkpt lat="49.8214" lon="2.23772">
        <ele>60.8</ele>
        <time>2022-08-17T12:52:56Z</time>
      </trkpt>
      <trkpt lat="49.82139" lon="2.23772">
        <ele>60.8</ele>
        <time>2022-08-17T12:52:57Z</time>
      </trkpt>
      <trkpt lat="49.82138" lon="2.23772">
        <ele>60.8</ele>
        <time>2022-08-17T12:52:58Z</time>
      </trkpt>
      <trkpt lat="49.82137" lon="2.23772">
        <ele>60.8</ele>
        <time>2022-08-17T12:52:59Z</time>
      </trkpt>
      <trkpt lat="49.82136" lon="2.23772">
        <ele>60.8</ele>
        <time>2022-08-17T12:53:00Z</time>
      </trkpt>
      <trkpt lat="49.82135" lon="2.23772">
        <ele>60.8</ele>
        <time>2022-08-17T12:53:01Z</time>
      </trkpt>
      <trkpt lat="49.82134" lon="2.23771">
        <ele>60.8</ele>
        <time>2022-08-17T12:53:02Z</time>
      </trkpt>
      <trkpt lat="49.82133" lon="2.23771">
        <ele>60.8</ele>
        <time>2022-08-17T12:53:03Z</time>
      </trkpt>
      <trkpt lat="49.82131" lon="2.23771">
        <ele>60.8</ele>
        <time>2022-08-17T12:53:04Z</time>
      </trkpt>
      <trkpt lat="49.8213" lon="2.23771">
        <ele>60.7</ele>
        <time>2022-08-17T12:53:05Z</time>
      </trkpt>
      <trkpt lat="49.82129" lon="2.23771">
        <ele>60.7</ele>
        <time>2022-08-17T12:53:06Z</time>
      </trkpt>
      <trkpt lat="49.82128" lon="2.23771">
        <ele>60.7</ele>
        <time>2022-08-17T12:53:08Z</time>
      </trkpt>
      <trkpt lat="49.82127" lon="2.23771">
        <ele>60.7</ele>
        <time>2022-08-17T12:53:09Z</time>
      </trkpt>
      <trkpt lat="49.82125" lon="2.2377">
        <ele>60.7</ele>
        <time>2022-08-17T12:53:10Z</time>
      </trkpt>
      <trkpt lat="49.82124" lon="2.23769">
        <ele>60.7</ele>
        <time>2022-08-17T12:53:11Z</time>
      </trkpt>
      <trkpt lat="49.82124" lon="2.23769">
        <ele>60.7</ele>
        <time>2022-08-17T12:53:12Z</time>
      </trkpt>
      <trkpt lat="49.82122" lon="2.23768">
        <ele>60.7</ele>
        <time>2022-08-17T12:53:13Z</time>
      </trkpt>
      <trkpt lat="49.82121" lon="2.23767">
        <ele>60.7</ele>
        <time>2022-08-17T12:53:14Z</time>
      </trkpt>
      <trkpt lat="49.8212" lon="2.23767">
        <ele>60.7</ele>
        <time>2022-08-17T12:53:15Z</time>
      </trkpt>
      <trkpt lat="49.82119" lon="2.23767">
        <ele>60.7</ele>
        <time>2022-08-17T12:53:16Z</time>
      </trkpt>
      <trkpt lat="49.82117" lon="2.23766">
        <ele>60.7</ele>
        <time>2022-08-17T12:53:18Z</time>
      </trkpt>
      <trkpt lat="49.82116" lon="2.23766">
        <ele>60.7</ele>
        <time>2022-08-17T12:53:19Z</time>
      </trkpt>
      <trkpt lat="49.82114" lon="2.23765">
        <ele>60.7</ele>
        <time>2022-08-17T12:53:20Z</time>
      </trkpt>
      <trkpt lat="49.82113" lon="2.23765">
        <ele>60.7</ele>
        <time>2022-08-17T12:53:21Z</time>
      </trkpt>
      <trkpt lat="49.82112" lon="2.23764">
        <ele>60.7</ele>
        <time>2022-08-17T12:53:22Z</time>
      </trkpt>
      <trkpt lat="49.82111" lon="2.23764">
        <ele>60.7</ele>
        <time>2022-08-17T12:53:23Z</time>
      </trkpt>
      <trkpt lat="49.82109" lon="2.23763">
        <ele>60.7</ele>
        <time>2022-08-17T12:53:24Z</time>
      </trkpt>
      <trkpt lat="49.82108" lon="2.23763">
        <ele>60.7</ele>
        <time>2022-08-17T12:53:25Z</time>
      </trkpt>
      <trkpt lat="49.82107" lon="2.23762">
        <ele>60.7</ele>
        <time>2022-08-17T12:53:26Z</time>
      </trkpt>
      <trkpt lat="49.82106" lon="2.23762">
        <ele>60.7</ele>
        <time>2022-08-17T12:53:27Z</time>
      </trkpt>
      <trkpt lat="49.82104" lon="2.23761">
        <ele>60.6</ele>
        <time>2022-08-17T12:53:29Z</time>
      </trkpt>
      <trkpt lat="49.82102" lon="2.2376">
        <ele>60.6</ele>
        <time>2022-08-17T12:53:30Z</time>
      </trkpt>
      <trkpt lat="49.82102" lon="2.2376">
        <ele>60.6</ele>
        <time>2022-08-17T12:53:31Z</time>
      </trkpt>
      <trkpt lat="49.82101" lon="2.23759">
        <ele>60.6</ele>
        <time>2022-08-17T12:53:32Z</time>
      </trkpt>
      <trkpt lat="49.821" lon="2.23758">
        <ele>60.6</ele>
        <time>2022-08-17T12:53:33Z</time>
      </trkpt>
      <trkpt lat="49.82097" lon="2.23757">
        <ele>60.6</ele>
        <time>2022-08-17T12:53:35Z</time>
      </trkpt>
      <trkpt lat="49.82096" lon="2.23755">
        <ele>60.6</ele>
        <time>2022-08-17T12:53:36Z</time>
      </trkpt>
      <trkpt lat="49.82095" lon="2.23754">
        <ele>60.6</ele>
        <time>2022-08-17T12:53:37Z</time>
      </trkpt>
      <trkpt lat="49.82094" lon="2.23753">
        <ele>60.6</ele>
        <time>2022-08-17T12:53:38Z</time>
      </trkpt>
      <trkpt lat="49.82093" lon="2.23752">
        <ele>60.6</ele>
        <time>2022-08-17T12:53:39Z</time>
      </trkpt>
      <trkpt lat="49.82091" lon="2.23751">
        <ele>60.6</ele>
        <time>2022-08-17T12:53:40Z</time>
      </trkpt>
      <trkpt lat="49.8209" lon="2.2375">
        <ele>60.6</ele>
        <time>2022-08-17T12:53:41Z</time>
      </trkpt>
      <trkpt lat="49.82089" lon="2.23749">
        <ele>60.6</ele>
        <time>2022-08-17T12:53:42Z</time>
      </trkpt>
      <trkpt lat="49.82088" lon="2.23749">
        <ele>60.6</ele>
        <time>2022-08-17T12:53:43Z</time>
      </trkpt>
      <trkpt lat="49.82086" lon="2.23749">
        <ele>60.6</ele>
        <time>2022-08-17T12:53:44Z</time>
      </trkpt>
      <trkpt lat="49.82085" lon="2.23748">
        <ele>60.6</ele>
        <time>2022-08-17T12:53:45Z</time>
      </trkpt>
      <trkpt lat="49.82082" lon="2.23747">
        <ele>60.6</ele>
        <time>2022-08-17T12:53:46Z</time>
      </trkpt>
      <trkpt lat="49.82081" lon="2.23747">
        <ele>60.6</ele>
        <time>2022-08-17T12:53:48Z</time>
      </trkpt>
      <trkpt lat="49.8208" lon="2.23746">
        <ele>60.6</ele>
        <time>2022-08-17T12:53:49Z</time>
      </trkpt>
      <trkpt lat="49.82079" lon="2.23746">
        <ele>60.6</ele>
        <time>2022-08-17T12:53:50Z</time>
      </trkpt>
      <trkpt lat="49.82078" lon="2.23746">
        <ele>60.6</ele>
        <time>2022-08-17T12:53:51Z</time>
      </trkpt>
      <trkpt lat="49.82077" lon="2.23746">
        <ele>60.6</ele>
        <time>2022-08-17T12:53:52Z</time>
      </trkpt>
      <trkpt lat="49.82075" lon="2.23745">
        <ele>60.6</ele>
        <time>2022-08-17T12:53:54Z</time>
      </trkpt>
      <trkpt lat="49.82074" lon="2.23745">
        <ele>60.6</ele>
        <time>2022-08-17T12:53:55Z</time>
      </trkpt>
      <trkpt lat="49.82073" lon="2.23745">
        <ele>60.7</ele>
        <time>2022-08-17T12:53:56Z</time>
      </trkpt>
      <trkpt lat="49.82071" lon="2.23744">
        <ele>60.7</ele>
        <time>2022-08-17T12:53:57Z</time>
      </trkpt>
      <trkpt lat="49.8207" lon="2.23743">
        <ele>60.7</ele>
        <time>2022-08-17T12:53:58Z</time>
      </trkpt>
      <trkpt lat="49.82068" lon="2.23743">
        <ele>60.7</ele>
        <time>2022-08-17T12:53:59Z</time>
      </trkpt>
      <trkpt lat="49.82066" lon="2.23742">
        <ele>60.7</ele>
        <time>2022-08-17T12:54:00Z</time>
      </trkpt>
      <trkpt lat="49.82063" lon="2.23741">
        <ele>60.7</ele>
        <time>2022-08-17T12:54:02Z</time>
      </trkpt>
      <trkpt lat="49.82063" lon="2.2374">
        <ele>60.7</ele>
        <time>2022-08-17T12:54:03Z</time>
      </trkpt>
      <trkpt lat="49.82061" lon="2.2374">
        <ele>60.7</ele>
        <time>2022-08-17T12:54:04Z</time>
      </trkpt>
      <trkpt lat="49.8206" lon="2.23739">
        <ele>60.8</ele>
        <time>2022-08-17T12:54:05Z</time>
      </trkpt>
      <trkpt lat="49.82058" lon="2.23739">
        <ele>60.8</ele>
        <time>2022-08-17T12:54:06Z</time>
      </trkpt>
      <trkpt lat="49.82057" lon="2.23738">
        <ele>60.8</ele>
        <time>2022-08-17T12:54:07Z</time>
      </trkpt>
      <trkpt lat="49.82055" lon="2.23738">
        <ele>60.8</ele>
        <time>2022-08-17T12:54:08Z</time>
      </trkpt>
      <trkpt lat="49.82054" lon="2.23737">
        <ele>60.8</ele>
        <time>2022-08-17T12:54:09Z</time>
      </trkpt>
      <trkpt lat="49.82052" lon="2.23737">
        <ele>60.8</ele>
        <time>2022-08-17T12:54:10Z</time>
      </trkpt>
      <trkpt lat="49.8205" lon="2.23737">
        <ele>60.9</ele>
        <time>2022-08-17T12:54:12Z</time>
      </trkpt>
      <trkpt lat="49.82049" lon="2.23736">
        <ele>60.9</ele>
        <time>2022-08-17T12:54:13Z</time>
      </trkpt>
      <trkpt lat="49.82047" lon="2.23736">
        <ele>60.9</ele>
        <time>2022-08-17T12:54:14Z</time>
      </trkpt>
      <trkpt lat="49.82046" lon="2.23736">
        <ele>60.9</ele>
        <time>2022-08-17T12:54:15Z</time>
      </trkpt>
      <trkpt lat="49.82045" lon="2.23735">
        <ele>60.9</ele>
        <time>2022-08-17T12:54:16Z</time>
      </trkpt>
      <trkpt lat="49.82044" lon="2.23735">
        <ele>60.9</ele>
        <time>2022-08-17T12:54:17Z</time>
      </trkpt>
      <trkpt lat="49.82043" lon="2.23735">
        <ele>60.9</ele>
        <time>2022-08-17T12:54:18Z</time>
      </trkpt>
      <trkpt lat="49.82042" lon="2.23734">
        <ele>60.9</ele>
        <time>2022-08-17T12:54:19Z</time>
      </trkpt>
      <trkpt lat="49.82041" lon="2.23734">
        <ele>61</ele>
        <time>2022-08-17T12:54:20Z</time>
      </trkpt>
      <trkpt lat="49.82039" lon="2.23734">
        <ele>61</ele>
        <time>2022-08-17T12:54:21Z</time>
      </trkpt>
      <trkpt lat="49.82038" lon="2.23734">
        <ele>61</ele>
        <time>2022-08-17T12:54:23Z</time>
      </trkpt>
      <trkpt lat="49.82037" lon="2.23733">
        <ele>61</ele>
        <time>2022-08-17T12:54:24Z</time>
      </trkpt>
      <trkpt lat="49.82036" lon="2.23733">
        <ele>61</ele>
        <time>2022-08-17T12:54:25Z</time>
      </trkpt>
      <trkpt lat="49.82035" lon="2.23733">
        <ele>61</ele>
        <time>2022-08-17T12:54:26Z</time>
      </trkpt>
      <trkpt lat="49.82034" lon="2.23733">
        <ele>61</ele>
        <time>2022-08-17T12:54:27Z</time>
      </trkpt>
      <trkpt lat="49.82033" lon="2.23733">
        <ele>61</ele>
        <time>2022-08-17T12:54:29Z</time>
      </trkpt>
      <trkpt lat="49.82032" lon="2.23733">
        <ele>61</ele>
        <time>2022-08-17T12:54:30Z</time>
      </trkpt>
      <trkpt lat="49.82032" lon="2.23733">
        <ele>61</ele>
        <time>2022-08-17T12:54:31Z</time>
      </trkpt>
      <trkpt lat="49.82032" lon="2.23734">
        <ele>61</ele>
        <time>2022-08-17T12:54:32Z</time>
      </trkpt>
      <trkpt lat="49.82031" lon="2.23734">
        <ele>61</ele>
        <time>2022-08-17T12:54:33Z</time>
      </trkpt>
      <trkpt lat="49.82029" lon="2.23734">
        <ele>61</ele>
        <time>2022-08-17T12:54:35Z</time>
      </trkpt>
      <trkpt lat="49.82028" lon="2.23734">
        <ele>61</ele>
        <time>2022-08-17T12:54:36Z</time>
      </trkpt>
      <trkpt lat="49.82027" lon="2.23733">
        <ele>61</ele>
        <time>2022-08-17T12:54:37Z</time>
      </trkpt>
      <trkpt lat="49.82026" lon="2.23733">
        <ele>61</ele>
        <time>2022-08-17T12:54:38Z</time>
      </trkpt>
      <trkpt lat="49.82025" lon="2.23733">
        <ele>61</ele>
        <time>2022-08-17T12:54:39Z</time>
      </trkpt>
      <trkpt lat="49.82024" lon="2.23733">
        <ele>61</ele>
        <time>2022-08-17T12:54:40Z</time>
      </trkpt>
      <trkpt lat="49.82023" lon="2.23732">
        <ele>61</ele>
        <time>2022-08-17T12:54:41Z</time>
      </trkpt>
      <trkpt lat="49.82021" lon="2.23732">
        <ele>61</ele>
        <time>2022-08-17T12:54:42Z</time>
      </trkpt>
      <trkpt lat="49.82021" lon="2.23732">
        <ele>61</ele>
        <time>2022-08-17T12:54:43Z</time>
      </trkpt>
      <trkpt lat="49.8202" lon="2.23732">
        <ele>61</ele>
        <time>2022-08-17T12:54:45Z</time>
      </trkpt>
      <trkpt lat="49.82019" lon="2.23732">
        <ele>61</ele>
        <time>2022-08-17T12:54:46Z</time>
      </trkpt>
      <trkpt lat="49.82018" lon="2.23732">
        <ele>61</ele>
        <time>2022-08-17T12:54:47Z</time>
      </trkpt>
      <trkpt lat="49.82018" lon="2.23731">
        <ele>61</ele>
        <time>2022-08-17T12:54:48Z</time>
      </trkpt>
      <trkpt lat="49.82016" lon="2.23731">
        <ele>61.1</ele>
        <time>2022-08-17T12:54:49Z</time>
      </trkpt>
      <trkpt lat="49.82015" lon="2.23731">
        <ele>61.1</ele>
        <time>2022-08-17T12:54:50Z</time>
      </trkpt>
      <trkpt lat="49.82014" lon="2.23731">
        <ele>61.1</ele>
        <time>2022-08-17T12:54:52Z</time>
      </trkpt>
      <trkpt lat="49.82013" lon="2.23731">
        <ele>61.1</ele>
        <time>2022-08-17T12:54:53Z</time>
      </trkpt>
      <trkpt lat="49.82012" lon="2.23731">
        <ele>61.1</ele>
        <time>2022-08-17T12:54:54Z</time>
      </trkpt>
      <trkpt lat="49.82011" lon="2.23731">
        <ele>61.1</ele>
        <time>2022-08-17T12:54:55Z</time>
      </trkpt>
      <trkpt lat="49.8201" lon="2.23731">
        <ele>61.1</ele>
        <time>2022-08-17T12:54:56Z</time>
      </trkpt>
      <trkpt lat="49.82008" lon="2.23731">
        <ele>61.1</ele>
        <time>2022-08-17T12:54:57Z</time>
      </trkpt>
      <trkpt lat="49.82006" lon="2.2373">
        <ele>61.1</ele>
        <time>2022-08-17T12:54:58Z</time>
      </trkpt>
      <trkpt lat="49.82005" lon="2.2373">
        <ele>61.1</ele>
        <time>2022-08-17T12:55:00Z</time>
      </trkpt>
      <trkpt lat="49.82004" lon="2.2373">
        <ele>61.1</ele>
        <time>2022-08-17T12:55:01Z</time>
      </trkpt>
      <trkpt lat="49.82003" lon="2.2373">
        <ele>61.1</ele>
        <time>2022-08-17T12:55:02Z</time>
      </trkpt>
      <trkpt lat="49.82002" lon="2.23729">
        <ele>61.1</ele>
        <time>2022-08-17T12:55:03Z</time>
      </trkpt>
      <trkpt lat="49.82" lon="2.23729">
        <ele>61.1</ele>
        <time>2022-08-17T12:55:04Z</time>
      </trkpt>
      <trkpt lat="49.81999" lon="2.23729">
        <ele>61.1</ele>
        <time>2022-08-17T12:55:05Z</time>
      </trkpt>
      <trkpt lat="49.81997" lon="2.23729">
        <ele>61.1</ele>
        <time>2022-08-17T12:55:06Z</time>
      </trkpt>
      <trkpt lat="49.81996" lon="2.23729">
        <ele>61.1</ele>
        <time>2022-08-17T12:55:07Z</time>
      </trkpt>
      <trkpt lat="49.81993" lon="2.23728">
        <ele>61.1</ele>
        <time>2022-08-17T12:55:09Z</time>
      </trkpt>
      <trkpt lat="49.81993" lon="2.23728">
        <ele>61.1</ele>
        <time>2022-08-17T12:55:10Z</time>
      </trkpt>
      <trkpt lat="49.81992" lon="2.23728">
        <ele>61.1</ele>
        <time>2022-08-17T12:55:11Z</time>
      </trkpt>
      <trkpt lat="49.81991" lon="2.23727">
        <ele>61.1</ele>
        <time>2022-08-17T12:55:12Z</time>
      </trkpt>
      <trkpt lat="49.81989" lon="2.23727">
        <ele>61.1</ele>
        <time>2022-08-17T12:55:13Z</time>
      </trkpt>
      <trkpt lat="49.81988" lon="2.23727">
        <ele>61.1</ele>
        <time>2022-08-17T12:55:14Z</time>
      </trkpt>
      <trkpt lat="49.81986" lon="2.23727">
        <ele>61.1</ele>
        <time>2022-08-17T12:55:15Z</time>
      </trkpt>
      <trkpt lat="49.81984" lon="2.23727">
        <ele>61.1</ele>
        <time>2022-08-17T12:55:17Z</time>
      </trkpt>
      <trkpt lat="49.81983" lon="2.23727">
        <ele>61.1</ele>
        <time>2022-08-17T12:55:18Z</time>
      </trkpt>
      <trkpt lat="49.81981" lon="2.23726">
        <ele>61.1</ele>
        <time>2022-08-17T12:55:19Z</time>
      </trkpt>
      <trkpt lat="49.8198" lon="2.23726">
        <ele>61.1</ele>
        <time>2022-08-17T12:55:20Z</time>
      </trkpt>
      <trkpt lat="49.81977" lon="2.23726">
        <ele>61.1</ele>
        <time>2022-08-17T12:55:21Z</time>
      </trkpt>
      <trkpt lat="49.81977" lon="2.23726">
        <ele>61.1</ele>
        <time>2022-08-17T12:55:22Z</time>
      </trkpt>
      <trkpt lat="49.81976" lon="2.23726">
        <ele>61.1</ele>
        <time>2022-08-17T12:55:23Z</time>
      </trkpt>
      <trkpt lat="49.81974" lon="2.23726">
        <ele>61.1</ele>
        <time>2022-08-17T12:55:25Z</time>
      </trkpt>
      <trkpt lat="49.81973" lon="2.23726">
        <ele>61.1</ele>
        <time>2022-08-17T12:55:26Z</time>
      </trkpt>
      <trkpt lat="49.81971" lon="2.23726">
        <ele>61.2</ele>
        <time>2022-08-17T12:55:27Z</time>
      </trkpt>
      <trkpt lat="49.8197" lon="2.23726">
        <ele>61.2</ele>
        <time>2022-08-17T12:55:28Z</time>
      </trkpt>
      <trkpt lat="49.81969" lon="2.23726">
        <ele>61.2</ele>
        <time>2022-08-17T12:55:30Z</time>
      </trkpt>
      <trkpt lat="49.81968" lon="2.23727">
        <ele>61.2</ele>
        <time>2022-08-17T12:55:31Z</time>
      </trkpt>
      <trkpt lat="49.81967" lon="2.23727">
        <ele>61.2</ele>
        <time>2022-08-17T12:55:32Z</time>
      </trkpt>
      <trkpt lat="49.81966" lon="2.23728">
        <ele>61.2</ele>
        <time>2022-08-17T12:55:33Z</time>
      </trkpt>
      <trkpt lat="49.81965" lon="2.23729">
        <ele>61.2</ele>
        <time>2022-08-17T12:55:34Z</time>
      </trkpt>
      <trkpt lat="49.81963" lon="2.2373">
        <ele>61.2</ele>
        <time>2022-08-17T12:55:35Z</time>
      </trkpt>
      <trkpt lat="49.81962" lon="2.23731">
        <ele>61.2</ele>
        <time>2022-08-17T12:55:36Z</time>
      </trkpt>
      <trkpt lat="49.8196" lon="2.23732">
        <ele>61.2</ele>
        <time>2022-08-17T12:55:38Z</time>
      </trkpt>
      <trkpt lat="49.8196" lon="2.23734">
        <ele>61.2</ele>
        <time>2022-08-17T12:55:39Z</time>
      </trkpt>
      <trkpt lat="49.81959" lon="2.23735">
        <ele>61.2</ele>
        <time>2022-08-17T12:55:40Z</time>
      </trkpt>
      <trkpt lat="49.81958" lon="2.23737">
        <ele>61.2</ele>
        <time>2022-08-17T12:55:41Z</time>
      </trkpt>
      <trkpt lat="49.81958" lon="2.23739">
        <ele>61.3</ele>
        <time>2022-08-17T12:55:42Z</time>
      </trkpt>
      <trkpt lat="49.81957" lon="2.2374">
        <ele>61.3</ele>
        <time>2022-08-17T12:55:43Z</time>
      </trkpt>
      <trkpt lat="49.81957" lon="2.23743">
        <ele>61.3</ele>
        <time>2022-08-17T12:55:44Z</time>
      </trkpt>
      <trkpt lat="49.81956" lon="2.23745">
        <ele>61.3</ele>
        <time>2022-08-17T12:55:45Z</time>
      </trkpt>
      <trkpt lat="49.81955" lon="2.23747">
        <ele>61.3</ele>
        <time>2022-08-17T12:55:46Z</time>
      </trkpt>
      <trkpt lat="49.81955" lon="2.23749">
        <ele>61.3</ele>
        <time>2022-08-17T12:55:48Z</time>
      </trkpt>
      <trkpt lat="49.81954" lon="2.2375">
        <ele>61.3</ele>
        <time>2022-08-17T12:55:49Z</time>
      </trkpt>
      <trkpt lat="49.81953" lon="2.23752">
        <ele>61.4</ele>
        <time>2022-08-17T12:55:50Z</time>
      </trkpt>
      <trkpt lat="49.81953" lon="2.23755">
        <ele>61.4</ele>
        <time>2022-08-17T12:55:51Z</time>
      </trkpt>
      <trkpt lat="49.81952" lon="2.23757">
        <ele>61.4</ele>
        <time>2022-08-17T12:55:52Z</time>
      </trkpt>
      <trkpt lat="49.81952" lon="2.2376">
        <ele>61.4</ele>
        <time>2022-08-17T12:55:53Z</time>
      </trkpt>
      <trkpt lat="49.81952" lon="2.23762">
        <ele>61.4</ele>
        <time>2022-08-17T12:55:54Z</time>
      </trkpt>
      <trkpt lat="49.81951" lon="2.23765">
        <ele>61.5</ele>
        <time>2022-08-17T12:55:55Z</time>
      </trkpt>
      <trkpt lat="49.8195" lon="2.23769">
        <ele>61.5</ele>
        <time>2022-08-17T12:55:56Z</time>
      </trkpt>
      <trkpt lat="49.8195" lon="2.23771">
        <ele>61.5</ele>
        <time>2022-08-17T12:55:58Z</time>
      </trkpt>
      <trkpt lat="49.81949" lon="2.23773">
        <ele>61.5</ele>
        <time>2022-08-17T12:55:59Z</time>
      </trkpt>
      <trkpt lat="49.81949" lon="2.23775">
        <ele>61.5</ele>
        <time>2022-08-17T12:56:00Z</time>
      </trkpt>
      <trkpt lat="49.81949" lon="2.23778">
        <ele>61.6</ele>
        <time>2022-08-17T12:56:01Z</time>
      </trkpt>
      <trkpt lat="49.81948" lon="2.2378">
        <ele>61.6</ele>
        <time>2022-08-17T12:56:02Z</time>
      </trkpt>
      <trkpt lat="49.81947" lon="2.23783">
        <ele>61.6</ele>
        <time>2022-08-17T12:56:03Z</time>
      </trkpt>
      <trkpt lat="49.81947" lon="2.23785">
        <ele>61.6</ele>
        <time>2022-08-17T12:56:04Z</time>
      </trkpt>
      <trkpt lat="49.81946" lon="2.23786">
        <ele>61.6</ele>
        <time>2022-08-17T12:56:05Z</time>
      </trkpt>
      <trkpt lat="49.81946" lon="2.23789">
        <ele>61.7</ele>
        <time>2022-08-17T12:56:07Z</time>
      </trkpt>
      <trkpt lat="49.81945" lon="2.23791">
        <ele>61.7</ele>
        <time>2022-08-17T12:56:08Z</time>
      </trkpt>
      <trkpt lat="49.81945" lon="2.23792">
        <ele>61.7</ele>
        <time>2022-08-17T12:56:09Z</time>
      </trkpt>
      <trkpt lat="49.81945" lon="2.23794">
        <ele>61.7</ele>
        <time>2022-08-17T12:56:10Z</time>
      </trkpt>
      <trkpt lat="49.81944" lon="2.23795">
        <ele>61.7</ele>
        <time>2022-08-17T12:56:11Z</time>
      </trkpt>
      <trkpt lat="49.81944" lon="2.23797">
        <ele>61.7</ele>
        <time>2022-08-17T12:56:12Z</time>
      </trkpt>
      <trkpt lat="49.81943" lon="2.23799">
        <ele>61.7</ele>
        <time>2022-08-17T12:56:13Z</time>
      </trkpt>
      <trkpt lat="49.81943" lon="2.238">
        <ele>61.7</ele>
        <time>2022-08-17T12:56:14Z</time>
      </trkpt>
      <trkpt lat="49.81942" lon="2.23801">
        <ele>61.7</ele>
        <time>2022-08-17T12:56:15Z</time>
      </trkpt>
      <trkpt lat="49.81942" lon="2.23803">
        <ele>61.8</ele>
        <time>2022-08-17T12:56:17Z</time>
      </trkpt>
      <trkpt lat="49.81941" lon="2.23804">
        <ele>61.8</ele>
        <time>2022-08-17T12:56:18Z</time>
      </trkpt>
      <trkpt lat="49.81941" lon="2.23806">
        <ele>61.8</ele>
        <time>2022-08-17T12:56:19Z</time>
      </trkpt>
      <trkpt lat="49.8194" lon="2.23807">
        <ele>61.8</ele>
        <time>2022-08-17T12:56:20Z</time>
      </trkpt>
      <trkpt lat="49.81939" lon="2.23808">
        <ele>61.8</ele>
        <time>2022-08-17T12:56:21Z</time>
      </trkpt>
      <trkpt lat="49.81938" lon="2.23811">
        <ele>61.8</ele>
        <time>2022-08-17T12:56:22Z</time>
      </trkpt>
      <trkpt lat="49.81938" lon="2.23812">
        <ele>61.8</ele>
        <time>2022-08-17T12:56:23Z</time>
      </trkpt>
      <trkpt lat="49.81937" lon="2.23814">
        <ele>61.8</ele>
        <time>2022-08-17T12:56:24Z</time>
      </trkpt>
      <trkpt lat="49.81936" lon="2.23816">
        <ele>61.9</ele>
        <time>2022-08-17T12:56:25Z</time>
      </trkpt>
      <trkpt lat="49.81935" lon="2.23817">
        <ele>61.9</ele>
        <time>2022-08-17T12:56:27Z</time>
      </trkpt>
      <trkpt lat="49.81935" lon="2.23818">
        <ele>61.9</ele>
        <time>2022-08-17T12:56:28Z</time>
      </trkpt>
      <trkpt lat="49.81934" lon="2.2382">
        <ele>61.9</ele>
        <time>2022-08-17T12:56:29Z</time>
      </trkpt>
      <trkpt lat="49.81934" lon="2.23818">
        <ele>61.9</ele>
        <time>2022-08-17T12:56:30Z</time>
      </trkpt>
      <trkpt lat="49.81934" lon="2.23819">
        <ele>61.9</ele>
        <time>2022-08-17T12:56:31Z</time>
      </trkpt>
      <trkpt lat="49.81934" lon="2.2382">
        <ele>61.9</ele>
        <time>2022-08-17T12:56:33Z</time>
      </trkpt>
      <trkpt lat="49.81933" lon="2.23822">
        <ele>61.9</ele>
        <time>2022-08-17T12:56:34Z</time>
      </trkpt>
      <trkpt lat="49.81932" lon="2.23823">
        <ele>61.9</ele>
        <time>2022-08-17T12:56:35Z</time>
      </trkpt>
      <trkpt lat="49.81932" lon="2.23825">
        <ele>61.9</ele>
        <time>2022-08-17T12:56:36Z</time>
      </trkpt>
      <trkpt lat="49.81931" lon="2.23826">
        <ele>61.9</ele>
        <time>2022-08-17T12:56:37Z</time>
      </trkpt>
      <trkpt lat="49.81931" lon="2.23828">
        <ele>62</ele>
        <time>2022-08-17T12:56:38Z</time>
      </trkpt>
      <trkpt lat="49.8193" lon="2.23829">
        <ele>62</ele>
        <time>2022-08-17T12:56:39Z</time>
      </trkpt>
      <trkpt lat="49.81929" lon="2.23831">
        <ele>62</ele>
        <time>2022-08-17T12:56:40Z</time>
      </trkpt>
      <trkpt lat="49.81929" lon="2.23832">
        <ele>62</ele>
        <time>2022-08-17T12:56:42Z</time>
      </trkpt>
      <trkpt lat="49.81928" lon="2.23833">
        <ele>62</ele>
        <time>2022-08-17T12:56:43Z</time>
      </trkpt>
      <trkpt lat="49.81927" lon="2.23834">
        <ele>62</ele>
        <time>2022-08-17T12:56:44Z</time>
      </trkpt>
      <trkpt lat="49.81927" lon="2.23835">
        <ele>62</ele>
        <time>2022-08-17T12:56:45Z</time>
      </trkpt>
      <trkpt lat="49.81925" lon="2.23837">
        <ele>62</ele>
        <time>2022-08-17T12:56:47Z</time>
      </trkpt>
      <trkpt lat="49.81925" lon="2.23839">
        <ele>62</ele>
        <time>2022-08-17T12:56:48Z</time>
      </trkpt>
      <trkpt lat="49.81924" lon="2.2384">
        <ele>62</ele>
        <time>2022-08-17T12:56:49Z</time>
      </trkpt>
      <trkpt lat="49.81923" lon="2.23841">
        <ele>62.1</ele>
        <time>2022-08-17T12:56:50Z</time>
      </trkpt>
      <trkpt lat="49.81922" lon="2.23844">
        <ele>62.1</ele>
        <time>2022-08-17T12:56:51Z</time>
      </trkpt>
      <trkpt lat="49.81921" lon="2.23845">
        <ele>62.1</ele>
        <time>2022-08-17T12:56:52Z</time>
      </trkpt>
      <trkpt lat="49.81921" lon="2.23846">
        <ele>62.1</ele>
        <time>2022-08-17T12:56:53Z</time>
      </trkpt>
      <trkpt lat="49.8192" lon="2.23848">
        <ele>62.1</ele>
        <time>2022-08-17T12:56:54Z</time>
      </trkpt>
      <trkpt lat="49.81919" lon="2.2385">
        <ele>62.1</ele>
        <time>2022-08-17T12:56:56Z</time>
      </trkpt>
      <trkpt lat="49.81918" lon="2.23852">
        <ele>62.1</ele>
        <time>2022-08-17T12:56:57Z</time>
      </trkpt>
      <trkpt lat="49.81918" lon="2.23853">
        <ele>62.1</ele>
        <time>2022-08-17T12:56:58Z</time>
      </trkpt>
      <trkpt lat="49.81918" lon="2.23854">
        <ele>62.1</ele>
        <time>2022-08-17T12:56:59Z</time>
      </trkpt>
      <trkpt lat="49.81916" lon="2.23857">
        <ele>62.2</ele>
        <time>2022-08-17T12:57:00Z</time>
      </trkpt>
      <trkpt lat="49.81916" lon="2.23858">
        <ele>62.2</ele>
        <time>2022-08-17T12:57:01Z</time>
      </trkpt>
      <trkpt lat="49.81915" lon="2.23859">
        <ele>62.2</ele>
        <time>2022-08-17T12:57:02Z</time>
      </trkpt>
      <trkpt lat="49.81914" lon="2.23861">
        <ele>62.2</ele>
        <time>2022-08-17T12:57:04Z</time>
      </trkpt>
      <trkpt lat="49.81913" lon="2.23862">
        <ele>62.2</ele>
        <time>2022-08-17T12:57:05Z</time>
      </trkpt>
      <trkpt lat="49.81913" lon="2.23863">
        <ele>62.2</ele>
        <time>2022-08-17T12:57:06Z</time>
      </trkpt>
      <trkpt lat="49.81911" lon="2.23865">
        <ele>62.2</ele>
        <time>2022-08-17T12:57:07Z</time>
      </trkpt>
      <trkpt lat="49.81911" lon="2.23866">
        <ele>62.3</ele>
        <time>2022-08-17T12:57:08Z</time>
      </trkpt>
      <trkpt lat="49.81909" lon="2.23869">
        <ele>62.3</ele>
        <time>2022-08-17T12:57:09Z</time>
      </trkpt>
      <trkpt lat="49.81908" lon="2.2387">
        <ele>62.3</ele>
        <time>2022-08-17T12:57:10Z</time>
      </trkpt>
      <trkpt lat="49.81908" lon="2.2387">
        <ele>62.3</ele>
        <time>2022-08-17T12:57:11Z</time>
      </trkpt>
      <trkpt lat="49.81907" lon="2.23872">
        <ele>62.3</ele>
        <time>2022-08-17T12:57:13Z</time>
      </trkpt>
      <trkpt lat="49.81905" lon="2.23873">
        <ele>62.3</ele>
        <time>2022-08-17T12:57:14Z</time>
      </trkpt>
      <trkpt lat="49.81903" lon="2.23874">
        <ele>62.4</ele>
        <time>2022-08-17T12:57:15Z</time>
      </trkpt>
      <trkpt lat="49.81903" lon="2.23875">
        <ele>62.4</ele>
        <time>2022-08-17T12:57:16Z</time>
      </trkpt>
      <trkpt lat="49.81902" lon="2.23875">
        <ele>62.4</ele>
        <time>2022-08-17T12:57:17Z</time>
      </trkpt>
      <trkpt lat="49.819" lon="2.23876">
        <ele>62.4</ele>
        <time>2022-08-17T12:57:18Z</time>
      </trkpt>
      <trkpt lat="49.81899" lon="2.23876">
        <ele>62.4</ele>
        <time>2022-08-17T12:57:19Z</time>
      </trkpt>
      <trkpt lat="49.81897" lon="2.23877">
        <ele>62.4</ele>
        <time>2022-08-17T12:57:20Z</time>
      </trkpt>
      <trkpt lat="49.81896" lon="2.23878">
        <ele>62.4</ele>
        <time>2022-08-17T12:57:21Z</time>
      </trkpt>
      <trkpt lat="49.81894" lon="2.23878">
        <ele>62.4</ele>
        <time>2022-08-17T12:57:22Z</time>
      </trkpt>
      <trkpt lat="49.81893" lon="2.23879">
        <ele>62.4</ele>
        <time>2022-08-17T12:57:24Z</time>
      </trkpt>
      <trkpt lat="49.81892" lon="2.23879">
        <ele>62.4</ele>
        <time>2022-08-17T12:57:25Z</time>
      </trkpt>
      <trkpt lat="49.8189" lon="2.2388">
        <ele>62.4</ele>
        <time>2022-08-17T12:57:26Z</time>
      </trkpt>
      <trkpt lat="49.81889" lon="2.2388">
        <ele>62.4</ele>
        <time>2022-08-17T12:57:27Z</time>
      </trkpt>
      <trkpt lat="49.81886" lon="2.23881">
        <ele>62.4</ele>
        <time>2022-08-17T12:57:28Z</time>
      </trkpt>
      <trkpt lat="49.81885" lon="2.23881">
        <ele>62.4</ele>
        <time>2022-08-17T12:57:29Z</time>
      </trkpt>
      <trkpt lat="49.81884" lon="2.23882">
        <ele>62.4</ele>
        <time>2022-08-17T12:57:30Z</time>
      </trkpt>
      <trkpt lat="49.81882" lon="2.23882">
        <ele>62.4</ele>
        <time>2022-08-17T12:57:31Z</time>
      </trkpt>
      <trkpt lat="49.8188" lon="2.2388">
        <ele>62.4</ele>
        <time>2022-08-17T12:57:32Z</time>
      </trkpt>
      <trkpt lat="49.81879" lon="2.2388">
        <ele>62.4</ele>
        <time>2022-08-17T12:57:34Z</time>
      </trkpt>
      <trkpt lat="49.81878" lon="2.2388">
        <ele>62.5</ele>
        <time>2022-08-17T12:57:35Z</time>
      </trkpt>
      <trkpt lat="49.81877" lon="2.2388">
        <ele>62.5</ele>
        <time>2022-08-17T12:57:36Z</time>
      </trkpt>
      <trkpt lat="49.81876" lon="2.2388">
        <ele>62.5</ele>
        <time>2022-08-17T12:57:37Z</time>
      </trkpt>
      <trkpt lat="49.81875" lon="2.2388">
        <ele>62.5</ele>
        <time>2022-08-17T12:57:38Z</time>
      </trkpt>
      <trkpt lat="49.81874" lon="2.2388">
        <ele>62.5</ele>
        <time>2022-08-17T12:57:39Z</time>
      </trkpt>
      <trkpt lat="49.81873" lon="2.23881">
        <ele>62.5</ele>
        <time>2022-08-17T12:57:40Z</time>
      </trkpt>
      <trkpt lat="49.81872" lon="2.23882">
        <ele>62.5</ele>
        <time>2022-08-17T12:57:41Z</time>
      </trkpt>
      <trkpt lat="49.81869" lon="2.23884">
        <ele>62.5</ele>
        <time>2022-08-17T12:57:42Z</time>
      </trkpt>
      <trkpt lat="49.81869" lon="2.23885">
        <ele>62.5</ele>
        <time>2022-08-17T12:57:43Z</time>
      </trkpt>
      <trkpt lat="49.81869" lon="2.23885">
        <ele>62.5</ele>
        <time>2022-08-17T12:57:44Z</time>
      </trkpt>
      <trkpt lat="49.81867" lon="2.23887">
        <ele>62.5</ele>
        <time>2022-08-17T12:57:46Z</time>
      </trkpt>
      <trkpt lat="49.81866" lon="2.23888">
        <ele>62.5</ele>
        <time>2022-08-17T12:57:47Z</time>
      </trkpt>
      <trkpt lat="49.81865" lon="2.23889">
        <ele>62.5</ele>
        <time>2022-08-17T12:57:48Z</time>
      </trkpt>
      <trkpt lat="49.81864" lon="2.23889">
        <ele>62.5</ele>
        <time>2022-08-17T12:57:49Z</time>
      </trkpt>
      <trkpt lat="49.81863" lon="2.23889">
        <ele>62.5</ele>
        <time>2022-08-17T12:57:50Z</time>
      </trkpt>
      <trkpt lat="49.81863" lon="2.23889">
        <ele>62.5</ele>
        <time>2022-08-17T12:57:51Z</time>
      </trkpt>
      <trkpt lat="49.81861" lon="2.23889">
        <ele>62.5</ele>
        <time>2022-08-17T12:57:52Z</time>
      </trkpt>
      <trkpt lat="49.81859" lon="2.2389">
        <ele>62.5</ele>
        <time>2022-08-17T12:57:54Z</time>
      </trkpt>
      <trkpt lat="49.81858" lon="2.2389">
        <ele>62.5</ele>
        <time>2022-08-17T12:57:55Z</time>
      </trkpt>
      <trkpt lat="49.81857" lon="2.23891">
        <ele>62.5</ele>
        <time>2022-08-17T12:57:56Z</time>
      </trkpt>
      <trkpt lat="49.81856" lon="2.23891">
        <ele>62.5</ele>
        <time>2022-08-17T12:57:57Z</time>
      </trkpt>
      <trkpt lat="49.81854" lon="2.23893">
        <ele>62.5</ele>
        <time>2022-08-17T12:57:59Z</time>
      </trkpt>
      <trkpt lat="49.81852" lon="2.23894">
        <ele>62.5</ele>
        <time>2022-08-17T12:58:00Z</time>
      </trkpt>
      <trkpt lat="49.81851" lon="2.23895">
        <ele>62.5</ele>
        <time>2022-08-17T12:58:01Z</time>
      </trkpt>
      <trkpt lat="49.81851" lon="2.23895">
        <ele>62.5</ele>
        <time>2022-08-17T12:58:02Z</time>
      </trkpt>
      <trkpt lat="49.81849" lon="2.23897">
        <ele>62.5</ele>
        <time>2022-08-17T12:58:03Z</time>
      </trkpt>
      <trkpt lat="49.81848" lon="2.23897">
        <ele>62.5</ele>
        <time>2022-08-17T12:58:04Z</time>
      </trkpt>
      <trkpt lat="49.81847" lon="2.23898">
        <ele>62.5</ele>
        <time>2022-08-17T12:58:05Z</time>
      </trkpt>
      <trkpt lat="49.81846" lon="2.23899">
        <ele>62.5</ele>
        <time>2022-08-17T12:58:06Z</time>
      </trkpt>
      <trkpt lat="49.81845" lon="2.239">
        <ele>62.5</ele>
        <time>2022-08-17T12:58:07Z</time>
      </trkpt>
      <trkpt lat="49.81843" lon="2.23901">
        <ele>62.5</ele>
        <time>2022-08-17T12:58:09Z</time>
      </trkpt>
      <trkpt lat="49.81842" lon="2.23902">
        <ele>62.5</ele>
        <time>2022-08-17T12:58:10Z</time>
      </trkpt>
      <trkpt lat="49.8184" lon="2.23903">
        <ele>62.5</ele>
        <time>2022-08-17T12:58:11Z</time>
      </trkpt>
      <trkpt lat="49.81839" lon="2.23904">
        <ele>62.5</ele>
        <time>2022-08-17T12:58:12Z</time>
      </trkpt>
      <trkpt lat="49.81838" lon="2.23905">
        <ele>62.5</ele>
        <time>2022-08-17T12:58:13Z</time>
      </trkpt>
      <trkpt lat="49.81836" lon="2.23906">
        <ele>62.5</ele>
        <time>2022-08-17T12:58:14Z</time>
      </trkpt>
      <trkpt lat="49.81835" lon="2.23907">
        <ele>62.5</ele>
        <time>2022-08-17T12:58:15Z</time>
      </trkpt>
      <trkpt lat="49.81833" lon="2.23908">
        <ele>62.5</ele>
        <time>2022-08-17T12:58:16Z</time>
      </trkpt>
      <trkpt lat="49.81831" lon="2.2391">
        <ele>62.5</ele>
        <time>2022-08-17T12:58:18Z</time>
      </trkpt>
      <trkpt lat="49.81829" lon="2.23911">
        <ele>62.5</ele>
        <time>2022-08-17T12:58:19Z</time>
      </trkpt>
      <trkpt lat="49.81828" lon="2.23912">
        <ele>62.5</ele>
        <time>2022-08-17T12:58:20Z</time>
      </trkpt>
      <trkpt lat="49.81827" lon="2.23914">
        <ele>62.5</ele>
        <time>2022-08-17T12:58:21Z</time>
      </trkpt>
      <trkpt lat="49.81825" lon="2.23915">
        <ele>62.5</ele>
        <time>2022-08-17T12:58:22Z</time>
      </trkpt>
      <trkpt lat="49.81824" lon="2.23916">
        <ele>62.5</ele>
        <time>2022-08-17T12:58:23Z</time>
      </trkpt>
      <trkpt lat="49.81823" lon="2.23918">
        <ele>62.5</ele>
        <time>2022-08-17T12:58:24Z</time>
      </trkpt>
      <trkpt lat="49.81822" lon="2.23919">
        <ele>62.5</ele>
        <time>2022-08-17T12:58:25Z</time>
      </trkpt>
      <trkpt lat="49.8182" lon="2.2392">
        <ele>62.5</ele>
        <time>2022-08-17T12:58:26Z</time>
      </trkpt>
      <trkpt lat="49.81818" lon="2.23922">
        <ele>62.5</ele>
        <time>2022-08-17T12:58:28Z</time>
      </trkpt>
      <trkpt lat="49.81818" lon="2.23922">
        <ele>62.5</ele>
        <time>2022-08-17T12:58:29Z</time>
      </trkpt>
      <trkpt lat="49.81817" lon="2.23923">
        <ele>62.5</ele>
        <time>2022-08-17T12:58:30Z</time>
      </trkpt>
      <trkpt lat="49.81816" lon="2.23923">
        <ele>62.5</ele>
        <time>2022-08-17T12:58:31Z</time>
      </trkpt>
      <trkpt lat="49.81815" lon="2.23924">
        <ele>62.5</ele>
        <time>2022-08-17T12:58:32Z</time>
      </trkpt>
      <trkpt lat="49.81814" lon="2.23924">
        <ele>62.5</ele>
        <time>2022-08-17T12:58:33Z</time>
      </trkpt>
      <trkpt lat="49.81813" lon="2.23925">
        <ele>62.5</ele>
        <time>2022-08-17T12:58:34Z</time>
      </trkpt>
      <trkpt lat="49.81812" lon="2.23925">
        <ele>62.5</ele>
        <time>2022-08-17T12:58:35Z</time>
      </trkpt>
      <trkpt lat="49.81811" lon="2.23926">
        <ele>62.5</ele>
        <time>2022-08-17T12:58:36Z</time>
      </trkpt>
      <trkpt lat="49.81811" lon="2.23926">
        <ele>62.5</ele>
        <time>2022-08-17T12:58:38Z</time>
      </trkpt>
      <trkpt lat="49.81811" lon="2.23925">
        <ele>62.4</ele>
        <time>2022-08-17T12:58:39Z</time>
      </trkpt>
      <trkpt lat="49.8181" lon="2.23924">
        <ele>62.4</ele>
        <time>2022-08-17T12:58:40Z</time>
      </trkpt>
      <trkpt lat="49.81809" lon="2.23924">
        <ele>62.4</ele>
        <time>2022-08-17T12:58:41Z</time>
      </trkpt>
      <trkpt lat="49.81807" lon="2.23922">
        <ele>62.4</ele>
        <time>2022-08-17T12:58:42Z</time>
      </trkpt>
      <trkpt lat="49.81806" lon="2.23921">
        <ele>62.4</ele>
        <time>2022-08-17T12:58:43Z</time>
      </trkpt>
      <trkpt lat="49.81805" lon="2.2392">
        <ele>62.4</ele>
        <time>2022-08-17T12:58:44Z</time>
      </trkpt>
      <trkpt lat="49.81805" lon="2.23919">
        <ele>62.4</ele>
        <time>2022-08-17T12:58:46Z</time>
      </trkpt>
      <trkpt lat="49.81804" lon="2.23918">
        <ele>62.3</ele>
        <time>2022-08-17T12:58:47Z</time>
      </trkpt>
      <trkpt lat="49.81804" lon="2.23916">
        <ele>62.3</ele>
        <time>2022-08-17T12:58:48Z</time>
      </trkpt>
      <trkpt lat="49.81803" lon="2.23915">
        <ele>62.3</ele>
        <time>2022-08-17T12:58:49Z</time>
      </trkpt>
      <trkpt lat="49.81802" lon="2.23913">
        <ele>62.3</ele>
        <time>2022-08-17T12:58:50Z</time>
      </trkpt>
      <trkpt lat="49.81802" lon="2.23912">
        <ele>62.3</ele>
        <time>2022-08-17T12:58:51Z</time>
      </trkpt>
      <trkpt lat="49.818" lon="2.2391">
        <ele>62.3</ele>
        <time>2022-08-17T12:58:53Z</time>
      </trkpt>
      <trkpt lat="49.818" lon="2.23909">
        <ele>62.2</ele>
        <time>2022-08-17T12:58:54Z</time>
      </trkpt>
      <trkpt lat="49.81798" lon="2.23907">
        <ele>62.2</ele>
        <time>2022-08-17T12:58:55Z</time>
      </trkpt>
      <trkpt lat="49.81797" lon="2.23906">
        <ele>62.2</ele>
        <time>2022-08-17T12:58:56Z</time>
      </trkpt>
      <trkpt lat="49.81795" lon="2.23903">
        <ele>62.2</ele>
        <time>2022-08-17T12:58:57Z</time>
      </trkpt>
      <trkpt lat="49.81795" lon="2.23901">
        <ele>62.2</ele>
        <time>2022-08-17T12:58:58Z</time>
      </trkpt>
      <trkpt lat="49.81793" lon="2.23898">
        <ele>62.2</ele>
        <time>2022-08-17T12:58:59Z</time>
      </trkpt>
      <trkpt lat="49.81792" lon="2.23897">
        <ele>62.2</ele>
        <time>2022-08-17T12:59:00Z</time>
      </trkpt>
      <trkpt lat="49.81791" lon="2.23895">
        <ele>62.2</ele>
        <time>2022-08-17T12:59:01Z</time>
      </trkpt>
      <trkpt lat="49.8179" lon="2.23893">
        <ele>62.2</ele>
        <time>2022-08-17T12:59:02Z</time>
      </trkpt>
      <trkpt lat="49.81789" lon="2.23892">
        <ele>62.2</ele>
        <time>2022-08-17T12:59:03Z</time>
      </trkpt>
      <trkpt lat="49.81787" lon="2.2389">
        <ele>62.2</ele>
        <time>2022-08-17T12:59:05Z</time>
      </trkpt>
      <trkpt lat="49.81786" lon="2.23888">
        <ele>62.3</ele>
        <time>2022-08-17T12:59:06Z</time>
      </trkpt>
      <trkpt lat="49.81785" lon="2.23886">
        <ele>62.3</ele>
        <time>2022-08-17T12:59:07Z</time>
      </trkpt>
      <trkpt lat="49.81784" lon="2.23885">
        <ele>62.3</ele>
        <time>2022-08-17T12:59:08Z</time>
      </trkpt>
      <trkpt lat="49.81781" lon="2.23882">
        <ele>62.4</ele>
        <time>2022-08-17T12:59:10Z</time>
      </trkpt>
      <trkpt lat="49.8178" lon="2.2388">
        <ele>62.4</ele>
        <time>2022-08-17T12:59:11Z</time>
      </trkpt>
      <trkpt lat="49.81779" lon="2.23879">
        <ele>62.4</ele>
        <time>2022-08-17T12:59:12Z</time>
      </trkpt>
      <trkpt lat="49.81777" lon="2.23878">
        <ele>62.5</ele>
        <time>2022-08-17T12:59:13Z</time>
      </trkpt>
      <trkpt lat="49.81776" lon="2.23876">
        <ele>62.5</ele>
        <time>2022-08-17T12:59:14Z</time>
      </trkpt>
      <trkpt lat="49.81775" lon="2.23875">
        <ele>62.6</ele>
        <time>2022-08-17T12:59:15Z</time>
      </trkpt>
      <trkpt lat="49.81774" lon="2.23874">
        <ele>62.6</ele>
        <time>2022-08-17T12:59:16Z</time>
      </trkpt>
      <trkpt lat="49.81773" lon="2.23874">
        <ele>62.6</ele>
        <time>2022-08-17T12:59:18Z</time>
      </trkpt>
      <trkpt lat="49.81773" lon="2.23873">
        <ele>62.6</ele>
        <time>2022-08-17T12:59:19Z</time>
      </trkpt>
      <trkpt lat="49.81772" lon="2.23873">
        <ele>62.7</ele>
        <time>2022-08-17T12:59:20Z</time>
      </trkpt>
      <trkpt lat="49.81771" lon="2.23872">
        <ele>62.7</ele>
        <time>2022-08-17T12:59:21Z</time>
      </trkpt>
      <trkpt lat="49.81771" lon="2.23871">
        <ele>62.7</ele>
        <time>2022-08-17T12:59:22Z</time>
      </trkpt>
      <trkpt lat="49.8177" lon="2.23871">
        <ele>62.7</ele>
        <time>2022-08-17T12:59:23Z</time>
      </trkpt>
      <trkpt lat="49.81769" lon="2.2387">
        <ele>62.8</ele>
        <time>2022-08-17T12:59:24Z</time>
      </trkpt>
      <trkpt lat="49.81768" lon="2.23869">
        <ele>62.8</ele>
        <time>2022-08-17T12:59:26Z</time>
      </trkpt>
      <trkpt lat="49.81768" lon="2.23868">
        <ele>62.8</ele>
        <time>2022-08-17T12:59:27Z</time>
      </trkpt>
      <trkpt lat="49.81767" lon="2.23867">
        <ele>62.9</ele>
        <time>2022-08-17T12:59:28Z</time>
      </trkpt>
      <trkpt lat="49.81766" lon="2.23866">
        <ele>62.9</ele>
        <time>2022-08-17T12:59:29Z</time>
      </trkpt>
      <trkpt lat="49.81765" lon="2.23866">
        <ele>63</ele>
        <time>2022-08-17T12:59:30Z</time>
      </trkpt>
      <trkpt lat="49.81764" lon="2.23865">
        <ele>63</ele>
        <time>2022-08-17T12:59:31Z</time>
      </trkpt>
      <trkpt lat="49.81763" lon="2.23864">
        <ele>63.1</ele>
        <time>2022-08-17T12:59:32Z</time>
      </trkpt>
      <trkpt lat="49.81764" lon="2.23865">
        <ele>63.1</ele>
        <time>2022-08-17T12:59:33Z</time>
      </trkpt>
      <trkpt lat="49.81763" lon="2.23864">
        <ele>63.1</ele>
        <time>2022-08-17T12:59:34Z</time>
      </trkpt>
      <trkpt lat="49.81763" lon="2.23863">
        <ele>63.1</ele>
        <time>2022-08-17T12:59:35Z</time>
      </trkpt>
      <trkpt lat="49.81762" lon="2.23862">
        <ele>63.2</ele>
        <time>2022-08-17T12:59:37Z</time>
      </trkpt>
      <trkpt lat="49.81762" lon="2.23863">
        <ele>63.2</ele>
        <time>2022-08-17T12:59:38Z</time>
      </trkpt>
      <trkpt lat="49.81761" lon="2.23863">
        <ele>63.2</ele>
        <time>2022-08-17T12:59:39Z</time>
      </trkpt>
      <trkpt lat="49.81761" lon="2.23864">
        <ele>63.3</ele>
        <time>2022-08-17T12:59:40Z</time>
      </trkpt>
      <trkpt lat="49.81761" lon="2.23864">
        <ele>63.3</ele>
        <time>2022-08-17T12:59:41Z</time>
      </trkpt>
      <trkpt lat="49.81762" lon="2.23865">
        <ele>63.3</ele>
        <time>2022-08-17T12:59:42Z</time>
      </trkpt>
      <trkpt lat="49.81763" lon="2.23865">
        <ele>63.3</ele>
        <time>2022-08-17T12:59:44Z</time>
      </trkpt>
      <trkpt lat="49.81763" lon="2.23865">
        <ele>63.3</ele>
        <time>2022-08-17T12:59:45Z</time>
      </trkpt>
      <trkpt lat="49.81763" lon="2.23866">
        <ele>63.4</ele>
        <time>2022-08-17T12:59:46Z</time>
      </trkpt>
      <trkpt lat="49.81763" lon="2.23867">
        <ele>63.4</ele>
        <time>2022-08-17T12:59:47Z</time>
      </trkpt>
      <trkpt lat="49.81763" lon="2.23867">
        <ele>63.4</ele>
        <time>2022-08-17T12:59:48Z</time>
      </trkpt>
      <trkpt lat="49.81763" lon="2.23868">
        <ele>63.4</ele>
        <time>2022-08-17T12:59:49Z</time>
      </trkpt>
      <trkpt lat="49.81764" lon="2.23868">
        <ele>63.5</ele>
        <time>2022-08-17T12:59:50Z</time>
      </trkpt>
      <trkpt lat="49.81764" lon="2.23869">
        <ele>63.5</ele>
        <time>2022-08-17T12:59:51Z</time>
      </trkpt>
      <trkpt lat="49.81764" lon="2.23869">
        <ele>63.5</ele>
        <time>2022-08-17T12:59:52Z</time>
      </trkpt>
      <trkpt lat="49.81765" lon="2.23869">
        <ele>63.5</ele>
        <time>2022-08-17T12:59:53Z</time>
      </trkpt>
      <trkpt lat="49.81765" lon="2.2387">
        <ele>63.5</ele>
        <time>2022-08-17T12:59:54Z</time>
      </trkpt>
      <trkpt lat="49.81765" lon="2.2387">
        <ele>63.6</ele>
        <time>2022-08-17T12:59:55Z</time>
      </trkpt>
      <trkpt lat="49.81765" lon="2.2387">
        <ele>63.6</ele>
        <time>2022-08-17T12:59:56Z</time>
      </trkpt>
      <trkpt lat="49.81766" lon="2.2387">
        <ele>63.6</ele>
        <time>2022-08-17T12:59:57Z</time>
      </trkpt>
      <trkpt lat="49.81767" lon="2.2387">
        <ele>63.6</ele>
        <time>2022-08-17T12:59:58Z</time>
      </trkpt>
      <trkpt lat="49.81767" lon="2.2387">
        <ele>63.6</ele>
        <time>2022-08-17T12:59:59Z</time>
      </trkpt>
      <trkpt lat="49.81767" lon="2.2387">
        <ele>63.7</ele>
        <time>2022-08-17T13:00:00Z</time>
      </trkpt>
      <trkpt lat="49.81767" lon="2.2387">
        <ele>63.7</ele>
        <time>2022-08-17T13:00:01Z</time>
      </trkpt>
      <trkpt lat="49.81767" lon="2.2387">
        <ele>63.7</ele>
        <time>2022-08-17T13:00:02Z</time>
      </trkpt>
      <trkpt lat="49.81768" lon="2.2387">
        <ele>63.7</ele>
        <time>2022-08-17T13:00:03Z</time>
      </trkpt>
      <trkpt lat="49.81768" lon="2.2387">
        <ele>63.7</ele>
        <time>2022-08-17T13:00:04Z</time>
      </trkpt>
      <trkpt lat="49.81768" lon="2.2387">
        <ele>63.7</ele>
        <time>2022-08-17T13:00:05Z</time>
      </trkpt>
      <trkpt lat="49.81768" lon="2.2387">
        <ele>63.7</ele>
        <time>2022-08-17T13:00:06Z</time>
      </trkpt>
      <trkpt lat="49.81769" lon="2.2387">
        <ele>63.7</ele>
        <time>2022-08-17T13:00:07Z</time>
      </trkpt>
      <trkpt lat="49.81769" lon="2.2387">
        <ele>63.7</ele>
        <time>2022-08-17T13:00:08Z</time>
      </trkpt>
      <trkpt lat="49.81769" lon="2.23871">
        <ele>63.8</ele>
        <time>2022-08-17T13:00:09Z</time>
      </trkpt>
      <trkpt lat="49.81769" lon="2.23871">
        <ele>63.8</ele>
        <time>2022-08-17T13:00:10Z</time>
      </trkpt>
      <trkpt lat="49.81769" lon="2.23871">
        <ele>63.8</ele>
        <time>2022-08-17T13:00:11Z</time>
      </trkpt>
      <trkpt lat="49.8177" lon="2.23871">
        <ele>63.8</ele>
        <time>2022-08-17T13:00:12Z</time>
      </trkpt>
      <trkpt lat="49.8177" lon="2.23871">
        <ele>63.8</ele>
        <time>2022-08-17T13:00:13Z</time>
      </trkpt>
      <trkpt lat="49.8177" lon="2.23871">
        <ele>63.8</ele>
        <time>2022-08-17T13:00:14Z</time>
      </trkpt>
      <trkpt lat="49.8177" lon="2.23871">
        <ele>63.8</ele>
        <time>2022-08-17T13:00:15Z</time>
      </trkpt>
      <trkpt lat="49.8177" lon="2.23871">
        <ele>63.8</ele>
        <time>2022-08-17T13:00:16Z</time>
      </trkpt>
      <trkpt lat="49.81772" lon="2.23872">
        <ele>63.9</ele>
        <time>2022-08-17T13:00:17Z</time>
      </trkpt>
      <trkpt lat="49.81773" lon="2.23872">
        <ele>64</ele>
        <time>2022-08-17T13:00:18Z</time>
      </trkpt>
      <trkpt lat="49.81773" lon="2.23872">
        <ele>64</ele>
        <time>2022-08-17T13:00:19Z</time>
      </trkpt>
      <trkpt lat="49.81773" lon="2.23872">
        <ele>64</ele>
        <time>2022-08-17T13:00:20Z</time>
      </trkpt>
      <trkpt lat="49.81773" lon="2.23872">
        <ele>64</ele>
        <time>2022-08-17T13:00:21Z</time>
      </trkpt>
      <trkpt lat="49.81773" lon="2.23872">
        <ele>64</ele>
        <time>2022-08-17T13:00:22Z</time>
      </trkpt>
      <trkpt lat="49.81773" lon="2.23872">
        <ele>64</ele>
        <time>2022-08-17T13:00:23Z</time>
      </trkpt>
      <trkpt lat="49.81773" lon="2.23871">
        <ele>64</ele>
        <time>2022-08-17T13:00:24Z</time>
      </trkpt>
      <trkpt lat="49.81773" lon="2.23871">
        <ele>64</ele>
        <time>2022-08-17T13:00:25Z</time>
      </trkpt>
      <trkpt lat="49.81773" lon="2.23871">
        <ele>64</ele>
        <time>2022-08-17T13:00:26Z</time>
      </trkpt>
      <trkpt lat="49.81773" lon="2.23871">
        <ele>64.1</ele>
        <time>2022-08-17T13:00:27Z</time>
      </trkpt>
      <trkpt lat="49.81773" lon="2.23871">
        <ele>64.1</ele>
        <time>2022-08-17T13:00:28Z</time>
      </trkpt>
      <trkpt lat="49.81773" lon="2.23871">
        <ele>64.1</ele>
        <time>2022-08-17T13:00:29Z</time>
      </trkpt>
      <trkpt lat="49.81773" lon="2.23871">
        <ele>64.1</ele>
        <time>2022-08-17T13:00:30Z</time>
      </trkpt>
      <trkpt lat="49.81772" lon="2.23871">
        <ele>64.1</ele>
        <time>2022-08-17T13:00:31Z</time>
      </trkpt>
      <trkpt lat="49.81772" lon="2.23871">
        <ele>64.1</ele>
        <time>2022-08-17T13:00:32Z</time>
      </trkpt>
      <trkpt lat="49.81772" lon="2.2387">
        <ele>64.1</ele>
        <time>2022-08-17T13:00:33Z</time>
      </trkpt>
      <trkpt lat="49.81772" lon="2.2387">
        <ele>64.1</ele>
        <time>2022-08-17T13:00:34Z</time>
      </trkpt>
      <trkpt lat="49.81772" lon="2.2387">
        <ele>64.1</ele>
        <time>2022-08-17T13:00:35Z</time>
      </trkpt>
      <trkpt lat="49.81772" lon="2.2387">
        <ele>64.1</ele>
        <time>2022-08-17T13:00:36Z</time>
      </trkpt>
      <trkpt lat="49.81772" lon="2.2387">
        <ele>64.1</ele>
        <time>2022-08-17T13:00:37Z</time>
      </trkpt>
      <trkpt lat="49.81772" lon="2.2387">
        <ele>64.1</ele>
        <time>2022-08-17T13:00:38Z</time>
      </trkpt>
      <trkpt lat="49.81772" lon="2.2387">
        <ele>64.1</ele>
        <time>2022-08-17T13:00:39Z</time>
      </trkpt>
      <trkpt lat="49.81772" lon="2.2387">
        <ele>64.1</ele>
        <time>2022-08-17T13:00:40Z</time>
      </trkpt>
      <trkpt lat="49.81772" lon="2.23869">
        <ele>64.1</ele>
        <time>2022-08-17T13:00:41Z</time>
      </trkpt>
      <trkpt lat="49.81771" lon="2.23869">
        <ele>64.1</ele>
        <time>2022-08-17T13:00:42Z</time>
      </trkpt>
      <trkpt lat="49.81771" lon="2.23869">
        <ele>64.1</ele>
        <time>2022-08-17T13:00:43Z</time>
      </trkpt>
      <trkpt lat="49.81771" lon="2.23869">
        <ele>64.2</ele>
        <time>2022-08-17T13:00:44Z</time>
      </trkpt>
      <trkpt lat="49.81771" lon="2.23869">
        <ele>64.2</ele>
        <time>2022-08-17T13:00:45Z</time>
      </trkpt>
      <trkpt lat="49.81771" lon="2.23869">
        <ele>64.2</ele>
        <time>2022-08-17T13:00:46Z</time>
      </trkpt>
      <trkpt lat="49.81771" lon="2.23869">
        <ele>64.2</ele>
        <time>2022-08-17T13:00:47Z</time>
      </trkpt>
      <trkpt lat="49.81771" lon="2.23869">
        <ele>64.2</ele>
        <time>2022-08-17T13:00:48Z</time>
      </trkpt>
      <trkpt lat="49.81771" lon="2.23869">
        <ele>64.2</ele>
        <time>2022-08-17T13:00:49Z</time>
      </trkpt>
      <trkpt lat="49.81771" lon="2.23868">
        <ele>64.2</ele>
        <time>2022-08-17T13:00:50Z</time>
      </trkpt>
      <trkpt lat="49.81771" lon="2.23868">
        <ele>64.2</ele>
        <time>2022-08-17T13:00:52Z</time>
      </trkpt>
      <trkpt lat="49.81771" lon="2.23868">
        <ele>64.2</ele>
        <time>2022-08-17T13:00:53Z</time>
      </trkpt>
      <trkpt lat="49.8177" lon="2.23866">
        <ele>64.3</ele>
        <time>2022-08-17T13:00:54Z</time>
      </trkpt>
      <trkpt lat="49.81769" lon="2.23865">
        <ele>64.3</ele>
        <time>2022-08-17T13:00:56Z</time>
      </trkpt>
      <trkpt lat="49.81768" lon="2.23865">
        <ele>64.4</ele>
        <time>2022-08-17T13:00:57Z</time>
      </trkpt>
      <trkpt lat="49.81767" lon="2.23864">
        <ele>64.4</ele>
        <time>2022-08-17T13:00:58Z</time>
      </trkpt>
      <trkpt lat="49.81766" lon="2.23864">
        <ele>64.5</ele>
        <time>2022-08-17T13:00:59Z</time>
      </trkpt>
      <trkpt lat="49.81764" lon="2.23865">
        <ele>64.5</ele>
        <time>2022-08-17T13:01:00Z</time>
      </trkpt>
      <trkpt lat="49.81763" lon="2.23866">
        <ele>64.6</ele>
        <time>2022-08-17T13:01:01Z</time>
      </trkpt>
      <trkpt lat="49.81762" lon="2.23867">
        <ele>64.6</ele>
        <time>2022-08-17T13:01:02Z</time>
      </trkpt>
      <trkpt lat="49.81761" lon="2.23868">
        <ele>64.6</ele>
        <time>2022-08-17T13:01:04Z</time>
      </trkpt>
      <trkpt lat="49.8176" lon="2.2387">
        <ele>64.6</ele>
        <time>2022-08-17T13:01:05Z</time>
      </trkpt>
      <trkpt lat="49.81759" lon="2.23871">
        <ele>64.6</ele>
        <time>2022-08-17T13:01:06Z</time>
      </trkpt>
      <trkpt lat="49.81757" lon="2.23873">
        <ele>64.6</ele>
        <time>2022-08-17T13:01:08Z</time>
      </trkpt>
      <trkpt lat="49.81755" lon="2.23874">
        <ele>64.6</ele>
        <time>2022-08-17T13:01:09Z</time>
      </trkpt>
      <trkpt lat="49.81754" lon="2.23875">
        <ele>64.6</ele>
        <time>2022-08-17T13:01:10Z</time>
      </trkpt>
      <trkpt lat="49.81753" lon="2.23876">
        <ele>64.6</ele>
        <time>2022-08-17T13:01:11Z</time>
      </trkpt>
      <trkpt lat="49.81752" lon="2.23876">
        <ele>64.6</ele>
        <time>2022-08-17T13:01:12Z</time>
      </trkpt>
      <trkpt lat="49.8175" lon="2.23877">
        <ele>64.6</ele>
        <time>2022-08-17T13:01:13Z</time>
      </trkpt>
      <trkpt lat="49.81748" lon="2.23878">
        <ele>64.6</ele>
        <time>2022-08-17T13:01:14Z</time>
      </trkpt>
      <trkpt lat="49.81747" lon="2.23878">
        <ele>64.7</ele>
        <time>2022-08-17T13:01:15Z</time>
      </trkpt>
      <trkpt lat="49.81746" lon="2.23879">
        <ele>64.7</ele>
        <time>2022-08-17T13:01:17Z</time>
      </trkpt>
      <trkpt lat="49.81744" lon="2.2388">
        <ele>64.7</ele>
        <time>2022-08-17T13:01:18Z</time>
      </trkpt>
      <trkpt lat="49.81743" lon="2.2388">
        <ele>64.7</ele>
        <time>2022-08-17T13:01:19Z</time>
      </trkpt>
      <trkpt lat="49.81741" lon="2.23882">
        <ele>64.7</ele>
        <time>2022-08-17T13:01:20Z</time>
      </trkpt>
      <trkpt lat="49.8174" lon="2.23882">
        <ele>64.7</ele>
        <time>2022-08-17T13:01:21Z</time>
      </trkpt>
      <trkpt lat="49.81739" lon="2.23883">
        <ele>64.7</ele>
        <time>2022-08-17T13:01:22Z</time>
      </trkpt>
      <trkpt lat="49.81738" lon="2.23884">
        <ele>64.7</ele>
        <time>2022-08-17T13:01:24Z</time>
      </trkpt>
      <trkpt lat="49.81736" lon="2.23885">
        <ele>64.8</ele>
        <time>2022-08-17T13:01:25Z</time>
      </trkpt>
      <trkpt lat="49.81735" lon="2.23886">
        <ele>64.8</ele>
        <time>2022-08-17T13:01:26Z</time>
      </trkpt>
      <trkpt lat="49.81734" lon="2.23887">
        <ele>64.8</ele>
        <time>2022-08-17T13:01:27Z</time>
      </trkpt>
      <trkpt lat="49.81732" lon="2.23888">
        <ele>64.8</ele>
        <time>2022-08-17T13:01:28Z</time>
      </trkpt>
      <trkpt lat="49.81731" lon="2.23889">
        <ele>64.9</ele>
        <time>2022-08-17T13:01:30Z</time>
      </trkpt>
      <trkpt lat="49.81729" lon="2.2389">
        <ele>64.9</ele>
        <time>2022-08-17T13:01:31Z</time>
      </trkpt>
      <trkpt lat="49.81728" lon="2.2389">
        <ele>64.9</ele>
        <time>2022-08-17T13:01:32Z</time>
      </trkpt>
      <trkpt lat="49.81727" lon="2.23891">
        <ele>64.9</ele>
        <time>2022-08-17T13:01:33Z</time>
      </trkpt>
      <trkpt lat="49.81725" lon="2.23892">
        <ele>65</ele>
        <time>2022-08-17T13:01:34Z</time>
      </trkpt>
      <trkpt lat="49.81724" lon="2.23892">
        <ele>65</ele>
        <time>2022-08-17T13:01:35Z</time>
      </trkpt>
      <trkpt lat="49.81724" lon="2.23893">
        <ele>65</ele>
        <time>2022-08-17T13:01:36Z</time>
      </trkpt>
      <trkpt lat="49.81723" lon="2.23893">
        <ele>65</ele>
        <time>2022-08-17T13:01:38Z</time>
      </trkpt>
      <trkpt lat="49.81722" lon="2.23894">
        <ele>65</ele>
        <time>2022-08-17T13:01:39Z</time>
      </trkpt>
      <trkpt lat="49.81721" lon="2.23894">
        <ele>65.1</ele>
        <time>2022-08-17T13:01:40Z</time>
      </trkpt>
      <trkpt lat="49.8172" lon="2.23895">
        <ele>65.1</ele>
        <time>2022-08-17T13:01:41Z</time>
      </trkpt>
      <trkpt lat="49.81718" lon="2.23896">
        <ele>65.1</ele>
        <time>2022-08-17T13:01:42Z</time>
      </trkpt>
      <trkpt lat="49.81717" lon="2.23897">
        <ele>65.1</ele>
        <time>2022-08-17T13:01:43Z</time>
      </trkpt>
      <trkpt lat="49.81716" lon="2.23898">
        <ele>65.1</ele>
        <time>2022-08-17T13:01:44Z</time>
      </trkpt>
      <trkpt lat="49.81715" lon="2.23899">
        <ele>65.2</ele>
        <time>2022-08-17T13:01:45Z</time>
      </trkpt>
      <trkpt lat="49.81714" lon="2.239">
        <ele>65.2</ele>
        <time>2022-08-17T13:01:46Z</time>
      </trkpt>
      <trkpt lat="49.81713" lon="2.23901">
        <ele>65.2</ele>
        <time>2022-08-17T13:01:48Z</time>
      </trkpt>
      <trkpt lat="49.81712" lon="2.23903">
        <ele>65.2</ele>
        <time>2022-08-17T13:01:49Z</time>
      </trkpt>
      <trkpt lat="49.81711" lon="2.23904">
        <ele>65.2</ele>
        <time>2022-08-17T13:01:50Z</time>
      </trkpt>
      <trkpt lat="49.8171" lon="2.23905">
        <ele>65.3</ele>
        <time>2022-08-17T13:01:51Z</time>
      </trkpt>
      <trkpt lat="49.81709" lon="2.23908">
        <ele>65.3</ele>
        <time>2022-08-17T13:01:52Z</time>
      </trkpt>
      <trkpt lat="49.81708" lon="2.23909">
        <ele>65.3</ele>
        <time>2022-08-17T13:01:53Z</time>
      </trkpt>
      <trkpt lat="49.81708" lon="2.2391">
        <ele>65.3</ele>
        <time>2022-08-17T13:01:54Z</time>
      </trkpt>
      <trkpt lat="49.81707" lon="2.23911">
        <ele>65.3</ele>
        <time>2022-08-17T13:01:55Z</time>
      </trkpt>
      <trkpt lat="49.81706" lon="2.23913">
        <ele>65.3</ele>
        <time>2022-08-17T13:01:56Z</time>
      </trkpt>
      <trkpt lat="49.81704" lon="2.23915">
        <ele>65.4</ele>
        <time>2022-08-17T13:01:58Z</time>
      </trkpt>
      <trkpt lat="49.81704" lon="2.23916">
        <ele>65.4</ele>
        <time>2022-08-17T13:01:59Z</time>
      </trkpt>
      <trkpt lat="49.81703" lon="2.23917">
        <ele>65.4</ele>
        <time>2022-08-17T13:02:00Z</time>
      </trkpt>
      <trkpt lat="49.81702" lon="2.2392">
        <ele>65.5</ele>
        <time>2022-08-17T13:02:01Z</time>
      </trkpt>
      <trkpt lat="49.81701" lon="2.23921">
        <ele>65.5</ele>
        <time>2022-08-17T13:02:02Z</time>
      </trkpt>
      <trkpt lat="49.81701" lon="2.23922">
        <ele>65.5</ele>
        <time>2022-08-17T13:02:03Z</time>
      </trkpt>
      <trkpt lat="49.81699" lon="2.23925">
        <ele>65.5</ele>
        <time>2022-08-17T13:02:04Z</time>
      </trkpt>
      <trkpt lat="49.81699" lon="2.23926">
        <ele>65.6</ele>
        <time>2022-08-17T13:02:05Z</time>
      </trkpt>
      <trkpt lat="49.81698" lon="2.23927">
        <ele>65.6</ele>
        <time>2022-08-17T13:02:06Z</time>
      </trkpt>
      <trkpt lat="49.81697" lon="2.23929">
        <ele>65.6</ele>
        <time>2022-08-17T13:02:08Z</time>
      </trkpt>
      <trkpt lat="49.81697" lon="2.23931">
        <ele>65.7</ele>
        <time>2022-08-17T13:02:09Z</time>
      </trkpt>
      <trkpt lat="49.81696" lon="2.23933">
        <ele>65.7</ele>
        <time>2022-08-17T13:02:10Z</time>
      </trkpt>
      <trkpt lat="49.81696" lon="2.23935">
        <ele>65.7</ele>
        <time>2022-08-17T13:02:11Z</time>
      </trkpt>
      <trkpt lat="49.81694" lon="2.23939">
        <ele>65.8</ele>
        <time>2022-08-17T13:02:12Z</time>
      </trkpt>
      <trkpt lat="49.81694" lon="2.2394">
        <ele>65.9</ele>
        <time>2022-08-17T13:02:13Z</time>
      </trkpt>
      <trkpt lat="49.81692" lon="2.23943">
        <ele>65.9</ele>
        <time>2022-08-17T13:02:14Z</time>
      </trkpt>
      <trkpt lat="49.81691" lon="2.23945">
        <ele>66</ele>
        <time>2022-08-17T13:02:15Z</time>
      </trkpt>
      <trkpt lat="49.81691" lon="2.23947">
        <ele>66</ele>
        <time>2022-08-17T13:02:16Z</time>
      </trkpt>
      <trkpt lat="49.8169" lon="2.23949">
        <ele>66.1</ele>
        <time>2022-08-17T13:02:18Z</time>
      </trkpt>
      <trkpt lat="49.81688" lon="2.2395">
        <ele>66.1</ele>
        <time>2022-08-17T13:02:19Z</time>
      </trkpt>
      <trkpt lat="49.81688" lon="2.23952">
        <ele>66.2</ele>
        <time>2022-08-17T13:02:20Z</time>
      </trkpt>
      <trkpt lat="49.81687" lon="2.23953">
        <ele>66.2</ele>
        <time>2022-08-17T13:02:21Z</time>
      </trkpt>
      <trkpt lat="49.81686" lon="2.23955">
        <ele>66.3</ele>
        <time>2022-08-17T13:02:22Z</time>
      </trkpt>
      <trkpt lat="49.81685" lon="2.23956">
        <ele>66.3</ele>
        <time>2022-08-17T13:02:23Z</time>
      </trkpt>
      <trkpt lat="49.81683" lon="2.23958">
        <ele>66.4</ele>
        <time>2022-08-17T13:02:24Z</time>
      </trkpt>
      <trkpt lat="49.81682" lon="2.2396">
        <ele>66.5</ele>
        <time>2022-08-17T13:02:25Z</time>
      </trkpt>
      <trkpt lat="49.81681" lon="2.23962">
        <ele>66.6</ele>
        <time>2022-08-17T13:02:27Z</time>
      </trkpt>
      <trkpt lat="49.8168" lon="2.23963">
        <ele>66.6</ele>
        <time>2022-08-17T13:02:28Z</time>
      </trkpt>
      <trkpt lat="49.81679" lon="2.23965">
        <ele>66.7</ele>
        <time>2022-08-17T13:02:29Z</time>
      </trkpt>
      <trkpt lat="49.81678" lon="2.23967">
        <ele>66.8</ele>
        <time>2022-08-17T13:02:30Z</time>
      </trkpt>
      <trkpt lat="49.81677" lon="2.23969">
        <ele>66.9</ele>
        <time>2022-08-17T13:02:31Z</time>
      </trkpt>
      <trkpt lat="49.81676" lon="2.23971">
        <ele>66.9</ele>
        <time>2022-08-17T13:02:32Z</time>
      </trkpt>
      <trkpt lat="49.81675" lon="2.23973">
        <ele>67</ele>
        <time>2022-08-17T13:02:33Z</time>
      </trkpt>
      <trkpt lat="49.81674" lon="2.23974">
        <ele>67.1</ele>
        <time>2022-08-17T13:02:34Z</time>
      </trkpt>
      <trkpt lat="49.81673" lon="2.23976">
        <ele>67.2</ele>
        <time>2022-08-17T13:02:36Z</time>
      </trkpt>
      <trkpt lat="49.81672" lon="2.23978">
        <ele>67.3</ele>
        <time>2022-08-17T13:02:37Z</time>
      </trkpt>
      <trkpt lat="49.81671" lon="2.2398">
        <ele>67.4</ele>
        <time>2022-08-17T13:02:38Z</time>
      </trkpt>
      <trkpt lat="49.8167" lon="2.23981">
        <ele>67.4</ele>
        <time>2022-08-17T13:02:39Z</time>
      </trkpt>
      <trkpt lat="49.81669" lon="2.23983">
        <ele>67.5</ele>
        <time>2022-08-17T13:02:40Z</time>
      </trkpt>
      <trkpt lat="49.81668" lon="2.23984">
        <ele>67.6</ele>
        <time>2022-08-17T13:02:41Z</time>
      </trkpt>
      <trkpt lat="49.81667" lon="2.23985">
        <ele>67.6</ele>
        <time>2022-08-17T13:02:42Z</time>
      </trkpt>
      <trkpt lat="49.81666" lon="2.23986">
        <ele>67.7</ele>
        <time>2022-08-17T13:02:44Z</time>
      </trkpt>
      <trkpt lat="49.81665" lon="2.23988">
        <ele>67.8</ele>
        <time>2022-08-17T13:02:45Z</time>
      </trkpt>
      <trkpt lat="49.81664" lon="2.23989">
        <ele>67.9</ele>
        <time>2022-08-17T13:02:46Z</time>
      </trkpt>
      <trkpt lat="49.81663" lon="2.23992">
        <ele>68</ele>
        <time>2022-08-17T13:02:47Z</time>
      </trkpt>
      <trkpt lat="49.81662" lon="2.23993">
        <ele>68</ele>
        <time>2022-08-17T13:02:48Z</time>
      </trkpt>
      <trkpt lat="49.81662" lon="2.23995">
        <ele>68.1</ele>
        <time>2022-08-17T13:02:49Z</time>
      </trkpt>
      <trkpt lat="49.81661" lon="2.23996">
        <ele>68.1</ele>
        <time>2022-08-17T13:02:50Z</time>
      </trkpt>
      <trkpt lat="49.81661" lon="2.23998">
        <ele>68.2</ele>
        <time>2022-08-17T13:02:51Z</time>
      </trkpt>
      <trkpt lat="49.8166" lon="2.24">
        <ele>68.3</ele>
        <time>2022-08-17T13:02:53Z</time>
      </trkpt>
      <trkpt lat="49.8166" lon="2.24002">
        <ele>68.3</ele>
        <time>2022-08-17T13:02:54Z</time>
      </trkpt>
      <trkpt lat="49.81661" lon="2.24003">
        <ele>68.4</ele>
        <time>2022-08-17T13:02:55Z</time>
      </trkpt>
      <trkpt lat="49.81661" lon="2.24005">
        <ele>68.5</ele>
        <time>2022-08-17T13:02:56Z</time>
      </trkpt>
      <trkpt lat="49.81661" lon="2.24007">
        <ele>68.5</ele>
        <time>2022-08-17T13:02:57Z</time>
      </trkpt>
      <trkpt lat="49.81661" lon="2.24009">
        <ele>68.6</ele>
        <time>2022-08-17T13:02:58Z</time>
      </trkpt>
      <trkpt lat="49.81662" lon="2.24013">
        <ele>68.7</ele>
        <time>2022-08-17T13:02:59Z</time>
      </trkpt>
      <trkpt lat="49.81662" lon="2.24014">
        <ele>68.8</ele>
        <time>2022-08-17T13:03:01Z</time>
      </trkpt>
      <trkpt lat="49.81662" lon="2.24016">
        <ele>68.9</ele>
        <time>2022-08-17T13:03:02Z</time>
      </trkpt>
      <trkpt lat="49.81662" lon="2.24018">
        <ele>68.9</ele>
        <time>2022-08-17T13:03:03Z</time>
      </trkpt>
      <trkpt lat="49.81663" lon="2.24019">
        <ele>69</ele>
        <time>2022-08-17T13:03:04Z</time>
      </trkpt>
      <trkpt lat="49.81663" lon="2.24022">
        <ele>69.1</ele>
        <time>2022-08-17T13:03:05Z</time>
      </trkpt>
      <trkpt lat="49.81663" lon="2.24024">
        <ele>69.2</ele>
        <time>2022-08-17T13:03:06Z</time>
      </trkpt>
      <trkpt lat="49.81663" lon="2.24027">
        <ele>69.3</ele>
        <time>2022-08-17T13:03:08Z</time>
      </trkpt>
      <trkpt lat="49.81664" lon="2.24029">
        <ele>69.4</ele>
        <time>2022-08-17T13:03:09Z</time>
      </trkpt>
      <trkpt lat="49.81665" lon="2.24031">
        <ele>69.5</ele>
        <time>2022-08-17T13:03:10Z</time>
      </trkpt>
      <trkpt lat="49.81665" lon="2.24032">
        <ele>69.6</ele>
        <time>2022-08-17T13:03:11Z</time>
      </trkpt>
      <trkpt lat="49.81666" lon="2.24032">
        <ele>69.6</ele>
        <time>2022-08-17T13:03:12Z</time>
      </trkpt>
      <trkpt lat="49.81666" lon="2.24033">
        <ele>69.6</ele>
        <time>2022-08-17T13:03:13Z</time>
      </trkpt>
      <trkpt lat="49.81667" lon="2.24035">
        <ele>69.7</ele>
        <time>2022-08-17T13:03:14Z</time>
      </trkpt>
      <trkpt lat="49.81667" lon="2.24038">
        <ele>69.8</ele>
        <time>2022-08-17T13:03:16Z</time>
      </trkpt>
      <trkpt lat="49.81667" lon="2.2404">
        <ele>69.9</ele>
        <time>2022-08-17T13:03:17Z</time>
      </trkpt>
      <trkpt lat="49.81667" lon="2.24042">
        <ele>70</ele>
        <time>2022-08-17T13:03:18Z</time>
      </trkpt>
      <trkpt lat="49.81667" lon="2.24044">
        <ele>70.1</ele>
        <time>2022-08-17T13:03:19Z</time>
      </trkpt>
      <trkpt lat="49.81668" lon="2.24046">
        <ele>70.2</ele>
        <time>2022-08-17T13:03:20Z</time>
      </trkpt>
      <trkpt lat="49.81668" lon="2.24048">
        <ele>70.3</ele>
        <time>2022-08-17T13:03:22Z</time>
      </trkpt>
      <trkpt lat="49.81668" lon="2.2405">
        <ele>70.4</ele>
        <time>2022-08-17T13:03:23Z</time>
      </trkpt>
      <trkpt lat="49.81668" lon="2.24051">
        <ele>70.4</ele>
        <time>2022-08-17T13:03:24Z</time>
      </trkpt>
      <trkpt lat="49.81668" lon="2.24054">
        <ele>70.6</ele>
        <time>2022-08-17T13:03:25Z</time>
      </trkpt>
      <trkpt lat="49.81668" lon="2.24056">
        <ele>70.7</ele>
        <time>2022-08-17T13:03:26Z</time>
      </trkpt>
      <trkpt lat="49.81668" lon="2.24057">
        <ele>70.7</ele>
        <time>2022-08-17T13:03:27Z</time>
      </trkpt>
      <trkpt lat="49.81668" lon="2.24059">
        <ele>70.8</ele>
        <time>2022-08-17T13:03:29Z</time>
      </trkpt>
      <trkpt lat="49.81667" lon="2.24061">
        <ele>70.9</ele>
        <time>2022-08-17T13:03:30Z</time>
      </trkpt>
      <trkpt lat="49.81667" lon="2.24062">
        <ele>71</ele>
        <time>2022-08-17T13:03:31Z</time>
      </trkpt>
      <trkpt lat="49.81667" lon="2.24064">
        <ele>71</ele>
        <time>2022-08-17T13:03:32Z</time>
      </trkpt>
      <trkpt lat="49.81667" lon="2.24065">
        <ele>71.1</ele>
        <time>2022-08-17T13:03:33Z</time>
      </trkpt>
      <trkpt lat="49.81666" lon="2.24067">
        <ele>71.2</ele>
        <time>2022-08-17T13:03:34Z</time>
      </trkpt>
      <trkpt lat="49.81666" lon="2.24068">
        <ele>71.2</ele>
        <time>2022-08-17T13:03:36Z</time>
      </trkpt>
      <trkpt lat="49.81666" lon="2.2407">
        <ele>71.3</ele>
        <time>2022-08-17T13:03:37Z</time>
      </trkpt>
      <trkpt lat="49.81665" lon="2.24072">
        <ele>71.4</ele>
        <time>2022-08-17T13:03:38Z</time>
      </trkpt>
      <trkpt lat="49.81665" lon="2.24074">
        <ele>71.5</ele>
        <time>2022-08-17T13:03:39Z</time>
      </trkpt>
      <trkpt lat="49.81665" lon="2.24076">
        <ele>71.6</ele>
        <time>2022-08-17T13:03:40Z</time>
      </trkpt>
      <trkpt lat="49.81665" lon="2.24079">
        <ele>71.8</ele>
        <time>2022-08-17T13:03:41Z</time>
      </trkpt>
      <trkpt lat="49.81664" lon="2.24082">
        <ele>71.9</ele>
        <time>2022-08-17T13:03:42Z</time>
      </trkpt>
      <trkpt lat="49.81664" lon="2.24084">
        <ele>72</ele>
        <time>2022-08-17T13:03:44Z</time>
      </trkpt>
      <trkpt lat="49.81663" lon="2.24087">
        <ele>72.1</ele>
        <time>2022-08-17T13:03:45Z</time>
      </trkpt>
      <trkpt lat="49.81663" lon="2.24089">
        <ele>72.2</ele>
        <time>2022-08-17T13:03:46Z</time>
      </trkpt>
      <trkpt lat="49.81663" lon="2.24091">
        <ele>72.3</ele>
        <time>2022-08-17T13:03:47Z</time>
      </trkpt>
      <trkpt lat="49.81662" lon="2.24093">
        <ele>72.4</ele>
        <time>2022-08-17T13:03:48Z</time>
      </trkpt>
      <trkpt lat="49.81662" lon="2.24095">
        <ele>72.5</ele>
        <time>2022-08-17T13:03:49Z</time>
      </trkpt>
      <trkpt lat="49.81661" lon="2.24097">
        <ele>72.6</ele>
        <time>2022-08-17T13:03:50Z</time>
      </trkpt>
      <trkpt lat="49.81661" lon="2.24099">
        <ele>72.7</ele>
        <time>2022-08-17T13:03:51Z</time>
      </trkpt>
      <trkpt lat="49.8166" lon="2.24101">
        <ele>72.8</ele>
        <time>2022-08-17T13:03:53Z</time>
      </trkpt>
      <trkpt lat="49.81659" lon="2.24104">
        <ele>73</ele>
        <time>2022-08-17T13:03:54Z</time>
      </trkpt>
      <trkpt lat="49.81659" lon="2.24105">
        <ele>73</ele>
        <time>2022-08-17T13:03:55Z</time>
      </trkpt>
      <trkpt lat="49.81659" lon="2.24107">
        <ele>73.1</ele>
        <time>2022-08-17T13:03:56Z</time>
      </trkpt>
      <trkpt lat="49.81658" lon="2.2411">
        <ele>73.3</ele>
        <time>2022-08-17T13:03:57Z</time>
      </trkpt>
      <trkpt lat="49.81658" lon="2.24112">
        <ele>73.4</ele>
        <time>2022-08-17T13:03:59Z</time>
      </trkpt>
      <trkpt lat="49.81657" lon="2.24114">
        <ele>73.4</ele>
        <time>2022-08-17T13:04:00Z</time>
      </trkpt>
      <trkpt lat="49.81657" lon="2.24115">
        <ele>73.5</ele>
        <time>2022-08-17T13:04:01Z</time>
      </trkpt>
      <trkpt lat="49.81657" lon="2.24117">
        <ele>73.6</ele>
        <time>2022-08-17T13:04:02Z</time>
      </trkpt>
      <trkpt lat="49.81656" lon="2.24119">
        <ele>73.7</ele>
        <time>2022-08-17T13:04:03Z</time>
      </trkpt>
      <trkpt lat="49.81656" lon="2.24121">
        <ele>73.8</ele>
        <time>2022-08-17T13:04:04Z</time>
      </trkpt>
      <trkpt lat="49.81656" lon="2.24122">
        <ele>73.8</ele>
        <time>2022-08-17T13:04:05Z</time>
      </trkpt>
      <trkpt lat="49.81656" lon="2.24125">
        <ele>74</ele>
        <time>2022-08-17T13:04:07Z</time>
      </trkpt>
      <trkpt lat="49.81655" lon="2.24127">
        <ele>74.1</ele>
        <time>2022-08-17T13:04:08Z</time>
      </trkpt>
      <trkpt lat="49.81655" lon="2.24128">
        <ele>74.1</ele>
        <time>2022-08-17T13:04:09Z</time>
      </trkpt>
      <trkpt lat="49.81655" lon="2.2413">
        <ele>74.2</ele>
        <time>2022-08-17T13:04:10Z</time>
      </trkpt>
      <trkpt lat="49.81654" lon="2.24132">
        <ele>74.3</ele>
        <time>2022-08-17T13:04:11Z</time>
      </trkpt>
      <trkpt lat="49.81653" lon="2.24134">
        <ele>74.4</ele>
        <time>2022-08-17T13:04:12Z</time>
      </trkpt>
      <trkpt lat="49.81653" lon="2.24137">
        <ele>74.6</ele>
        <time>2022-08-17T13:04:14Z</time>
      </trkpt>
      <trkpt lat="49.81653" lon="2.24139">
        <ele>74.7</ele>
        <time>2022-08-17T13:04:15Z</time>
      </trkpt>
      <trkpt lat="49.81652" lon="2.24141">
        <ele>74.8</ele>
        <time>2022-08-17T13:04:16Z</time>
      </trkpt>
      <trkpt lat="49.81652" lon="2.24143">
        <ele>74.9</ele>
        <time>2022-08-17T13:04:17Z</time>
      </trkpt>
      <trkpt lat="49.81651" lon="2.24145">
        <ele>75</ele>
        <time>2022-08-17T13:04:18Z</time>
      </trkpt>
      <trkpt lat="49.81651" lon="2.24147">
        <ele>75.1</ele>
        <time>2022-08-17T13:04:19Z</time>
      </trkpt>
      <trkpt lat="49.8165" lon="2.2415">
        <ele>75.2</ele>
        <time>2022-08-17T13:04:20Z</time>
      </trkpt>
      <trkpt lat="49.8165" lon="2.24153">
        <ele>75.3</ele>
        <time>2022-08-17T13:04:22Z</time>
      </trkpt>
      <trkpt lat="49.8165" lon="2.24154">
        <ele>75.4</ele>
        <time>2022-08-17T13:04:23Z</time>
      </trkpt>
      <trkpt lat="49.81649" lon="2.24155">
        <ele>75.5</ele>
        <time>2022-08-17T13:04:24Z</time>
      </trkpt>
      <trkpt lat="49.81649" lon="2.24157">
        <ele>75.6</ele>
        <time>2022-08-17T13:04:25Z</time>
      </trkpt>
      <trkpt lat="49.81649" lon="2.24159">
        <ele>75.7</ele>
        <time>2022-08-17T13:04:26Z</time>
      </trkpt>
      <trkpt lat="49.81649" lon="2.24161">
        <ele>75.8</ele>
        <time>2022-08-17T13:04:28Z</time>
      </trkpt>
      <trkpt lat="49.81648" lon="2.24164">
        <ele>75.9</ele>
        <time>2022-08-17T13:04:29Z</time>
      </trkpt>
      <trkpt lat="49.81648" lon="2.24167">
        <ele>76.1</ele>
        <time>2022-08-17T13:04:30Z</time>
      </trkpt>
      <trkpt lat="49.81648" lon="2.24169">
        <ele>76.2</ele>
        <time>2022-08-17T13:04:31Z</time>
      </trkpt>
      <trkpt lat="49.81648" lon="2.2417">
        <ele>76.3</ele>
        <time>2022-08-17T13:04:32Z</time>
      </trkpt>
      <trkpt lat="49.81647" lon="2.24173">
        <ele>76.4</ele>
        <time>2022-08-17T13:04:33Z</time>
      </trkpt>
      <trkpt lat="49.81647" lon="2.24176">
        <ele>76.5</ele>
        <time>2022-08-17T13:04:34Z</time>
      </trkpt>
      <trkpt lat="49.81646" lon="2.24178">
        <ele>76.7</ele>
        <time>2022-08-17T13:04:36Z</time>
      </trkpt>
      <trkpt lat="49.81646" lon="2.24181">
        <ele>76.8</ele>
        <time>2022-08-17T13:04:37Z</time>
      </trkpt>
      <trkpt lat="49.81646" lon="2.24183">
        <ele>76.9</ele>
        <time>2022-08-17T13:04:38Z</time>
      </trkpt>
      <trkpt lat="49.81645" lon="2.24186">
        <ele>77</ele>
        <time>2022-08-17T13:04:39Z</time>
      </trkpt>
      <trkpt lat="49.81645" lon="2.24188">
        <ele>77.2</ele>
        <time>2022-08-17T13:04:40Z</time>
      </trkpt>
      <trkpt lat="49.81644" lon="2.24191">
        <ele>77.3</ele>
        <time>2022-08-17T13:04:41Z</time>
      </trkpt>
      <trkpt lat="49.81644" lon="2.24193">
        <ele>77.4</ele>
        <time>2022-08-17T13:04:43Z</time>
      </trkpt>
      <trkpt lat="49.81643" lon="2.24196">
        <ele>77.6</ele>
        <time>2022-08-17T13:04:44Z</time>
      </trkpt>
      <trkpt lat="49.81643" lon="2.24198">
        <ele>77.7</ele>
        <time>2022-08-17T13:04:45Z</time>
      </trkpt>
      <trkpt lat="49.81642" lon="2.24201">
        <ele>77.8</ele>
        <time>2022-08-17T13:04:46Z</time>
      </trkpt>
      <trkpt lat="49.81642" lon="2.24203">
        <ele>78</ele>
        <time>2022-08-17T13:04:47Z</time>
      </trkpt>
      <trkpt lat="49.81641" lon="2.24206">
        <ele>78.1</ele>
        <time>2022-08-17T13:04:48Z</time>
      </trkpt>
      <trkpt lat="49.81641" lon="2.24207">
        <ele>78.2</ele>
        <time>2022-08-17T13:04:49Z</time>
      </trkpt>
      <trkpt lat="49.81641" lon="2.24209">
        <ele>78.7</ele>
        <time>2022-08-17T13:04:51Z</time>
      </trkpt>
      <trkpt lat="49.8164" lon="2.24211">
        <ele>78.7</ele>
        <time>2022-08-17T13:04:52Z</time>
      </trkpt>
      <trkpt lat="49.81641" lon="2.24205">
        <ele>79</ele>
        <time>2022-08-17T13:04:53Z</time>
      </trkpt>
      <trkpt lat="49.81641" lon="2.24207">
        <ele>79</ele>
        <time>2022-08-17T13:04:54Z</time>
      </trkpt>
      <trkpt lat="49.81641" lon="2.24208">
        <ele>79</ele>
        <time>2022-08-17T13:04:55Z</time>
      </trkpt>
      <trkpt lat="49.81641" lon="2.24209">
        <ele>79.1</ele>
        <time>2022-08-17T13:04:56Z</time>
      </trkpt>
      <trkpt lat="49.81641" lon="2.2421">
        <ele>79.1</ele>
        <time>2022-08-17T13:04:58Z</time>
      </trkpt>
      <trkpt lat="49.8164" lon="2.24211">
        <ele>79.2</ele>
        <time>2022-08-17T13:04:59Z</time>
      </trkpt>
      <trkpt lat="49.8164" lon="2.24212">
        <ele>79.2</ele>
        <time>2022-08-17T13:05:00Z</time>
      </trkpt>
      <trkpt lat="49.8164" lon="2.24213">
        <ele>79.3</ele>
        <time>2022-08-17T13:05:01Z</time>
      </trkpt>
      <trkpt lat="49.8164" lon="2.24215">
        <ele>79.4</ele>
        <time>2022-08-17T13:05:02Z</time>
      </trkpt>
      <trkpt lat="49.8164" lon="2.24217">
        <ele>79.5</ele>
        <time>2022-08-17T13:05:04Z</time>
      </trkpt>
      <trkpt lat="49.8164" lon="2.24218">
        <ele>79.5</ele>
        <time>2022-08-17T13:05:05Z</time>
      </trkpt>
      <trkpt lat="49.8164" lon="2.24219">
        <ele>79.6</ele>
        <time>2022-08-17T13:05:06Z</time>
      </trkpt>
      <trkpt lat="49.8164" lon="2.24221">
        <ele>79.7</ele>
        <time>2022-08-17T13:05:07Z</time>
      </trkpt>
      <trkpt lat="49.81639" lon="2.24223">
        <ele>79.8</ele>
        <time>2022-08-17T13:05:08Z</time>
      </trkpt>
      <trkpt lat="49.81639" lon="2.24223">
        <ele>79.8</ele>
        <time>2022-08-17T13:05:09Z</time>
      </trkpt>
      <trkpt lat="49.81639" lon="2.24223">
        <ele>79.9</ele>
        <time>2022-08-17T13:05:10Z</time>
      </trkpt>
      <trkpt lat="49.81639" lon="2.24224">
        <ele>79.9</ele>
        <time>2022-08-17T13:05:11Z</time>
      </trkpt>
      <trkpt lat="49.81639" lon="2.24225">
        <ele>80</ele>
        <time>2022-08-17T13:05:12Z</time>
      </trkpt>
      <trkpt lat="49.81639" lon="2.24227">
        <ele>80.1</ele>
        <time>2022-08-17T13:05:14Z</time>
      </trkpt>
      <trkpt lat="49.81638" lon="2.2423">
        <ele>80.3</ele>
        <time>2022-08-17T13:05:15Z</time>
      </trkpt>
      <trkpt lat="49.81638" lon="2.24232">
        <ele>80.4</ele>
        <time>2022-08-17T13:05:17Z</time>
      </trkpt>
      <trkpt lat="49.81637" lon="2.24233">
        <ele>80.5</ele>
        <time>2022-08-17T13:05:18Z</time>
      </trkpt>
      <trkpt lat="49.81637" lon="2.24235">
        <ele>80.7</ele>
        <time>2022-08-17T13:05:19Z</time>
      </trkpt>
      <trkpt lat="49.81636" lon="2.24235">
        <ele>80.7</ele>
        <time>2022-08-17T13:05:20Z</time>
      </trkpt>
      <trkpt lat="49.81636" lon="2.24236">
        <ele>80.8</ele>
        <time>2022-08-17T13:05:21Z</time>
      </trkpt>
      <trkpt lat="49.81635" lon="2.24235">
        <ele>80.9</ele>
        <time>2022-08-17T13:05:23Z</time>
      </trkpt>
      <trkpt lat="49.81635" lon="2.24235">
        <ele>81</ele>
        <time>2022-08-17T13:05:24Z</time>
      </trkpt>
      <trkpt lat="49.81634" lon="2.24235">
        <ele>81.1</ele>
        <time>2022-08-17T13:05:25Z</time>
      </trkpt>
      <trkpt lat="49.81633" lon="2.24235">
        <ele>81.2</ele>
        <time>2022-08-17T13:05:26Z</time>
      </trkpt>
      <trkpt lat="49.81632" lon="2.24235">
        <ele>81.3</ele>
        <time>2022-08-17T13:05:27Z</time>
      </trkpt>
      <trkpt lat="49.81631" lon="2.24235">
        <ele>81.5</ele>
        <time>2022-08-17T13:05:28Z</time>
      </trkpt>
      <trkpt lat="49.8163" lon="2.24234">
        <ele>81.6</ele>
        <time>2022-08-17T13:05:30Z</time>
      </trkpt>
      <trkpt lat="49.81629" lon="2.24229">
        <ele>82</ele>
        <time>2022-08-17T13:05:31Z</time>
      </trkpt>
      <trkpt lat="49.81628" lon="2.24227">
        <ele>82.2</ele>
        <time>2022-08-17T13:05:32Z</time>
      </trkpt>
      <trkpt lat="49.81627" lon="2.24226">
        <ele>82.4</ele>
        <time>2022-08-17T13:05:33Z</time>
      </trkpt>
      <trkpt lat="49.81626" lon="2.24226">
        <ele>82.6</ele>
        <time>2022-08-17T13:05:34Z</time>
      </trkpt>
      <trkpt lat="49.81625" lon="2.24225">
        <ele>82.8</ele>
        <time>2022-08-17T13:05:35Z</time>
      </trkpt>
      <trkpt lat="49.81623" lon="2.24225">
        <ele>83</ele>
        <time>2022-08-17T13:05:37Z</time>
      </trkpt>
      <trkpt lat="49.81622" lon="2.24224">
        <ele>83.2</ele>
        <time>2022-08-17T13:05:38Z</time>
      </trkpt>
      <trkpt lat="49.81621" lon="2.24223">
        <ele>83.4</ele>
        <time>2022-08-17T13:05:39Z</time>
      </trkpt>
      <trkpt lat="49.81619" lon="2.24222">
        <ele>83.6</ele>
        <time>2022-08-17T13:05:40Z</time>
      </trkpt>
      <trkpt lat="49.81617" lon="2.2422">
        <ele>83.9</ele>
        <time>2022-08-17T13:05:41Z</time>
      </trkpt>
      <trkpt lat="49.81617" lon="2.2422">
        <ele>84</ele>
        <time>2022-08-17T13:05:43Z</time>
      </trkpt>
      <trkpt lat="49.81616" lon="2.24219">
        <ele>84.2</ele>
        <time>2022-08-17T13:05:44Z</time>
      </trkpt>
      <trkpt lat="49.81615" lon="2.24219">
        <ele>84.3</ele>
        <time>2022-08-17T13:05:45Z</time>
      </trkpt>
      <trkpt lat="49.81614" lon="2.24218">
        <ele>84.5</ele>
        <time>2022-08-17T13:05:46Z</time>
      </trkpt>
      <trkpt lat="49.81613" lon="2.24218">
        <ele>84.6</ele>
        <time>2022-08-17T13:05:47Z</time>
      </trkpt>
      <trkpt lat="49.81611" lon="2.24217">
        <ele>84.9</ele>
        <time>2022-08-17T13:05:48Z</time>
      </trkpt>
      <trkpt lat="49.8161" lon="2.24216">
        <ele>85</ele>
        <time>2022-08-17T13:05:50Z</time>
      </trkpt>
      <trkpt lat="49.81609" lon="2.24216">
        <ele>85.1</ele>
        <time>2022-08-17T13:05:51Z</time>
      </trkpt>
      <trkpt lat="49.81608" lon="2.24215">
        <ele>85.3</ele>
        <time>2022-08-17T13:05:52Z</time>
      </trkpt>
      <trkpt lat="49.81607" lon="2.24214">
        <ele>85.5</ele>
        <time>2022-08-17T13:05:53Z</time>
      </trkpt>
      <trkpt lat="49.81605" lon="2.24213">
        <ele>85.8</ele>
        <time>2022-08-17T13:05:54Z</time>
      </trkpt>
      <trkpt lat="49.81603" lon="2.24212">
        <ele>86</ele>
        <time>2022-08-17T13:05:56Z</time>
      </trkpt>
      <trkpt lat="49.81601" lon="2.24211">
        <ele>86.3</ele>
        <time>2022-08-17T13:05:57Z</time>
      </trkpt>
      <trkpt lat="49.816" lon="2.2421">
        <ele>86.4</ele>
        <time>2022-08-17T13:05:58Z</time>
      </trkpt>
      <trkpt lat="49.816" lon="2.2421">
        <ele>86.5</ele>
        <time>2022-08-17T13:05:59Z</time>
      </trkpt>
      <trkpt lat="49.81598" lon="2.24209">
        <ele>86.6</ele>
        <time>2022-08-17T13:06:00Z</time>
      </trkpt>
      <trkpt lat="49.81597" lon="2.24209">
        <ele>86.8</ele>
        <time>2022-08-17T13:06:01Z</time>
      </trkpt>
      <trkpt lat="49.81596" lon="2.24208">
        <ele>86.9</ele>
        <time>2022-08-17T13:06:03Z</time>
      </trkpt>
      <trkpt lat="49.81595" lon="2.24208">
        <ele>87</ele>
        <time>2022-08-17T13:06:04Z</time>
      </trkpt>
      <trkpt lat="49.81595" lon="2.24208">
        <ele>87</ele>
        <time>2022-08-17T13:06:05Z</time>
      </trkpt>
      <trkpt lat="49.81595" lon="2.24208">
        <ele>87.1</ele>
        <time>2022-08-17T13:06:06Z</time>
      </trkpt>
      <trkpt lat="49.81594" lon="2.24208">
        <ele>87.1</ele>
        <time>2022-08-17T13:06:08Z</time>
      </trkpt>
      <trkpt lat="49.81593" lon="2.24208">
        <ele>87.2</ele>
        <time>2022-08-17T13:06:09Z</time>
      </trkpt>
      <trkpt lat="49.81592" lon="2.24208">
        <ele>87.3</ele>
        <time>2022-08-17T13:06:11Z</time>
      </trkpt>
      <trkpt lat="49.81592" lon="2.24208">
        <ele>87.4</ele>
        <time>2022-08-17T13:06:12Z</time>
      </trkpt>
      <trkpt lat="49.81591" lon="2.24208">
        <ele>87.4</ele>
        <time>2022-08-17T13:06:14Z</time>
      </trkpt>
      <trkpt lat="49.81591" lon="2.24208">
        <ele>87.5</ele>
        <time>2022-08-17T13:06:15Z</time>
      </trkpt>
      <trkpt lat="49.81591" lon="2.24209">
        <ele>87.5</ele>
        <time>2022-08-17T13:06:17Z</time>
      </trkpt>
      <trkpt lat="49.81591" lon="2.24209">
        <ele>87.6</ele>
        <time>2022-08-17T13:06:18Z</time>
      </trkpt>
      <trkpt lat="49.8159" lon="2.24209">
        <ele>87.7</ele>
        <time>2022-08-17T13:06:19Z</time>
      </trkpt>
      <trkpt lat="49.81589" lon="2.24209">
        <ele>87.8</ele>
        <time>2022-08-17T13:06:20Z</time>
      </trkpt>
      <trkpt lat="49.81588" lon="2.2421">
        <ele>87.9</ele>
        <time>2022-08-17T13:06:22Z</time>
      </trkpt>
      <trkpt lat="49.81587" lon="2.2421">
        <ele>88</ele>
        <time>2022-08-17T13:06:23Z</time>
      </trkpt>
      <trkpt lat="49.81586" lon="2.2421">
        <ele>88.1</ele>
        <time>2022-08-17T13:06:25Z</time>
      </trkpt>
      <trkpt lat="49.81585" lon="2.2421">
        <ele>88.2</ele>
        <time>2022-08-17T13:06:26Z</time>
      </trkpt>
      <trkpt lat="49.81583" lon="2.24211">
        <ele>88.3</ele>
        <time>2022-08-17T13:06:27Z</time>
      </trkpt>
      <trkpt lat="49.81583" lon="2.24211">
        <ele>88.4</ele>
        <time>2022-08-17T13:06:28Z</time>
      </trkpt>
      <trkpt lat="49.81581" lon="2.24211">
        <ele>88.5</ele>
        <time>2022-08-17T13:06:29Z</time>
      </trkpt>
      <trkpt lat="49.81581" lon="2.24212">
        <ele>88.6</ele>
        <time>2022-08-17T13:06:30Z</time>
      </trkpt>
      <trkpt lat="49.8158" lon="2.24212">
        <ele>88.7</ele>
        <time>2022-08-17T13:06:31Z</time>
      </trkpt>
      <trkpt lat="49.81579" lon="2.24212">
        <ele>88.7</ele>
        <time>2022-08-17T13:06:32Z</time>
      </trkpt>
      <trkpt lat="49.81578" lon="2.24212">
        <ele>88.8</ele>
        <time>2022-08-17T13:06:34Z</time>
      </trkpt>
      <trkpt lat="49.81577" lon="2.24212">
        <ele>88.9</ele>
        <time>2022-08-17T13:06:35Z</time>
      </trkpt>
      <trkpt lat="49.81577" lon="2.24212">
        <ele>88.9</ele>
        <time>2022-08-17T13:06:36Z</time>
      </trkpt>
      <trkpt lat="49.81577" lon="2.24212">
        <ele>88.9</ele>
        <time>2022-08-17T13:06:37Z</time>
      </trkpt>
      <trkpt lat="49.81577" lon="2.24212">
        <ele>89</ele>
        <time>2022-08-17T13:06:38Z</time>
      </trkpt>
      <trkpt lat="49.81576" lon="2.24212">
        <ele>89</ele>
        <time>2022-08-17T13:06:40Z</time>
      </trkpt>
      <trkpt lat="49.81576" lon="2.24213">
        <ele>89</ele>
        <time>2022-08-17T13:06:41Z</time>
      </trkpt>
      <trkpt lat="49.81576" lon="2.24213">
        <ele>89</ele>
        <time>2022-08-17T13:06:42Z</time>
      </trkpt>
      <trkpt lat="49.81575" lon="2.24213">
        <ele>89.1</ele>
        <time>2022-08-17T13:06:43Z</time>
      </trkpt>
      <trkpt lat="49.81575" lon="2.24212">
        <ele>89.1</ele>
        <time>2022-08-17T13:06:45Z</time>
      </trkpt>
      <trkpt lat="49.81576" lon="2.2421">
        <ele>89.2</ele>
        <time>2022-08-17T13:06:46Z</time>
      </trkpt>
      <trkpt lat="49.81575" lon="2.24209">
        <ele>89.3</ele>
        <time>2022-08-17T13:06:47Z</time>
      </trkpt>
      <trkpt lat="49.81574" lon="2.24209">
        <ele>89.4</ele>
        <time>2022-08-17T13:06:49Z</time>
      </trkpt>
      <trkpt lat="49.81573" lon="2.24208">
        <ele>89.5</ele>
        <time>2022-08-17T13:06:50Z</time>
      </trkpt>
      <trkpt lat="49.81572" lon="2.24208">
        <ele>89.5</ele>
        <time>2022-08-17T13:06:51Z</time>
      </trkpt>
      <trkpt lat="49.81571" lon="2.24208">
        <ele>89.6</ele>
        <time>2022-08-17T13:06:52Z</time>
      </trkpt>
      <trkpt lat="49.8157" lon="2.24208">
        <ele>89.7</ele>
        <time>2022-08-17T13:06:53Z</time>
      </trkpt>
      <trkpt lat="49.81569" lon="2.24209">
        <ele>89.8</ele>
        <time>2022-08-17T13:06:54Z</time>
      </trkpt>
      <trkpt lat="49.81568" lon="2.24208">
        <ele>89.9</ele>
        <time>2022-08-17T13:06:56Z</time>
      </trkpt>
      <trkpt lat="49.81567" lon="2.24208">
        <ele>90</ele>
        <time>2022-08-17T13:06:57Z</time>
      </trkpt>
      <trkpt lat="49.81566" lon="2.24208">
        <ele>90</ele>
        <time>2022-08-17T13:06:58Z</time>
      </trkpt>
      <trkpt lat="49.81565" lon="2.24207">
        <ele>90.1</ele>
        <time>2022-08-17T13:07:00Z</time>
      </trkpt>
      <trkpt lat="49.81564" lon="2.24207">
        <ele>90.2</ele>
        <time>2022-08-17T13:07:01Z</time>
      </trkpt>
      <trkpt lat="49.81563" lon="2.24207">
        <ele>90.3</ele>
        <time>2022-08-17T13:07:02Z</time>
      </trkpt>
      <trkpt lat="49.81562" lon="2.24206">
        <ele>90.4</ele>
        <time>2022-08-17T13:07:04Z</time>
      </trkpt>
      <trkpt lat="49.81561" lon="2.24206">
        <ele>90.4</ele>
        <time>2022-08-17T13:07:05Z</time>
      </trkpt>
      <trkpt lat="49.8156" lon="2.24206">
        <ele>90.5</ele>
        <time>2022-08-17T13:07:06Z</time>
      </trkpt>
      <trkpt lat="49.8156" lon="2.24205">
        <ele>90.5</ele>
        <time>2022-08-17T13:07:07Z</time>
      </trkpt>
      <trkpt lat="49.81559" lon="2.24205">
        <ele>90.6</ele>
        <time>2022-08-17T13:07:08Z</time>
      </trkpt>
      <trkpt lat="49.81558" lon="2.24205">
        <ele>90.7</ele>
        <time>2022-08-17T13:07:09Z</time>
      </trkpt>
      <trkpt lat="49.81557" lon="2.24204">
        <ele>90.8</ele>
        <time>2022-08-17T13:07:10Z</time>
      </trkpt>
      <trkpt lat="49.81555" lon="2.24204">
        <ele>90.9</ele>
        <time>2022-08-17T13:07:11Z</time>
      </trkpt>
      <trkpt lat="49.81554" lon="2.24203">
        <ele>91</ele>
        <time>2022-08-17T13:07:13Z</time>
      </trkpt>
      <trkpt lat="49.81552" lon="2.24202">
        <ele>91.1</ele>
        <time>2022-08-17T13:07:14Z</time>
      </trkpt>
      <trkpt lat="49.81551" lon="2.24202">
        <ele>91.2</ele>
        <time>2022-08-17T13:07:15Z</time>
      </trkpt>
      <trkpt lat="49.81549" lon="2.24202">
        <ele>91.3</ele>
        <time>2022-08-17T13:07:17Z</time>
      </trkpt>
      <trkpt lat="49.81549" lon="2.24201">
        <ele>91.3</ele>
        <time>2022-08-17T13:07:18Z</time>
      </trkpt>
      <trkpt lat="49.81549" lon="2.24201">
        <ele>91.3</ele>
        <time>2022-08-17T13:07:19Z</time>
      </trkpt>
      <trkpt lat="49.81547" lon="2.24199">
        <ele>91.5</ele>
        <time>2022-08-17T13:07:20Z</time>
      </trkpt>
      <trkpt lat="49.81546" lon="2.24198">
        <ele>91.6</ele>
        <time>2022-08-17T13:07:22Z</time>
      </trkpt>
      <trkpt lat="49.81544" lon="2.24197">
        <ele>91.7</ele>
        <time>2022-08-17T13:07:23Z</time>
      </trkpt>
      <trkpt lat="49.81543" lon="2.24196">
        <ele>91.8</ele>
        <time>2022-08-17T13:07:24Z</time>
      </trkpt>
      <trkpt lat="49.81542" lon="2.24195">
        <ele>91.8</ele>
        <time>2022-08-17T13:07:25Z</time>
      </trkpt>
      <trkpt lat="49.81541" lon="2.24194">
        <ele>91.9</ele>
        <time>2022-08-17T13:07:27Z</time>
      </trkpt>
      <trkpt lat="49.8154" lon="2.24194">
        <ele>92</ele>
        <time>2022-08-17T13:07:28Z</time>
      </trkpt>
      <trkpt lat="49.81539" lon="2.24194">
        <ele>92</ele>
        <time>2022-08-17T13:07:29Z</time>
      </trkpt>
      <trkpt lat="49.81538" lon="2.24193">
        <ele>92.1</ele>
        <time>2022-08-17T13:07:30Z</time>
      </trkpt>
      <trkpt lat="49.81538" lon="2.24193">
        <ele>92.1</ele>
        <time>2022-08-17T13:07:31Z</time>
      </trkpt>
      <trkpt lat="49.81537" lon="2.24193">
        <ele>92.1</ele>
        <time>2022-08-17T13:07:32Z</time>
      </trkpt>
      <trkpt lat="49.81536" lon="2.24192">
        <ele>92.2</ele>
        <time>2022-08-17T13:07:33Z</time>
      </trkpt>
      <trkpt lat="49.81536" lon="2.24191">
        <ele>92.3</ele>
        <time>2022-08-17T13:07:35Z</time>
      </trkpt>
      <trkpt lat="49.81535" lon="2.24191">
        <ele>92.3</ele>
        <time>2022-08-17T13:07:36Z</time>
      </trkpt>
      <trkpt lat="49.81534" lon="2.2419">
        <ele>92.4</ele>
        <time>2022-08-17T13:07:37Z</time>
      </trkpt>
      <trkpt lat="49.81533" lon="2.24189">
        <ele>92.4</ele>
        <time>2022-08-17T13:07:38Z</time>
      </trkpt>
      <trkpt lat="49.81532" lon="2.24188">
        <ele>92.5</ele>
        <time>2022-08-17T13:07:39Z</time>
      </trkpt>
      <trkpt lat="49.81531" lon="2.24188">
        <ele>92.5</ele>
        <time>2022-08-17T13:07:40Z</time>
      </trkpt>
      <trkpt lat="49.81531" lon="2.24187">
        <ele>92.6</ele>
        <time>2022-08-17T13:07:41Z</time>
      </trkpt>
      <trkpt lat="49.81531" lon="2.24188">
        <ele>92.6</ele>
        <time>2022-08-17T13:07:42Z</time>
      </trkpt>
      <trkpt lat="49.8153" lon="2.24187">
        <ele>92.7</ele>
        <time>2022-08-17T13:07:43Z</time>
      </trkpt>
      <trkpt lat="49.81529" lon="2.24187">
        <ele>92.7</ele>
        <time>2022-08-17T13:07:44Z</time>
      </trkpt>
      <trkpt lat="49.81529" lon="2.24186">
        <ele>92.8</ele>
        <time>2022-08-17T13:07:46Z</time>
      </trkpt>
      <trkpt lat="49.81528" lon="2.24186">
        <ele>92.8</ele>
        <time>2022-08-17T13:07:47Z</time>
      </trkpt>
      <trkpt lat="49.81527" lon="2.24186">
        <ele>92.9</ele>
        <time>2022-08-17T13:07:48Z</time>
      </trkpt>
      <trkpt lat="49.81526" lon="2.24186">
        <ele>92.9</ele>
        <time>2022-08-17T13:07:49Z</time>
      </trkpt>
      <trkpt lat="49.81525" lon="2.24185">
        <ele>93</ele>
        <time>2022-08-17T13:07:50Z</time>
      </trkpt>
      <trkpt lat="49.81524" lon="2.24185">
        <ele>93</ele>
        <time>2022-08-17T13:07:52Z</time>
      </trkpt>
      <trkpt lat="49.81524" lon="2.24185">
        <ele>93.1</ele>
        <time>2022-08-17T13:07:53Z</time>
      </trkpt>
      <trkpt lat="49.81523" lon="2.24184">
        <ele>93.1</ele>
        <time>2022-08-17T13:07:54Z</time>
      </trkpt>
      <trkpt lat="49.81521" lon="2.24183">
        <ele>93.2</ele>
        <time>2022-08-17T13:07:55Z</time>
      </trkpt>
      <trkpt lat="49.8152" lon="2.24183">
        <ele>93.3</ele>
        <time>2022-08-17T13:07:56Z</time>
      </trkpt>
      <trkpt lat="49.81519" lon="2.24182">
        <ele>93.3</ele>
        <time>2022-08-17T13:07:57Z</time>
      </trkpt>
      <trkpt lat="49.81518" lon="2.24181">
        <ele>93.5</ele>
        <time>2022-08-17T13:07:58Z</time>
      </trkpt>
      <trkpt lat="49.81517" lon="2.2418">
        <ele>93.5</ele>
        <time>2022-08-17T13:08:00Z</time>
      </trkpt>
      <trkpt lat="49.81517" lon="2.2418">
        <ele>93.5</ele>
        <time>2022-08-17T13:08:01Z</time>
      </trkpt>
      <trkpt lat="49.81516" lon="2.24179">
        <ele>93.6</ele>
        <time>2022-08-17T13:08:02Z</time>
      </trkpt>
      <trkpt lat="49.81515" lon="2.24178">
        <ele>93.6</ele>
        <time>2022-08-17T13:08:03Z</time>
      </trkpt>
      <trkpt lat="49.81514" lon="2.24178">
        <ele>93.7</ele>
        <time>2022-08-17T13:08:04Z</time>
      </trkpt>
      <trkpt lat="49.81513" lon="2.24177">
        <ele>93.8</ele>
        <time>2022-08-17T13:08:05Z</time>
      </trkpt>
      <trkpt lat="49.81511" lon="2.24176">
        <ele>93.9</ele>
        <time>2022-08-17T13:08:06Z</time>
      </trkpt>
      <trkpt lat="49.8151" lon="2.24175">
        <ele>94</ele>
        <time>2022-08-17T13:08:07Z</time>
      </trkpt>
      <trkpt lat="49.81508" lon="2.24175">
        <ele>94.1</ele>
        <time>2022-08-17T13:08:08Z</time>
      </trkpt>
      <trkpt lat="49.81507" lon="2.24174">
        <ele>94.2</ele>
        <time>2022-08-17T13:08:09Z</time>
      </trkpt>
      <trkpt lat="49.81505" lon="2.24173">
        <ele>94.2</ele>
        <time>2022-08-17T13:08:11Z</time>
      </trkpt>
      <trkpt lat="49.81504" lon="2.24172">
        <ele>94.3</ele>
        <time>2022-08-17T13:08:12Z</time>
      </trkpt>
      <trkpt lat="49.81503" lon="2.24171">
        <ele>94.4</ele>
        <time>2022-08-17T13:08:13Z</time>
      </trkpt>
      <trkpt lat="49.81501" lon="2.2417">
        <ele>94.5</ele>
        <time>2022-08-17T13:08:14Z</time>
      </trkpt>
      <trkpt lat="49.81498" lon="2.24169">
        <ele>94.7</ele>
        <time>2022-08-17T13:08:15Z</time>
      </trkpt>
      <trkpt lat="49.81497" lon="2.24168">
        <ele>94.7</ele>
        <time>2022-08-17T13:08:17Z</time>
      </trkpt>
      <trkpt lat="49.81496" lon="2.24167">
        <ele>94.8</ele>
        <time>2022-08-17T13:08:18Z</time>
      </trkpt>
      <trkpt lat="49.81494" lon="2.24166">
        <ele>94.9</ele>
        <time>2022-08-17T13:08:19Z</time>
      </trkpt>
      <trkpt lat="49.81493" lon="2.24165">
        <ele>95</ele>
        <time>2022-08-17T13:08:20Z</time>
      </trkpt>
      <trkpt lat="49.81491" lon="2.24164">
        <ele>95.1</ele>
        <time>2022-08-17T13:08:21Z</time>
      </trkpt>
      <trkpt lat="49.8149" lon="2.24163">
        <ele>95.2</ele>
        <time>2022-08-17T13:08:23Z</time>
      </trkpt>
      <trkpt lat="49.81489" lon="2.24162">
        <ele>95.2</ele>
        <time>2022-08-17T13:08:24Z</time>
      </trkpt>
      <trkpt lat="49.81488" lon="2.24161">
        <ele>95.3</ele>
        <time>2022-08-17T13:08:25Z</time>
      </trkpt>
      <trkpt lat="49.81487" lon="2.24161">
        <ele>95.3</ele>
        <time>2022-08-17T13:08:26Z</time>
      </trkpt>
      <trkpt lat="49.81486" lon="2.24161">
        <ele>95.4</ele>
        <time>2022-08-17T13:08:27Z</time>
      </trkpt>
      <trkpt lat="49.81486" lon="2.2416">
        <ele>95.5</ele>
        <time>2022-08-17T13:08:28Z</time>
      </trkpt>
      <trkpt lat="49.81485" lon="2.2416">
        <ele>95.5</ele>
        <time>2022-08-17T13:08:29Z</time>
      </trkpt>
      <trkpt lat="49.81484" lon="2.2416">
        <ele>95.5</ele>
        <time>2022-08-17T13:08:31Z</time>
      </trkpt>
      <trkpt lat="49.81483" lon="2.24159">
        <ele>95.6</ele>
        <time>2022-08-17T13:08:32Z</time>
      </trkpt>
      <trkpt lat="49.81483" lon="2.2416">
        <ele>95.6</ele>
        <time>2022-08-17T13:08:33Z</time>
      </trkpt>
      <trkpt lat="49.81482" lon="2.2416">
        <ele>95.7</ele>
        <time>2022-08-17T13:08:34Z</time>
      </trkpt>
      <trkpt lat="49.81481" lon="2.24159">
        <ele>95.7</ele>
        <time>2022-08-17T13:08:35Z</time>
      </trkpt>
      <trkpt lat="49.81481" lon="2.24159">
        <ele>95.7</ele>
        <time>2022-08-17T13:08:36Z</time>
      </trkpt>
      <trkpt lat="49.8148" lon="2.24159">
        <ele>95.8</ele>
        <time>2022-08-17T13:08:37Z</time>
      </trkpt>
      <trkpt lat="49.81479" lon="2.24158">
        <ele>95.8</ele>
        <time>2022-08-17T13:08:39Z</time>
      </trkpt>
      <trkpt lat="49.81478" lon="2.24158">
        <ele>95.9</ele>
        <time>2022-08-17T13:08:40Z</time>
      </trkpt>
      <trkpt lat="49.81477" lon="2.24158">
        <ele>96</ele>
        <time>2022-08-17T13:08:41Z</time>
      </trkpt>
      <trkpt lat="49.81476" lon="2.24158">
        <ele>96</ele>
        <time>2022-08-17T13:08:42Z</time>
      </trkpt>
      <trkpt lat="49.81475" lon="2.24158">
        <ele>96.1</ele>
        <time>2022-08-17T13:08:43Z</time>
      </trkpt>
      <trkpt lat="49.81474" lon="2.24157">
        <ele>96.2</ele>
        <time>2022-08-17T13:08:44Z</time>
      </trkpt>
      <trkpt lat="49.81473" lon="2.24157">
        <ele>96.2</ele>
        <time>2022-08-17T13:08:46Z</time>
      </trkpt>
      <trkpt lat="49.81473" lon="2.24157">
        <ele>96.2</ele>
        <time>2022-08-17T13:08:47Z</time>
      </trkpt>
      <trkpt lat="49.81471" lon="2.24157">
        <ele>96.3</ele>
        <time>2022-08-17T13:08:48Z</time>
      </trkpt>
      <trkpt lat="49.8147" lon="2.24156">
        <ele>96.4</ele>
        <time>2022-08-17T13:08:49Z</time>
      </trkpt>
      <trkpt lat="49.81467" lon="2.24155">
        <ele>96.6</ele>
        <time>2022-08-17T13:08:50Z</time>
      </trkpt>
      <trkpt lat="49.81466" lon="2.24154">
        <ele>96.6</ele>
        <time>2022-08-17T13:08:51Z</time>
      </trkpt>
      <trkpt lat="49.81465" lon="2.24154">
        <ele>96.7</ele>
        <time>2022-08-17T13:08:53Z</time>
      </trkpt>
      <trkpt lat="49.81463" lon="2.24153">
        <ele>96.8</ele>
        <time>2022-08-17T13:08:54Z</time>
      </trkpt>
      <trkpt lat="49.81462" lon="2.24152">
        <ele>96.9</ele>
        <time>2022-08-17T13:08:55Z</time>
      </trkpt>
      <trkpt lat="49.8146" lon="2.24151">
        <ele>97</ele>
        <time>2022-08-17T13:08:56Z</time>
      </trkpt>
      <trkpt lat="49.81459" lon="2.2415">
        <ele>97</ele>
        <time>2022-08-17T13:08:57Z</time>
      </trkpt>
      <trkpt lat="49.81458" lon="2.2415">
        <ele>97.1</ele>
        <time>2022-08-17T13:08:58Z</time>
      </trkpt>
      <trkpt lat="49.81457" lon="2.24149">
        <ele>97.2</ele>
        <time>2022-08-17T13:08:59Z</time>
      </trkpt>
      <trkpt lat="49.81456" lon="2.24148">
        <ele>97.2</ele>
        <time>2022-08-17T13:09:01Z</time>
      </trkpt>
      <trkpt lat="49.81455" lon="2.24148">
        <ele>97.3</ele>
        <time>2022-08-17T13:09:02Z</time>
      </trkpt>
      <trkpt lat="49.81455" lon="2.24147">
        <ele>97.3</ele>
        <time>2022-08-17T13:09:03Z</time>
      </trkpt>
      <trkpt lat="49.81454" lon="2.24147">
        <ele>97.3</ele>
        <time>2022-08-17T13:09:04Z</time>
      </trkpt>
      <trkpt lat="49.81454" lon="2.24147">
        <ele>97.4</ele>
        <time>2022-08-17T13:09:05Z</time>
      </trkpt>
      <trkpt lat="49.81453" lon="2.24146">
        <ele>97.4</ele>
        <time>2022-08-17T13:09:06Z</time>
      </trkpt>
      <trkpt lat="49.81452" lon="2.24146">
        <ele>97.4</ele>
        <time>2022-08-17T13:09:07Z</time>
      </trkpt>
      <trkpt lat="49.81451" lon="2.24145">
        <ele>97.5</ele>
        <time>2022-08-17T13:09:09Z</time>
      </trkpt>
      <trkpt lat="49.81451" lon="2.24144">
        <ele>97.5</ele>
        <time>2022-08-17T13:09:10Z</time>
      </trkpt>
      <trkpt lat="49.8145" lon="2.24144">
        <ele>97.6</ele>
        <time>2022-08-17T13:09:11Z</time>
      </trkpt>
      <trkpt lat="49.81449" lon="2.24144">
        <ele>97.6</ele>
        <time>2022-08-17T13:09:12Z</time>
      </trkpt>
      <trkpt lat="49.81448" lon="2.24143">
        <ele>97.7</ele>
        <time>2022-08-17T13:09:13Z</time>
      </trkpt>
      <trkpt lat="49.81447" lon="2.24142">
        <ele>97.7</ele>
        <time>2022-08-17T13:09:14Z</time>
      </trkpt>
      <trkpt lat="49.81445" lon="2.24141">
        <ele>97.8</ele>
        <time>2022-08-17T13:09:15Z</time>
      </trkpt>
      <trkpt lat="49.81444" lon="2.24141">
        <ele>97.9</ele>
        <time>2022-08-17T13:09:17Z</time>
      </trkpt>
      <trkpt lat="49.81443" lon="2.2414">
        <ele>97.9</ele>
        <time>2022-08-17T13:09:18Z</time>
      </trkpt>
      <trkpt lat="49.81441" lon="2.24138">
        <ele>98</ele>
        <time>2022-08-17T13:09:19Z</time>
      </trkpt>
      <trkpt lat="49.8144" lon="2.24137">
        <ele>98.1</ele>
        <time>2022-08-17T13:09:20Z</time>
      </trkpt>
      <trkpt lat="49.81439" lon="2.24137">
        <ele>98.1</ele>
        <time>2022-08-17T13:09:21Z</time>
      </trkpt>
      <trkpt lat="49.81437" lon="2.24136">
        <ele>98.2</ele>
        <time>2022-08-17T13:09:22Z</time>
      </trkpt>
      <trkpt lat="49.81436" lon="2.24134">
        <ele>98.3</ele>
        <time>2022-08-17T13:09:23Z</time>
      </trkpt>
      <trkpt lat="49.81434" lon="2.24133">
        <ele>98.4</ele>
        <time>2022-08-17T13:09:25Z</time>
      </trkpt>
      <trkpt lat="49.81433" lon="2.24132">
        <ele>98.4</ele>
        <time>2022-08-17T13:09:26Z</time>
      </trkpt>
      <trkpt lat="49.81433" lon="2.24132">
        <ele>98.4</ele>
        <time>2022-08-17T13:09:27Z</time>
      </trkpt>
      <trkpt lat="49.81431" lon="2.2413">
        <ele>98.5</ele>
        <time>2022-08-17T13:09:28Z</time>
      </trkpt>
      <trkpt lat="49.8143" lon="2.2413">
        <ele>98.6</ele>
        <time>2022-08-17T13:09:29Z</time>
      </trkpt>
      <trkpt lat="49.81429" lon="2.24129">
        <ele>98.6</ele>
        <time>2022-08-17T13:09:30Z</time>
      </trkpt>
      <trkpt lat="49.81428" lon="2.24129">
        <ele>98.7</ele>
        <time>2022-08-17T13:09:32Z</time>
      </trkpt>
      <trkpt lat="49.81427" lon="2.24129">
        <ele>98.7</ele>
        <time>2022-08-17T13:09:33Z</time>
      </trkpt>
      <trkpt lat="49.81426" lon="2.24128">
        <ele>98.8</ele>
        <time>2022-08-17T13:09:34Z</time>
      </trkpt>
      <trkpt lat="49.81426" lon="2.24128">
        <ele>98.8</ele>
        <time>2022-08-17T13:09:35Z</time>
      </trkpt>
      <trkpt lat="49.81424" lon="2.24127">
        <ele>98.9</ele>
        <time>2022-08-17T13:09:36Z</time>
      </trkpt>
      <trkpt lat="49.81423" lon="2.24127">
        <ele>98.9</ele>
        <time>2022-08-17T13:09:37Z</time>
      </trkpt>
      <trkpt lat="49.81421" lon="2.24126">
        <ele>99</ele>
        <time>2022-08-17T13:09:38Z</time>
      </trkpt>
      <trkpt lat="49.8142" lon="2.24126">
        <ele>99.1</ele>
        <time>2022-08-17T13:09:40Z</time>
      </trkpt>
      <trkpt lat="49.81418" lon="2.24125">
        <ele>99.1</ele>
        <time>2022-08-17T13:09:41Z</time>
      </trkpt>
      <trkpt lat="49.81417" lon="2.24124">
        <ele>99.2</ele>
        <time>2022-08-17T13:09:42Z</time>
      </trkpt>
      <trkpt lat="49.81415" lon="2.24123">
        <ele>99.3</ele>
        <time>2022-08-17T13:09:43Z</time>
      </trkpt>
      <trkpt lat="49.81415" lon="2.24123">
        <ele>99.3</ele>
        <time>2022-08-17T13:09:44Z</time>
      </trkpt>
      <trkpt lat="49.81414" lon="2.24122">
        <ele>99.3</ele>
        <time>2022-08-17T13:09:45Z</time>
      </trkpt>
      <trkpt lat="49.81412" lon="2.24121">
        <ele>99.4</ele>
        <time>2022-08-17T13:09:46Z</time>
      </trkpt>
      <trkpt lat="49.81411" lon="2.24121">
        <ele>99.5</ele>
        <time>2022-08-17T13:09:47Z</time>
      </trkpt>
      <trkpt lat="49.8141" lon="2.24121">
        <ele>99.5</ele>
        <time>2022-08-17T13:09:49Z</time>
      </trkpt>
      <trkpt lat="49.81409" lon="2.24121">
        <ele>99.5</ele>
        <time>2022-08-17T13:09:50Z</time>
      </trkpt>
      <trkpt lat="49.81409" lon="2.24121">
        <ele>99.5</ele>
        <time>2022-08-17T13:09:51Z</time>
      </trkpt>
      <trkpt lat="49.81408" lon="2.24121">
        <ele>99.6</ele>
        <time>2022-08-17T13:09:52Z</time>
      </trkpt>
      <trkpt lat="49.81407" lon="2.24121">
        <ele>99.6</ele>
        <time>2022-08-17T13:09:53Z</time>
      </trkpt>
      <trkpt lat="49.81406" lon="2.2412">
        <ele>99.7</ele>
        <time>2022-08-17T13:09:54Z</time>
      </trkpt>
      <trkpt lat="49.81404" lon="2.24119">
        <ele>99.7</ele>
        <time>2022-08-17T13:09:55Z</time>
      </trkpt>
      <trkpt lat="49.81403" lon="2.24118">
        <ele>99.8</ele>
        <time>2022-08-17T13:09:56Z</time>
      </trkpt>
      <trkpt lat="49.81401" lon="2.24117">
        <ele>99.8</ele>
        <time>2022-08-17T13:09:57Z</time>
      </trkpt>
      <trkpt lat="49.814" lon="2.24117">
        <ele>99.9</ele>
        <time>2022-08-17T13:09:59Z</time>
      </trkpt>
      <trkpt lat="49.814" lon="2.24115">
        <ele>99.9</ele>
        <time>2022-08-17T13:10:00Z</time>
      </trkpt>
      <trkpt lat="49.81399" lon="2.24114">
        <ele>99.9</ele>
        <time>2022-08-17T13:10:01Z</time>
      </trkpt>
      <trkpt lat="49.81398" lon="2.24113">
        <ele>100</ele>
        <time>2022-08-17T13:10:02Z</time>
      </trkpt>
      <trkpt lat="49.81397" lon="2.24112">
        <ele>100</ele>
        <time>2022-08-17T13:10:03Z</time>
      </trkpt>
      <trkpt lat="49.81396" lon="2.24111">
        <ele>100</ele>
        <time>2022-08-17T13:10:04Z</time>
      </trkpt>
      <trkpt lat="49.81395" lon="2.2411">
        <ele>100.1</ele>
        <time>2022-08-17T13:10:05Z</time>
      </trkpt>
      <trkpt lat="49.81394" lon="2.2411">
        <ele>100.1</ele>
        <time>2022-08-17T13:10:07Z</time>
      </trkpt>
      <trkpt lat="49.81393" lon="2.2411">
        <ele>100.1</ele>
        <time>2022-08-17T13:10:08Z</time>
      </trkpt>
      <trkpt lat="49.81393" lon="2.2411">
        <ele>100.1</ele>
        <time>2022-08-17T13:10:09Z</time>
      </trkpt>
      <trkpt lat="49.81392" lon="2.24109">
        <ele>100.2</ele>
        <time>2022-08-17T13:10:10Z</time>
      </trkpt>
      <trkpt lat="49.81391" lon="2.24109">
        <ele>100.2</ele>
        <time>2022-08-17T13:10:11Z</time>
      </trkpt>
      <trkpt lat="49.8139" lon="2.24108">
        <ele>100.2</ele>
        <time>2022-08-17T13:10:12Z</time>
      </trkpt>
      <trkpt lat="49.81389" lon="2.24108">
        <ele>100.3</ele>
        <time>2022-08-17T13:10:13Z</time>
      </trkpt>
      <trkpt lat="49.81387" lon="2.24107">
        <ele>100.3</ele>
        <time>2022-08-17T13:10:14Z</time>
      </trkpt>
      <trkpt lat="49.81386" lon="2.24106">
        <ele>100.4</ele>
        <time>2022-08-17T13:10:16Z</time>
      </trkpt>
      <trkpt lat="49.81384" lon="2.24104">
        <ele>100.4</ele>
        <time>2022-08-17T13:10:17Z</time>
      </trkpt>
      <trkpt lat="49.81383" lon="2.24103">
        <ele>100.5</ele>
        <time>2022-08-17T13:10:18Z</time>
      </trkpt>
      <trkpt lat="49.81382" lon="2.24103">
        <ele>100.5</ele>
        <time>2022-08-17T13:10:19Z</time>
      </trkpt>
      <trkpt lat="49.81381" lon="2.24102">
        <ele>100.5</ele>
        <time>2022-08-17T13:10:20Z</time>
      </trkpt>
      <trkpt lat="49.81379" lon="2.24101">
        <ele>100.6</ele>
        <time>2022-08-17T13:10:21Z</time>
      </trkpt>
      <trkpt lat="49.81378" lon="2.241">
        <ele>100.6</ele>
        <time>2022-08-17T13:10:22Z</time>
      </trkpt>
      <trkpt lat="49.81378" lon="2.241">
        <ele>100.6</ele>
        <time>2022-08-17T13:10:23Z</time>
      </trkpt>
      <trkpt lat="49.81377" lon="2.24099">
        <ele>100.6</ele>
        <time>2022-08-17T13:10:25Z</time>
      </trkpt>
      <trkpt lat="49.81376" lon="2.24098">
        <ele>100.7</ele>
        <time>2022-08-17T13:10:26Z</time>
      </trkpt>
      <trkpt lat="49.81375" lon="2.24097">
        <ele>100.7</ele>
        <time>2022-08-17T13:10:27Z</time>
      </trkpt>
      <trkpt lat="49.81375" lon="2.24097">
        <ele>100.7</ele>
        <time>2022-08-17T13:10:28Z</time>
      </trkpt>
      <trkpt lat="49.81375" lon="2.24095">
        <ele>100.7</ele>
        <time>2022-08-17T13:10:29Z</time>
      </trkpt>
      <trkpt lat="49.81375" lon="2.24094">
        <ele>100.8</ele>
        <time>2022-08-17T13:10:30Z</time>
      </trkpt>
      <trkpt lat="49.81374" lon="2.24093">
        <ele>100.8</ele>
        <time>2022-08-17T13:10:31Z</time>
      </trkpt>
      <trkpt lat="49.81373" lon="2.24093">
        <ele>100.8</ele>
        <time>2022-08-17T13:10:32Z</time>
      </trkpt>
      <trkpt lat="49.81372" lon="2.24092">
        <ele>100.9</ele>
        <time>2022-08-17T13:10:34Z</time>
      </trkpt>
      <trkpt lat="49.81371" lon="2.24091">
        <ele>100.9</ele>
        <time>2022-08-17T13:10:35Z</time>
      </trkpt>
      <trkpt lat="49.8137" lon="2.24093">
        <ele>101</ele>
        <time>2022-08-17T13:10:36Z</time>
      </trkpt>
      <trkpt lat="49.81369" lon="2.24095">
        <ele>101</ele>
        <time>2022-08-17T13:10:38Z</time>
      </trkpt>
      <trkpt lat="49.81369" lon="2.24096">
        <ele>101</ele>
        <time>2022-08-17T13:10:39Z</time>
      </trkpt>
      <trkpt lat="49.81368" lon="2.24096">
        <ele>101</ele>
        <time>2022-08-17T13:10:40Z</time>
      </trkpt>
      <trkpt lat="49.81367" lon="2.24096">
        <ele>101.1</ele>
        <time>2022-08-17T13:10:41Z</time>
      </trkpt>
      <trkpt lat="49.81366" lon="2.24095">
        <ele>101.1</ele>
        <time>2022-08-17T13:10:42Z</time>
      </trkpt>
      <trkpt lat="49.81365" lon="2.24095">
        <ele>101.1</ele>
        <time>2022-08-17T13:10:43Z</time>
      </trkpt>
      <trkpt lat="49.81364" lon="2.24094">
        <ele>101.2</ele>
        <time>2022-08-17T13:10:44Z</time>
      </trkpt>
      <trkpt lat="49.81363" lon="2.24093">
        <ele>101.2</ele>
        <time>2022-08-17T13:10:46Z</time>
      </trkpt>
      <trkpt lat="49.81362" lon="2.24093">
        <ele>101.2</ele>
        <time>2022-08-17T13:10:47Z</time>
      </trkpt>
      <trkpt lat="49.81361" lon="2.24092">
        <ele>101.3</ele>
        <time>2022-08-17T13:10:48Z</time>
      </trkpt>
      <trkpt lat="49.8136" lon="2.24091">
        <ele>101.3</ele>
        <time>2022-08-17T13:10:49Z</time>
      </trkpt>
      <trkpt lat="49.81358" lon="2.2409">
        <ele>101.4</ele>
        <time>2022-08-17T13:10:50Z</time>
      </trkpt>
      <trkpt lat="49.81357" lon="2.24089">
        <ele>101.4</ele>
        <time>2022-08-17T13:10:51Z</time>
      </trkpt>
      <trkpt lat="49.81356" lon="2.24088">
        <ele>101.4</ele>
        <time>2022-08-17T13:10:52Z</time>
      </trkpt>
      <trkpt lat="49.81355" lon="2.24087">
        <ele>101.5</ele>
        <time>2022-08-17T13:10:53Z</time>
      </trkpt>
      <trkpt lat="49.81354" lon="2.24086">
        <ele>101.5</ele>
        <time>2022-08-17T13:10:55Z</time>
      </trkpt>
      <trkpt lat="49.81352" lon="2.24085">
        <ele>101.6</ele>
        <time>2022-08-17T13:10:56Z</time>
      </trkpt>
      <trkpt lat="49.81351" lon="2.24084">
        <ele>101.6</ele>
        <time>2022-08-17T13:10:57Z</time>
      </trkpt>
      <trkpt lat="49.81349" lon="2.24082">
        <ele>101.7</ele>
        <time>2022-08-17T13:10:58Z</time>
      </trkpt>
      <trkpt lat="49.81348" lon="2.24081">
        <ele>101.7</ele>
        <time>2022-08-17T13:10:59Z</time>
      </trkpt>
      <trkpt lat="49.81346" lon="2.2408">
        <ele>101.7</ele>
        <time>2022-08-17T13:11:00Z</time>
      </trkpt>
      <trkpt lat="49.81345" lon="2.24079">
        <ele>101.8</ele>
        <time>2022-08-17T13:11:01Z</time>
      </trkpt>
      <trkpt lat="49.81343" lon="2.24078">
        <ele>101.8</ele>
        <time>2022-08-17T13:11:02Z</time>
      </trkpt>
      <trkpt lat="49.81342" lon="2.24077">
        <ele>101.9</ele>
        <time>2022-08-17T13:11:04Z</time>
      </trkpt>
      <trkpt lat="49.81341" lon="2.24076">
        <ele>101.9</ele>
        <time>2022-08-17T13:11:05Z</time>
      </trkpt>
      <trkpt lat="49.81339" lon="2.24075">
        <ele>102</ele>
        <time>2022-08-17T13:11:06Z</time>
      </trkpt>
      <trkpt lat="49.81337" lon="2.24074">
        <ele>102</ele>
        <time>2022-08-17T13:11:07Z</time>
      </trkpt>
      <trkpt lat="49.81337" lon="2.24073">
        <ele>102</ele>
        <time>2022-08-17T13:11:08Z</time>
      </trkpt>
      <trkpt lat="49.81336" lon="2.24073">
        <ele>102</ele>
        <time>2022-08-17T13:11:09Z</time>
      </trkpt>
      <trkpt lat="49.81335" lon="2.24072">
        <ele>102.1</ele>
        <time>2022-08-17T13:11:10Z</time>
      </trkpt>
      <trkpt lat="49.81334" lon="2.24071">
        <ele>102.1</ele>
        <time>2022-08-17T13:11:11Z</time>
      </trkpt>
      <trkpt lat="49.81333" lon="2.24071">
        <ele>102.1</ele>
        <time>2022-08-17T13:11:13Z</time>
      </trkpt>
      <trkpt lat="49.81332" lon="2.2407">
        <ele>102.2</ele>
        <time>2022-08-17T13:11:14Z</time>
      </trkpt>
      <trkpt lat="49.81331" lon="2.2407">
        <ele>102.2</ele>
        <time>2022-08-17T13:11:15Z</time>
      </trkpt>
      <trkpt lat="49.8133" lon="2.24069">
        <ele>102.2</ele>
        <time>2022-08-17T13:11:16Z</time>
      </trkpt>
      <trkpt lat="49.81329" lon="2.24069">
        <ele>102.2</ele>
        <time>2022-08-17T13:11:17Z</time>
      </trkpt>
      <trkpt lat="49.81327" lon="2.24068">
        <ele>102.3</ele>
        <time>2022-08-17T13:11:18Z</time>
      </trkpt>
      <trkpt lat="49.81326" lon="2.24068">
        <ele>102.3</ele>
        <time>2022-08-17T13:11:19Z</time>
      </trkpt>
      <trkpt lat="49.81325" lon="2.24067">
        <ele>102.3</ele>
        <time>2022-08-17T13:11:21Z</time>
      </trkpt>
      <trkpt lat="49.81323" lon="2.24066">
        <ele>102.4</ele>
        <time>2022-08-17T13:11:22Z</time>
      </trkpt>
      <trkpt lat="49.81322" lon="2.24066">
        <ele>102.4</ele>
        <time>2022-08-17T13:11:23Z</time>
      </trkpt>
      <trkpt lat="49.81321" lon="2.24066">
        <ele>102.4</ele>
        <time>2022-08-17T13:11:24Z</time>
      </trkpt>
      <trkpt lat="49.8132" lon="2.24065">
        <ele>102.4</ele>
        <time>2022-08-17T13:11:25Z</time>
      </trkpt>
      <trkpt lat="49.81319" lon="2.24064">
        <ele>102.4</ele>
        <time>2022-08-17T13:11:26Z</time>
      </trkpt>
      <trkpt lat="49.81318" lon="2.24064">
        <ele>102.5</ele>
        <time>2022-08-17T13:11:27Z</time>
      </trkpt>
      <trkpt lat="49.81317" lon="2.24064">
        <ele>102.5</ele>
        <time>2022-08-17T13:11:29Z</time>
      </trkpt>
      <trkpt lat="49.81317" lon="2.24064">
        <ele>102.5</ele>
        <time>2022-08-17T13:11:30Z</time>
      </trkpt>
      <trkpt lat="49.81316" lon="2.24064">
        <ele>102.5</ele>
        <time>2022-08-17T13:11:31Z</time>
      </trkpt>
      <trkpt lat="49.81316" lon="2.24063">
        <ele>102.5</ele>
        <time>2022-08-17T13:11:32Z</time>
      </trkpt>
      <trkpt lat="49.81313" lon="2.24062">
        <ele>102.5</ele>
        <time>2022-08-17T13:11:33Z</time>
      </trkpt>
      <trkpt lat="49.81312" lon="2.24062">
        <ele>102.6</ele>
        <time>2022-08-17T13:11:34Z</time>
      </trkpt>
      <trkpt lat="49.81311" lon="2.24061">
        <ele>102.6</ele>
        <time>2022-08-17T13:11:35Z</time>
      </trkpt>
      <trkpt lat="49.81311" lon="2.24061">
        <ele>102.6</ele>
        <time>2022-08-17T13:11:36Z</time>
      </trkpt>
      <trkpt lat="49.8131" lon="2.24061">
        <ele>102.6</ele>
        <time>2022-08-17T13:11:38Z</time>
      </trkpt>
      <trkpt lat="49.8131" lon="2.2406">
        <ele>102.6</ele>
        <time>2022-08-17T13:11:39Z</time>
      </trkpt>
      <trkpt lat="49.81309" lon="2.24059">
        <ele>102.6</ele>
        <time>2022-08-17T13:11:40Z</time>
      </trkpt>
      <trkpt lat="49.81308" lon="2.24058">
        <ele>102.6</ele>
        <time>2022-08-17T13:11:41Z</time>
      </trkpt>
      <trkpt lat="49.81307" lon="2.24058">
        <ele>102.6</ele>
        <time>2022-08-17T13:11:42Z</time>
      </trkpt>
      <trkpt lat="49.81307" lon="2.24057">
        <ele>102.6</ele>
        <time>2022-08-17T13:11:43Z</time>
      </trkpt>
      <trkpt lat="49.81306" lon="2.24057">
        <ele>102.7</ele>
        <time>2022-08-17T13:11:44Z</time>
      </trkpt>
      <trkpt lat="49.81305" lon="2.24056">
        <ele>102.7</ele>
        <time>2022-08-17T13:11:45Z</time>
      </trkpt>
      <trkpt lat="49.81304" lon="2.24055">
        <ele>102.7</ele>
        <time>2022-08-17T13:11:47Z</time>
      </trkpt>
      <trkpt lat="49.81304" lon="2.24055">
        <ele>102.7</ele>
        <time>2022-08-17T13:11:48Z</time>
      </trkpt>
      <trkpt lat="49.81303" lon="2.24054">
        <ele>102.7</ele>
        <time>2022-08-17T13:11:49Z</time>
      </trkpt>
      <trkpt lat="49.81302" lon="2.24054">
        <ele>102.7</ele>
        <time>2022-08-17T13:11:50Z</time>
      </trkpt>
      <trkpt lat="49.81301" lon="2.24053">
        <ele>102.7</ele>
        <time>2022-08-17T13:11:51Z</time>
      </trkpt>
      <trkpt lat="49.813" lon="2.24053">
        <ele>102.7</ele>
        <time>2022-08-17T13:11:52Z</time>
      </trkpt>
      <trkpt lat="49.813" lon="2.24052">
        <ele>102.7</ele>
        <time>2022-08-17T13:11:53Z</time>
      </trkpt>
      <trkpt lat="49.81299" lon="2.24052">
        <ele>102.7</ele>
        <time>2022-08-17T13:11:54Z</time>
      </trkpt>
      <trkpt lat="49.81299" lon="2.24051">
        <ele>102.7</ele>
        <time>2022-08-17T13:11:55Z</time>
      </trkpt>
      <trkpt lat="49.81298" lon="2.24051">
        <ele>102.7</ele>
        <time>2022-08-17T13:11:56Z</time>
      </trkpt>
      <trkpt lat="49.81297" lon="2.2405">
        <ele>102.8</ele>
        <time>2022-08-17T13:11:58Z</time>
      </trkpt>
      <trkpt lat="49.81296" lon="2.2405">
        <ele>102.8</ele>
        <time>2022-08-17T13:11:59Z</time>
      </trkpt>
      <trkpt lat="49.81296" lon="2.24049">
        <ele>102.8</ele>
        <time>2022-08-17T13:12:00Z</time>
      </trkpt>
      <trkpt lat="49.81295" lon="2.24048">
        <ele>102.8</ele>
        <time>2022-08-17T13:12:01Z</time>
      </trkpt>
      <trkpt lat="49.81296" lon="2.24048">
        <ele>102.8</ele>
        <time>2022-08-17T13:12:02Z</time>
      </trkpt>
      <trkpt lat="49.81296" lon="2.24048">
        <ele>102.8</ele>
        <time>2022-08-17T13:12:03Z</time>
      </trkpt>
      <trkpt lat="49.81296" lon="2.24048">
        <ele>102.8</ele>
        <time>2022-08-17T13:12:04Z</time>
      </trkpt>
      <trkpt lat="49.81296" lon="2.24048">
        <ele>102.8</ele>
        <time>2022-08-17T13:12:05Z</time>
      </trkpt>
      <trkpt lat="49.81296" lon="2.24048">
        <ele>102.8</ele>
        <time>2022-08-17T13:12:06Z</time>
      </trkpt>
      <trkpt lat="49.81296" lon="2.24048">
        <ele>102.8</ele>
        <time>2022-08-17T13:12:07Z</time>
      </trkpt>
      <trkpt lat="49.81296" lon="2.24048">
        <ele>102.8</ele>
        <time>2022-08-17T13:12:08Z</time>
      </trkpt>
      <trkpt lat="49.81296" lon="2.24048">
        <ele>102.8</ele>
        <time>2022-08-17T13:12:09Z</time>
      </trkpt>
      <trkpt lat="49.81296" lon="2.24048">
        <ele>102.8</ele>
        <time>2022-08-17T13:12:10Z</time>
      </trkpt>
      <trkpt lat="49.81295" lon="2.24048">
        <ele>102.8</ele>
        <time>2022-08-17T13:12:11Z</time>
      </trkpt>
      <trkpt lat="49.81295" lon="2.24048">
        <ele>102.8</ele>
        <time>2022-08-17T13:12:12Z</time>
      </trkpt>
      <trkpt lat="49.81295" lon="2.24048">
        <ele>102.8</ele>
        <time>2022-08-17T13:12:13Z</time>
      </trkpt>
      <trkpt lat="49.81295" lon="2.24048">
        <ele>102.8</ele>
        <time>2022-08-17T13:12:14Z</time>
      </trkpt>
      <trkpt lat="49.81295" lon="2.24048">
        <ele>102.8</ele>
        <time>2022-08-17T13:12:15Z</time>
      </trkpt>
      <trkpt lat="49.81295" lon="2.24049">
        <ele>102.8</ele>
        <time>2022-08-17T13:12:16Z</time>
      </trkpt>
      <trkpt lat="49.81295" lon="2.24049">
        <ele>102.8</ele>
        <time>2022-08-17T13:12:17Z</time>
      </trkpt>
      <trkpt lat="49.81296" lon="2.24049">
        <ele>102.8</ele>
        <time>2022-08-17T13:12:18Z</time>
      </trkpt>
      <trkpt lat="49.81296" lon="2.24049">
        <ele>102.8</ele>
        <time>2022-08-17T13:12:19Z</time>
      </trkpt>
      <trkpt lat="49.81296" lon="2.24049">
        <ele>102.8</ele>
        <time>2022-08-17T13:12:20Z</time>
      </trkpt>
      <trkpt lat="49.81296" lon="2.24049">
        <ele>102.8</ele>
        <time>2022-08-17T13:12:21Z</time>
      </trkpt>
      <trkpt lat="49.81296" lon="2.24049">
        <ele>102.8</ele>
        <time>2022-08-17T13:12:22Z</time>
      </trkpt>
      <trkpt lat="49.81296" lon="2.24049">
        <ele>102.8</ele>
        <time>2022-08-17T13:12:23Z</time>
      </trkpt>
      <trkpt lat="49.81296" lon="2.24049">
        <ele>102.8</ele>
        <time>2022-08-17T13:12:24Z</time>
      </trkpt>
      <trkpt lat="49.81296" lon="2.24049">
        <ele>102.8</ele>
        <time>2022-08-17T13:12:25Z</time>
      </trkpt>
      <trkpt lat="49.81296" lon="2.24049">
        <ele>102.8</ele>
        <time>2022-08-17T13:12:26Z</time>
      </trkpt>
      <trkpt lat="49.81296" lon="2.24049">
        <ele>102.8</ele>
        <time>2022-08-17T13:12:27Z</time>
      </trkpt>
      <trkpt lat="49.81296" lon="2.24049">
        <ele>102.8</ele>
        <time>2022-08-17T13:12:28Z</time>
      </trkpt>
      <trkpt lat="49.81296" lon="2.24049">
        <ele>102.8</ele>
        <time>2022-08-17T13:12:29Z</time>
      </trkpt>
      <trkpt lat="49.81296" lon="2.24049">
        <ele>102.8</ele>
        <time>2022-08-17T13:12:30Z</time>
      </trkpt>
      <trkpt lat="49.81296" lon="2.24049">
        <ele>102.8</ele>
        <time>2022-08-17T13:12:31Z</time>
      </trkpt>
      <trkpt lat="49.81296" lon="2.24049">
        <ele>102.8</ele>
        <time>2022-08-17T13:12:32Z</time>
      </trkpt>
      <trkpt lat="49.81296" lon="2.24049">
        <ele>102.8</ele>
        <time>2022-08-17T13:12:33Z</time>
      </trkpt>
      <trkpt lat="49.81296" lon="2.24049">
        <ele>102.8</ele>
        <time>2022-08-17T13:12:34Z</time>
      </trkpt>
      <trkpt lat="49.81296" lon="2.24049">
        <ele>102.8</ele>
        <time>2022-08-17T13:12:35Z</time>
      </trkpt>
      <trkpt lat="49.81296" lon="2.24049">
        <ele>102.8</ele>
        <time>2022-08-17T13:12:36Z</time>
      </trkpt>
      <trkpt lat="49.81296" lon="2.24049">
        <ele>102.8</ele>
        <time>2022-08-17T13:12:37Z</time>
      </trkpt>
      <trkpt lat="49.81296" lon="2.24049">
        <ele>102.8</ele>
        <time>2022-08-17T13:12:38Z</time>
      </trkpt>
      <trkpt lat="49.81296" lon="2.24049">
        <ele>102.8</ele>
        <time>2022-08-17T13:12:39Z</time>
      </trkpt>
      <trkpt lat="49.81296" lon="2.24049">
        <ele>102.8</ele>
        <time>2022-08-17T13:12:40Z</time>
      </trkpt>
      <trkpt lat="49.81296" lon="2.24049">
        <ele>102.8</ele>
        <time>2022-08-17T13:12:41Z</time>
      </trkpt>
      <trkpt lat="49.81296" lon="2.24049">
        <ele>102.8</ele>
        <time>2022-08-17T13:12:42Z</time>
      </trkpt>
      <trkpt lat="49.81296" lon="2.24049">
        <ele>102.8</ele>
        <time>2022-08-17T13:12:43Z</time>
      </trkpt>
      <trkpt lat="49.81296" lon="2.24049">
        <ele>102.8</ele>
        <time>2022-08-17T13:12:44Z</time>
      </trkpt>
      <trkpt lat="49.81296" lon="2.24049">
        <ele>102.8</ele>
        <time>2022-08-17T13:12:45Z</time>
      </trkpt>
      <trkpt lat="49.81296" lon="2.24049">
        <ele>102.8</ele>
        <time>2022-08-17T13:12:46Z</time>
      </trkpt>
      <trkpt lat="49.81296" lon="2.24049">
        <ele>102.8</ele>
        <time>2022-08-17T13:12:47Z</time>
      </trkpt>
      <trkpt lat="49.81296" lon="2.24049">
        <ele>102.8</ele>
        <time>2022-08-17T13:12:48Z</time>
      </trkpt>
      <trkpt lat="49.81296" lon="2.24049">
        <ele>102.8</ele>
        <time>2022-08-17T13:12:49Z</time>
      </trkpt>
      <trkpt lat="49.81296" lon="2.24049">
        <ele>102.8</ele>
        <time>2022-08-17T13:12:50Z</time>
      </trkpt>
      <trkpt lat="49.81296" lon="2.24049">
        <ele>102.8</ele>
        <time>2022-08-17T13:12:51Z</time>
      </trkpt>
      <trkpt lat="49.81296" lon="2.24049">
        <ele>102.8</ele>
        <time>2022-08-17T13:12:52Z</time>
      </trkpt>
      <trkpt lat="49.81296" lon="2.24049">
        <ele>102.8</ele>
        <time>2022-08-17T13:12:53Z</time>
      </trkpt>
      <trkpt lat="49.81296" lon="2.24049">
        <ele>102.8</ele>
        <time>2022-08-17T13:12:54Z</time>
      </trkpt>
      <trkpt lat="49.81296" lon="2.24049">
        <ele>102.8</ele>
        <time>2022-08-17T13:12:55Z</time>
      </trkpt>
      <trkpt lat="49.81296" lon="2.24049">
        <ele>102.8</ele>
        <time>2022-08-17T13:12:56Z</time>
      </trkpt>
      <trkpt lat="49.81296" lon="2.24049">
        <ele>102.8</ele>
        <time>2022-08-17T13:12:57Z</time>
      </trkpt>
      <trkpt lat="49.81296" lon="2.24049">
        <ele>102.8</ele>
        <time>2022-08-17T13:12:58Z</time>
      </trkpt>
      <trkpt lat="49.81296" lon="2.24049">
        <ele>102.8</ele>
        <time>2022-08-17T13:12:59Z</time>
      </trkpt>
      <trkpt lat="49.81296" lon="2.24049">
        <ele>102.8</ele>
        <time>2022-08-17T13:13:00Z</time>
      </trkpt>
      <trkpt lat="49.81296" lon="2.24049">
        <ele>102.8</ele>
        <time>2022-08-17T13:13:01Z</time>
      </trkpt>
      <trkpt lat="49.81296" lon="2.24049">
        <ele>102.8</ele>
        <time>2022-08-17T13:13:02Z</time>
      </trkpt>
      <trkpt lat="49.81296" lon="2.24049">
        <ele>102.8</ele>
        <time>2022-08-17T13:13:03Z</time>
      </trkpt>
      <trkpt lat="49.81296" lon="2.24049">
        <ele>102.8</ele>
        <time>2022-08-17T13:13:04Z</time>
      </trkpt>
      <trkpt lat="49.81296" lon="2.24049">
        <ele>102.8</ele>
        <time>2022-08-17T13:13:05Z</time>
      </trkpt>
      <trkpt lat="49.81296" lon="2.24049">
        <ele>102.8</ele>
        <time>2022-08-17T13:13:06Z</time>
      </trkpt>
      <trkpt lat="49.81296" lon="2.24049">
        <ele>102.8</ele>
        <time>2022-08-17T13:13:07Z</time>
      </trkpt>
      <trkpt lat="49.81296" lon="2.24049">
        <ele>102.8</ele>
        <time>2022-08-17T13:13:08Z</time>
      </trkpt>
      <trkpt lat="49.81296" lon="2.24049">
        <ele>102.8</ele>
        <time>2022-08-17T13:13:09Z</time>
      </trkpt>
      <trkpt lat="49.81296" lon="2.24049">
        <ele>102.8</ele>
        <time>2022-08-17T13:13:10Z</time>
      </trkpt>
      <trkpt lat="49.81296" lon="2.24049">
        <ele>102.8</ele>
        <time>2022-08-17T13:13:11Z</time>
      </trkpt>
      <trkpt lat="49.81296" lon="2.24049">
        <ele>102.8</ele>
        <time>2022-08-17T13:13:12Z</time>
      </trkpt>
      <trkpt lat="49.81296" lon="2.24049">
        <ele>102.8</ele>
        <time>2022-08-17T13:13:13Z</time>
      </trkpt>
      <trkpt lat="49.81296" lon="2.24049">
        <ele>102.8</ele>
        <time>2022-08-17T13:13:14Z</time>
      </trkpt>
      <trkpt lat="49.81296" lon="2.24049">
        <ele>102.8</ele>
        <time>2022-08-17T13:13:15Z</time>
      </trkpt>
      <trkpt lat="49.81296" lon="2.24049">
        <ele>102.8</ele>
        <time>2022-08-17T13:13:16Z</time>
      </trkpt>
      <trkpt lat="49.81296" lon="2.24049">
        <ele>102.8</ele>
        <time>2022-08-17T13:13:17Z</time>
      </trkpt>
      <trkpt lat="49.81296" lon="2.24049">
        <ele>102.8</ele>
        <time>2022-08-17T13:13:18Z</time>
      </trkpt>
      <trkpt lat="49.81296" lon="2.24049">
        <ele>102.8</ele>
        <time>2022-08-17T13:13:19Z</time>
      </trkpt>
      <trkpt lat="49.81296" lon="2.24049">
        <ele>102.8</ele>
        <time>2022-08-17T13:13:20Z</time>
      </trkpt>
      <trkpt lat="49.81296" lon="2.24049">
        <ele>102.8</ele>
        <time>2022-08-17T13:13:21Z</time>
      </trkpt>
      <trkpt lat="49.81296" lon="2.24049">
        <ele>102.8</ele>
        <time>2022-08-17T13:13:22Z</time>
      </trkpt>
      <trkpt lat="49.81296" lon="2.24049">
        <ele>102.8</ele>
        <time>2022-08-17T13:13:23Z</time>
      </trkpt>
      <trkpt lat="49.81296" lon="2.24049">
        <ele>102.8</ele>
        <time>2022-08-17T13:13:24Z</time>
      </trkpt>
      <trkpt lat="49.81296" lon="2.24049">
        <ele>102.8</ele>
        <time>2022-08-17T13:13:25Z</time>
      </trkpt>
      <trkpt lat="49.81296" lon="2.24049">
        <ele>102.8</ele>
        <time>2022-08-17T13:13:26Z</time>
      </trkpt>
      <trkpt lat="49.81296" lon="2.24049">
        <ele>102.8</ele>
        <time>2022-08-17T13:13:27Z</time>
      </trkpt>
      <trkpt lat="49.81296" lon="2.24049">
        <ele>102.8</ele>
        <time>2022-08-17T13:13:28Z</time>
      </trkpt>
      <trkpt lat="49.81296" lon="2.24049">
        <ele>102.8</ele>
        <time>2022-08-17T13:13:29Z</time>
      </trkpt>
      <trkpt lat="49.81296" lon="2.24049">
        <ele>102.8</ele>
        <time>2022-08-17T13:13:30Z</time>
      </trkpt>
      <trkpt lat="49.81296" lon="2.24049">
        <ele>102.8</ele>
        <time>2022-08-17T13:13:31Z</time>
      </trkpt>
      <trkpt lat="49.81296" lon="2.24049">
        <ele>102.8</ele>
        <time>2022-08-17T13:13:32Z</time>
      </trkpt>
      <trkpt lat="49.81296" lon="2.24049">
        <ele>102.8</ele>
        <time>2022-08-17T13:13:33Z</time>
      </trkpt>
      <trkpt lat="49.81296" lon="2.24049">
        <ele>102.8</ele>
        <time>2022-08-17T13:13:34Z</time>
      </trkpt>
      <trkpt lat="49.81296" lon="2.24049">
        <ele>102.8</ele>
        <time>2022-08-17T13:13:35Z</time>
      </trkpt>
      <trkpt lat="49.81296" lon="2.24049">
        <ele>102.8</ele>
        <time>2022-08-17T13:13:36Z</time>
      </trkpt>
      <trkpt lat="49.81296" lon="2.24049">
        <ele>102.8</ele>
        <time>2022-08-17T13:13:37Z</time>
      </trkpt>
      <trkpt lat="49.81296" lon="2.24049">
        <ele>102.8</ele>
        <time>2022-08-17T13:13:38Z</time>
      </trkpt>
      <trkpt lat="49.81296" lon="2.24049">
        <ele>102.8</ele>
        <time>2022-08-17T13:13:39Z</time>
      </trkpt>
      <trkpt lat="49.81296" lon="2.24049">
        <ele>102.8</ele>
        <time>2022-08-17T13:13:40Z</time>
      </trkpt>
      <trkpt lat="49.81296" lon="2.24049">
        <ele>102.8</ele>
        <time>2022-08-17T13:13:41Z</time>
      </trkpt>
      <trkpt lat="49.81296" lon="2.24049">
        <ele>102.8</ele>
        <time>2022-08-17T13:13:42Z</time>
      </trkpt>
      <trkpt lat="49.81296" lon="2.24049">
        <ele>102.8</ele>
        <time>2022-08-17T13:13:43Z</time>
      </trkpt>
      <trkpt lat="49.81296" lon="2.24049">
        <ele>102.8</ele>
        <time>2022-08-17T13:13:44Z</time>
      </trkpt>
      <trkpt lat="49.81296" lon="2.24049">
        <ele>102.8</ele>
        <time>2022-08-17T13:13:45Z</time>
      </trkpt>
      <trkpt lat="49.81296" lon="2.24049">
        <ele>102.8</ele>
        <time>2022-08-17T13:13:46Z</time>
      </trkpt>
      <trkpt lat="49.81296" lon="2.24049">
        <ele>102.8</ele>
        <time>2022-08-17T13:13:47Z</time>
      </trkpt>
      <trkpt lat="49.81296" lon="2.24049">
        <ele>102.8</ele>
        <time>2022-08-17T13:13:48Z</time>
      </trkpt>
      <trkpt lat="49.81296" lon="2.24049">
        <ele>102.8</ele>
        <time>2022-08-17T13:13:49Z</time>
      </trkpt>
      <trkpt lat="49.81296" lon="2.24049">
        <ele>102.8</ele>
        <time>2022-08-17T13:13:50Z</time>
      </trkpt>
      <trkpt lat="49.81296" lon="2.24049">
        <ele>102.8</ele>
        <time>2022-08-17T13:13:51Z</time>
      </trkpt>
      <trkpt lat="49.81296" lon="2.24049">
        <ele>102.8</ele>
        <time>2022-08-17T13:13:52Z</time>
      </trkpt>
      <trkpt lat="49.81296" lon="2.24049">
        <ele>102.8</ele>
        <time>2022-08-17T13:13:53Z</time>
      </trkpt>
      <trkpt lat="49.81296" lon="2.24049">
        <ele>102.8</ele>
        <time>2022-08-17T13:13:54Z</time>
      </trkpt>
      <trkpt lat="49.81296" lon="2.24049">
        <ele>102.8</ele>
        <time>2022-08-17T13:13:55Z</time>
      </trkpt>
      <trkpt lat="49.81296" lon="2.24049">
        <ele>102.8</ele>
        <time>2022-08-17T13:13:56Z</time>
      </trkpt>
      <trkpt lat="49.81296" lon="2.24049">
        <ele>102.8</ele>
        <time>2022-08-17T13:13:57Z</time>
      </trkpt>
      <trkpt lat="49.81296" lon="2.24049">
        <ele>102.8</ele>
        <time>2022-08-17T13:13:58Z</time>
      </trkpt>
      <trkpt lat="49.81296" lon="2.24049">
        <ele>102.8</ele>
        <time>2022-08-17T13:13:59Z</time>
      </trkpt>
      <trkpt lat="49.81296" lon="2.24049">
        <ele>102.8</ele>
        <time>2022-08-17T13:14:00Z</time>
      </trkpt>
      <trkpt lat="49.81296" lon="2.24049">
        <ele>102.8</ele>
        <time>2022-08-17T13:14:01Z</time>
      </trkpt>
      <trkpt lat="49.81296" lon="2.24049">
        <ele>102.8</ele>
        <time>2022-08-17T13:14:02Z</time>
      </trkpt>
      <trkpt lat="49.81296" lon="2.24049">
        <ele>102.8</ele>
        <time>2022-08-17T13:14:03Z</time>
      </trkpt>
      <trkpt lat="49.81296" lon="2.24049">
        <ele>102.8</ele>
        <time>2022-08-17T13:14:04Z</time>
      </trkpt>
      <trkpt lat="49.81296" lon="2.24049">
        <ele>102.8</ele>
        <time>2022-08-17T13:14:05Z</time>
      </trkpt>
      <trkpt lat="49.81296" lon="2.24049">
        <ele>102.8</ele>
        <time>2022-08-17T13:14:06Z</time>
      </trkpt>
      <trkpt lat="49.81296" lon="2.24049">
        <ele>102.8</ele>
        <time>2022-08-17T13:14:07Z</time>
      </trkpt>
      <trkpt lat="49.81296" lon="2.24049">
        <ele>102.8</ele>
        <time>2022-08-17T13:14:08Z</time>
      </trkpt>
      <trkpt lat="49.81296" lon="2.24049">
        <ele>102.8</ele>
        <time>2022-08-17T13:14:09Z</time>
      </trkpt>
      <trkpt lat="49.81296" lon="2.24049">
        <ele>102.8</ele>
        <time>2022-08-17T13:14:10Z</time>
      </trkpt>
      <trkpt lat="49.81296" lon="2.24049">
        <ele>102.8</ele>
        <time>2022-08-17T13:14:11Z</time>
      </trkpt>
      <trkpt lat="49.81296" lon="2.24049">
        <ele>102.8</ele>
        <time>2022-08-17T13:14:12Z</time>
      </trkpt>
      <trkpt lat="49.81296" lon="2.24049">
        <ele>102.8</ele>
        <time>2022-08-17T13:14:13Z</time>
      </trkpt>
      <trkpt lat="49.81296" lon="2.24049">
        <ele>102.8</ele>
        <time>2022-08-17T13:14:14Z</time>
      </trkpt>
      <trkpt lat="49.81296" lon="2.24049">
        <ele>102.8</ele>
        <time>2022-08-17T13:14:15Z</time>
      </trkpt>
      <trkpt lat="49.81296" lon="2.24049">
        <ele>102.8</ele>
        <time>2022-08-17T13:14:16Z</time>
      </trkpt>
      <trkpt lat="49.81296" lon="2.24049">
        <ele>102.8</ele>
        <time>2022-08-17T13:14:17Z</time>
      </trkpt>
      <trkpt lat="49.81296" lon="2.24049">
        <ele>102.8</ele>
        <time>2022-08-17T13:14:18Z</time>
      </trkpt>
      <trkpt lat="49.81296" lon="2.24049">
        <ele>102.8</ele>
        <time>2022-08-17T13:14:19Z</time>
      </trkpt>
      <trkpt lat="49.81296" lon="2.24049">
        <ele>102.8</ele>
        <time>2022-08-17T13:14:20Z</time>
      </trkpt>
      <trkpt lat="49.81296" lon="2.24049">
        <ele>102.8</ele>
        <time>2022-08-17T13:14:21Z</time>
      </trkpt>
      <trkpt lat="49.81296" lon="2.24049">
        <ele>102.8</ele>
        <time>2022-08-17T13:14:22Z</time>
      </trkpt>
      <trkpt lat="49.81296" lon="2.24049">
        <ele>102.8</ele>
        <time>2022-08-17T13:14:23Z</time>
      </trkpt>
      <trkpt lat="49.81296" lon="2.24049">
        <ele>102.8</ele>
        <time>2022-08-17T13:14:24Z</time>
      </trkpt>
      <trkpt lat="49.81296" lon="2.24049">
        <ele>102.8</ele>
        <time>2022-08-17T13:14:25Z</time>
      </trkpt>
      <trkpt lat="49.81296" lon="2.24049">
        <ele>102.8</ele>
        <time>2022-08-17T13:14:26Z</time>
      </trkpt>
      <trkpt lat="49.81296" lon="2.24049">
        <ele>102.8</ele>
        <time>2022-08-17T13:14:27Z</time>
      </trkpt>
      <trkpt lat="49.81296" lon="2.24049">
        <ele>102.8</ele>
        <time>2022-08-17T13:14:28Z</time>
      </trkpt>
      <trkpt lat="49.81296" lon="2.24049">
        <ele>102.8</ele>
        <time>2022-08-17T13:14:29Z</time>
      </trkpt>
      <trkpt lat="49.81296" lon="2.24049">
        <ele>102.8</ele>
        <time>2022-08-17T13:14:30Z</time>
      </trkpt>
      <trkpt lat="49.81296" lon="2.24049">
        <ele>102.8</ele>
        <time>2022-08-17T13:14:31Z</time>
      </trkpt>
      <trkpt lat="49.81296" lon="2.24049">
        <ele>102.8</ele>
        <time>2022-08-17T13:14:32Z</time>
      </trkpt>
      <trkpt lat="49.81296" lon="2.24049">
        <ele>102.8</ele>
        <time>2022-08-17T13:14:33Z</time>
      </trkpt>
      <trkpt lat="49.81296" lon="2.24049">
        <ele>102.8</ele>
        <time>2022-08-17T13:14:34Z</time>
      </trkpt>
      <trkpt lat="49.81296" lon="2.24049">
        <ele>102.8</ele>
        <time>2022-08-17T13:14:35Z</time>
      </trkpt>
      <trkpt lat="49.81296" lon="2.24049">
        <ele>102.8</ele>
        <time>2022-08-17T13:14:36Z</time>
      </trkpt>
      <trkpt lat="49.81299" lon="2.24052">
        <ele>102.8</ele>
        <time>2022-08-17T13:14:37Z</time>
      </trkpt>
      <trkpt lat="49.81299" lon="2.24052">
        <ele>102.8</ele>
        <time>2022-08-17T13:14:38Z</time>
      </trkpt>
      <trkpt lat="49.81299" lon="2.24052">
        <ele>102.8</ele>
        <time>2022-08-17T13:14:39Z</time>
      </trkpt>
      <trkpt lat="49.81299" lon="2.24052">
        <ele>102.8</ele>
        <time>2022-08-17T13:14:40Z</time>
      </trkpt>
      <trkpt lat="49.81298" lon="2.24051">
        <ele>102.8</ele>
        <time>2022-08-17T13:14:41Z</time>
      </trkpt>
      <trkpt lat="49.81297" lon="2.2405">
        <ele>102.8</ele>
        <time>2022-08-17T13:14:42Z</time>
      </trkpt>
      <trkpt lat="49.81296" lon="2.2405">
        <ele>102.8</ele>
        <time>2022-08-17T13:14:43Z</time>
      </trkpt>
      <trkpt lat="49.81296" lon="2.24049">
        <ele>102.8</ele>
        <time>2022-08-17T13:14:44Z</time>
      </trkpt>
      <trkpt lat="49.81295" lon="2.24049">
        <ele>102.8</ele>
        <time>2022-08-17T13:14:45Z</time>
      </trkpt>
      <trkpt lat="49.81293" lon="2.24051">
        <ele>102.8</ele>
        <time>2022-08-17T13:14:47Z</time>
      </trkpt>
      <trkpt lat="49.81293" lon="2.24052">
        <ele>102.8</ele>
        <time>2022-08-17T13:14:48Z</time>
      </trkpt>
      <trkpt lat="49.81291" lon="2.24053">
        <ele>102.7</ele>
        <time>2022-08-17T13:14:49Z</time>
      </trkpt>
      <trkpt lat="49.81289" lon="2.24053">
        <ele>102.7</ele>
        <time>2022-08-17T13:14:50Z</time>
      </trkpt>
      <trkpt lat="49.81287" lon="2.24054">
        <ele>102.7</ele>
        <time>2022-08-17T13:14:51Z</time>
      </trkpt>
      <trkpt lat="49.81286" lon="2.24054">
        <ele>102.7</ele>
        <time>2022-08-17T13:14:52Z</time>
      </trkpt>
      <trkpt lat="49.81285" lon="2.24054">
        <ele>102.6</ele>
        <time>2022-08-17T13:14:53Z</time>
      </trkpt>
      <trkpt lat="49.81283" lon="2.24053">
        <ele>102.6</ele>
        <time>2022-08-17T13:14:55Z</time>
      </trkpt>
      <trkpt lat="49.81281" lon="2.24051">
        <ele>102.6</ele>
        <time>2022-08-17T13:14:56Z</time>
      </trkpt>
      <trkpt lat="49.81279" lon="2.2405">
        <ele>102.5</ele>
        <time>2022-08-17T13:14:57Z</time>
      </trkpt>
      <trkpt lat="49.81279" lon="2.24048">
        <ele>102.5</ele>
        <time>2022-08-17T13:14:58Z</time>
      </trkpt>
      <trkpt lat="49.81278" lon="2.24046">
        <ele>102.5</ele>
        <time>2022-08-17T13:14:59Z</time>
      </trkpt>
      <trkpt lat="49.81277" lon="2.24045">
        <ele>102.4</ele>
        <time>2022-08-17T13:15:00Z</time>
      </trkpt>
      <trkpt lat="49.81274" lon="2.24043">
        <ele>102.3</ele>
        <time>2022-08-17T13:15:02Z</time>
      </trkpt>
      <trkpt lat="49.81273" lon="2.24041">
        <ele>102.3</ele>
        <time>2022-08-17T13:15:03Z</time>
      </trkpt>
      <trkpt lat="49.81273" lon="2.2404">
        <ele>102.3</ele>
        <time>2022-08-17T13:15:04Z</time>
      </trkpt>
      <trkpt lat="49.81273" lon="2.24039">
        <ele>102.2</ele>
        <time>2022-08-17T13:15:05Z</time>
      </trkpt>
      <trkpt lat="49.81272" lon="2.24038">
        <ele>102.2</ele>
        <time>2022-08-17T13:15:06Z</time>
      </trkpt>
      <trkpt lat="49.81271" lon="2.24036">
        <ele>102.1</ele>
        <time>2022-08-17T13:15:07Z</time>
      </trkpt>
      <trkpt lat="49.8127" lon="2.24035">
        <ele>102.1</ele>
        <time>2022-08-17T13:15:08Z</time>
      </trkpt>
      <trkpt lat="49.81269" lon="2.24034">
        <ele>102.1</ele>
        <time>2022-08-17T13:15:09Z</time>
      </trkpt>
      <trkpt lat="49.81267" lon="2.24032">
        <ele>102</ele>
        <time>2022-08-17T13:15:10Z</time>
      </trkpt>
      <trkpt lat="49.81266" lon="2.24032">
        <ele>101.9</ele>
        <time>2022-08-17T13:15:12Z</time>
      </trkpt>
      <trkpt lat="49.81265" lon="2.24031">
        <ele>101.9</ele>
        <time>2022-08-17T13:15:13Z</time>
      </trkpt>
      <trkpt lat="49.81264" lon="2.2403">
        <ele>101.8</ele>
        <time>2022-08-17T13:15:14Z</time>
      </trkpt>
      <trkpt lat="49.81263" lon="2.2403">
        <ele>101.8</ele>
        <time>2022-08-17T13:15:15Z</time>
      </trkpt>
      <trkpt lat="49.81263" lon="2.24029">
        <ele>101.7</ele>
        <time>2022-08-17T13:15:16Z</time>
      </trkpt>
      <trkpt lat="49.8126" lon="2.24028">
        <ele>101.6</ele>
        <time>2022-08-17T13:15:17Z</time>
      </trkpt>
      <trkpt lat="49.8126" lon="2.24028">
        <ele>101.5</ele>
        <time>2022-08-17T13:15:18Z</time>
      </trkpt>
      <trkpt lat="49.81259" lon="2.24027">
        <ele>101.5</ele>
        <time>2022-08-17T13:15:19Z</time>
      </trkpt>
      <trkpt lat="49.81258" lon="2.24026">
        <ele>101.4</ele>
        <time>2022-08-17T13:15:20Z</time>
      </trkpt>
      <trkpt lat="49.81256" lon="2.24025">
        <ele>101.3</ele>
        <time>2022-08-17T13:15:21Z</time>
      </trkpt>
      <trkpt lat="49.81255" lon="2.24024">
        <ele>101.2</ele>
        <time>2022-08-17T13:15:23Z</time>
      </trkpt>
      <trkpt lat="49.81253" lon="2.24023">
        <ele>101.1</ele>
        <time>2022-08-17T13:15:24Z</time>
      </trkpt>
      <trkpt lat="49.81252" lon="2.24022">
        <ele>101</ele>
        <time>2022-08-17T13:15:25Z</time>
      </trkpt>
      <trkpt lat="49.8125" lon="2.24022">
        <ele>100.9</ele>
        <time>2022-08-17T13:15:26Z</time>
      </trkpt>
      <trkpt lat="49.81249" lon="2.24021">
        <ele>100.8</ele>
        <time>2022-08-17T13:15:27Z</time>
      </trkpt>
      <trkpt lat="49.81248" lon="2.2402">
        <ele>100.7</ele>
        <time>2022-08-17T13:15:28Z</time>
      </trkpt>
      <trkpt lat="49.81247" lon="2.2402">
        <ele>100.6</ele>
        <time>2022-08-17T13:15:30Z</time>
      </trkpt>
      <trkpt lat="49.81246" lon="2.2402">
        <ele>100.5</ele>
        <time>2022-08-17T13:15:31Z</time>
      </trkpt>
      <trkpt lat="49.81244" lon="2.24019">
        <ele>100.4</ele>
        <time>2022-08-17T13:15:32Z</time>
      </trkpt>
      <trkpt lat="49.81244" lon="2.24019">
        <ele>100.3</ele>
        <time>2022-08-17T13:15:33Z</time>
      </trkpt>
      <trkpt lat="49.81243" lon="2.24018">
        <ele>100.2</ele>
        <time>2022-08-17T13:15:34Z</time>
      </trkpt>
      <trkpt lat="49.81241" lon="2.24017">
        <ele>100.1</ele>
        <time>2022-08-17T13:15:35Z</time>
      </trkpt>
      <trkpt lat="49.8124" lon="2.24016">
        <ele>100</ele>
        <time>2022-08-17T13:15:36Z</time>
      </trkpt>
      <trkpt lat="49.81239" lon="2.24015">
        <ele>99.9</ele>
        <time>2022-08-17T13:15:37Z</time>
      </trkpt>
      <trkpt lat="49.81238" lon="2.24015">
        <ele>99.9</ele>
        <time>2022-08-17T13:15:38Z</time>
      </trkpt>
      <trkpt lat="49.81237" lon="2.24015">
        <ele>99.8</ele>
        <time>2022-08-17T13:15:40Z</time>
      </trkpt>
      <trkpt lat="49.81236" lon="2.24014">
        <ele>99.7</ele>
        <time>2022-08-17T13:15:41Z</time>
      </trkpt>
      <trkpt lat="49.81235" lon="2.24013">
        <ele>99.6</ele>
        <time>2022-08-17T13:15:42Z</time>
      </trkpt>
      <trkpt lat="49.81234" lon="2.24013">
        <ele>99.5</ele>
        <time>2022-08-17T13:15:43Z</time>
      </trkpt>
      <trkpt lat="49.81233" lon="2.24012">
        <ele>99.5</ele>
        <time>2022-08-17T13:15:44Z</time>
      </trkpt>
      <trkpt lat="49.81232" lon="2.24012">
        <ele>99.4</ele>
        <time>2022-08-17T13:15:45Z</time>
      </trkpt>
      <trkpt lat="49.81231" lon="2.24011">
        <ele>99.3</ele>
        <time>2022-08-17T13:15:46Z</time>
      </trkpt>
      <trkpt lat="49.81229" lon="2.2401">
        <ele>99.2</ele>
        <time>2022-08-17T13:15:48Z</time>
      </trkpt>
      <trkpt lat="49.81228" lon="2.2401">
        <ele>99.2</ele>
        <time>2022-08-17T13:15:49Z</time>
      </trkpt>
      <trkpt lat="49.81227" lon="2.24009">
        <ele>99.1</ele>
        <time>2022-08-17T13:15:50Z</time>
      </trkpt>
      <trkpt lat="49.81226" lon="2.24009">
        <ele>99</ele>
        <time>2022-08-17T13:15:51Z</time>
      </trkpt>
      <trkpt lat="49.81224" lon="2.24007">
        <ele>98.9</ele>
        <time>2022-08-17T13:15:52Z</time>
      </trkpt>
      <trkpt lat="49.81224" lon="2.24007">
        <ele>98.9</ele>
        <time>2022-08-17T13:15:53Z</time>
      </trkpt>
      <trkpt lat="49.81223" lon="2.24006">
        <ele>98.8</ele>
        <time>2022-08-17T13:15:54Z</time>
      </trkpt>
      <trkpt lat="49.81222" lon="2.24006">
        <ele>98.8</ele>
        <time>2022-08-17T13:15:56Z</time>
      </trkpt>
      <trkpt lat="49.81221" lon="2.24005">
        <ele>98.7</ele>
        <time>2022-08-17T13:15:57Z</time>
      </trkpt>
      <trkpt lat="49.8122" lon="2.24004">
        <ele>98.7</ele>
        <time>2022-08-17T13:15:58Z</time>
      </trkpt>
      <trkpt lat="49.81219" lon="2.24003">
        <ele>98.6</ele>
        <time>2022-08-17T13:15:59Z</time>
      </trkpt>
      <trkpt lat="49.81218" lon="2.24002">
        <ele>98.5</ele>
        <time>2022-08-17T13:16:00Z</time>
      </trkpt>
      <trkpt lat="49.81217" lon="2.24002">
        <ele>98.5</ele>
        <time>2022-08-17T13:16:01Z</time>
      </trkpt>
      <trkpt lat="49.81216" lon="2.24001">
        <ele>98.4</ele>
        <time>2022-08-17T13:16:02Z</time>
      </trkpt>
      <trkpt lat="49.81214" lon="2.24">
        <ele>98.3</ele>
        <time>2022-08-17T13:16:03Z</time>
      </trkpt>
      <trkpt lat="49.81213" lon="2.23999">
        <ele>98.3</ele>
        <time>2022-08-17T13:16:04Z</time>
      </trkpt>
      <trkpt lat="49.81212" lon="2.23999">
        <ele>98.3</ele>
        <time>2022-08-17T13:16:06Z</time>
      </trkpt>
      <trkpt lat="49.8121" lon="2.23998">
        <ele>98.2</ele>
        <time>2022-08-17T13:16:07Z</time>
      </trkpt>
      <trkpt lat="49.81209" lon="2.23997">
        <ele>98.2</ele>
        <time>2022-08-17T13:16:08Z</time>
      </trkpt>
      <trkpt lat="49.81208" lon="2.23997">
        <ele>98.1</ele>
        <time>2022-08-17T13:16:09Z</time>
      </trkpt>
      <trkpt lat="49.81208" lon="2.23997">
        <ele>98.1</ele>
        <time>2022-08-17T13:16:10Z</time>
      </trkpt>
      <trkpt lat="49.81206" lon="2.23996">
        <ele>98</ele>
        <time>2022-08-17T13:16:11Z</time>
      </trkpt>
      <trkpt lat="49.81205" lon="2.23995">
        <ele>98</ele>
        <time>2022-08-17T13:16:12Z</time>
      </trkpt>
      <trkpt lat="49.81204" lon="2.23995">
        <ele>98</ele>
        <time>2022-08-17T13:16:13Z</time>
      </trkpt>
      <trkpt lat="49.81203" lon="2.23994">
        <ele>98</ele>
        <time>2022-08-17T13:16:14Z</time>
      </trkpt>
      <trkpt lat="49.81202" lon="2.23994">
        <ele>97.9</ele>
        <time>2022-08-17T13:16:16Z</time>
      </trkpt>
      <trkpt lat="49.81201" lon="2.23993">
        <ele>97.9</ele>
        <time>2022-08-17T13:16:17Z</time>
      </trkpt>
      <trkpt lat="49.812" lon="2.23993">
        <ele>97.9</ele>
        <time>2022-08-17T13:16:18Z</time>
      </trkpt>
      <trkpt lat="49.81199" lon="2.23992">
        <ele>97.9</ele>
        <time>2022-08-17T13:16:19Z</time>
      </trkpt>
      <trkpt lat="49.81198" lon="2.23992">
        <ele>97.9</ele>
        <time>2022-08-17T13:16:20Z</time>
      </trkpt>
      <trkpt lat="49.81197" lon="2.23991">
        <ele>97.8</ele>
        <time>2022-08-17T13:16:21Z</time>
      </trkpt>
      <trkpt lat="49.81196" lon="2.2399">
        <ele>97.8</ele>
        <time>2022-08-17T13:16:22Z</time>
      </trkpt>
      <trkpt lat="49.81194" lon="2.2399">
        <ele>97.8</ele>
        <time>2022-08-17T13:16:24Z</time>
      </trkpt>
      <trkpt lat="49.81193" lon="2.2399">
        <ele>97.8</ele>
        <time>2022-08-17T13:16:25Z</time>
      </trkpt>
      <trkpt lat="49.81192" lon="2.2399">
        <ele>97.8</ele>
        <time>2022-08-17T13:16:26Z</time>
      </trkpt>
      <trkpt lat="49.81191" lon="2.23989">
        <ele>97.8</ele>
        <time>2022-08-17T13:16:27Z</time>
      </trkpt>
      <trkpt lat="49.81189" lon="2.23988">
        <ele>97.8</ele>
        <time>2022-08-17T13:16:29Z</time>
      </trkpt>
      <trkpt lat="49.81188" lon="2.23988">
        <ele>97.8</ele>
        <time>2022-08-17T13:16:30Z</time>
      </trkpt>
      <trkpt lat="49.81186" lon="2.23987">
        <ele>97.8</ele>
        <time>2022-08-17T13:16:31Z</time>
      </trkpt>
      <trkpt lat="49.81185" lon="2.23987">
        <ele>97.8</ele>
        <time>2022-08-17T13:16:32Z</time>
      </trkpt>
      <trkpt lat="49.81184" lon="2.23987">
        <ele>97.8</ele>
        <time>2022-08-17T13:16:33Z</time>
      </trkpt>
      <trkpt lat="49.81183" lon="2.23986">
        <ele>97.8</ele>
        <time>2022-08-17T13:16:34Z</time>
      </trkpt>
      <trkpt lat="49.81182" lon="2.23986">
        <ele>97.8</ele>
        <time>2022-08-17T13:16:35Z</time>
      </trkpt>
      <trkpt lat="49.81181" lon="2.23985">
        <ele>97.8</ele>
        <time>2022-08-17T13:16:37Z</time>
      </trkpt>
      <trkpt lat="49.8118" lon="2.23985">
        <ele>97.8</ele>
        <time>2022-08-17T13:16:38Z</time>
      </trkpt>
      <trkpt lat="49.81178" lon="2.23984">
        <ele>97.8</ele>
        <time>2022-08-17T13:16:39Z</time>
      </trkpt>
      <trkpt lat="49.81178" lon="2.23984">
        <ele>97.8</ele>
        <time>2022-08-17T13:16:40Z</time>
      </trkpt>
      <trkpt lat="49.81177" lon="2.23984">
        <ele>97.8</ele>
        <time>2022-08-17T13:16:41Z</time>
      </trkpt>
      <trkpt lat="49.81176" lon="2.23984">
        <ele>97.8</ele>
        <time>2022-08-17T13:16:42Z</time>
      </trkpt>
      <trkpt lat="49.81174" lon="2.23983">
        <ele>97.8</ele>
        <time>2022-08-17T13:16:43Z</time>
      </trkpt>
      <trkpt lat="49.81173" lon="2.23983">
        <ele>97.8</ele>
        <time>2022-08-17T13:16:44Z</time>
      </trkpt>
      <trkpt lat="49.81172" lon="2.23982">
        <ele>97.8</ele>
        <time>2022-08-17T13:16:45Z</time>
      </trkpt>
      <trkpt lat="49.8117" lon="2.23982">
        <ele>97.8</ele>
        <time>2022-08-17T13:16:46Z</time>
      </trkpt>
      <trkpt lat="49.81169" lon="2.23981">
        <ele>97.8</ele>
        <time>2022-08-17T13:16:48Z</time>
      </trkpt>
      <trkpt lat="49.81167" lon="2.2398">
        <ele>97.8</ele>
        <time>2022-08-17T13:16:49Z</time>
      </trkpt>
      <trkpt lat="49.81167" lon="2.2398">
        <ele>97.8</ele>
        <time>2022-08-17T13:16:50Z</time>
      </trkpt>
      <trkpt lat="49.81166" lon="2.2398">
        <ele>97.9</ele>
        <time>2022-08-17T13:16:51Z</time>
      </trkpt>
      <trkpt lat="49.81164" lon="2.23979">
        <ele>97.9</ele>
        <time>2022-08-17T13:16:52Z</time>
      </trkpt>
      <trkpt lat="49.81163" lon="2.23979">
        <ele>97.9</ele>
        <time>2022-08-17T13:16:53Z</time>
      </trkpt>
      <trkpt lat="49.81162" lon="2.23978">
        <ele>97.9</ele>
        <time>2022-08-17T13:16:54Z</time>
      </trkpt>
      <trkpt lat="49.81161" lon="2.23978">
        <ele>97.9</ele>
        <time>2022-08-17T13:16:55Z</time>
      </trkpt>
      <trkpt lat="49.8116" lon="2.23977">
        <ele>97.9</ele>
        <time>2022-08-17T13:16:56Z</time>
      </trkpt>
      <trkpt lat="49.81159" lon="2.23976">
        <ele>97.9</ele>
        <time>2022-08-17T13:16:58Z</time>
      </trkpt>
      <trkpt lat="49.81157" lon="2.23975">
        <ele>97.9</ele>
        <time>2022-08-17T13:16:59Z</time>
      </trkpt>
      <trkpt lat="49.81156" lon="2.23975">
        <ele>97.9</ele>
        <time>2022-08-17T13:17:00Z</time>
      </trkpt>
      <trkpt lat="49.81155" lon="2.23974">
        <ele>97.9</ele>
        <time>2022-08-17T13:17:01Z</time>
      </trkpt>
      <trkpt lat="49.81154" lon="2.23974">
        <ele>98</ele>
        <time>2022-08-17T13:17:02Z</time>
      </trkpt>
      <trkpt lat="49.81153" lon="2.23973">
        <ele>98</ele>
        <time>2022-08-17T13:17:03Z</time>
      </trkpt>
      <trkpt lat="49.81152" lon="2.23972">
        <ele>98</ele>
        <time>2022-08-17T13:17:04Z</time>
      </trkpt>
      <trkpt lat="49.81151" lon="2.23972">
        <ele>98</ele>
        <time>2022-08-17T13:17:05Z</time>
      </trkpt>
      <trkpt lat="49.8115" lon="2.23972">
        <ele>98</ele>
        <time>2022-08-17T13:17:06Z</time>
      </trkpt>
      <trkpt lat="49.81148" lon="2.23971">
        <ele>98</ele>
        <time>2022-08-17T13:17:07Z</time>
      </trkpt>
      <trkpt lat="49.81147" lon="2.23971">
        <ele>98</ele>
        <time>2022-08-17T13:17:09Z</time>
      </trkpt>
      <trkpt lat="49.81146" lon="2.2397">
        <ele>98</ele>
        <time>2022-08-17T13:17:10Z</time>
      </trkpt>
      <trkpt lat="49.81145" lon="2.23969">
        <ele>98</ele>
        <time>2022-08-17T13:17:11Z</time>
      </trkpt>
      <trkpt lat="49.81144" lon="2.23969">
        <ele>98</ele>
        <time>2022-08-17T13:17:12Z</time>
      </trkpt>
      <trkpt lat="49.81143" lon="2.23968">
        <ele>98.1</ele>
        <time>2022-08-17T13:17:13Z</time>
      </trkpt>
      <trkpt lat="49.81142" lon="2.23967">
        <ele>98.1</ele>
        <time>2022-08-17T13:17:14Z</time>
      </trkpt>
      <trkpt lat="49.8114" lon="2.23967">
        <ele>98.1</ele>
        <time>2022-08-17T13:17:15Z</time>
      </trkpt>
      <trkpt lat="49.81139" lon="2.23965">
        <ele>98.1</ele>
        <time>2022-08-17T13:17:16Z</time>
      </trkpt>
      <trkpt lat="49.81138" lon="2.23964">
        <ele>98.1</ele>
        <time>2022-08-17T13:17:17Z</time>
      </trkpt>
      <trkpt lat="49.81137" lon="2.23963">
        <ele>98.2</ele>
        <time>2022-08-17T13:17:19Z</time>
      </trkpt>
      <trkpt lat="49.81135" lon="2.23962">
        <ele>98.2</ele>
        <time>2022-08-17T13:17:20Z</time>
      </trkpt>
      <trkpt lat="49.81133" lon="2.23961">
        <ele>98.2</ele>
        <time>2022-08-17T13:17:21Z</time>
      </trkpt>
      <trkpt lat="49.81132" lon="2.23961">
        <ele>98.2</ele>
        <time>2022-08-17T13:17:22Z</time>
      </trkpt>
      <trkpt lat="49.81131" lon="2.2396">
        <ele>98.3</ele>
        <time>2022-08-17T13:17:23Z</time>
      </trkpt>
      <trkpt lat="49.8113" lon="2.2396">
        <ele>98.3</ele>
        <time>2022-08-17T13:17:24Z</time>
      </trkpt>
      <trkpt lat="49.81129" lon="2.23959">
        <ele>98.3</ele>
        <time>2022-08-17T13:17:25Z</time>
      </trkpt>
      <trkpt lat="49.81128" lon="2.23959">
        <ele>98.3</ele>
        <time>2022-08-17T13:17:27Z</time>
      </trkpt>
      <trkpt lat="49.81126" lon="2.23958">
        <ele>98.4</ele>
        <time>2022-08-17T13:17:28Z</time>
      </trkpt>
      <trkpt lat="49.81125" lon="2.23957">
        <ele>98.4</ele>
        <time>2022-08-17T13:17:29Z</time>
      </trkpt>
      <trkpt lat="49.81124" lon="2.23957">
        <ele>98.4</ele>
        <time>2022-08-17T13:17:30Z</time>
      </trkpt>
      <trkpt lat="49.81123" lon="2.23956">
        <ele>98.5</ele>
        <time>2022-08-17T13:17:31Z</time>
      </trkpt>
      <trkpt lat="49.81121" lon="2.23955">
        <ele>98.5</ele>
        <time>2022-08-17T13:17:33Z</time>
      </trkpt>
      <trkpt lat="49.8112" lon="2.23954">
        <ele>98.5</ele>
        <time>2022-08-17T13:17:34Z</time>
      </trkpt>
      <trkpt lat="49.8112" lon="2.23953">
        <ele>98.5</ele>
        <time>2022-08-17T13:17:35Z</time>
      </trkpt>
      <trkpt lat="49.81119" lon="2.23953">
        <ele>98.6</ele>
        <time>2022-08-17T13:17:36Z</time>
      </trkpt>
      <trkpt lat="49.81118" lon="2.23952">
        <ele>98.6</ele>
        <time>2022-08-17T13:17:37Z</time>
      </trkpt>
      <trkpt lat="49.81116" lon="2.23952">
        <ele>98.6</ele>
        <time>2022-08-17T13:17:38Z</time>
      </trkpt>
      <trkpt lat="49.81115" lon="2.23951">
        <ele>98.6</ele>
        <time>2022-08-17T13:17:39Z</time>
      </trkpt>
      <trkpt lat="49.81114" lon="2.23951">
        <ele>98.7</ele>
        <time>2022-08-17T13:17:40Z</time>
      </trkpt>
      <trkpt lat="49.81113" lon="2.2395">
        <ele>98.7</ele>
        <time>2022-08-17T13:17:41Z</time>
      </trkpt>
      <trkpt lat="49.81111" lon="2.2395">
        <ele>98.7</ele>
        <time>2022-08-17T13:17:43Z</time>
      </trkpt>
      <trkpt lat="49.8111" lon="2.23949">
        <ele>98.7</ele>
        <time>2022-08-17T13:17:44Z</time>
      </trkpt>
      <trkpt lat="49.81108" lon="2.23949">
        <ele>98.8</ele>
        <time>2022-08-17T13:17:45Z</time>
      </trkpt>
      <trkpt lat="49.81107" lon="2.23948">
        <ele>98.8</ele>
        <time>2022-08-17T13:17:46Z</time>
      </trkpt>
      <trkpt lat="49.81107" lon="2.23947">
        <ele>98.8</ele>
        <time>2022-08-17T13:17:47Z</time>
      </trkpt>
      <trkpt lat="49.81106" lon="2.23946">
        <ele>98.8</ele>
        <time>2022-08-17T13:17:48Z</time>
      </trkpt>
      <trkpt lat="49.81104" lon="2.23945">
        <ele>98.9</ele>
        <time>2022-08-17T13:17:50Z</time>
      </trkpt>
      <trkpt lat="49.81103" lon="2.23944">
        <ele>98.9</ele>
        <time>2022-08-17T13:17:51Z</time>
      </trkpt>
      <trkpt lat="49.81102" lon="2.23944">
        <ele>98.9</ele>
        <time>2022-08-17T13:17:52Z</time>
      </trkpt>
      <trkpt lat="49.81101" lon="2.23943">
        <ele>98.9</ele>
        <time>2022-08-17T13:17:53Z</time>
      </trkpt>
      <trkpt lat="49.81099" lon="2.23941">
        <ele>99</ele>
        <time>2022-08-17T13:17:54Z</time>
      </trkpt>
      <trkpt lat="49.81098" lon="2.23941">
        <ele>99</ele>
        <time>2022-08-17T13:17:55Z</time>
      </trkpt>
      <trkpt lat="49.81097" lon="2.23941">
        <ele>99</ele>
        <time>2022-08-17T13:17:56Z</time>
      </trkpt>
      <trkpt lat="49.81096" lon="2.2394">
        <ele>99</ele>
        <time>2022-08-17T13:17:57Z</time>
      </trkpt>
      <trkpt lat="49.81094" lon="2.23939">
        <ele>99.1</ele>
        <time>2022-08-17T13:17:58Z</time>
      </trkpt>
      <trkpt lat="49.81092" lon="2.23938">
        <ele>99.1</ele>
        <time>2022-08-17T13:18:00Z</time>
      </trkpt>
      <trkpt lat="49.81091" lon="2.23937">
        <ele>99.1</ele>
        <time>2022-08-17T13:18:01Z</time>
      </trkpt>
      <trkpt lat="49.81089" lon="2.23937">
        <ele>99.1</ele>
        <time>2022-08-17T13:18:02Z</time>
      </trkpt>
      <trkpt lat="49.81088" lon="2.23936">
        <ele>99.2</ele>
        <time>2022-08-17T13:18:03Z</time>
      </trkpt>
      <trkpt lat="49.81085" lon="2.23935">
        <ele>99.2</ele>
        <time>2022-08-17T13:18:04Z</time>
      </trkpt>
      <trkpt lat="49.81084" lon="2.23934">
        <ele>99.2</ele>
        <time>2022-08-17T13:18:05Z</time>
      </trkpt>
      <trkpt lat="49.81081" lon="2.23933">
        <ele>99.3</ele>
        <time>2022-08-17T13:18:06Z</time>
      </trkpt>
      <trkpt lat="49.8108" lon="2.23933">
        <ele>99.3</ele>
        <time>2022-08-17T13:18:07Z</time>
      </trkpt>
      <trkpt lat="49.81079" lon="2.23932">
        <ele>99.3</ele>
        <time>2022-08-17T13:18:08Z</time>
      </trkpt>
      <trkpt lat="49.81077" lon="2.23931">
        <ele>99.3</ele>
        <time>2022-08-17T13:18:10Z</time>
      </trkpt>
      <trkpt lat="49.81076" lon="2.23931">
        <ele>99.3</ele>
        <time>2022-08-17T13:18:11Z</time>
      </trkpt>
      <trkpt lat="49.81074" lon="2.2393">
        <ele>99.3</ele>
        <time>2022-08-17T13:18:12Z</time>
      </trkpt>
      <trkpt lat="49.81074" lon="2.2393">
        <ele>99.3</ele>
        <time>2022-08-17T13:18:13Z</time>
      </trkpt>
      <trkpt lat="49.81073" lon="2.2393">
        <ele>99.3</ele>
        <time>2022-08-17T13:18:14Z</time>
      </trkpt>
      <trkpt lat="49.81074" lon="2.23931">
        <ele>99.3</ele>
        <time>2022-08-17T13:18:15Z</time>
      </trkpt>
      <trkpt lat="49.81073" lon="2.23931">
        <ele>99.3</ele>
        <time>2022-08-17T13:18:16Z</time>
      </trkpt>
      <trkpt lat="49.81073" lon="2.2393">
        <ele>99.3</ele>
        <time>2022-08-17T13:18:17Z</time>
      </trkpt>
      <trkpt lat="49.81071" lon="2.2393">
        <ele>99.3</ele>
        <time>2022-08-17T13:18:18Z</time>
      </trkpt>
      <trkpt lat="49.8107" lon="2.23929">
        <ele>99.4</ele>
        <time>2022-08-17T13:18:19Z</time>
      </trkpt>
      <trkpt lat="49.81068" lon="2.23928">
        <ele>99.4</ele>
        <time>2022-08-17T13:18:20Z</time>
      </trkpt>
      <trkpt lat="49.81067" lon="2.23928">
        <ele>99.4</ele>
        <time>2022-08-17T13:18:22Z</time>
      </trkpt>
      <trkpt lat="49.81066" lon="2.23927">
        <ele>99.4</ele>
        <time>2022-08-17T13:18:23Z</time>
      </trkpt>
      <trkpt lat="49.81065" lon="2.23927">
        <ele>99.4</ele>
        <time>2022-08-17T13:18:24Z</time>
      </trkpt>
      <trkpt lat="49.81065" lon="2.23927">
        <ele>99.4</ele>
        <time>2022-08-17T13:18:25Z</time>
      </trkpt>
      <trkpt lat="49.81064" lon="2.23927">
        <ele>99.4</ele>
        <time>2022-08-17T13:18:26Z</time>
      </trkpt>
      <trkpt lat="49.81064" lon="2.23928">
        <ele>99.4</ele>
        <time>2022-08-17T13:18:27Z</time>
      </trkpt>
      <trkpt lat="49.81063" lon="2.23927">
        <ele>99.4</ele>
        <time>2022-08-17T13:18:28Z</time>
      </trkpt>
      <trkpt lat="49.81062" lon="2.23927">
        <ele>99.4</ele>
        <time>2022-08-17T13:18:29Z</time>
      </trkpt>
      <trkpt lat="49.81061" lon="2.23926">
        <ele>99.4</ele>
        <time>2022-08-17T13:18:30Z</time>
      </trkpt>
      <trkpt lat="49.8106" lon="2.23926">
        <ele>99.4</ele>
        <time>2022-08-17T13:18:31Z</time>
      </trkpt>
      <trkpt lat="49.81059" lon="2.23925">
        <ele>99.4</ele>
        <time>2022-08-17T13:18:33Z</time>
      </trkpt>
      <trkpt lat="49.81057" lon="2.23924">
        <ele>99.4</ele>
        <time>2022-08-17T13:18:34Z</time>
      </trkpt>
      <trkpt lat="49.81056" lon="2.23924">
        <ele>99.4</ele>
        <time>2022-08-17T13:18:35Z</time>
      </trkpt>
      <trkpt lat="49.81055" lon="2.23923">
        <ele>99.4</ele>
        <time>2022-08-17T13:18:36Z</time>
      </trkpt>
      <trkpt lat="49.81054" lon="2.23923">
        <ele>99.4</ele>
        <time>2022-08-17T13:18:37Z</time>
      </trkpt>
      <trkpt lat="49.81053" lon="2.23923">
        <ele>99.4</ele>
        <time>2022-08-17T13:18:38Z</time>
      </trkpt>
      <trkpt lat="49.81052" lon="2.23922">
        <ele>99.4</ele>
        <time>2022-08-17T13:18:39Z</time>
      </trkpt>
      <trkpt lat="49.81051" lon="2.23922">
        <ele>99.4</ele>
        <time>2022-08-17T13:18:40Z</time>
      </trkpt>
      <trkpt lat="49.81049" lon="2.23921">
        <ele>99.3</ele>
        <time>2022-08-17T13:18:41Z</time>
      </trkpt>
      <trkpt lat="49.81048" lon="2.23921">
        <ele>99.3</ele>
        <time>2022-08-17T13:18:42Z</time>
      </trkpt>
      <trkpt lat="49.81047" lon="2.23921">
        <ele>99.3</ele>
        <time>2022-08-17T13:18:43Z</time>
      </trkpt>
      <trkpt lat="49.81046" lon="2.23921">
        <ele>99.3</ele>
        <time>2022-08-17T13:18:44Z</time>
      </trkpt>
      <trkpt lat="49.81045" lon="2.23921">
        <ele>99.3</ele>
        <time>2022-08-17T13:18:46Z</time>
      </trkpt>
      <trkpt lat="49.81043" lon="2.2392">
        <ele>99.2</ele>
        <time>2022-08-17T13:18:47Z</time>
      </trkpt>
      <trkpt lat="49.81042" lon="2.2392">
        <ele>99.2</ele>
        <time>2022-08-17T13:18:48Z</time>
      </trkpt>
      <trkpt lat="49.81041" lon="2.2392">
        <ele>99.2</ele>
        <time>2022-08-17T13:18:49Z</time>
      </trkpt>
      <trkpt lat="49.8104" lon="2.2392">
        <ele>99.2</ele>
        <time>2022-08-17T13:18:50Z</time>
      </trkpt>
      <trkpt lat="49.81038" lon="2.2392">
        <ele>99.1</ele>
        <time>2022-08-17T13:18:51Z</time>
      </trkpt>
      <trkpt lat="49.81037" lon="2.2392">
        <ele>99.1</ele>
        <time>2022-08-17T13:18:52Z</time>
      </trkpt>
      <trkpt lat="49.81036" lon="2.2392">
        <ele>99.1</ele>
        <time>2022-08-17T13:18:53Z</time>
      </trkpt>
      <trkpt lat="49.81034" lon="2.2392">
        <ele>99</ele>
        <time>2022-08-17T13:18:54Z</time>
      </trkpt>
      <trkpt lat="49.81033" lon="2.23919">
        <ele>99</ele>
        <time>2022-08-17T13:18:55Z</time>
      </trkpt>
      <trkpt lat="49.81031" lon="2.23919">
        <ele>98.9</ele>
        <time>2022-08-17T13:18:57Z</time>
      </trkpt>
      <trkpt lat="49.81029" lon="2.23919">
        <ele>98.9</ele>
        <time>2022-08-17T13:18:58Z</time>
      </trkpt>
      <trkpt lat="49.81028" lon="2.23919">
        <ele>98.8</ele>
        <time>2022-08-17T13:18:59Z</time>
      </trkpt>
      <trkpt lat="49.81027" lon="2.23919">
        <ele>98.8</ele>
        <time>2022-08-17T13:19:00Z</time>
      </trkpt>
      <trkpt lat="49.81025" lon="2.23919">
        <ele>98.7</ele>
        <time>2022-08-17T13:19:01Z</time>
      </trkpt>
      <trkpt lat="49.81024" lon="2.23919">
        <ele>98.7</ele>
        <time>2022-08-17T13:19:02Z</time>
      </trkpt>
      <trkpt lat="49.81023" lon="2.23919">
        <ele>98.7</ele>
        <time>2022-08-17T13:19:03Z</time>
      </trkpt>
      <trkpt lat="49.81021" lon="2.23918">
        <ele>98.6</ele>
        <time>2022-08-17T13:19:05Z</time>
      </trkpt>
      <trkpt lat="49.8102" lon="2.23918">
        <ele>98.6</ele>
        <time>2022-08-17T13:19:06Z</time>
      </trkpt>
      <trkpt lat="49.81018" lon="2.23919">
        <ele>98.5</ele>
        <time>2022-08-17T13:19:07Z</time>
      </trkpt>
      <trkpt lat="49.81016" lon="2.23919">
        <ele>98.4</ele>
        <time>2022-08-17T13:19:08Z</time>
      </trkpt>
      <trkpt lat="49.81015" lon="2.23919">
        <ele>98.3</ele>
        <time>2022-08-17T13:19:09Z</time>
      </trkpt>
      <trkpt lat="49.81014" lon="2.23919">
        <ele>98.3</ele>
        <time>2022-08-17T13:19:10Z</time>
      </trkpt>
      <trkpt lat="49.81013" lon="2.23918">
        <ele>98.2</ele>
        <time>2022-08-17T13:19:11Z</time>
      </trkpt>
      <trkpt lat="49.81012" lon="2.23919">
        <ele>98.2</ele>
        <time>2022-08-17T13:19:12Z</time>
      </trkpt>
      <trkpt lat="49.81011" lon="2.23919">
        <ele>98.1</ele>
        <time>2022-08-17T13:19:13Z</time>
      </trkpt>
      <trkpt lat="49.8101" lon="2.23919">
        <ele>98.1</ele>
        <time>2022-08-17T13:19:15Z</time>
      </trkpt>
      <trkpt lat="49.81009" lon="2.23919">
        <ele>98</ele>
        <time>2022-08-17T13:19:16Z</time>
      </trkpt>
      <trkpt lat="49.81006" lon="2.23919">
        <ele>97.9</ele>
        <time>2022-08-17T13:19:17Z</time>
      </trkpt>
      <trkpt lat="49.81006" lon="2.23919">
        <ele>97.8</ele>
        <time>2022-08-17T13:19:18Z</time>
      </trkpt>
      <trkpt lat="49.81005" lon="2.23919">
        <ele>97.8</ele>
        <time>2022-08-17T13:19:19Z</time>
      </trkpt>
      <trkpt lat="49.81004" lon="2.23919">
        <ele>97.7</ele>
        <time>2022-08-17T13:19:20Z</time>
      </trkpt>
      <trkpt lat="49.81002" lon="2.2392">
        <ele>97.6</ele>
        <time>2022-08-17T13:19:21Z</time>
      </trkpt>
      <trkpt lat="49.81002" lon="2.2392">
        <ele>97.6</ele>
        <time>2022-08-17T13:19:22Z</time>
      </trkpt>
      <trkpt lat="49.81001" lon="2.23919">
        <ele>97.5</ele>
        <time>2022-08-17T13:19:23Z</time>
      </trkpt>
      <trkpt lat="49.81" lon="2.23919">
        <ele>97.4</ele>
        <time>2022-08-17T13:19:25Z</time>
      </trkpt>
      <trkpt lat="49.80998" lon="2.23919">
        <ele>97.3</ele>
        <time>2022-08-17T13:19:26Z</time>
      </trkpt>
      <trkpt lat="49.83526" lon="2.2122">
        <ele>55.1</ele>
        <time>2022-08-17T14:44:55Z</time>
      </trkpt>
    </trkseg>
  </trk>
</gpx>